<?xml version='1.0' encoding='UTF-8'?><gpx version="1.1" creator="JPX - https://github.com/jenetics/jpx" xmlns="http://www.topografix.com/GPX/1/1"><trk><trkseg><trkpt lat="45.88781749820069" lon="9.142749249254756"><ele>222.99999999999997</ele><time>2026-04-04T12:15:43Z</time></trkpt><trkpt lat="45.887756243971246" lon="9.142708592874191"><ele>223.0</ele><time>2026-04-04T12:19:01Z</time></trkpt><trkpt lat="45.88768381542832" lon="9.142720180845709"><ele>223.0</ele><time>2026-04-04T12:19:19Z</time></trkpt><trkpt lat="45.8876210745989" lon="9.142708120263874"><ele>223.0</ele><time>2026-04-04T12:19:20Z</time></trkpt><trkpt lat="45.887517595651715" lon="9.1426649703816"><ele>222.99999999999997</ele><time>2026-04-04T12:19:22Z</time></trkpt><trkpt lat="45.887455135184666" lon="9.142633273809425"><ele>223.0</ele><time>2026-04-04T12:19:23Z</time></trkpt><trkpt lat="45.887384750189845" lon="9.142592101324546"><ele>224.60000000000002</ele><time>2026-04-04T12:19:24Z</time></trkpt><trkpt lat="45.887323708385814" lon="9.142540723441792"><ele>226.20000000000002</ele><time>2026-04-04T12:19:25Z</time></trkpt><trkpt lat="45.8872686101414" lon="9.142490113408265"><ele>227.8</ele><time>2026-04-04T12:19:26Z</time></trkpt><trkpt lat="45.8871646703453" lon="9.142399710824176"><ele>229.4</ele><time>2026-04-04T12:19:28Z</time></trkpt><trkpt lat="45.887049352022366" lon="9.142300973648984"><ele>231.0</ele><time>2026-04-04T12:19:30Z</time></trkpt><trkpt lat="45.88697034748922" lon="9.142258163694548"><ele>231.0</ele><time>2026-04-04T12:19:31Z</time></trkpt><trkpt lat="45.886888631326" lon="9.142218467090265"><ele>231.0</ele><time>2026-04-04T12:19:32Z</time></trkpt><trkpt lat="45.886809206753846" lon="9.142202869700427"><ele>231.0</ele><time>2026-04-04T12:19:33Z</time></trkpt><trkpt lat="45.886721106230745" lon="9.142189680745403"><ele>231.0</ele><time>2026-04-04T12:19:34Z</time></trkpt><trkpt lat="45.88663508420472" lon="9.142161457515021"><ele>231.0</ele><time>2026-04-04T12:19:35Z</time></trkpt><trkpt lat="45.88655117695848" lon="9.142153634304496"><ele>231.0</ele><time>2026-04-04T12:19:36Z</time></trkpt><trkpt lat="45.886472937879546" lon="9.142142719458146"><ele>228.60000000000002</ele><time>2026-04-04T12:19:37Z</time></trkpt><trkpt lat="45.886347069857564" lon="9.142137154639212"><ele>226.20000000000002</ele><time>2026-04-04T12:19:39Z</time></trkpt><trkpt lat="45.886264081048346" lon="9.142113274633601"><ele>223.79999999999998</ele><time>2026-04-04T12:19:40Z</time></trkpt><trkpt lat="45.88617862581783" lon="9.142104557451797"><ele>221.39999999999998</ele><time>2026-04-04T12:19:41Z</time></trkpt><trkpt lat="45.88609362483551" lon="9.142103337436081"><ele>219.0</ele><time>2026-04-04T12:19:42Z</time></trkpt><trkpt lat="45.88601014415505" lon="9.142086248021727"><ele>219.83333333333334</ele><time>2026-04-04T12:19:43Z</time></trkpt><trkpt lat="45.88592779955205" lon="9.14206093096972"><ele>220.66666666666669</ele><time>2026-04-04T12:19:44Z</time></trkpt><trkpt lat="45.88584990944814" lon="9.14204954059836"><ele>221.5</ele><time>2026-04-04T12:19:45Z</time></trkpt><trkpt lat="45.88576171462369" lon="9.142044179413348"><ele>222.33333333333334</ele><time>2026-04-04T12:19:46Z</time></trkpt><trkpt lat="45.88567349897546" lon="9.14204395370201"><ele>223.16666666666669</ele><time>2026-04-04T12:19:47Z</time></trkpt><trkpt lat="45.88558439133964" lon="9.14202954089116"><ele>224.0</ele><time>2026-04-04T12:19:48Z</time></trkpt><trkpt lat="45.88549116599546" lon="9.142020820374842"><ele>224.0</ele><time>2026-04-04T12:19:49Z</time></trkpt><trkpt lat="45.885408423877074" lon="9.142006200827367"><ele>223.99999999999997</ele><time>2026-04-04T12:19:50Z</time></trkpt><trkpt lat="45.88531272458469" lon="9.141971822905633"><ele>223.99999999999997</ele><time>2026-04-04T12:19:51Z</time></trkpt><trkpt lat="45.88521937944267" lon="9.141913533495313"><ele>224.0</ele><time>2026-04-04T12:19:52Z</time></trkpt><trkpt lat="45.885132273793914" lon="9.141842958037016"><ele>224.0</ele><time>2026-04-04T12:19:53Z</time></trkpt><trkpt lat="45.88505679298495" lon="9.141759724439735"><ele>225.2</ele><time>2026-04-04T12:19:54Z</time></trkpt><trkpt lat="45.88498828040186" lon="9.141671434798406"><ele>226.39999999999998</ele><time>2026-04-04T12:19:55Z</time></trkpt><trkpt lat="45.884906256003866" lon="9.141592081896379"><ele>227.6</ele><time>2026-04-04T12:19:56Z</time></trkpt><trkpt lat="45.8848290266616" lon="9.141502213124035"><ele>228.8</ele><time>2026-04-04T12:19:57Z</time></trkpt><trkpt lat="45.884744354716354" lon="9.141428673123436"><ele>230.0</ele><time>2026-04-04T12:19:58Z</time></trkpt><trkpt lat="45.88466373689817" lon="9.141362366103015"><ele>230.0</ele><time>2026-04-04T12:19:59Z</time></trkpt><trkpt lat="45.88460681978053" lon="9.141287039163217"><ele>230.0</ele><time>2026-04-04T12:20:00Z</time></trkpt><trkpt lat="45.88453707511952" lon="9.141224931570928"><ele>230.0</ele><time>2026-04-04T12:20:01Z</time></trkpt><trkpt lat="45.88444713898247" lon="9.141150497221718"><ele>230.0</ele><time>2026-04-04T12:20:02Z</time></trkpt><trkpt lat="45.884356686397474" lon="9.141066660546695"><ele>230.0</ele><time>2026-04-04T12:20:03Z</time></trkpt><trkpt lat="45.88427796581037" lon="9.14096622103791"><ele>229.8</ele><time>2026-04-04T12:20:04Z</time></trkpt><trkpt lat="45.88418777408929" lon="9.140914671267877"><ele>229.6</ele><time>2026-04-04T12:20:05Z</time></trkpt><trkpt lat="45.8841146444999" lon="9.140848746455314"><ele>229.39999999999998</ele><time>2026-04-04T12:20:06Z</time></trkpt><trkpt lat="45.88403514611959" lon="9.140763441978807"><ele>229.2</ele><time>2026-04-04T12:20:07Z</time></trkpt><trkpt lat="45.8839464203267" lon="9.140683982865259"><ele>229.0</ele><time>2026-04-04T12:20:08Z</time></trkpt><trkpt lat="45.88386744433535" lon="9.140607154334182"><ele>229.0</ele><time>2026-04-04T12:20:09Z</time></trkpt><trkpt lat="45.88379177324987" lon="9.14052385757196"><ele>228.99999999999997</ele><time>2026-04-04T12:20:10Z</time></trkpt><trkpt lat="45.88371901443834" lon="9.140432231439883"><ele>228.99999999999997</ele><time>2026-04-04T12:20:11Z</time></trkpt><trkpt lat="45.883640797540544" lon="9.140342008601518"><ele>229.0</ele><time>2026-04-04T12:20:12Z</time></trkpt><trkpt lat="45.88356475109729" lon="9.140262339308332"><ele>229.0</ele><time>2026-04-04T12:20:13Z</time></trkpt><trkpt lat="45.883474895929076" lon="9.140176270402215"><ele>229.6</ele><time>2026-04-04T12:20:14Z</time></trkpt><trkpt lat="45.88341086273537" lon="9.14007461496411"><ele>230.2</ele><time>2026-04-04T12:20:15Z</time></trkpt><trkpt lat="45.8833308490996" lon="9.139988470219329"><ele>230.79999999999998</ele><time>2026-04-04T12:20:16Z</time></trkpt><trkpt lat="45.88323843232634" lon="9.139918222145928"><ele>231.39999999999998</ele><time>2026-04-04T12:20:17Z</time></trkpt><trkpt lat="45.88315034103692" lon="9.139887635181047"><ele>232.0</ele><time>2026-04-04T12:20:18Z</time></trkpt><trkpt lat="45.883050575451314" lon="9.139873808223237"><ele>232.0</ele><time>2026-04-04T12:20:19Z</time></trkpt><trkpt lat="45.8829418993964" lon="9.13988461807241"><ele>232.0</ele><time>2026-04-04T12:20:20Z</time></trkpt><trkpt lat="45.882839113800095" lon="9.139878091268013"><ele>232.0</ele><time>2026-04-04T12:20:21Z</time></trkpt><trkpt lat="45.88273852310347" lon="9.139823424933043"><ele>232.0</ele><time>2026-04-04T12:20:22Z</time></trkpt><trkpt lat="45.8826399893981" lon="9.139746547469182"><ele>232.0</ele><time>2026-04-04T12:20:23Z</time></trkpt><trkpt lat="45.8825374973405" lon="9.139672424844505"><ele>229.0</ele><time>2026-04-04T12:20:24Z</time></trkpt><trkpt lat="45.8824360806422" lon="9.139598768968307"><ele>226.0</ele><time>2026-04-04T12:20:25Z</time></trkpt><trkpt lat="45.88233271275394" lon="9.139517909754755"><ele>223.0</ele><time>2026-04-04T12:20:26Z</time></trkpt><trkpt lat="45.882230001330115" lon="9.139439371938227"><ele>220.0</ele><time>2026-04-04T12:20:27Z</time></trkpt><trkpt lat="45.88212375821048" lon="9.139382309544239"><ele>220.0</ele><time>2026-04-04T12:20:28Z</time></trkpt><trkpt lat="45.882010868234055" lon="9.139390804295942"><ele>220.0</ele><time>2026-04-04T12:20:29Z</time></trkpt><trkpt lat="45.88189250853103" lon="9.13939111495648"><ele>220.0</ele><time>2026-04-04T12:20:30Z</time></trkpt><trkpt lat="45.88179702941625" lon="9.139359500882458"><ele>220.0</ele><time>2026-04-04T12:20:31Z</time></trkpt><trkpt lat="45.88172306500159" lon="9.139316444762386"><ele>220.0</ele><time>2026-04-04T12:20:32Z</time></trkpt><trkpt lat="45.881645668686396" lon="9.13925197093362"><ele>219.0</ele><time>2026-04-04T12:20:33Z</time></trkpt><trkpt lat="45.88156079889443" lon="9.139194152837643"><ele>218.0</ele><time>2026-04-04T12:20:34Z</time></trkpt><trkpt lat="45.881480804009826" lon="9.139118156329845"><ele>217.0</ele><time>2026-04-04T12:20:35Z</time></trkpt><trkpt lat="45.88139254128213" lon="9.13903322035544"><ele>216.0</ele><time>2026-04-04T12:20:36Z</time></trkpt><trkpt lat="45.881306873828144" lon="9.138968140180804"><ele>215.0</ele><time>2026-04-04T12:20:37Z</time></trkpt><trkpt lat="45.88123109418094" lon="9.138890295661941"><ele>215.0</ele><time>2026-04-04T12:20:38Z</time></trkpt><trkpt lat="45.88115423777583" lon="9.138806844183783"><ele>215.0</ele><time>2026-04-04T12:20:39Z</time></trkpt><trkpt lat="45.88110392912801" lon="9.138687203787043"><ele>215.0</ele><time>2026-04-04T12:20:40Z</time></trkpt><trkpt lat="45.88105927794355" lon="9.138566047728977"><ele>215.0</ele><time>2026-04-04T12:20:41Z</time></trkpt><trkpt lat="45.8810348737146" lon="9.138443376194468"><ele>215.0</ele><time>2026-04-04T12:20:42Z</time></trkpt><trkpt lat="45.880986477572016" lon="9.138357032827756"><ele>213.8</ele><time>2026-04-04T12:20:43Z</time></trkpt><trkpt lat="45.88091181390223" lon="9.13827513229034"><ele>212.6</ele><time>2026-04-04T12:20:44Z</time></trkpt><trkpt lat="45.880823654388635" lon="9.138177979953019"><ele>211.39999999999998</ele><time>2026-04-04T12:20:45Z</time></trkpt><trkpt lat="45.880739776636545" lon="9.138091008125768"><ele>210.2</ele><time>2026-04-04T12:20:46Z</time></trkpt><trkpt lat="45.880649341215864" lon="9.138013285094107"><ele>209.0</ele><time>2026-04-04T12:20:47Z</time></trkpt><trkpt lat="45.880541662968746" lon="9.137975208789719"><ele>210.79999999999998</ele><time>2026-04-04T12:20:48Z</time></trkpt><trkpt lat="45.880437923400336" lon="9.137960880213079"><ele>212.6</ele><time>2026-04-04T12:20:49Z</time></trkpt><trkpt lat="45.8803264790534" lon="9.137969710839279"><ele>214.4</ele><time>2026-04-04T12:20:50Z</time></trkpt><trkpt lat="45.88022540823108" lon="9.138007077289425"><ele>216.2</ele><time>2026-04-04T12:20:51Z</time></trkpt><trkpt lat="45.88013250384505" lon="9.1380551265688"><ele>218.0</ele><time>2026-04-04T12:20:52Z</time></trkpt><trkpt lat="45.880044760297736" lon="9.138091904407023"><ele>218.0</ele><time>2026-04-04T12:20:53Z</time></trkpt><trkpt lat="45.879929399555" lon="9.138135924241913"><ele>218.0</ele><time>2026-04-04T12:20:54Z</time></trkpt><trkpt lat="45.87982363080117" lon="9.13816917051892"><ele>218.0</ele><time>2026-04-04T12:20:55Z</time></trkpt><trkpt lat="45.87972614634794" lon="9.138151695542456"><ele>218.0</ele><time>2026-04-04T12:20:56Z</time></trkpt><trkpt lat="45.87961783355509" lon="9.138136544694502"><ele>218.0</ele><time>2026-04-04T12:20:57Z</time></trkpt><trkpt lat="45.87950752453029" lon="9.138142709574643"><ele>218.00000000000003</ele><time>2026-04-04T12:20:58Z</time></trkpt><trkpt lat="45.879410446037866" lon="9.138143596467685"><ele>218.0</ele><time>2026-04-04T12:20:58.999Z</time></trkpt><trkpt lat="45.879317020404045" lon="9.13814941457746"><ele>218.0</ele><time>2026-04-04T12:20:59.999Z</time></trkpt><trkpt lat="45.87922820081065" lon="9.138134489875608"><ele>218.0</ele><time>2026-04-04T12:21:00.999Z</time></trkpt><trkpt lat="45.8791462928861" lon="9.138119818536113"><ele>218.00000000000003</ele><time>2026-04-04T12:21:01.999Z</time></trkpt><trkpt lat="45.87907227699156" lon="9.138074286820281"><ele>218.0</ele><time>2026-04-04T12:21:02.999Z</time></trkpt><trkpt lat="45.878998242771324" lon="9.138007487119404"><ele>217.4</ele><time>2026-04-04T12:21:03.999Z</time></trkpt><trkpt lat="45.878905943929055" lon="9.137937297420438"><ele>216.8</ele><time>2026-04-04T12:21:04.999Z</time></trkpt><trkpt lat="45.87882914310823" lon="9.137848332930531"><ele>216.2</ele><time>2026-04-04T12:21:05.999Z</time></trkpt><trkpt lat="45.87875725660607" lon="9.137754537476585"><ele>215.6</ele><time>2026-04-04T12:21:06.999Z</time></trkpt><trkpt lat="45.8787050866441" lon="9.137637904346926"><ele>215.0</ele><time>2026-04-04T12:21:07.999Z</time></trkpt><trkpt lat="45.8786370902315" lon="9.137521459419853"><ele>215.0</ele><time>2026-04-04T12:21:08.999Z</time></trkpt><trkpt lat="45.87857275923968" lon="9.137405714695845"><ele>215.0</ele><time>2026-04-04T12:21:09.999Z</time></trkpt><trkpt lat="45.878511967327924" lon="9.137293810419044"><ele>215.0</ele><time>2026-04-04T12:21:10.999Z</time></trkpt><trkpt lat="45.87845068840741" lon="9.137173726726685"><ele>215.0</ele><time>2026-04-04T12:21:11.999Z</time></trkpt><trkpt lat="45.87837406859322" lon="9.137058223815846"><ele>215.0</ele><time>2026-04-04T12:21:12.999Z</time></trkpt><trkpt lat="45.87831028935431" lon="9.136929851616092"><ele>214.8</ele><time>2026-04-04T12:21:13.999Z</time></trkpt><trkpt lat="45.878243360196514" lon="9.136808983962037"><ele>214.6</ele><time>2026-04-04T12:21:14.999Z</time></trkpt><trkpt lat="45.87817512901214" lon="9.136680574293564"><ele>214.39999999999998</ele><time>2026-04-04T12:21:15.999Z</time></trkpt><trkpt lat="45.87811089474105" lon="9.136548775568796"><ele>214.2</ele><time>2026-04-04T12:21:16.999Z</time></trkpt><trkpt lat="45.8780417609547" lon="9.136415577509853"><ele>214.0</ele><time>2026-04-04T12:21:17.999Z</time></trkpt><trkpt lat="45.87798410897025" lon="9.13627210010297"><ele>217.25</ele><time>2026-04-04T12:21:18.999Z</time></trkpt><trkpt lat="45.87795083038924" lon="9.136133450596029"><ele>220.5</ele><time>2026-04-04T12:21:19.999Z</time></trkpt><trkpt lat="45.87790816243652" lon="9.135982341246107"><ele>223.75</ele><time>2026-04-04T12:21:20.999Z</time></trkpt><trkpt lat="45.877882564562505" lon="9.135808189193485"><ele>227.0</ele><time>2026-04-04T12:21:21.999Z</time></trkpt><trkpt lat="45.87785229306933" lon="9.135641369153822"><ele>231.25</ele><time>2026-04-04T12:21:22.999Z</time></trkpt><trkpt lat="45.87780903906415" lon="9.13547987573499"><ele>235.5</ele><time>2026-04-04T12:21:23.999Z</time></trkpt><trkpt lat="45.877751301022705" lon="9.135344089319629"><ele>239.75</ele><time>2026-04-04T12:21:24.999Z</time></trkpt><trkpt lat="45.877674477927144" lon="9.135221687843746"><ele>244.0</ele><time>2026-04-04T12:21:25.999Z</time></trkpt><trkpt lat="45.877605398536446" lon="9.135084304709824"><ele>239.25</ele><time>2026-04-04T12:21:26.999Z</time></trkpt><trkpt lat="45.87752565607536" lon="9.134971367352302"><ele>234.5</ele><time>2026-04-04T12:21:27.999Z</time></trkpt><trkpt lat="45.877446289417634" lon="9.134820364679978"><ele>229.75</ele><time>2026-04-04T12:21:28.999Z</time></trkpt><trkpt lat="45.877373093362216" lon="9.134676619423615"><ele>225.0</ele><time>2026-04-04T12:21:29.999Z</time></trkpt><trkpt lat="45.87728030969427" lon="9.134549382431512"><ele>225.0</ele><time>2026-04-04T12:21:30.998Z</time></trkpt><trkpt lat="45.87718966274669" lon="9.134427620332056"><ele>225.0</ele><time>2026-04-04T12:21:31.998Z</time></trkpt><trkpt lat="45.877091273674196" lon="9.134286645524703"><ele>225.0</ele><time>2026-04-04T12:21:32.998Z</time></trkpt><trkpt lat="45.8769991863708" lon="9.134162817575701"><ele>225.0</ele><time>2026-04-04T12:21:33.998Z</time></trkpt><trkpt lat="45.876894852368864" lon="9.134064163051121"><ele>224.0</ele><time>2026-04-04T12:21:34.998Z</time></trkpt><trkpt lat="45.87679889756771" lon="9.133955956494617"><ele>223.0</ele><time>2026-04-04T12:21:35.998Z</time></trkpt><trkpt lat="45.87669943304627" lon="9.133849347609033"><ele>222.0</ele><time>2026-04-04T12:21:36.998Z</time></trkpt><trkpt lat="45.876604683960586" lon="9.13373981552647"><ele>221.0</ele><time>2026-04-04T12:21:37.998Z</time></trkpt><trkpt lat="45.87649414067195" lon="9.133618567451519"><ele>221.0</ele><time>2026-04-04T12:21:38.998Z</time></trkpt><trkpt lat="45.87639114811447" lon="9.133528162852166"><ele>221.0</ele><time>2026-04-04T12:21:39.998Z</time></trkpt><trkpt lat="45.87629202229045" lon="9.133426070329698"><ele>221.0</ele><time>2026-04-04T12:21:40.998Z</time></trkpt><trkpt lat="45.87619281526174" lon="9.133320995512548"><ele>221.0</ele><time>2026-04-04T12:21:41.998Z</time></trkpt><trkpt lat="45.8760976214396" lon="9.133218909165805"><ele>219.20000000000002</ele><time>2026-04-04T12:21:42.998Z</time></trkpt><trkpt lat="45.8760053230681" lon="9.133119463913555"><ele>217.40000000000003</ele><time>2026-04-04T12:21:43.998Z</time></trkpt><trkpt lat="45.875932909230436" lon="9.132999649334064"><ele>215.6</ele><time>2026-04-04T12:21:44.998Z</time></trkpt><trkpt lat="45.875868389284044" lon="9.132883704808943"><ele>213.8</ele><time>2026-04-04T12:21:45.998Z</time></trkpt><trkpt lat="45.87581562346805" lon="9.132764325050921"><ele>212.0</ele><time>2026-04-04T12:21:46.999Z</time></trkpt><trkpt lat="45.87576565297787" lon="9.132628896710617"><ele>212.0</ele><time>2026-04-04T12:21:47.999Z</time></trkpt><trkpt lat="45.875720720876764" lon="9.13249134238129"><ele>212.0</ele><time>2026-04-04T12:21:48.999Z</time></trkpt><trkpt lat="45.87567008573148" lon="9.132364752925051"><ele>212.0</ele><time>2026-04-04T12:21:49.999Z</time></trkpt><trkpt lat="45.87562525322467" lon="9.132252739513739"><ele>212.0</ele><time>2026-04-04T12:21:50.999Z</time></trkpt><trkpt lat="45.87557798327377" lon="9.132148326208775"><ele>212.0</ele><time>2026-04-04T12:21:51.999Z</time></trkpt><trkpt lat="45.87552502940684" lon="9.132028048047646"><ele>215.39999999999998</ele><time>2026-04-04T12:21:52.999Z</time></trkpt><trkpt lat="45.87548737247899" lon="9.13192053645007"><ele>218.79999999999998</ele><time>2026-04-04T12:21:53.999Z</time></trkpt><trkpt lat="45.875426803053045" lon="9.131809257475226"><ele>222.2</ele><time>2026-04-04T12:21:54.999Z</time></trkpt><trkpt lat="45.87536510027655" lon="9.131696214141744"><ele>225.6</ele><time>2026-04-04T12:21:55.999Z</time></trkpt><trkpt lat="45.87530863912693" lon="9.131594649862889"><ele>229.0</ele><time>2026-04-04T12:21:56.999Z</time></trkpt><trkpt lat="45.875259215834475" lon="9.131478644111791"><ele>231.66666666666666</ele><time>2026-04-04T12:21:57.999Z</time></trkpt><trkpt lat="45.875197080371784" lon="9.131389371227344"><ele>234.33333333333331</ele><time>2026-04-04T12:21:58.999Z</time></trkpt><trkpt lat="45.87514755529003" lon="9.131295557730107"><ele>237.0</ele><time>2026-04-04T12:21:59.999Z</time></trkpt><trkpt lat="45.875100905025015" lon="9.131187271610232"><ele>239.66666666666669</ele><time>2026-04-04T12:22:00.999Z</time></trkpt><trkpt lat="45.8750464867957" lon="9.131080106403449"><ele>242.33333333333334</ele><time>2026-04-04T12:22:01.999Z</time></trkpt><trkpt lat="45.8749942757212" lon="9.130970468876843"><ele>245.0</ele><time>2026-04-04T12:22:02.999Z</time></trkpt><trkpt lat="45.8749522823647" lon="9.130849924443664"><ele>242.0</ele><time>2026-04-04T12:22:03.999Z</time></trkpt><trkpt lat="45.87489801754054" lon="9.130754657317883"><ele>239.0</ele><time>2026-04-04T12:22:04.999Z</time></trkpt><trkpt lat="45.87481912850245" lon="9.13064186651142"><ele>236.0</ele><time>2026-04-04T12:22:05.999Z</time></trkpt><trkpt lat="45.87474450754774" lon="9.13053372664913"><ele>233.0</ele><time>2026-04-04T12:22:06.999Z</time></trkpt><trkpt lat="45.87466826750681" lon="9.13043153666335"><ele>230.0</ele><time>2026-04-04T12:22:07.999Z</time></trkpt><trkpt lat="45.87458570603241" lon="9.130335731121894"><ele>230.0</ele><time>2026-04-04T12:22:08.999Z</time></trkpt><trkpt lat="45.87450518313181" lon="9.130257450407893"><ele>230.0</ele><time>2026-04-04T12:22:09.999Z</time></trkpt><trkpt lat="45.8744602357447" lon="9.130119116342016"><ele>230.0</ele><time>2026-04-04T12:22:10.999Z</time></trkpt><trkpt lat="45.87442219186531" lon="9.129978880287647"><ele>230.0</ele><time>2026-04-04T12:22:11.999Z</time></trkpt><trkpt lat="45.87437853555453" lon="9.129843684118885"><ele>230.0</ele><time>2026-04-04T12:22:12.999Z</time></trkpt><trkpt lat="45.874332593528344" lon="9.12970179628289"><ele>229.6</ele><time>2026-04-04T12:22:13.999Z</time></trkpt><trkpt lat="45.874288324849765" lon="9.129574028486383"><ele>229.2</ele><time>2026-04-04T12:22:14.999Z</time></trkpt><trkpt lat="45.87424143738913" lon="9.12943758786157"><ele>228.8</ele><time>2026-04-04T12:22:15.999Z</time></trkpt><trkpt lat="45.87420011328451" lon="9.129317336438781"><ele>228.4</ele><time>2026-04-04T12:22:16.999Z</time></trkpt><trkpt lat="45.87414050566995" lon="9.129143860102062"><ele>228.0</ele><time>2026-04-04T12:22:17.999Z</time></trkpt><trkpt lat="45.874085420659334" lon="9.128983507720037"><ele>228.0</ele><time>2026-04-04T12:22:18.999Z</time></trkpt><trkpt lat="45.874014742659256" lon="9.128819324977425"><ele>228.0</ele><time>2026-04-04T12:22:19.999Z</time></trkpt><trkpt lat="45.87397421246922" lon="9.128671705361931"><ele>228.0</ele><time>2026-04-04T12:22:20.999Z</time></trkpt><trkpt lat="45.87390537870344" lon="9.128567997773168"><ele>228.0</ele><time>2026-04-04T12:22:21.999Z</time></trkpt><trkpt lat="45.8738367275722" lon="9.128474124820546"><ele>228.0</ele><time>2026-04-04T12:22:22.999Z</time></trkpt><trkpt lat="45.87377522001991" lon="9.128358419029066"><ele>228.0</ele><time>2026-04-04T12:22:23.999Z</time></trkpt><trkpt lat="45.87370793398537" lon="9.128258803841346"><ele>228.0</ele><time>2026-04-04T12:22:24.999Z</time></trkpt><trkpt lat="45.87363849193157" lon="9.128183320655296"><ele>228.0</ele><time>2026-04-04T12:22:25.999Z</time></trkpt><trkpt lat="45.873596016571874" lon="9.128067749943979"><ele>228.0</ele><time>2026-04-04T12:22:26.999Z</time></trkpt><trkpt lat="45.87352911818474" lon="9.127969739995557"><ele>228.0</ele><time>2026-04-04T12:22:27.999Z</time></trkpt><trkpt lat="45.87347101853816" lon="9.127854410386394"><ele>227.0</ele><time>2026-04-04T12:22:28.999Z</time></trkpt><trkpt lat="45.873420285636875" lon="9.127724927322"><ele>226.0</ele><time>2026-04-04T12:22:29.999Z</time></trkpt><trkpt lat="45.87334961808463" lon="9.127605512021507"><ele>225.0</ele><time>2026-04-04T12:22:30.999Z</time></trkpt><trkpt lat="45.87329652069313" lon="9.127500322758522"><ele>224.0</ele><time>2026-04-04T12:22:31.999Z</time></trkpt><trkpt lat="45.87325068428011" lon="9.12740140359881"><ele>223.0</ele><time>2026-04-04T12:22:32.999Z</time></trkpt><trkpt lat="45.87320498569085" lon="9.127322429173168"><ele>223.0</ele><time>2026-04-04T12:22:33.999Z</time></trkpt><trkpt lat="45.87314031921183" lon="9.127219354609851"><ele>223.0</ele><time>2026-04-04T12:22:35.999Z</time></trkpt><trkpt lat="45.87305274933598" lon="9.127132318959076"><ele>223.0</ele><time>2026-04-04T12:22:37.999Z</time></trkpt><trkpt lat="45.872965708534515" lon="9.127022279843123"><ele>223.0</ele><time>2026-04-04T12:22:39.999Z</time></trkpt><trkpt lat="45.87292808578487" lon="9.126897847136144"><ele>223.0</ele><time>2026-04-04T12:22:41.999Z</time></trkpt><trkpt lat="45.87287395554595" lon="9.12683185108635"><ele>223.0</ele><time>2026-04-04T12:22:42.999Z</time></trkpt><trkpt lat="45.872825902003065" lon="9.126766897059781"><ele>223.0</ele><time>2026-04-04T12:22:43.999Z</time></trkpt><trkpt lat="45.87276574867932" lon="9.12664737431784"><ele>223.0</ele><time>2026-04-04T12:22:45.999Z</time></trkpt><trkpt lat="45.872734103987874" lon="9.12650987536792"><ele>223.0</ele><time>2026-04-04T12:22:47.999Z</time></trkpt><trkpt lat="45.87269750809394" lon="9.126357059147782"><ele>223.0</ele><time>2026-04-04T12:22:49.999Z</time></trkpt><trkpt lat="45.87266733112333" lon="9.12623524383373"><ele>223.8</ele><time>2026-04-04T12:22:51.999Z</time></trkpt><trkpt lat="45.872605753262505" lon="9.126161813492999"><ele>224.60000000000002</ele><time>2026-04-04T12:22:55.999Z</time></trkpt><trkpt lat="45.87254938881458" lon="9.126054832482744"><ele>225.39999999999998</ele><time>2026-04-04T12:22:57.999Z</time></trkpt><trkpt lat="45.87246445980821" lon="9.12593172537929"><ele>226.2</ele><time>2026-04-04T12:22:58.999Z</time></trkpt><trkpt lat="45.87236706210264" lon="9.125820080453385"><ele>227.0</ele><time>2026-04-04T12:22:59.999Z</time></trkpt><trkpt lat="45.87229055180372" lon="9.12568132269088"><ele>227.0</ele><time>2026-04-04T12:23:00.999Z</time></trkpt><trkpt lat="45.872243612545915" lon="9.12554219104855"><ele>227.0</ele><time>2026-04-04T12:23:01.999Z</time></trkpt><trkpt lat="45.87219956114195" lon="9.125384206069347"><ele>227.0</ele><time>2026-04-04T12:23:02.999Z</time></trkpt><trkpt lat="45.87211074168295" lon="9.125266715015853"><ele>227.0</ele><time>2026-04-04T12:23:03.999Z</time></trkpt><trkpt lat="45.872046328213216" lon="9.125176353508731"><ele>227.0</ele><time>2026-04-04T12:23:04.999Z</time></trkpt><trkpt lat="45.871956357047715" lon="9.125080708843543"><ele>227.0</ele><time>2026-04-04T12:23:05.999Z</time></trkpt><trkpt lat="45.871875253959885" lon="9.12496496832779"><ele>227.0</ele><time>2026-04-04T12:23:06.999Z</time></trkpt><trkpt lat="45.87180532848971" lon="9.124854805941187"><ele>227.0</ele><time>2026-04-04T12:23:07.999Z</time></trkpt><trkpt lat="45.87174744432612" lon="9.124746289872947"><ele>227.0</ele><time>2026-04-04T12:23:08.999Z</time></trkpt><trkpt lat="45.871671472434635" lon="9.124622858118949"><ele>227.0</ele><time>2026-04-04T12:23:09.999Z</time></trkpt><trkpt lat="45.871596286284834" lon="9.12447647524163"><ele>228.5</ele><time>2026-04-04T12:23:10.999Z</time></trkpt><trkpt lat="45.87150833422914" lon="9.12433948327117"><ele>230.0</ele><time>2026-04-04T12:23:11.999Z</time></trkpt><trkpt lat="45.8714203714128" lon="9.124192826666475"><ele>231.5</ele><time>2026-04-04T12:23:12.999Z</time></trkpt><trkpt lat="45.87134335871976" lon="9.124054412686322"><ele>233.0</ele><time>2026-04-04T12:23:13.999Z</time></trkpt><trkpt lat="45.87126283432021" lon="9.123924289599623"><ele>233.0</ele><time>2026-04-04T12:23:14.999Z</time></trkpt><trkpt lat="45.8712063232639" lon="9.12376121212032"><ele>233.0</ele><time>2026-04-04T12:23:15.999Z</time></trkpt><trkpt lat="45.871150683536285" lon="9.123596044763264"><ele>233.0</ele><time>2026-04-04T12:23:16.999Z</time></trkpt><trkpt lat="45.87109677108953" lon="9.123434796878572"><ele>233.0</ele><time>2026-04-04T12:23:17.999Z</time></trkpt><trkpt lat="45.87106091104277" lon="9.123258608197741"><ele>229.0</ele><time>2026-04-04T12:23:18.999Z</time></trkpt><trkpt lat="45.870994908020556" lon="9.123102990002918"><ele>225.0</ele><time>2026-04-04T12:23:19.999Z</time></trkpt><trkpt lat="45.87093812841299" lon="9.122949787787977"><ele>221.0</ele><time>2026-04-04T12:23:20.999Z</time></trkpt><trkpt lat="45.87087581136285" lon="9.122792500420816"><ele>217.0</ele><time>2026-04-04T12:23:21.999Z</time></trkpt><trkpt lat="45.8708140792819" lon="9.122653415148914"><ele>217.0</ele><time>2026-04-04T12:23:22.999Z</time></trkpt><trkpt lat="45.870756743671755" lon="9.122496411471579"><ele>217.0</ele><time>2026-04-04T12:23:23.999Z</time></trkpt><trkpt lat="45.870682754915784" lon="9.122350767186274"><ele>217.0</ele><time>2026-04-04T12:23:24.999Z</time></trkpt><trkpt lat="45.870615621642564" lon="9.122204030341647"><ele>217.0</ele><time>2026-04-04T12:23:25.999Z</time></trkpt><trkpt lat="45.8705696728706" lon="9.122066054702481"><ele>218.6</ele><time>2026-04-04T12:23:26.999Z</time></trkpt><trkpt lat="45.87054441714284" lon="9.121944005395848"><ele>220.2</ele><time>2026-04-04T12:23:27.999Z</time></trkpt><trkpt lat="45.87052863453482" lon="9.121805563906507"><ele>221.8</ele><time>2026-04-04T12:23:28.999Z</time></trkpt><trkpt lat="45.87048726159432" lon="9.121627092840683"><ele>223.4</ele><time>2026-04-04T12:23:29.999Z</time></trkpt><trkpt lat="45.87042666043977" lon="9.121490202767575"><ele>225.0</ele><time>2026-04-04T12:23:30.999Z</time></trkpt><trkpt lat="45.87040564171572" lon="9.121344596482311"><ele>227.6</ele><time>2026-04-04T12:23:31.999Z</time></trkpt><trkpt lat="45.87038506781045" lon="9.121186069991532"><ele>230.2</ele><time>2026-04-04T12:23:32.999Z</time></trkpt><trkpt lat="45.8703720213748" lon="9.121031312302406"><ele>232.8</ele><time>2026-04-04T12:23:33.999Z</time></trkpt><trkpt lat="45.870354077305336" lon="9.12088996698409"><ele>235.4</ele><time>2026-04-04T12:23:34.999Z</time></trkpt><trkpt lat="45.87032030256965" lon="9.120770402241094"><ele>238.0</ele><time>2026-04-04T12:23:35.999Z</time></trkpt><trkpt lat="45.870277456997705" lon="9.120668588996178"><ele>241.33333333333331</ele><time>2026-04-04T12:23:36.998Z</time></trkpt><trkpt lat="45.87023204423438" lon="9.120560770954132"><ele>244.66666666666666</ele><time>2026-04-04T12:23:37.998Z</time></trkpt><trkpt lat="45.87018982703203" lon="9.120451503334388"><ele>248.0</ele><time>2026-04-04T12:23:38.998Z</time></trkpt><trkpt lat="45.87014107797132" lon="9.120353063191532"><ele>251.33333333333331</ele><time>2026-04-04T12:23:39.998Z</time></trkpt><trkpt lat="45.870095664255054" lon="9.120237873256558"><ele>254.66666666666666</ele><time>2026-04-04T12:23:40.998Z</time></trkpt><trkpt lat="45.8700475918288" lon="9.120125544464724"><ele>258.0</ele><time>2026-04-04T12:23:41.998Z</time></trkpt><trkpt lat="45.86998744274468" lon="9.120013405326816"><ele>252.8</ele><time>2026-04-04T12:23:42.998Z</time></trkpt><trkpt lat="45.869918757890304" lon="9.119905917238198"><ele>247.60000000000002</ele><time>2026-04-04T12:23:43.998Z</time></trkpt><trkpt lat="45.86983341806743" lon="9.119812848439343"><ele>242.39999999999998</ele><time>2026-04-04T12:23:44.998Z</time></trkpt><trkpt lat="45.86974430397635" lon="9.119739168375958"><ele>237.2</ele><time>2026-04-04T12:23:45.998Z</time></trkpt><trkpt lat="45.86967740934761" lon="9.119628909454862"><ele>232.0</ele><time>2026-04-04T12:23:46.998Z</time></trkpt><trkpt lat="45.86963028421415" lon="9.11948960467476"><ele>232.0</ele><time>2026-04-04T12:23:47.998Z</time></trkpt><trkpt lat="45.86956028441445" lon="9.119371058896457"><ele>232.0</ele><time>2026-04-04T12:23:48.998Z</time></trkpt><trkpt lat="45.869518687419195" lon="9.119236982705806"><ele>232.0</ele><time>2026-04-04T12:23:49.998Z</time></trkpt><trkpt lat="45.869480374276584" lon="9.119097102033187"><ele>232.0</ele><time>2026-04-04T12:23:50.998Z</time></trkpt><trkpt lat="45.869413947354445" lon="9.118980085851057"><ele>232.0</ele><time>2026-04-04T12:23:51.998Z</time></trkpt><trkpt lat="45.86934361141352" lon="9.118860499027699"><ele>235.8</ele><time>2026-04-04T12:23:52.998Z</time></trkpt><trkpt lat="45.86931091372194" lon="9.118710248438829"><ele>239.6</ele><time>2026-04-04T12:23:53.998Z</time></trkpt><trkpt lat="45.869294473454104" lon="9.11857766676484"><ele>243.40000000000003</ele><time>2026-04-04T12:23:54.998Z</time></trkpt><trkpt lat="45.869268281253945" lon="9.118455220406757"><ele>247.20000000000002</ele><time>2026-04-04T12:23:55.998Z</time></trkpt><trkpt lat="45.869242920575765" lon="9.118345334990195"><ele>251.0</ele><time>2026-04-04T12:23:56.998Z</time></trkpt><trkpt lat="45.86920897451896" lon="9.118236420741562"><ele>244.0</ele><time>2026-04-04T12:23:57.998Z</time></trkpt><trkpt lat="45.869171519968404" lon="9.118111048203081"><ele>237.00000000000003</ele><time>2026-04-04T12:23:58.999Z</time></trkpt><trkpt lat="45.86915040245951" lon="9.117962844247597"><ele>230.00000000000003</ele><time>2026-04-04T12:23:59.999Z</time></trkpt><trkpt lat="45.86911767370159" lon="9.11783490253873"><ele>223.0</ele><time>2026-04-04T12:24:00.999Z</time></trkpt><trkpt lat="45.869050274773095" lon="9.117697350374002"><ele>216.0</ele><time>2026-04-04T12:24:01.999Z</time></trkpt><trkpt lat="45.868991040091615" lon="9.11755945708427"><ele>216.0</ele><time>2026-04-04T12:24:02.999Z</time></trkpt><trkpt lat="45.86893020179364" lon="9.11741996888352"><ele>216.00000000000003</ele><time>2026-04-04T12:24:03.999Z</time></trkpt><trkpt lat="45.86887101406044" lon="9.117290455469819"><ele>216.00000000000003</ele><time>2026-04-04T12:24:04.999Z</time></trkpt><trkpt lat="45.86881371902364" lon="9.117171805797108"><ele>216.0</ele><time>2026-04-04T12:24:05.999Z</time></trkpt><trkpt lat="45.86876102983021" lon="9.117050107015112"><ele>216.0</ele><time>2026-04-04T12:24:06.999Z</time></trkpt><trkpt lat="45.868695060131024" lon="9.116944803863918"><ele>216.4</ele><time>2026-04-04T12:24:07.999Z</time></trkpt><trkpt lat="45.86861257345568" lon="9.1168594111346"><ele>216.8</ele><time>2026-04-04T12:24:08.999Z</time></trkpt><trkpt lat="45.868540465198045" lon="9.11675650573488"><ele>217.20000000000002</ele><time>2026-04-04T12:24:09.999Z</time></trkpt><trkpt lat="45.86847456342157" lon="9.116656534758834"><ele>217.60000000000002</ele><time>2026-04-04T12:24:10.999Z</time></trkpt><trkpt lat="45.86841561106754" lon="9.116538432287815"><ele>218.0</ele><time>2026-04-04T12:24:11.999Z</time></trkpt><trkpt lat="45.868355364643556" lon="9.116426274081945"><ele>218.0</ele><time>2026-04-04T12:24:12.999Z</time></trkpt><trkpt lat="45.86830230386895" lon="9.11629449812017"><ele>218.0</ele><time>2026-04-04T12:24:13.999Z</time></trkpt><trkpt lat="45.86825473038876" lon="9.116162203233591"><ele>218.0</ele><time>2026-04-04T12:24:14.999Z</time></trkpt><trkpt lat="45.868257955188014" lon="9.116007769392956"><ele>218.0</ele><time>2026-04-04T12:24:15.999Z</time></trkpt><trkpt lat="45.86823395288659" lon="9.115852705123938"><ele>218.0</ele><time>2026-04-04T12:24:16.999Z</time></trkpt><trkpt lat="45.86822778496094" lon="9.115688980829475"><ele>220.60000000000002</ele><time>2026-04-04T12:24:17.999Z</time></trkpt><trkpt lat="45.868213326611325" lon="9.115526195273222"><ele>223.20000000000002</ele><time>2026-04-04T12:24:18.999Z</time></trkpt><trkpt lat="45.8681758896427" lon="9.115385258828885"><ele>225.8</ele><time>2026-04-04T12:24:19.999Z</time></trkpt><trkpt lat="45.86807033349211" lon="9.11532715304259"><ele>228.4</ele><time>2026-04-04T12:24:20.999Z</time></trkpt><trkpt lat="45.86798190991398" lon="9.115229822997064"><ele>231.0</ele><time>2026-04-04T12:24:21.999Z</time></trkpt><trkpt lat="45.86791814293898" lon="9.115113974559344"><ele>231.0</ele><time>2026-04-04T12:24:22.999Z</time></trkpt><trkpt lat="45.86786852513999" lon="9.115010379574246"><ele>231.00000000000003</ele><time>2026-04-04T12:24:23.999Z</time></trkpt><trkpt lat="45.86785965604663" lon="9.114898357071649"><ele>231.00000000000003</ele><time>2026-04-04T12:24:24.999Z</time></trkpt><trkpt lat="45.86781496486225" lon="9.114767543324836"><ele>231.0</ele><time>2026-04-04T12:24:25.999Z</time></trkpt><trkpt lat="45.86778454801473" lon="9.114625293976387"><ele>231.0</ele><time>2026-04-04T12:24:26.999Z</time></trkpt><trkpt lat="45.86774721534215" lon="9.11448540397345"><ele>229.0</ele><time>2026-04-04T12:24:27.999Z</time></trkpt><trkpt lat="45.8677101280528" lon="9.114346843981679"><ele>227.00000000000003</ele><time>2026-04-04T12:24:28.999Z</time></trkpt><trkpt lat="45.867673977150474" lon="9.114202873401789"><ele>225.00000000000003</ele><time>2026-04-04T12:24:29.999Z</time></trkpt><trkpt lat="45.86763198757005" lon="9.11406182448023"><ele>223.0</ele><time>2026-04-04T12:24:30.999Z</time></trkpt><trkpt lat="45.86758469325455" lon="9.113924771134647"><ele>221.0</ele><time>2026-04-04T12:24:31.999Z</time></trkpt><trkpt lat="45.867544455986426" lon="9.113773998664255"><ele>221.0</ele><time>2026-04-04T12:24:32.999Z</time></trkpt><trkpt lat="45.867526722228014" lon="9.113614736196684"><ele>221.0</ele><time>2026-04-04T12:24:33.999Z</time></trkpt><trkpt lat="45.867484502580105" lon="9.113453841317744"><ele>221.0</ele><time>2026-04-04T12:24:34.999Z</time></trkpt><trkpt lat="45.86747014011783" lon="9.113288317369744"><ele>221.0</ele><time>2026-04-04T12:24:35.999Z</time></trkpt><trkpt lat="45.86744823710432" lon="9.11311859677813"><ele>226.25</ele><time>2026-04-04T12:24:36.999Z</time></trkpt><trkpt lat="45.86743110921405" lon="9.112946994900845"><ele>231.5</ele><time>2026-04-04T12:24:37.999Z</time></trkpt><trkpt lat="45.86738833761668" lon="9.112807159451444"><ele>236.75</ele><time>2026-04-04T12:24:38.999Z</time></trkpt><trkpt lat="45.86733502297033" lon="9.112657704504352"><ele>242.0</ele><time>2026-04-04T12:24:39.999Z</time></trkpt><trkpt lat="45.86726087757449" lon="9.1125350810155"><ele>247.2</ele><time>2026-04-04T12:24:40.999Z</time></trkpt><trkpt lat="45.867197365739734" lon="9.112389808519366"><ele>252.39999999999998</ele><time>2026-04-04T12:24:41.999Z</time></trkpt><trkpt lat="45.86713321843753" lon="9.112258983837945"><ele>257.6</ele><time>2026-04-04T12:24:42.999Z</time></trkpt><trkpt lat="45.867063156820045" lon="9.112136988669578"><ele>262.8</ele><time>2026-04-04T12:24:43.999Z</time></trkpt><trkpt lat="45.866997586877375" lon="9.11202210964928"><ele>268.0</ele><time>2026-04-04T12:24:44.999Z</time></trkpt><trkpt lat="45.86692106228803" lon="9.111918844132461"><ele>268.0</ele><time>2026-04-04T12:24:45.999Z</time></trkpt><trkpt lat="45.86683635231538" lon="9.111840034269033"><ele>268.0</ele><time>2026-04-04T12:24:46.999Z</time></trkpt><trkpt lat="45.86675054460225" lon="9.111747577227982"><ele>268.0</ele><time>2026-04-04T12:24:47.999Z</time></trkpt><trkpt lat="45.866661924432805" lon="9.111632538562468"><ele>268.0</ele><time>2026-04-04T12:24:48.999Z</time></trkpt><trkpt lat="45.866556193264174" lon="9.111524393142718"><ele>261.5</ele><time>2026-04-04T12:24:49.999Z</time></trkpt><trkpt lat="45.86645314974919" lon="9.111407247911654"><ele>255.0</ele><time>2026-04-04T12:24:50.999Z</time></trkpt><trkpt lat="45.86636809468829" lon="9.111287618814847"><ele>248.5</ele><time>2026-04-04T12:24:51.999Z</time></trkpt><trkpt lat="45.86630177798169" lon="9.111166710223687"><ele>242.0</ele><time>2026-04-04T12:24:52.999Z</time></trkpt><trkpt lat="45.86624354255321" lon="9.111019175324397"><ele>242.0</ele><time>2026-04-04T12:24:53.999Z</time></trkpt><trkpt lat="45.86619597113515" lon="9.110852689692758"><ele>242.0</ele><time>2026-04-04T12:24:54.999Z</time></trkpt><trkpt lat="45.86617906097604" lon="9.110668609565343"><ele>242.0</ele><time>2026-04-04T12:24:55.999Z</time></trkpt><trkpt lat="45.866132068236475" lon="9.110504085485397"><ele>242.0</ele><time>2026-04-04T12:24:56.999Z</time></trkpt><trkpt lat="45.866060838267614" lon="9.110352824777374"><ele>240.25</ele><time>2026-04-04T12:24:57.999Z</time></trkpt><trkpt lat="45.86597380413805" lon="9.110217836461729"><ele>238.5</ele><time>2026-04-04T12:24:58.999Z</time></trkpt><trkpt lat="45.865890963588086" lon="9.110074907742895"><ele>236.75</ele><time>2026-04-04T12:24:59.999Z</time></trkpt><trkpt lat="45.86581759231117" lon="9.109922965501003"><ele>235.0</ele><time>2026-04-04T12:25:00.999Z</time></trkpt><trkpt lat="45.865750188202774" lon="9.10976043819571"><ele>235.0</ele><time>2026-04-04T12:25:01.999Z</time></trkpt><trkpt lat="45.865699117406415" lon="9.109591873038044"><ele>235.0</ele><time>2026-04-04T12:25:02.999Z</time></trkpt><trkpt lat="45.865630740095696" lon="9.109430306044906"><ele>235.0</ele><time>2026-04-04T12:25:03.999Z</time></trkpt><trkpt lat="45.865551856458055" lon="9.109286661471023"><ele>235.0</ele><time>2026-04-04T12:25:04.999Z</time></trkpt><trkpt lat="45.865471325156555" lon="9.109145343958021"><ele>241.25</ele><time>2026-04-04T12:25:05.999Z</time></trkpt><trkpt lat="45.86540624396139" lon="9.108990553472612"><ele>247.5</ele><time>2026-04-04T12:25:06.999Z</time></trkpt><trkpt lat="45.86536642283882" lon="9.108822138700384"><ele>253.75</ele><time>2026-04-04T12:25:07.999Z</time></trkpt><trkpt lat="45.86530923434989" lon="9.10865348424101"><ele>260.0</ele><time>2026-04-04T12:25:08.999Z</time></trkpt><trkpt lat="45.865258020073746" lon="9.108485827968183"><ele>260.0</ele><time>2026-04-04T12:25:09.999Z</time></trkpt><trkpt lat="45.86519388762124" lon="9.108320912299781"><ele>260.0</ele><time>2026-04-04T12:25:10.999Z</time></trkpt><trkpt lat="45.86511884598828" lon="9.108174757704527"><ele>260.0</ele><time>2026-04-04T12:25:11.999Z</time></trkpt><trkpt lat="45.86503109706894" lon="9.108056164821795"><ele>260.0</ele><time>2026-04-04T12:25:12.999Z</time></trkpt><trkpt lat="45.86494208403428" lon="9.107923386434779"><ele>264.5</ele><time>2026-04-04T12:25:13.999Z</time></trkpt><trkpt lat="45.86486249594765" lon="9.107792761083596"><ele>269.0</ele><time>2026-04-04T12:25:14.999Z</time></trkpt><trkpt lat="45.864787721580505" lon="9.107664433788841"><ele>273.5</ele><time>2026-04-04T12:25:15.999Z</time></trkpt><trkpt lat="45.864709838998685" lon="9.107529496551875"><ele>278.0</ele><time>2026-04-04T12:25:16.999Z</time></trkpt><trkpt lat="45.864627570050985" lon="9.107397319735076"><ele>278.0</ele><time>2026-04-04T12:25:17.999Z</time></trkpt><trkpt lat="45.864547269450426" lon="9.107265161638118"><ele>278.0</ele><time>2026-04-04T12:25:18.999Z</time></trkpt><trkpt lat="45.86446077889138" lon="9.107127548326888"><ele>278.0</ele><time>2026-04-04T12:25:19.999Z</time></trkpt><trkpt lat="45.864375914933255" lon="9.107001170818878"><ele>278.0</ele><time>2026-04-04T12:25:20.999Z</time></trkpt><trkpt lat="45.86431189958106" lon="9.106853256939896"><ele>276.75</ele><time>2026-04-04T12:25:22Z</time></trkpt><trkpt lat="45.86420537240131" lon="9.106740392986493"><ele>275.5</ele><time>2026-04-04T12:25:23Z</time></trkpt><trkpt lat="45.8641107671747" lon="9.106620062554313"><ele>274.25</ele><time>2026-04-04T12:25:24Z</time></trkpt><trkpt lat="45.86402167061765" lon="9.106497280886572"><ele>273.0</ele><time>2026-04-04T12:25:25Z</time></trkpt><trkpt lat="45.86393934782349" lon="9.106375689970644"><ele>273.0</ele><time>2026-04-04T12:25:26Z</time></trkpt><trkpt lat="45.86386767560659" lon="9.106268266097956"><ele>273.0</ele><time>2026-04-04T12:25:27Z</time></trkpt><trkpt lat="45.86378035010631" lon="9.106189844910793"><ele>273.0</ele><time>2026-04-04T12:25:28Z</time></trkpt><trkpt lat="45.86367700859418" lon="9.106126605321274"><ele>273.0</ele><time>2026-04-04T12:25:29Z</time></trkpt><trkpt lat="45.863555538048665" lon="9.106102470191805"><ele>273.0</ele><time>2026-04-04T12:25:30Z</time></trkpt><trkpt lat="45.86343338172668" lon="9.106063942363505"><ele>265.8</ele><time>2026-04-04T12:25:31Z</time></trkpt><trkpt lat="45.86333080000222" lon="9.106022148766389"><ele>258.6</ele><time>2026-04-04T12:25:32Z</time></trkpt><trkpt lat="45.86323060048043" lon="9.105969332815123"><ele>251.39999999999998</ele><time>2026-04-04T12:25:33Z</time></trkpt><trkpt lat="45.8631239904218" lon="9.105906343238592"><ele>244.2</ele><time>2026-04-04T12:25:34Z</time></trkpt><trkpt lat="45.86302267336722" lon="9.10585600034695"><ele>237.0</ele><time>2026-04-04T12:25:35Z</time></trkpt><trkpt lat="45.86292398230138" lon="9.105820903721375"><ele>237.0</ele><time>2026-04-04T12:25:36Z</time></trkpt><trkpt lat="45.86283972197496" lon="9.105782705786478"><ele>237.0</ele><time>2026-04-04T12:25:37Z</time></trkpt><trkpt lat="45.86274720545669" lon="9.105774504836456"><ele>237.0</ele><time>2026-04-04T12:25:38Z</time></trkpt><trkpt lat="45.86266449902973" lon="9.105750792517306"><ele>237.0</ele><time>2026-04-04T12:25:39Z</time></trkpt><trkpt lat="45.86259167985588" lon="9.10570450862564"><ele>237.0</ele><time>2026-04-04T12:25:40Z</time></trkpt><trkpt lat="45.862529743454694" lon="9.105632487060943"><ele>237.0</ele><time>2026-04-04T12:25:41Z</time></trkpt><trkpt lat="45.86247925524421" lon="9.105543177804165"><ele>236.16666666666666</ele><time>2026-04-04T12:25:42Z</time></trkpt><trkpt lat="45.86243632961841" lon="9.105443507637274"><ele>235.33333333333331</ele><time>2026-04-04T12:25:42.998Z</time></trkpt><trkpt lat="45.86240550506387" lon="9.105350157775256"><ele>234.5</ele><time>2026-04-04T12:25:43.998Z</time></trkpt><trkpt lat="45.86238644822115" lon="9.105252798193277"><ele>233.66666666666666</ele><time>2026-04-04T12:25:44.998Z</time></trkpt><trkpt lat="45.86237461016649" lon="9.105143001795764"><ele>232.83333333333331</ele><time>2026-04-04T12:25:45.998Z</time></trkpt><trkpt lat="45.86236010379843" lon="9.105025048963068"><ele>232.0</ele><time>2026-04-04T12:25:46.998Z</time></trkpt><trkpt lat="45.86234773163162" lon="9.10489481264994"><ele>231.99999999999997</ele><time>2026-04-04T12:25:47.998Z</time></trkpt><trkpt lat="45.862333624689576" lon="9.104775755602532"><ele>232.0</ele><time>2026-04-04T12:25:48.998Z</time></trkpt><trkpt lat="45.862320790303855" lon="9.104667126100576"><ele>232.0</ele><time>2026-04-04T12:25:49.998Z</time></trkpt><trkpt lat="45.86230245354645" lon="9.104546914904098"><ele>232.0</ele><time>2026-04-04T12:25:50.998Z</time></trkpt><trkpt lat="45.86228542755467" lon="9.104428493030637"><ele>231.99999999999997</ele><time>2026-04-04T12:25:51.999Z</time></trkpt><trkpt lat="45.86226295401138" lon="9.104296118005601"><ele>232.0</ele><time>2026-04-04T12:25:52.999Z</time></trkpt><trkpt lat="45.8622304064527" lon="9.10415708301403"><ele>234.6</ele><time>2026-04-04T12:25:53.999Z</time></trkpt><trkpt lat="45.86218611776993" lon="9.104026236525488"><ele>237.2</ele><time>2026-04-04T12:25:54.999Z</time></trkpt><trkpt lat="45.86213997263162" lon="9.10391463999377"><ele>239.8</ele><time>2026-04-04T12:25:55.999Z</time></trkpt><trkpt lat="45.86209422698952" lon="9.103802096073633"><ele>242.4</ele><time>2026-04-04T12:25:56.999Z</time></trkpt><trkpt lat="45.86205479055934" lon="9.103692748325567"><ele>245.0</ele><time>2026-04-04T12:25:57.999Z</time></trkpt><trkpt lat="45.862014024391804" lon="9.103580640071678"><ele>245.0</ele><time>2026-04-04T12:25:58.999Z</time></trkpt><trkpt lat="45.86197748903134" lon="9.103467278306288"><ele>245.0</ele><time>2026-04-04T12:25:59.999Z</time></trkpt><trkpt lat="45.861936908781885" lon="9.103348320097929"><ele>245.0</ele><time>2026-04-04T12:26:00.999Z</time></trkpt><trkpt lat="45.86189778816605" lon="9.103221962803516"><ele>245.0</ele><time>2026-04-04T12:26:01.999Z</time></trkpt><trkpt lat="45.86185048878788" lon="9.103096409240068"><ele>245.0</ele><time>2026-04-04T12:26:02.999Z</time></trkpt><trkpt lat="45.861798373446085" lon="9.103019617570501"><ele>239.8</ele><time>2026-04-04T12:26:03.999Z</time></trkpt><trkpt lat="45.86172429459501" lon="9.102858333118455"><ele>234.6</ele><time>2026-04-04T12:26:04.999Z</time></trkpt><trkpt lat="45.861641160533715" lon="9.102763817186904"><ele>229.39999999999998</ele><time>2026-04-04T12:26:05.999Z</time></trkpt><trkpt lat="45.86155975000044" lon="9.10268338125798"><ele>224.2</ele><time>2026-04-04T12:26:06.999Z</time></trkpt><trkpt lat="45.861474245056215" lon="9.1026113122959"><ele>219.0</ele><time>2026-04-04T12:26:07.999Z</time></trkpt><trkpt lat="45.86138616790258" lon="9.102554965395322"><ele>219.0</ele><time>2026-04-04T12:26:08.999Z</time></trkpt><trkpt lat="45.861297456640976" lon="9.102501094088868"><ele>218.99999999999997</ele><time>2026-04-04T12:26:09.999Z</time></trkpt><trkpt lat="45.86121422061647" lon="9.102443344800761"><ele>218.99999999999997</ele><time>2026-04-04T12:26:10.999Z</time></trkpt><trkpt lat="45.86112413934303" lon="9.10237957824335"><ele>219.0</ele><time>2026-04-04T12:26:11.999Z</time></trkpt><trkpt lat="45.86104014764039" lon="9.102329189150325"><ele>219.0</ele><time>2026-04-04T12:26:12.999Z</time></trkpt><trkpt lat="45.86096470170084" lon="9.102267900428426"><ele>218.2</ele><time>2026-04-04T12:26:13.999Z</time></trkpt><trkpt lat="45.86088430430472" lon="9.102219144401671"><ele>217.39999999999998</ele><time>2026-04-04T12:26:14.999Z</time></trkpt><trkpt lat="45.860801960599446" lon="9.102186615619047"><ele>216.6</ele><time>2026-04-04T12:26:15.999Z</time></trkpt><trkpt lat="45.86071371878378" lon="9.102152352095894"><ele>215.8</ele><time>2026-04-04T12:26:16.999Z</time></trkpt><trkpt lat="45.860600658002795" lon="9.10209805470123"><ele>215.0</ele><time>2026-04-04T12:26:17.999Z</time></trkpt><trkpt lat="45.86046675768994" lon="9.102028383528221"><ele>215.0</ele><time>2026-04-04T12:26:19.999Z</time></trkpt><trkpt lat="45.86040483738002" lon="9.101973577281733"><ele>215.0</ele><time>2026-04-04T12:26:20.999Z</time></trkpt><trkpt lat="45.86034557708868" lon="9.101906412394747"><ele>215.0</ele><time>2026-04-04T12:26:21.999Z</time></trkpt><trkpt lat="45.860295579722006" lon="9.101819301311819"><ele>215.0</ele><time>2026-04-04T12:26:22.999Z</time></trkpt><trkpt lat="45.8602505362879" lon="9.101739132819272"><ele>215.0</ele><time>2026-04-04T12:26:24Z</time></trkpt><trkpt lat="45.860210537203706" lon="9.101651328290105"><ele>215.0</ele><time>2026-04-04T12:26:25Z</time></trkpt><trkpt lat="45.86017013160151" lon="9.101564922781899"><ele>215.0</ele><time>2026-04-04T12:26:26Z</time></trkpt><trkpt lat="45.86013835867211" lon="9.101484498035918"><ele>213.50000000000003</ele><time>2026-04-04T12:26:27Z</time></trkpt><trkpt lat="45.860075015821565" lon="9.101353761193334"><ele>212.0</ele><time>2026-04-04T12:26:29Z</time></trkpt><trkpt lat="45.86003258053285" lon="9.101273518177369"><ele>210.5</ele><time>2026-04-04T12:26:30Z</time></trkpt><trkpt lat="45.85999109825328" lon="9.101184245476356"><ele>209.0</ele><time>2026-04-04T12:26:31Z</time></trkpt><trkpt lat="45.859946545913104" lon="9.101096284938814"><ele>207.50000000000003</ele><time>2026-04-04T12:26:32Z</time></trkpt><trkpt lat="45.85989843353781" lon="9.100998302850556"><ele>206.0</ele><time>2026-04-04T12:26:33Z</time></trkpt><trkpt lat="45.85985443724428" lon="9.10090703679114"><ele>206.00000000000003</ele><time>2026-04-04T12:26:34Z</time></trkpt><trkpt lat="45.85978374195701" lon="9.100758098665692"><ele>206.0</ele><time>2026-04-04T12:26:36Z</time></trkpt><trkpt lat="45.8597450156073" lon="9.100671375922968"><ele>206.0</ele><time>2026-04-04T12:26:37Z</time></trkpt><trkpt lat="45.85971236154696" lon="9.100580537832737"><ele>206.0</ele><time>2026-04-04T12:26:38Z</time></trkpt><trkpt lat="45.859687279905366" lon="9.100463450041946"><ele>206.00000000000003</ele><time>2026-04-04T12:26:39Z</time></trkpt><trkpt lat="45.85966071362472" lon="9.100347649780606"><ele>206.0</ele><time>2026-04-04T12:26:40Z</time></trkpt><trkpt lat="45.85963508701477" lon="9.100224333282448"><ele>208.75</ele><time>2026-04-04T12:26:41Z</time></trkpt><trkpt lat="45.85960012002266" lon="9.100074865624002"><ele>211.5</ele><time>2026-04-04T12:26:42Z</time></trkpt><trkpt lat="45.8595665908292" lon="9.099896472106332"><ele>214.25</ele><time>2026-04-04T12:26:43Z</time></trkpt><trkpt lat="45.85954069740222" lon="9.099739768248005"><ele>217.0</ele><time>2026-04-04T12:26:44Z</time></trkpt><trkpt lat="45.85950358186581" lon="9.099595505547999"><ele>218.6</ele><time>2026-04-04T12:26:45Z</time></trkpt><trkpt lat="45.85947179047262" lon="9.099458748732124"><ele>220.2</ele><time>2026-04-04T12:26:46Z</time></trkpt><trkpt lat="45.85944569970528" lon="9.099327956160492"><ele>221.8</ele><time>2026-04-04T12:26:47Z</time></trkpt><trkpt lat="45.85941796256073" lon="9.099192097624025"><ele>223.4</ele><time>2026-04-04T12:26:48Z</time></trkpt><trkpt lat="45.85939470407824" lon="9.09903616358014"><ele>225.0</ele><time>2026-04-04T12:26:49Z</time></trkpt><trkpt lat="45.85937027213623" lon="9.09888421509956"><ele>226.2</ele><time>2026-04-04T12:26:50Z</time></trkpt><trkpt lat="45.859354142987996" lon="9.09872535163945"><ele>227.4</ele><time>2026-04-04T12:26:51Z</time></trkpt><trkpt lat="45.859335639793066" lon="9.09858873917793"><ele>228.60000000000002</ele><time>2026-04-04T12:26:52Z</time></trkpt><trkpt lat="45.85932115531217" lon="9.09846368793535"><ele>229.8</ele><time>2026-04-04T12:26:53Z</time></trkpt><trkpt lat="45.859304905232136" lon="9.098344797329906"><ele>231.0</ele><time>2026-04-04T12:26:54Z</time></trkpt><trkpt lat="45.85929018427766" lon="9.098228938096469"><ele>232.75</ele><time>2026-04-04T12:26:55Z</time></trkpt><trkpt lat="45.85928220256033" lon="9.09810204498919"><ele>234.5</ele><time>2026-04-04T12:26:56Z</time></trkpt><trkpt lat="45.859302265372676" lon="9.09793309963635"><ele>236.25</ele><time>2026-04-04T12:26:57Z</time></trkpt><trkpt lat="45.85930980118447" lon="9.09768221721715"><ele>238.0</ele><time>2026-04-04T12:26:58Z</time></trkpt><trkpt lat="45.859310174498106" lon="9.097427920884577"><ele>241.75</ele><time>2026-04-04T12:26:59Z</time></trkpt><trkpt lat="45.859329988181386" lon="9.097220653113572"><ele>245.5</ele><time>2026-04-04T12:27:00Z</time></trkpt><trkpt lat="45.85929983327686" lon="9.097026993330639"><ele>249.25</ele><time>2026-04-04T12:27:01Z</time></trkpt><trkpt lat="45.85922674917061" lon="9.096871210971905"><ele>253.0</ele><time>2026-04-04T12:27:02Z</time></trkpt><trkpt lat="45.859121418541534" lon="9.096711727329337"><ele>251.5</ele><time>2026-04-04T12:27:03Z</time></trkpt><trkpt lat="45.858999302037475" lon="9.09656581124525"><ele>250.0</ele><time>2026-04-04T12:27:04Z</time></trkpt><trkpt lat="45.858904479437015" lon="9.096421947967043"><ele>248.5</ele><time>2026-04-04T12:27:05Z</time></trkpt><trkpt lat="45.8588032867909" lon="9.096277976037047"><ele>247.0</ele><time>2026-04-04T12:27:06Z</time></trkpt><trkpt lat="45.85868849257248" lon="9.096173026085234"><ele>247.0</ele><time>2026-04-04T12:27:07Z</time></trkpt><trkpt lat="45.858588770500134" lon="9.096055273221008"><ele>247.0</ele><time>2026-04-04T12:27:08Z</time></trkpt><trkpt lat="45.858501828093" lon="9.095956571710618"><ele>247.0</ele><time>2026-04-04T12:27:09Z</time></trkpt><trkpt lat="45.85843181092665" lon="9.095834314290109"><ele>247.0</ele><time>2026-04-04T12:27:10Z</time></trkpt><trkpt lat="45.85837321718282" lon="9.095706444236635"><ele>244.8</ele><time>2026-04-04T12:27:11Z</time></trkpt><trkpt lat="45.85831558368994" lon="9.095567545898449"><ele>242.6</ele><time>2026-04-04T12:27:12Z</time></trkpt><trkpt lat="45.858252135735796" lon="9.095448747745875"><ele>240.40000000000003</ele><time>2026-04-04T12:27:13Z</time></trkpt><trkpt lat="45.858189346309835" lon="9.095325339264088"><ele>238.20000000000002</ele><time>2026-04-04T12:27:14Z</time></trkpt><trkpt lat="45.85812337304018" lon="9.095190032680891"><ele>236.0</ele><time>2026-04-04T12:27:15Z</time></trkpt><trkpt lat="45.858054551025596" lon="9.095063582789734"><ele>236.0</ele><time>2026-04-04T12:27:16Z</time></trkpt><trkpt lat="45.857986156279246" lon="9.094931639464953"><ele>236.0</ele><time>2026-04-04T12:27:17Z</time></trkpt><trkpt lat="45.85792509373635" lon="9.09479233719984"><ele>236.0</ele><time>2026-04-04T12:27:18Z</time></trkpt><trkpt lat="45.857859504227925" lon="9.094666742040323"><ele>236.0</ele><time>2026-04-04T12:27:19Z</time></trkpt><trkpt lat="45.85778757697372" lon="9.0945418643503"><ele>233.8</ele><time>2026-04-04T12:27:20Z</time></trkpt><trkpt lat="45.857710841778605" lon="9.094434879712182"><ele>231.60000000000002</ele><time>2026-04-04T12:27:21Z</time></trkpt><trkpt lat="45.85761379682369" lon="9.094350683114106"><ele>229.4</ele><time>2026-04-04T12:27:22Z</time></trkpt><trkpt lat="45.85751380038637" lon="9.094288183612043"><ele>227.2</ele><time>2026-04-04T12:27:23Z</time></trkpt><trkpt lat="45.85740462799999" lon="9.094238799339388"><ele>225.0</ele><time>2026-04-04T12:27:24Z</time></trkpt><trkpt lat="45.85729456496307" lon="9.094208885897192"><ele>225.0</ele><time>2026-04-04T12:27:25Z</time></trkpt><trkpt lat="45.85718602292986" lon="9.09418128135725"><ele>225.0</ele><time>2026-04-04T12:27:26Z</time></trkpt><trkpt lat="45.857074329113665" lon="9.094129023633737"><ele>225.0</ele><time>2026-04-04T12:27:27Z</time></trkpt><trkpt lat="45.85696537596927" lon="9.09410057384247"><ele>225.0</ele><time>2026-04-04T12:27:28Z</time></trkpt><trkpt lat="45.85687877575792" lon="9.094010760682124"><ele>225.0</ele><time>2026-04-04T12:27:29Z</time></trkpt><trkpt lat="45.85676368317767" lon="9.093993085108865"><ele>226.0</ele><time>2026-04-04T12:27:30Z</time></trkpt><trkpt lat="45.85666022637483" lon="9.09395174320841"><ele>227.0</ele><time>2026-04-04T12:27:31Z</time></trkpt><trkpt lat="45.85657470024432" lon="9.093894520787835"><ele>228.0</ele><time>2026-04-04T12:27:32Z</time></trkpt><trkpt lat="45.8565062761783" lon="9.093823121273427"><ele>229.0</ele><time>2026-04-04T12:27:33Z</time></trkpt><trkpt lat="45.8564513005015" lon="9.093748551990581"><ele>230.0</ele><time>2026-04-04T12:27:34Z</time></trkpt><trkpt lat="45.85640571683766" lon="9.09366954388013"><ele>231.0</ele><time>2026-04-04T12:27:35Z</time></trkpt><trkpt lat="45.85636545542436" lon="9.093587014621367"><ele>231.0</ele><time>2026-04-04T12:27:36Z</time></trkpt><trkpt lat="45.856320630197814" lon="9.093503331136032"><ele>231.0</ele><time>2026-04-04T12:27:37Z</time></trkpt><trkpt lat="45.85628374405372" lon="9.093384976135628"><ele>231.0</ele><time>2026-04-04T12:27:38Z</time></trkpt><trkpt lat="45.856235472539886" lon="9.093266898155699"><ele>231.0</ele><time>2026-04-04T12:27:39Z</time></trkpt><trkpt lat="45.856193018701916" lon="9.093144964510826"><ele>231.0</ele><time>2026-04-04T12:27:40Z</time></trkpt><trkpt lat="45.856148206570204" lon="9.093034449432617"><ele>231.0</ele><time>2026-04-04T12:27:41Z</time></trkpt><trkpt lat="45.85610105561324" lon="9.092925076039702"><ele>230.4</ele><time>2026-04-04T12:27:42Z</time></trkpt><trkpt lat="45.85605612683414" lon="9.09280011321716"><ele>229.8</ele><time>2026-04-04T12:27:43Z</time></trkpt><trkpt lat="45.85599161497543" lon="9.092683903924986"><ele>229.20000000000002</ele><time>2026-04-04T12:27:44Z</time></trkpt><trkpt lat="45.85591804442662" lon="9.092572812058192"><ele>228.60000000000002</ele><time>2026-04-04T12:27:45Z</time></trkpt><trkpt lat="45.855834665864016" lon="9.092475079978117"><ele>228.0</ele><time>2026-04-04T12:27:46Z</time></trkpt><trkpt lat="45.855759384092835" lon="9.092399012146691"><ele>234.83333333333334</ele><time>2026-04-04T12:27:47Z</time></trkpt><trkpt lat="45.85568752668095" lon="9.092350874847693"><ele>241.66666666666669</ele><time>2026-04-04T12:27:48Z</time></trkpt><trkpt lat="45.85562340753617" lon="9.092323869430047"><ele>248.5</ele><time>2026-04-04T12:27:49.999Z</time></trkpt><trkpt lat="45.85552422852813" lon="9.092338999883918"><ele>255.33333333333334</ele><time>2026-04-04T12:28:02.999Z</time></trkpt><trkpt lat="45.85543784183315" lon="9.092352597176586"><ele>262.1666666666667</ele><time>2026-04-04T12:28:04.999Z</time></trkpt><trkpt lat="45.85532562942151" lon="9.092351955180108"><ele>269.0</ele><time>2026-04-04T12:28:07Z</time></trkpt><trkpt lat="45.8552029844578" lon="9.092364093012824"><ele>262.8</ele><time>2026-04-04T12:28:09Z</time></trkpt><trkpt lat="45.85507238732609" lon="9.092371528387416"><ele>256.59999999999997</ele><time>2026-04-04T12:28:11Z</time></trkpt><trkpt lat="45.855005949014775" lon="9.092354793412804"><ele>250.4</ele><time>2026-04-04T12:28:12Z</time></trkpt><trkpt lat="45.85490238142764" lon="9.092258356227132"><ele>244.2</ele><time>2026-04-04T12:28:14Z</time></trkpt><trkpt lat="45.85483275305316" lon="9.092129028846227"><ele>238.0</ele><time>2026-04-04T12:28:16Z</time></trkpt><trkpt lat="45.85477514097775" lon="9.092028276577036"><ele>238.0</ele><time>2026-04-04T12:28:18Z</time></trkpt><trkpt lat="45.85470404387018" lon="9.091912181295777"><ele>238.0</ele><time>2026-04-04T12:28:20Z</time></trkpt><trkpt lat="45.85462809887305" lon="9.091784950546781"><ele>238.0</ele><time>2026-04-04T12:28:22Z</time></trkpt><trkpt lat="45.85455398487687" lon="9.091644220240191"><ele>238.0</ele><time>2026-04-04T12:28:24Z</time></trkpt><trkpt lat="45.85451009089366" lon="9.091569399581402"><ele>238.0</ele><time>2026-04-04T12:28:25Z</time></trkpt><trkpt lat="45.854464520750646" lon="9.091493593373322"><ele>239.49999999999997</ele><time>2026-04-04T12:28:26Z</time></trkpt><trkpt lat="45.85441169668088" lon="9.091425408996162"><ele>241.0</ele><time>2026-04-04T12:28:27Z</time></trkpt><trkpt lat="45.85434991068255" lon="9.091366809029175"><ele>242.5</ele><time>2026-04-04T12:28:28Z</time></trkpt><trkpt lat="45.85428451274972" lon="9.091318808007589"><ele>244.0</ele><time>2026-04-04T12:28:29Z</time></trkpt><trkpt lat="45.85421673192517" lon="9.09127005726958"><ele>245.49999999999997</ele><time>2026-04-04T12:28:30Z</time></trkpt><trkpt lat="45.854140662578466" lon="9.091233811436929"><ele>247.0</ele><time>2026-04-04T12:28:31Z</time></trkpt><trkpt lat="45.85406372952815" lon="9.091200175026016"><ele>246.99999999999997</ele><time>2026-04-04T12:28:32Z</time></trkpt><trkpt lat="45.853989414230746" lon="9.091159086801381"><ele>247.0</ele><time>2026-04-04T12:28:33Z</time></trkpt><trkpt lat="45.853923066510724" lon="9.091118103379078"><ele>247.0</ele><time>2026-04-04T12:28:34Z</time></trkpt><trkpt lat="45.85384435852992" lon="9.091060806956973"><ele>247.0</ele><time>2026-04-04T12:28:36Z</time></trkpt><trkpt lat="45.85391828838307" lon="9.091081736040817"><ele>246.99999999999997</ele><time>2026-04-04T12:28:41Z</time></trkpt><trkpt lat="45.85400589559936" lon="9.091123885988448"><ele>247.0</ele><time>2026-04-04T12:28:44Z</time></trkpt><trkpt lat="45.85412561865753" lon="9.091156191637468"><ele>246.99999999999997</ele><time>2026-04-04T12:28:46Z</time></trkpt><trkpt lat="45.854235049686004" lon="9.091212651116289"><ele>247.0</ele><time>2026-04-04T12:28:48Z</time></trkpt><trkpt lat="45.854301823898595" lon="9.0912406423566"><ele>247.0</ele><time>2026-04-04T12:28:49Z</time></trkpt><trkpt lat="45.85435508552635" lon="9.091304377682283"><ele>247.0</ele><time>2026-04-04T12:28:50Z</time></trkpt><trkpt lat="45.8544182900829" lon="9.091320488381813"><ele>246.99999999999997</ele><time>2026-04-04T12:28:51Z</time></trkpt><trkpt lat="45.85447660603803" lon="9.09141223410769"><ele>247.0</ele><time>2026-04-04T12:28:52Z</time></trkpt><trkpt lat="45.85455881691356" lon="9.091492210487381"><ele>245.2</ele><time>2026-04-04T12:28:53Z</time></trkpt><trkpt lat="45.8546277857689" lon="9.091599092319607"><ele>243.39999999999998</ele><time>2026-04-04T12:28:54Z</time></trkpt><trkpt lat="45.85470586430824" lon="9.09170027716825"><ele>241.60000000000002</ele><time>2026-04-04T12:28:55Z</time></trkpt><trkpt lat="45.85477868635934" lon="9.09179460353558"><ele>239.8</ele><time>2026-04-04T12:28:56Z</time></trkpt><trkpt lat="45.85484116218843" lon="9.091881445437787"><ele>238.0</ele><time>2026-04-04T12:28:57Z</time></trkpt><trkpt lat="45.854900738454006" lon="9.091935820785219"><ele>237.99999999999997</ele><time>2026-04-04T12:28:58Z</time></trkpt><trkpt lat="45.854968623995646" lon="9.091966794537406"><ele>238.0</ele><time>2026-04-04T12:28:59Z</time></trkpt><trkpt lat="45.85504931468761" lon="9.091983421437355"><ele>238.0</ele><time>2026-04-04T12:29:00Z</time></trkpt><trkpt lat="45.85512349124916" lon="9.09202201696872"><ele>238.0</ele><time>2026-04-04T12:29:01Z</time></trkpt><trkpt lat="45.855200777409415" lon="9.092008081706926"><ele>237.99999999999997</ele><time>2026-04-04T12:29:02Z</time></trkpt><trkpt lat="45.85527534495562" lon="9.092003972675416"><ele>238.0</ele><time>2026-04-04T12:29:03Z</time></trkpt><trkpt lat="45.85535732614568" lon="9.091996477566074"><ele>244.2</ele><time>2026-04-04T12:29:04Z</time></trkpt><trkpt lat="45.85544925473659" lon="9.091990994700591"><ele>250.4</ele><time>2026-04-04T12:29:05Z</time></trkpt><trkpt lat="45.85554452799639" lon="9.091992792376528"><ele>256.59999999999997</ele><time>2026-04-04T12:29:06.001Z</time></trkpt><trkpt lat="45.85564989432872" lon="9.092005753765388"><ele>262.8</ele><time>2026-04-04T12:29:07.001Z</time></trkpt><trkpt lat="45.85575075722935" lon="9.092091154721087"><ele>269.0</ele><time>2026-04-04T12:29:08.001Z</time></trkpt><trkpt lat="45.85582877633137" lon="9.092198683877983"><ele>269.0</ele><time>2026-04-04T12:29:09.001Z</time></trkpt><trkpt lat="45.85591933450892" lon="9.092286914065344"><ele>269.0</ele><time>2026-04-04T12:29:10.001Z</time></trkpt><trkpt lat="45.856013846274635" lon="9.092368647705564"><ele>269.0</ele><time>2026-04-04T12:29:11.001Z</time></trkpt><trkpt lat="45.85610352447227" lon="9.092451933549135"><ele>269.0</ele><time>2026-04-04T12:29:12.001Z</time></trkpt><trkpt lat="45.85618610762026" lon="9.092525796370003"><ele>269.0</ele><time>2026-04-04T12:29:13.001Z</time></trkpt><trkpt lat="45.85624296600303" lon="9.092607805247713"><ele>267.59999999999997</ele><time>2026-04-04T12:29:14.001Z</time></trkpt><trkpt lat="45.85631206015032" lon="9.092673221022471"><ele>266.2</ele><time>2026-04-04T12:29:15.001Z</time></trkpt><trkpt lat="45.85638235815261" lon="9.092773972468366"><ele>264.79999999999995</ele><time>2026-04-04T12:29:16.001Z</time></trkpt><trkpt lat="45.856471894887136" lon="9.092874560953938"><ele>263.4</ele><time>2026-04-04T12:29:17.001Z</time></trkpt><trkpt lat="45.856560037134685" lon="9.092992916507944"><ele>262.0</ele><time>2026-04-04T12:29:18.001Z</time></trkpt><trkpt lat="45.856666279216135" lon="9.093084739082474"><ele>262.0</ele><time>2026-04-04T12:29:19.001Z</time></trkpt><trkpt lat="45.85677655620555" lon="9.093176449959277"><ele>262.0</ele><time>2026-04-04T12:29:20.001Z</time></trkpt><trkpt lat="45.85688147179762" lon="9.093269795095582"><ele>262.0</ele><time>2026-04-04T12:29:21.001Z</time></trkpt><trkpt lat="45.85696604097909" lon="9.093356965123476"><ele>262.0</ele><time>2026-04-04T12:29:22.001Z</time></trkpt><trkpt lat="45.857059703772876" lon="9.09343874582887"><ele>259.8</ele><time>2026-04-04T12:29:23.001Z</time></trkpt><trkpt lat="45.85714796468591" lon="9.09348386303428"><ele>257.6</ele><time>2026-04-04T12:29:24.001Z</time></trkpt><trkpt lat="45.85724324356721" lon="9.09351429294053"><ele>255.40000000000003</ele><time>2026-04-04T12:29:25.001Z</time></trkpt><trkpt lat="45.85735177180501" lon="9.093545181384448"><ele>253.20000000000002</ele><time>2026-04-04T12:29:26.001Z</time></trkpt><trkpt lat="45.85745242745253" lon="9.093577866830664"><ele>251.0</ele><time>2026-04-04T12:29:27.001Z</time></trkpt><trkpt lat="45.85752170815878" lon="9.093620629691921"><ele>251.0</ele><time>2026-04-04T12:29:28.001Z</time></trkpt><trkpt lat="45.85760309782177" lon="9.093700045359656"><ele>251.00000000000003</ele><time>2026-04-04T12:29:29.001Z</time></trkpt><trkpt lat="45.85767885439924" lon="9.093802215252012"><ele>251.00000000000003</ele><time>2026-04-04T12:29:30.001Z</time></trkpt><trkpt lat="45.85774986181102" lon="9.093922190372215"><ele>251.0</ele><time>2026-04-04T12:29:31.001Z</time></trkpt><trkpt lat="45.857815604717615" lon="9.094052858607158"><ele>251.0</ele><time>2026-04-04T12:29:32.001Z</time></trkpt><trkpt lat="45.85788356687215" lon="9.094186243879866"><ele>253.0</ele><time>2026-04-04T12:29:33.001Z</time></trkpt><trkpt lat="45.857953119757326" lon="9.094322751058128"><ele>255.0</ele><time>2026-04-04T12:29:34.001Z</time></trkpt><trkpt lat="45.858023538088844" lon="9.094456961564491"><ele>257.0</ele><time>2026-04-04T12:29:35.001Z</time></trkpt><trkpt lat="45.858096976857716" lon="9.094595916365007"><ele>259.0</ele><time>2026-04-04T12:29:36.001Z</time></trkpt><trkpt lat="45.85817131150932" lon="9.094736434908336"><ele>259.0</ele><time>2026-04-04T12:29:37.001Z</time></trkpt><trkpt lat="45.85825520425949" lon="9.094845352935444"><ele>259.0</ele><time>2026-04-04T12:29:38.001Z</time></trkpt><trkpt lat="45.85833939986094" lon="9.094934096383884"><ele>259.0</ele><time>2026-04-04T12:29:39.001Z</time></trkpt><trkpt lat="45.858413099004665" lon="9.094987277700092"><ele>259.0</ele><time>2026-04-04T12:29:40.001Z</time></trkpt><trkpt lat="45.85847006383172" lon="9.095077577922506"><ele>259.0</ele><time>2026-04-04T12:29:42.001Z</time></trkpt><trkpt lat="45.858534987621105" lon="9.095189470392448"><ele>257.0</ele><time>2026-04-04T12:29:45.001Z</time></trkpt><trkpt lat="45.858557927629" lon="9.095274547663465"><ele>255.0</ele><time>2026-04-04T12:29:46.001Z</time></trkpt><trkpt lat="45.85857495121699" lon="9.095381019226375"><ele>253.0</ele><time>2026-04-04T12:29:47.001Z</time></trkpt><trkpt lat="45.85861550952555" lon="9.095498879609188"><ele>251.0</ele><time>2026-04-04T12:29:48.001Z</time></trkpt><trkpt lat="45.858660992844634" lon="9.095588205734204"><ele>248.99999999999997</ele><time>2026-04-04T12:29:49.001Z</time></trkpt><trkpt lat="45.85870463687464" lon="9.095661586049395"><ele>247.0</ele><time>2026-04-04T12:29:50.001Z</time></trkpt><trkpt lat="45.85880263259172" lon="9.095770689361453"><ele>246.99999999999997</ele><time>2026-04-04T12:29:52.001Z</time></trkpt><trkpt lat="45.85888456426909" lon="9.095876367270948"><ele>247.0</ele><time>2026-04-04T12:29:54.001Z</time></trkpt><trkpt lat="45.85894411386469" lon="9.095930290143997"><ele>247.0</ele><time>2026-04-04T12:29:57Z</time></trkpt><trkpt lat="45.85901305014582" lon="9.09603327463485"><ele>247.0</ele><time>2026-04-04T12:30:06Z</time></trkpt><trkpt lat="45.85907691655721" lon="9.096102398502207"><ele>246.99999999999997</ele><time>2026-04-04T12:30:08Z</time></trkpt><trkpt lat="45.85914176535856" lon="9.096172568662112"><ele>247.0</ele><time>2026-04-04T12:30:11Z</time></trkpt><trkpt lat="45.859228158420784" lon="9.09624702475214"><ele>253.6</ele><time>2026-04-04T12:30:14Z</time></trkpt><trkpt lat="45.8593041039419" lon="9.096333412473957"><ele>260.2</ele><time>2026-04-04T12:30:15Z</time></trkpt><trkpt lat="45.85936479944778" lon="9.096388607224595"><ele>266.8</ele><time>2026-04-04T12:30:16Z</time></trkpt><trkpt lat="45.85945450269431" lon="9.096415032071423"><ele>273.4</ele><time>2026-04-04T12:30:17Z</time></trkpt><trkpt lat="45.85953848880229" lon="9.096476918805985"><ele>280.0</ele><time>2026-04-04T12:30:18Z</time></trkpt><trkpt lat="45.85962885915302" lon="9.096556117871502"><ele>274.6</ele><time>2026-04-04T12:30:19Z</time></trkpt><trkpt lat="45.85971664866959" lon="9.096642708119605"><ele>269.2</ele><time>2026-04-04T12:30:20Z</time></trkpt><trkpt lat="45.859773208373724" lon="9.09679475918301"><ele>263.8</ele><time>2026-04-04T12:30:21Z</time></trkpt><trkpt lat="45.85985816174586" lon="9.096891644225781"><ele>258.4</ele><time>2026-04-04T12:30:22Z</time></trkpt><trkpt lat="45.85993318553518" lon="9.096981877229162"><ele>253.0</ele><time>2026-04-04T12:30:23Z</time></trkpt><trkpt lat="45.85999967347017" lon="9.097064809749009"><ele>252.99999999999997</ele><time>2026-04-04T12:30:24Z</time></trkpt><trkpt lat="45.86005027462418" lon="9.097132162054182"><ele>253.0</ele><time>2026-04-04T12:30:25Z</time></trkpt><trkpt lat="45.860090343124945" lon="9.097205739629873"><ele>253.0</ele><time>2026-04-04T12:30:26Z</time></trkpt><trkpt lat="45.86015456591135" lon="9.097275064512056"><ele>253.0</ele><time>2026-04-04T12:30:27Z</time></trkpt><trkpt lat="45.860179102077495" lon="9.097409793844308"><ele>252.99999999999997</ele><time>2026-04-04T12:30:28Z</time></trkpt><trkpt lat="45.860212464058534" lon="9.097569985400378"><ele>253.0</ele><time>2026-04-04T12:30:29Z</time></trkpt><trkpt lat="45.86024143836586" lon="9.097718515352234"><ele>253.16666666666666</ele><time>2026-04-04T12:30:30Z</time></trkpt><trkpt lat="45.86027167737014" lon="9.097846893344755"><ele>253.33333333333331</ele><time>2026-04-04T12:30:31Z</time></trkpt><trkpt lat="45.86029646880413" lon="9.09796623783407"><ele>253.5</ele><time>2026-04-04T12:30:32Z</time></trkpt><trkpt lat="45.8603215691068" lon="9.098093884427573"><ele>253.66666666666669</ele><time>2026-04-04T12:30:33Z</time></trkpt><trkpt lat="45.8603545133629" lon="9.098201300284387"><ele>253.83333333333334</ele><time>2026-04-04T12:30:34Z</time></trkpt><trkpt lat="45.860380490572894" lon="9.098296000164769"><ele>254.0</ele><time>2026-04-04T12:30:35Z</time></trkpt><trkpt lat="45.86041602870224" lon="9.098379893716912"><ele>254.00000000000003</ele><time>2026-04-04T12:30:36Z</time></trkpt><trkpt lat="45.86050487634709" lon="9.098410099230756"><ele>254.0</ele><time>2026-04-04T12:30:37Z</time></trkpt><trkpt lat="45.8605979416774" lon="9.098444173544467"><ele>254.0</ele><time>2026-04-04T12:30:38Z</time></trkpt><trkpt lat="45.860664258118156" lon="9.098470707271744"><ele>254.0</ele><time>2026-04-04T12:30:39Z</time></trkpt><trkpt lat="45.86073283506779" lon="9.09856713590943"><ele>254.00000000000003</ele><time>2026-04-04T12:30:41Z</time></trkpt><trkpt lat="45.8607506515188" lon="9.098700315958066"><ele>254.0</ele><time>2026-04-04T12:30:43Z</time></trkpt><trkpt lat="45.860783551807096" lon="9.098863188072295"><ele>254.0</ele><time>2026-04-04T12:30:45.001Z</time></trkpt><trkpt lat="45.860808517721" lon="9.098979311673018"><ele>254.0</ele><time>2026-04-04T12:30:47.001Z</time></trkpt><trkpt lat="45.86097917441543" lon="9.099351143060053"><ele>254.0</ele><time>2026-04-04T12:30:49.001Z</time></trkpt><trkpt lat="45.86104117634059" lon="9.099315831193168"><ele>252.39999999999998</ele><time>2026-04-04T12:30:50.001Z</time></trkpt><trkpt lat="45.86110721948912" lon="9.099279384892261"><ele>250.79999999999998</ele><time>2026-04-04T12:30:51.001Z</time></trkpt><trkpt lat="45.86118142807532" lon="9.09927766018629"><ele>249.20000000000002</ele><time>2026-04-04T12:30:52.001Z</time></trkpt><trkpt lat="45.861323280275826" lon="9.099207964870766"><ele>247.60000000000002</ele><time>2026-04-04T12:30:54.001Z</time></trkpt><trkpt lat="45.86140469351127" lon="9.09916352620583"><ele>246.0</ele><time>2026-04-04T12:30:55.001Z</time></trkpt><trkpt lat="45.86148893842963" lon="9.099127790596942"><ele>246.0</ele><time>2026-04-04T12:30:56.001Z</time></trkpt><trkpt lat="45.86157219188306" lon="9.099120884717701"><ele>246.00000000000003</ele><time>2026-04-04T12:30:57.001Z</time></trkpt><trkpt lat="45.86165198231769" lon="9.099103038353688"><ele>246.00000000000003</ele><time>2026-04-04T12:30:58.001Z</time></trkpt><trkpt lat="45.86177174020793" lon="9.099101821173022"><ele>246.0</ele><time>2026-04-04T12:31:00.001Z</time></trkpt><trkpt lat="45.861835526635026" lon="9.099120147561328"><ele>246.0</ele><time>2026-04-04T12:31:01.001Z</time></trkpt><trkpt lat="45.86195142890184" lon="9.099085329898104"><ele>248.8</ele><time>2026-04-04T12:31:03.001Z</time></trkpt><trkpt lat="45.8620524512299" lon="9.099061152803454"><ele>251.60000000000002</ele><time>2026-04-04T12:31:05.001Z</time></trkpt><trkpt lat="45.86212829820665" lon="9.099032381929652"><ele>254.4</ele><time>2026-04-04T12:31:07.001Z</time></trkpt><trkpt lat="45.86220603392574" lon="9.099021391420655"><ele>257.2</ele><time>2026-04-04T12:31:09.001Z</time></trkpt><trkpt lat="45.8622850042053" lon="9.099061526427986"><ele>260.0</ele><time>2026-04-04T12:31:11.001Z</time></trkpt><trkpt lat="45.86238205617863" lon="9.099150074408978"><ele>260.0</ele><time>2026-04-04T12:31:13.001Z</time></trkpt><trkpt lat="45.86248526475231" lon="9.09918802052024"><ele>260.0</ele><time>2026-04-04T12:31:15.001Z</time></trkpt><trkpt lat="45.862551723928" lon="9.099239196327426"><ele>260.0</ele><time>2026-04-04T12:31:16.001Z</time></trkpt><trkpt lat="45.86265331728873" lon="9.099347346168315"><ele>260.0</ele><time>2026-04-04T12:31:18.001Z</time></trkpt><trkpt lat="45.86269158417603" lon="9.099420606723623"><ele>260.0</ele><time>2026-04-04T12:31:19.001Z</time></trkpt><trkpt lat="45.862769299898254" lon="9.099553486452383"><ele>266.4</ele><time>2026-04-04T12:31:21.001Z</time></trkpt><trkpt lat="45.862810721647264" lon="9.099668141098926"><ele>272.8</ele><time>2026-04-04T12:31:23.001Z</time></trkpt><trkpt lat="45.86275074854381" lon="9.099785261244719"><ele>279.2</ele><time>2026-04-04T12:31:25.001Z</time></trkpt><trkpt lat="45.86271861301867" lon="9.099874896789732"><ele>285.6</ele><time>2026-04-04T12:31:26.001Z</time></trkpt><trkpt lat="45.862694674585796" lon="9.099972130495692"><ele>292.0</ele><time>2026-04-04T12:31:27.001Z</time></trkpt><trkpt lat="45.86262015141678" lon="9.100124350894673"><ele>285.2</ele><time>2026-04-04T12:31:29.001Z</time></trkpt><trkpt lat="45.862568740719624" lon="9.10024062282452"><ele>278.4</ele><time>2026-04-04T12:31:31.001Z</time></trkpt><trkpt lat="45.86255269680466" lon="9.100388362831367"><ele>271.6</ele><time>2026-04-04T12:31:32.001Z</time></trkpt><trkpt lat="45.86253754886794" lon="9.10050282137054"><ele>264.8</ele><time>2026-04-04T12:31:33.001Z</time></trkpt><trkpt lat="45.86253443036388" lon="9.100595398316019"><ele>258.0</ele><time>2026-04-04T12:31:34.001Z</time></trkpt><trkpt lat="45.862530579298976" lon="9.1007679440608"><ele>258.0</ele><time>2026-04-04T12:31:36.001Z</time></trkpt><trkpt lat="45.862542597755336" lon="9.100937840470067"><ele>258.0</ele><time>2026-04-04T12:31:38.001Z</time></trkpt><trkpt lat="45.862536092551416" lon="9.10110525869986"><ele>258.0</ele><time>2026-04-04T12:31:40.001Z</time></trkpt><trkpt lat="45.862549072499455" lon="9.101256823767908"><ele>258.0</ele><time>2026-04-04T12:31:42.001Z</time></trkpt><trkpt lat="45.86256844289269" lon="9.101421576459215"><ele>258.0</ele><time>2026-04-04T12:31:44.001Z</time></trkpt><trkpt lat="45.86258049054073" lon="9.101579209839796"><ele>258.0</ele><time>2026-04-04T12:31:46.001Z</time></trkpt><trkpt lat="45.8625614021106" lon="9.101736903435286"><ele>258.0</ele><time>2026-04-04T12:31:48.001Z</time></trkpt><trkpt lat="45.8625376209506" lon="9.101822241057311"><ele>258.0</ele><time>2026-04-04T12:31:49.001Z</time></trkpt><trkpt lat="45.86250727803397" lon="9.101907272623539"><ele>258.0</ele><time>2026-04-04T12:31:50.001Z</time></trkpt><trkpt lat="45.86247600803935" lon="9.101999619835887"><ele>258.0</ele><time>2026-04-04T12:31:51.001Z</time></trkpt><trkpt lat="45.86246634723877" lon="9.102170394140067"><ele>257.6666666666667</ele><time>2026-04-04T12:31:53.001Z</time></trkpt><trkpt lat="45.86247099656104" lon="9.102265668622042"><ele>257.3333333333333</ele><time>2026-04-04T12:31:54.001Z</time></trkpt><trkpt lat="45.862515442075654" lon="9.102385333979404"><ele>257.0</ele><time>2026-04-04T12:31:55.001Z</time></trkpt><trkpt lat="45.86256324420591" lon="9.10246129197907"><ele>256.66666666666663</ele><time>2026-04-04T12:31:56.001Z</time></trkpt><trkpt lat="45.86262183562994" lon="9.102541039968838"><ele>256.3333333333333</ele><time>2026-04-04T12:31:57.001Z</time></trkpt><trkpt lat="45.862671339127964" lon="9.102610766854685"><ele>256.0</ele><time>2026-04-04T12:31:58.001Z</time></trkpt><trkpt lat="45.862722760035474" lon="9.102683194443344"><ele>260.16666666666663</ele><time>2026-04-04T12:31:59.001Z</time></trkpt><trkpt lat="45.86277470470481" lon="9.102760457624933"><ele>264.3333333333333</ele><time>2026-04-04T12:32:00.001Z</time></trkpt><trkpt lat="45.86282429873861" lon="9.102852353056829"><ele>268.5</ele><time>2026-04-04T12:32:01Z</time></trkpt><trkpt lat="45.86287055040083" lon="9.102954601190795"><ele>272.6666666666667</ele><time>2026-04-04T12:32:02Z</time></trkpt><trkpt lat="45.862907994409696" lon="9.103057920802234"><ele>276.83333333333337</ele><time>2026-04-04T12:32:03Z</time></trkpt><trkpt lat="45.862951415647984" lon="9.103168937837165"><ele>281.0</ele><time>2026-04-04T12:32:04Z</time></trkpt><trkpt lat="45.86299687039127" lon="9.103281695739847"><ele>281.0</ele><time>2026-04-04T12:32:05Z</time></trkpt><trkpt lat="45.86304031923407" lon="9.103388255843287"><ele>281.0</ele><time>2026-04-04T12:32:06Z</time></trkpt><trkpt lat="45.863072058314714" lon="9.10349357370636"><ele>281.0</ele><time>2026-04-04T12:32:07Z</time></trkpt><trkpt lat="45.863097688306794" lon="9.103611975350711"><ele>281.0</ele><time>2026-04-04T12:32:08Z</time></trkpt><trkpt lat="45.86311574970011" lon="9.103712912708973"><ele>281.0</ele><time>2026-04-04T12:32:09Z</time></trkpt><trkpt lat="45.86314199751851" lon="9.103807128436246"><ele>281.0</ele><time>2026-04-04T12:32:10Z</time></trkpt><trkpt lat="45.86315358377925" lon="9.103902448048867"><ele>281.00000000000006</ele><time>2026-04-04T12:32:11Z</time></trkpt><trkpt lat="45.863177024001686" lon="9.10399334745335"><ele>281.0</ele><time>2026-04-04T12:32:12Z</time></trkpt><trkpt lat="45.863241680333104" lon="9.104081169740542"><ele>281.0</ele><time>2026-04-04T12:32:13Z</time></trkpt><trkpt lat="45.86328479714844" lon="9.104164381840215"><ele>281.0</ele><time>2026-04-04T12:32:14Z</time></trkpt><trkpt lat="45.863329498189536" lon="9.104242348124476"><ele>281.0</ele><time>2026-04-04T12:32:15Z</time></trkpt><trkpt lat="45.8633911101715" lon="9.104298123052113"><ele>281.00000000000006</ele><time>2026-04-04T12:32:16Z</time></trkpt><trkpt lat="45.863451321826574" lon="9.10434056536034"><ele>281.0</ele><time>2026-04-04T12:32:17Z</time></trkpt><trkpt lat="45.863506428859715" lon="9.104385062715682"><ele>284.1666666666667</ele><time>2026-04-04T12:32:18Z</time></trkpt><trkpt lat="45.86355990210798" lon="9.104436678403477"><ele>287.33333333333337</ele><time>2026-04-04T12:32:19Z</time></trkpt><trkpt lat="45.863614475010245" lon="9.104483000654863"><ele>290.5</ele><time>2026-04-04T12:32:20Z</time></trkpt><trkpt lat="45.86367257880105" lon="9.10452957393822"><ele>293.6666666666667</ele><time>2026-04-04T12:32:21Z</time></trkpt><trkpt lat="45.863728795495426" lon="9.104578195281087"><ele>296.8333333333333</ele><time>2026-04-04T12:32:22Z</time></trkpt><trkpt lat="45.86381858877986" lon="9.10466515179341"><ele>300.0</ele><time>2026-04-04T12:32:24Z</time></trkpt><trkpt lat="45.86388204831457" lon="9.104769673653246"><ele>300.0</ele><time>2026-04-04T12:32:26Z</time></trkpt><trkpt lat="45.86391311970409" lon="9.1048523321107"><ele>300.0</ele><time>2026-04-04T12:32:29Z</time></trkpt><trkpt lat="45.863961248633295" lon="9.104953324126784"><ele>300.0</ele><time>2026-04-04T12:32:32Z</time></trkpt><trkpt lat="45.8640291928148" lon="9.10509081973498"><ele>300.0</ele><time>2026-04-04T12:32:34Z</time></trkpt><trkpt lat="45.86409529536344" lon="9.10519803286529"><ele>300.0</ele><time>2026-04-04T12:32:36Z</time></trkpt><trkpt lat="45.864157889943954" lon="9.105288943352328"><ele>296.25</ele><time>2026-04-04T12:32:38Z</time></trkpt><trkpt lat="45.86421448182115" lon="9.105374746020548"><ele>292.5</ele><time>2026-04-04T12:32:40Z</time></trkpt><trkpt lat="45.864287397389" lon="9.105440888082548"><ele>288.75</ele><time>2026-04-04T12:32:42Z</time></trkpt><trkpt lat="45.864345670602155" lon="9.105090773049822"><ele>285.0</ele><time>2026-04-04T12:32:45Z</time></trkpt><trkpt lat="45.86423630345182" lon="9.105066062948477"><ele>285.0</ele><time>2026-04-04T12:32:46Z</time></trkpt><trkpt lat="45.864177434330685" lon="9.104999517021163"><ele>285.0</ele><time>2026-04-04T12:32:47Z</time></trkpt><trkpt lat="45.86412996879638" lon="9.104907065644811"><ele>285.0</ele><time>2026-04-04T12:32:48Z</time></trkpt><trkpt lat="45.86408388237879" lon="9.10478879954945"><ele>285.0</ele><time>2026-04-04T12:32:49Z</time></trkpt><trkpt lat="45.86402554129305" lon="9.104704191084231"><ele>285.0</ele><time>2026-04-04T12:32:50Z</time></trkpt><trkpt lat="45.8639712840107" lon="9.104592194864097"><ele>285.0</ele><time>2026-04-04T12:32:51Z</time></trkpt><trkpt lat="45.86391119950641" lon="9.104473294171537"><ele>288.0</ele><time>2026-04-04T12:32:52Z</time></trkpt><trkpt lat="45.86384912164265" lon="9.104348212654571"><ele>291.0</ele><time>2026-04-04T12:32:53.001Z</time></trkpt><trkpt lat="45.86378447164136" lon="9.104234204161981"><ele>294.0</ele><time>2026-04-04T12:32:54.001Z</time></trkpt><trkpt lat="45.86372395277435" lon="9.104117053397543"><ele>297.0</ele><time>2026-04-04T12:32:55.001Z</time></trkpt><trkpt lat="45.86366408183684" lon="9.10399339869676"><ele>300.0</ele><time>2026-04-04T12:32:56.001Z</time></trkpt><trkpt lat="45.86360558560432" lon="9.103877773992407"><ele>298.6</ele><time>2026-04-04T12:32:57.001Z</time></trkpt><trkpt lat="45.863540395745055" lon="9.103760783950678"><ele>297.2</ele><time>2026-04-04T12:32:58.001Z</time></trkpt><trkpt lat="45.863477471602906" lon="9.103641934786177"><ele>295.8</ele><time>2026-04-04T12:32:59.001Z</time></trkpt><trkpt lat="45.86341171695758" lon="9.103511432106933"><ele>294.4</ele><time>2026-04-04T12:33:00.001Z</time></trkpt><trkpt lat="45.86334336239947" lon="9.103362255786056"><ele>293.0</ele><time>2026-04-04T12:33:01.001Z</time></trkpt><trkpt lat="45.8632617791532" lon="9.103216005503144"><ele>293.0</ele><time>2026-04-04T12:33:02.001Z</time></trkpt><trkpt lat="45.86319558683348" lon="9.103060214963374"><ele>293.0</ele><time>2026-04-04T12:33:03.001Z</time></trkpt><trkpt lat="45.863145721984445" lon="9.102906118232696"><ele>293.0</ele><time>2026-04-04T12:33:04.001Z</time></trkpt><trkpt lat="45.863108629119566" lon="9.102741233965167"><ele>293.0</ele><time>2026-04-04T12:33:05.001Z</time></trkpt><trkpt lat="45.863093681756894" lon="9.102557147860582"><ele>294.5</ele><time>2026-04-04T12:33:06.001Z</time></trkpt><trkpt lat="45.86308315403319" lon="9.102368378812473"><ele>296.0</ele><time>2026-04-04T12:33:07.001Z</time></trkpt><trkpt lat="45.863083813556244" lon="9.102185815198844"><ele>297.5</ele><time>2026-04-04T12:33:08.001Z</time></trkpt><trkpt lat="45.863089831474134" lon="9.101978420005052"><ele>299.0</ele><time>2026-04-04T12:33:09.001Z</time></trkpt><trkpt lat="45.86309634683344" lon="9.101755824789443"><ele>297.75</ele><time>2026-04-04T12:33:10.001Z</time></trkpt><trkpt lat="45.8631029749208" lon="9.101529379141558"><ele>296.5</ele><time>2026-04-04T12:33:11.001Z</time></trkpt><trkpt lat="45.86310942008865" lon="9.101309182240003"><ele>295.25</ele><time>2026-04-04T12:33:12.001Z</time></trkpt><trkpt lat="45.86311526211717" lon="9.101116483794984"><ele>294.0</ele><time>2026-04-04T12:33:13.001Z</time></trkpt><trkpt lat="45.8631208549923" lon="9.100936313664368"><ele>294.0</ele><time>2026-04-04T12:33:14.001Z</time></trkpt><trkpt lat="45.86312542628883" lon="9.100766593688485"><ele>294.0</ele><time>2026-04-04T12:33:15.001Z</time></trkpt><trkpt lat="45.86313077287778" lon="9.10058334202659"><ele>294.0</ele><time>2026-04-04T12:33:16.001Z</time></trkpt><trkpt lat="45.863106070088925" lon="9.100371530231712"><ele>294.0</ele><time>2026-04-04T12:33:17.001Z</time></trkpt><trkpt lat="45.86311333453002" lon="9.100108002671416"><ele>294.0</ele><time>2026-04-04T12:33:18.001Z</time></trkpt><trkpt lat="45.86313803955598" lon="9.099814306358455"><ele>294.0</ele><time>2026-04-04T12:33:19.001Z</time></trkpt><trkpt lat="45.863159187727945" lon="9.099528359339212"><ele>294.0</ele><time>2026-04-04T12:33:20.001Z</time></trkpt><trkpt lat="45.86316729238383" lon="9.099283893666431"><ele>295.6666666666667</ele><time>2026-04-04T12:33:21.001Z</time></trkpt><trkpt lat="45.86316290771579" lon="9.099060467370805"><ele>297.33333333333337</ele><time>2026-04-04T12:33:22.001Z</time></trkpt><trkpt lat="45.86312315228557" lon="9.098847230277748"><ele>299.0</ele><time>2026-04-04T12:33:23.001Z</time></trkpt><trkpt lat="45.86305743662699" lon="9.098650629930216"><ele>299.0</ele><time>2026-04-04T12:33:24.001Z</time></trkpt><trkpt lat="45.86297079511174" lon="9.098456703612863"><ele>299.0</ele><time>2026-04-04T12:33:25.001Z</time></trkpt><trkpt lat="45.8628649101423" lon="9.098294829526345"><ele>299.0</ele><time>2026-04-04T12:33:26.001Z</time></trkpt><trkpt lat="45.86273571254327" lon="9.098169622425472"><ele>300.6666666666667</ele><time>2026-04-04T12:33:27.001Z</time></trkpt><trkpt lat="45.862590004998836" lon="9.098070504162882"><ele>302.3333333333333</ele><time>2026-04-04T12:33:28.001Z</time></trkpt><trkpt lat="45.86241498876215" lon="9.098005658486416"><ele>304.0</ele><time>2026-04-04T12:33:29.001Z</time></trkpt><trkpt lat="45.86223795628078" lon="9.097968777518005"><ele>304.0</ele><time>2026-04-04T12:33:30.001Z</time></trkpt><trkpt lat="45.86209330258036" lon="9.097972546545737"><ele>304.0</ele><time>2026-04-04T12:33:31.001Z</time></trkpt><trkpt lat="45.86194745834404" lon="9.09796592285751"><ele>304.0</ele><time>2026-04-04T12:33:32.001Z</time></trkpt><trkpt lat="45.861804612884484" lon="9.09794972342399"><ele>304.0</ele><time>2026-04-04T12:33:33.001Z</time></trkpt><trkpt lat="45.86159445175397" lon="9.097895743278082"><ele>302.0</ele><time>2026-04-04T12:33:34.001Z</time></trkpt><trkpt lat="45.86142289511281" lon="9.09787291601107"><ele>300.0</ele><time>2026-04-04T12:33:35.001Z</time></trkpt><trkpt lat="45.861263890934524" lon="9.097834951105753"><ele>298.0</ele><time>2026-04-04T12:33:36.001Z</time></trkpt><trkpt lat="45.86111043344182" lon="9.097754006950138"><ele>298.0</ele><time>2026-04-04T12:33:37.001Z</time></trkpt><trkpt lat="45.860987379527074" lon="9.097607705826952"><ele>298.0</ele><time>2026-04-04T12:33:38.001Z</time></trkpt><trkpt lat="45.86088019884226" lon="9.097447170637093"><ele>298.0</ele><time>2026-04-04T12:33:39.001Z</time></trkpt><trkpt lat="45.86079112996237" lon="9.097262311666494"><ele>297.66666666666663</ele><time>2026-04-04T12:33:40.001Z</time></trkpt><trkpt lat="45.8607044605731" lon="9.097068712483223"><ele>297.3333333333333</ele><time>2026-04-04T12:33:41.001Z</time></trkpt><trkpt lat="45.86061133650859" lon="9.09688220649135"><ele>297.0</ele><time>2026-04-04T12:33:42.001Z</time></trkpt><trkpt lat="45.86052979514662" lon="9.0966764537703"><ele>308.0</ele><time>2026-04-04T12:33:43.001Z</time></trkpt><trkpt lat="45.860433238405015" lon="9.09648991671524"><ele>319.0</ele><time>2026-04-04T12:33:44.001Z</time></trkpt><trkpt lat="45.860315253327414" lon="9.096322128767106"><ele>330.0</ele><time>2026-04-04T12:33:45.001Z</time></trkpt><trkpt lat="45.86018356073905" lon="9.096179343593324"><ele>313.3333333333333</ele><time>2026-04-04T12:33:46.001Z</time></trkpt><trkpt lat="45.86004777981569" lon="9.09604618687197"><ele>296.66666666666663</ele><time>2026-04-04T12:33:47.001Z</time></trkpt><trkpt lat="45.85991074040038" lon="9.09591164763399"><ele>280.0</ele><time>2026-04-04T12:33:48.001Z</time></trkpt><trkpt lat="45.85977399566626" lon="9.09577228496334"><ele>296.0</ele><time>2026-04-04T12:33:49.001Z</time></trkpt><trkpt lat="45.8596332487983" lon="9.095632584922706"><ele>312.0</ele><time>2026-04-04T12:33:50.001Z</time></trkpt><trkpt lat="45.85949261385365" lon="9.095489956159577"><ele>328.0</ele><time>2026-04-04T12:33:51.001Z</time></trkpt><trkpt lat="45.85935249586769" lon="9.095343675110596"><ele>324.3333333333333</ele><time>2026-04-04T12:33:52.001Z</time></trkpt><trkpt lat="45.85921118802252" lon="9.095200799841063"><ele>320.6666666666667</ele><time>2026-04-04T12:33:53.001Z</time></trkpt><trkpt lat="45.85907418616333" lon="9.095046892497116"><ele>317.0</ele><time>2026-04-04T12:33:54.001Z</time></trkpt><trkpt lat="45.858946313169675" lon="9.094868633548142"><ele>317.0</ele><time>2026-04-04T12:33:55.001Z</time></trkpt><trkpt lat="45.85884987115297" lon="9.094665440654103"><ele>317.0</ele><time>2026-04-04T12:33:56.001Z</time></trkpt><trkpt lat="45.85874657892888" lon="9.094450482152668"><ele>317.0</ele><time>2026-04-04T12:33:57.001Z</time></trkpt><trkpt lat="45.85865866285161" lon="9.09420994255714"><ele>308.0</ele><time>2026-04-04T12:33:58.001Z</time></trkpt><trkpt lat="45.85857252090077" lon="9.093966092872238"><ele>299.0</ele><time>2026-04-04T12:33:59.001Z</time></trkpt><trkpt lat="45.85848429024723" lon="9.093717784409503"><ele>290.0</ele><time>2026-04-04T12:34:00.001Z</time></trkpt><trkpt lat="45.85839239216491" lon="9.093474452495224"><ele>307.0</ele><time>2026-04-04T12:34:01.001Z</time></trkpt><trkpt lat="45.858311572703805" lon="9.093253910718781"><ele>324.0</ele><time>2026-04-04T12:34:02.001Z</time></trkpt><trkpt lat="45.858234968614234" lon="9.093057778045639"><ele>341.0</ele><time>2026-04-04T12:34:03.001Z</time></trkpt><trkpt lat="45.85815333965949" lon="9.092884913950542"><ele>341.0</ele><time>2026-04-04T12:34:04.001Z</time></trkpt><trkpt lat="45.858058281816845" lon="9.092735970274138"><ele>341.0</ele><time>2026-04-04T12:34:05.001Z</time></trkpt><trkpt lat="45.8579596038091" lon="9.092608929991021"><ele>341.0</ele><time>2026-04-04T12:34:06.001Z</time></trkpt><trkpt lat="45.857845649534255" lon="9.092484527637904"><ele>341.0</ele><time>2026-04-04T12:34:06.999Z</time></trkpt><trkpt lat="45.85770415882749" lon="9.092389432161575"><ele>340.33333333333337</ele><time>2026-04-04T12:34:07.999Z</time></trkpt><trkpt lat="45.857556319150255" lon="9.092301961319265"><ele>339.6666666666667</ele><time>2026-04-04T12:34:08.999Z</time></trkpt><trkpt lat="45.85740114317388" lon="9.092224543796123"><ele>339.0</ele><time>2026-04-04T12:34:09.999Z</time></trkpt><trkpt lat="45.85723156434741" lon="9.09215124202967"><ele>339.0</ele><time>2026-04-04T12:34:10.999Z</time></trkpt><trkpt lat="45.85706739536615" lon="9.092066579596462"><ele>339.0</ele><time>2026-04-04T12:34:11.999Z</time></trkpt><trkpt lat="45.85689750744973" lon="9.091978416709368"><ele>339.0</ele><time>2026-04-04T12:34:13.014Z</time></trkpt><trkpt lat="45.85674044248629" lon="9.091896908305946"><ele>329.3333333333333</ele><time>2026-04-04T12:34:14.014Z</time></trkpt><trkpt lat="45.85657621769359" lon="9.091811684285952"><ele>319.66666666666663</ele><time>2026-04-04T12:34:15.014Z</time></trkpt><trkpt lat="45.85641111563481" lon="9.09172600503766"><ele>310.0</ele><time>2026-04-04T12:34:16.015Z</time></trkpt><trkpt lat="45.85624798696475" lon="9.091641351834461"><ele>314.5</ele><time>2026-04-04T12:34:17.016Z</time></trkpt><trkpt lat="45.85588398627157" lon="9.091452049655087"><ele>319.0</ele><time>2026-04-04T12:34:19Z</time></trkpt><trkpt lat="45.85571318944961" lon="9.091362925303713"><ele>319.0</ele><time>2026-04-04T12:34:19.999Z</time></trkpt><trkpt lat="45.85554721233755" lon="9.091277473973948"><ele>319.0</ele><time>2026-04-04T12:34:20.999Z</time></trkpt><trkpt lat="45.855383052165365" lon="9.091187874722115"><ele>319.0</ele><time>2026-04-04T12:34:21.999Z</time></trkpt><trkpt lat="45.85522044466247" lon="9.091098856696945"><ele>323.66666666666663</ele><time>2026-04-04T12:34:22.999Z</time></trkpt><trkpt lat="45.855077290971124" lon="9.090983706375734"><ele>328.3333333333333</ele><time>2026-04-04T12:34:23.999Z</time></trkpt><trkpt lat="45.854923933174796" lon="9.090868427487555"><ele>333.0</ele><time>2026-04-04T12:34:24.999Z</time></trkpt><trkpt lat="45.854707868303635" lon="9.090704103479432"><ele>333.0</ele><time>2026-04-04T12:34:25.999Z</time></trkpt><trkpt lat="45.85456830066873" lon="9.090582866898457"><ele>333.0</ele><time>2026-04-04T12:34:26.999Z</time></trkpt><trkpt lat="45.85440948812962" lon="9.09045626267528"><ele>333.0</ele><time>2026-04-04T12:34:28Z</time></trkpt><trkpt lat="45.85424535417753" lon="9.09034961393355"><ele>319.3333333333333</ele><time>2026-04-04T12:34:29Z</time></trkpt><trkpt lat="45.85407434500124" lon="9.090243920347566"><ele>305.66666666666663</ele><time>2026-04-04T12:34:30Z</time></trkpt><trkpt lat="45.853929633119996" lon="9.090117130456798"><ele>292.0</ele><time>2026-04-04T12:34:31Z</time></trkpt><trkpt lat="45.853808113239936" lon="9.090002123045382"><ele>292.75</ele><time>2026-04-04T12:34:32Z</time></trkpt><trkpt lat="45.85369640101229" lon="9.089892842992587"><ele>293.5</ele><time>2026-04-04T12:34:33Z</time></trkpt><trkpt lat="45.85358785560805" lon="9.089781923900963"><ele>294.25</ele><time>2026-04-04T12:34:34Z</time></trkpt><trkpt lat="45.85347240794415" lon="9.089690829604901"><ele>295.0</ele><time>2026-04-04T12:34:35Z</time></trkpt><trkpt lat="45.85330443506951" lon="9.089587528631037"><ele>295.0</ele><time>2026-04-04T12:34:36Z</time></trkpt><trkpt lat="45.853159295868075" lon="9.089481585891479"><ele>295.0</ele><time>2026-04-04T12:34:37Z</time></trkpt><trkpt lat="45.853028710952" lon="9.089398416342487"><ele>295.0</ele><time>2026-04-04T12:34:38Z</time></trkpt><trkpt lat="45.85289653370508" lon="9.089304118974812"><ele>295.0</ele><time>2026-04-04T12:34:39Z</time></trkpt><trkpt lat="45.8527490428856" lon="9.089177114807253"><ele>295.0</ele><time>2026-04-04T12:34:40Z</time></trkpt><trkpt lat="45.852583629776824" lon="9.089053632835327"><ele>295.0</ele><time>2026-04-04T12:34:41Z</time></trkpt><trkpt lat="45.85240101818894" lon="9.088923007970173"><ele>302.66666666666663</ele><time>2026-04-04T12:34:42Z</time></trkpt><trkpt lat="45.85224917821597" lon="9.088804019684298"><ele>310.3333333333333</ele><time>2026-04-04T12:34:43Z</time></trkpt><trkpt lat="45.85209233449556" lon="9.0886822649581"><ele>318.0</ele><time>2026-04-04T12:34:44Z</time></trkpt><trkpt lat="45.85193170409401" lon="9.088556695312025"><ele>322.6666666666667</ele><time>2026-04-04T12:34:45.013Z</time></trkpt><trkpt lat="45.851770624860954" lon="9.088439261475186"><ele>327.33333333333337</ele><time>2026-04-04T12:34:46.014Z</time></trkpt><trkpt lat="45.851608997372" lon="9.088316766339434"><ele>332.0</ele><time>2026-04-04T12:34:47.012Z</time></trkpt><trkpt lat="45.851446414665986" lon="9.088193659032424"><ele>332.0</ele><time>2026-04-04T12:34:48.018Z</time></trkpt><trkpt lat="45.85128766471827" lon="9.08807291937566"><ele>332.0</ele><time>2026-04-04T12:34:49.012Z</time></trkpt><trkpt lat="45.85112917273676" lon="9.087953328490762"><ele>332.0</ele><time>2026-04-04T12:34:50.013Z</time></trkpt><trkpt lat="45.85097087529815" lon="9.087833077525056"><ele>381.0</ele><time>2026-04-04T12:34:51.014Z</time></trkpt><trkpt lat="45.84954664610793" lon="9.085804279335168"><ele>395.0</ele><time>2026-04-04T12:34:54.312Z</time></trkpt><trkpt lat="45.84921843108141" lon="9.085035778172946"><ele>414.0</ele><time>2026-04-04T12:34:55.312Z</time></trkpt><trkpt lat="45.848964063381274" lon="9.084211722079699"><ele>422.0</ele><time>2026-04-04T12:34:56.312Z</time></trkpt><trkpt lat="45.848772706581045" lon="9.08335384901255"><ele>418.0</ele><time>2026-04-04T12:34:57.312Z</time></trkpt><trkpt lat="45.84862688007762" lon="9.082476090534016"><ele>416.0</ele><time>2026-04-04T12:34:58.313Z</time></trkpt><trkpt lat="45.8486121" lon="9.0823804"><ele>414.0</ele><time>2026-04-04T12:34:59.313Z</time></trkpt><trkpt lat="45.838465453168226" lon="9.06760068611155"><ele>362.75</ele><time>2026-04-04T12:36:19.001Z</time></trkpt><trkpt lat="45.838307080292104" lon="9.067564228736641"><ele>311.5</ele><time>2026-04-04T12:36:20.001Z</time></trkpt><trkpt lat="45.83817049580113" lon="9.067499558627805"><ele>260.25</ele><time>2026-04-04T12:36:21.001Z</time></trkpt><trkpt lat="45.838048537486344" lon="9.067463347614364"><ele>209.0</ele><time>2026-04-04T12:36:22.001Z</time></trkpt><trkpt lat="45.83792374304719" lon="9.06741521632293"><ele>209.0</ele><time>2026-04-04T12:36:23.001Z</time></trkpt><trkpt lat="45.83780264894431" lon="9.06739197538248"><ele>209.0</ele><time>2026-04-04T12:36:24.001Z</time></trkpt><trkpt lat="45.8376648899794" lon="9.067363653343373"><ele>209.0</ele><time>2026-04-04T12:36:25Z</time></trkpt><trkpt lat="45.837512329264975" lon="9.067340234244503"><ele>209.0</ele><time>2026-04-04T12:36:26Z</time></trkpt><trkpt lat="45.837357998395674" lon="9.067309221560436"><ele>208.0</ele><time>2026-04-04T12:36:27Z</time></trkpt><trkpt lat="45.83720020693824" lon="9.067291893090896"><ele>207.0</ele><time>2026-04-04T12:36:28Z</time></trkpt><trkpt lat="45.83703421291584" lon="9.067312768493238"><ele>206.0</ele><time>2026-04-04T12:36:29Z</time></trkpt><trkpt lat="45.836868291806795" lon="9.067368890544074"><ele>206.0</ele><time>2026-04-04T12:36:30Z</time></trkpt><trkpt lat="45.83671096835031" lon="9.06744472073848"><ele>206.0</ele><time>2026-04-04T12:36:31Z</time></trkpt><trkpt lat="45.836551193108406" lon="9.067555827274777"><ele>206.0</ele><time>2026-04-04T12:36:32Z</time></trkpt><trkpt lat="45.836419721315174" lon="9.06768795256894"><ele>206.0</ele><time>2026-04-04T12:36:33Z</time></trkpt><trkpt lat="45.836304079832104" lon="9.067820491545605"><ele>206.0</ele><time>2026-04-04T12:36:34Z</time></trkpt><trkpt lat="45.83620580871137" lon="9.067973769521096"><ele>206.0</ele><time>2026-04-04T12:36:35Z</time></trkpt><trkpt lat="45.8361103921559" lon="9.068148775948913"><ele>206.0</ele><time>2026-04-04T12:36:36Z</time></trkpt><trkpt lat="45.83602817778213" lon="9.068345102598402"><ele>206.0</ele><time>2026-04-04T12:36:37Z</time></trkpt><trkpt lat="45.83595820903048" lon="9.068560022345235"><ele>206.0</ele><time>2026-04-04T12:36:38Z</time></trkpt><trkpt lat="45.83591049480219" lon="9.068781059403701"><ele>206.0</ele><time>2026-04-04T12:36:39Z</time></trkpt><trkpt lat="45.835869183740975" lon="9.06900359862901"><ele>206.66666666666669</ele><time>2026-04-04T12:36:40Z</time></trkpt><trkpt lat="45.83581744914386" lon="9.069224304447241"><ele>207.33333333333331</ele><time>2026-04-04T12:36:41Z</time></trkpt><trkpt lat="45.83576705625374" lon="9.069446497801076"><ele>208.0</ele><time>2026-04-04T12:36:42Z</time></trkpt><trkpt lat="45.83570020199595" lon="9.069662067455951"><ele>208.0</ele><time>2026-04-04T12:36:43Z</time></trkpt><trkpt lat="45.835632677662126" lon="9.069884938301655"><ele>208.0</ele><time>2026-04-04T12:36:44Z</time></trkpt><trkpt lat="45.83556926842212" lon="9.070119756805102"><ele>208.0</ele><time>2026-04-04T12:36:45Z</time></trkpt><trkpt lat="45.83550493016457" lon="9.070345818905407"><ele>207.66666666666666</ele><time>2026-04-04T12:36:46Z</time></trkpt><trkpt lat="45.83544274337527" lon="9.070569414191178"><ele>207.33333333333331</ele><time>2026-04-04T12:36:47Z</time></trkpt><trkpt lat="45.8353787114335" lon="9.070791439034222"><ele>207.0</ele><time>2026-04-04T12:36:48Z</time></trkpt><trkpt lat="45.83530835075466" lon="9.071016977430057"><ele>206.5</ele><time>2026-04-04T12:36:49Z</time></trkpt><trkpt lat="45.83524872760914" lon="9.071227354544074"><ele>206.0</ele><time>2026-04-04T12:36:50Z</time></trkpt><trkpt lat="45.83519291781112" lon="9.071419571586123"><ele>205.5</ele><time>2026-04-04T12:36:51Z</time></trkpt><trkpt lat="45.835140644765794" lon="9.071592587126977"><ele>205.0</ele><time>2026-04-04T12:36:52Z</time></trkpt><trkpt lat="45.83508969115566" lon="9.071720361682285"><ele>204.66666666666666</ele><time>2026-04-04T12:36:53Z</time></trkpt><trkpt lat="45.835051415258086" lon="9.071800809104374"><ele>204.33333333333331</ele><time>2026-04-04T12:36:54Z</time></trkpt><trkpt lat="45.83499537376093" lon="9.071913055208825"><ele>204.0</ele><time>2026-04-04T12:36:56Z</time></trkpt><trkpt lat="45.83492088714065" lon="9.072044183896024"><ele>203.66666666666669</ele><time>2026-04-04T12:36:58Z</time></trkpt><trkpt lat="45.83487076727402" lon="9.072116861714951"><ele>203.33333333333334</ele><time>2026-04-04T12:36:59Z</time></trkpt><trkpt lat="45.83481810033802" lon="9.072194473008135"><ele>203.0</ele><time>2026-04-04T12:37:00Z</time></trkpt><trkpt lat="45.834765075679805" lon="9.072256245478663"><ele>203.00000000000003</ele><time>2026-04-04T12:37:01Z</time></trkpt><trkpt lat="45.83467829519888" lon="9.072332041226561"><ele>203.0</ele><time>2026-04-04T12:37:03Z</time></trkpt><trkpt lat="45.83460549270162" lon="9.07237493370876"><ele>203.0</ele><time>2026-04-04T12:37:05.001Z</time></trkpt><trkpt lat="45.834554551707754" lon="9.072430232580286"><ele>203.0</ele><time>2026-04-04T12:37:08.001Z</time></trkpt><trkpt lat="45.834459627252386" lon="9.072494707225609"><ele>203.00000000000003</ele><time>2026-04-04T12:37:11.001Z</time></trkpt><trkpt lat="45.83439563537132" lon="9.07251013127236"><ele>203.0</ele><time>2026-04-04T12:37:12.001Z</time></trkpt><trkpt lat="45.83432960912066" lon="9.072520554134613"><ele>203.00000000000003</ele><time>2026-04-04T12:37:13.001Z</time></trkpt><trkpt lat="45.83425059932471" lon="9.072530921214996"><ele>203.0</ele><time>2026-04-04T12:37:14.001Z</time></trkpt><trkpt lat="45.83417679325431" lon="9.072501647068327"><ele>203.0</ele><time>2026-04-04T12:37:15.001Z</time></trkpt><trkpt lat="45.83408437019936" lon="9.07248658723618"><ele>203.0</ele><time>2026-04-04T12:37:16.001Z</time></trkpt><trkpt lat="45.834011285951966" lon="9.072466188980536"><ele>203.00000000000003</ele><time>2026-04-04T12:37:17.001Z</time></trkpt><trkpt lat="45.83394677171334" lon="9.072446346199667"><ele>203.0</ele><time>2026-04-04T12:37:18.001Z</time></trkpt><trkpt lat="45.8338807240591" lon="9.072425086452254"><ele>203.00000000000003</ele><time>2026-04-04T12:37:19.001Z</time></trkpt><trkpt lat="45.833814019348246" lon="9.072403615222044"><ele>203.0</ele><time>2026-04-04T12:37:20.001Z</time></trkpt><trkpt lat="45.83374908576553" lon="9.072378047734459"><ele>203.0</ele><time>2026-04-04T12:37:21.001Z</time></trkpt><trkpt lat="45.83368513233299" lon="9.072377458067283"><ele>203.0</ele><time>2026-04-04T12:37:22.001Z</time></trkpt><trkpt lat="45.833623536157305" lon="9.07235663908062"><ele>203.00000000000003</ele><time>2026-04-04T12:37:23.001Z</time></trkpt><trkpt lat="45.83351070759422" lon="9.072316971467169"><ele>203.0</ele><time>2026-04-04T12:37:25.001Z</time></trkpt><trkpt lat="45.83341260876328" lon="9.072250364304995"><ele>203.4</ele><time>2026-04-04T12:37:27.001Z</time></trkpt><trkpt lat="45.83330904112836" lon="9.072222342663405"><ele>203.8</ele><time>2026-04-04T12:37:29.001Z</time></trkpt><trkpt lat="45.83323418800398" lon="9.072192526871314"><ele>204.2</ele><time>2026-04-04T12:37:31.001Z</time></trkpt><trkpt lat="45.833129350005564" lon="9.072153226535727"><ele>204.6</ele><time>2026-04-04T12:37:33.001Z</time></trkpt><trkpt lat="45.83303145808543" lon="9.072106217642828"><ele>205.0</ele><time>2026-04-04T12:37:34.001Z</time></trkpt><trkpt lat="45.83292053836782" lon="9.072040945927943"><ele>205.0</ele><time>2026-04-04T12:37:35.001Z</time></trkpt><trkpt lat="45.83279238850348" lon="9.071990677107344"><ele>205.0</ele><time>2026-04-04T12:37:36.001Z</time></trkpt><trkpt lat="45.832654261196254" lon="9.07193688839993"><ele>205.0</ele><time>2026-04-04T12:37:37.001Z</time></trkpt><trkpt lat="45.832504242136764" lon="9.07189615619214"><ele>205.0</ele><time>2026-04-04T12:37:38.001Z</time></trkpt><trkpt lat="45.83235800969043" lon="9.071856855855051"><ele>205.0</ele><time>2026-04-04T12:37:39.001Z</time></trkpt><trkpt lat="45.83222392868749" lon="9.071814917990322"><ele>205.0</ele><time>2026-04-04T12:37:40.001Z</time></trkpt><trkpt lat="45.832089299627484" lon="9.071782104408697"><ele>205.0</ele><time>2026-04-04T12:37:41.001Z</time></trkpt><trkpt lat="45.83195382039546" lon="9.071784992412832"><ele>205.0</ele><time>2026-04-04T12:37:42.001Z</time></trkpt><trkpt lat="45.83182072682096" lon="9.07181034775848"><ele>204.25</ele><time>2026-04-04T12:37:43.001Z</time></trkpt><trkpt lat="45.83168493801859" lon="9.071837881510291"><ele>203.5</ele><time>2026-04-04T12:37:44.001Z</time></trkpt><trkpt lat="45.83154521900363" lon="9.071871943528999"><ele>202.75</ele><time>2026-04-04T12:37:45.001Z</time></trkpt><trkpt lat="45.831406316070286" lon="9.07190096474015"><ele>202.0</ele><time>2026-04-04T12:37:46.001Z</time></trkpt><trkpt lat="45.83126650177336" lon="9.071922944889259"><ele>202.0</ele><time>2026-04-04T12:37:47.001Z</time></trkpt><trkpt lat="45.83112799750812" lon="9.071939801997893"><ele>202.0</ele><time>2026-04-04T12:37:48.001Z</time></trkpt><trkpt lat="45.830984458430535" lon="9.071961197834174"><ele>202.0</ele><time>2026-04-04T12:37:49.001Z</time></trkpt><trkpt lat="45.83083412479623" lon="9.071968169207471"><ele>202.0</ele><time>2026-04-04T12:37:50.001Z</time></trkpt><trkpt lat="45.83068840623712" lon="9.07193451707968"><ele>204.5</ele><time>2026-04-04T12:37:51.001Z</time></trkpt><trkpt lat="45.83054899247683" lon="9.071885861966454"><ele>207.0</ele><time>2026-04-04T12:37:52.001Z</time></trkpt><trkpt lat="45.8304083784522" lon="9.071823886947833"><ele>209.5</ele><time>2026-04-04T12:37:53.001Z</time></trkpt><trkpt lat="45.8302676308704" lon="9.071739704949017"><ele>212.0</ele><time>2026-04-04T12:37:54.001Z</time></trkpt><trkpt lat="45.83012915450913" lon="9.07164504795623"><ele>220.33333333333334</ele><time>2026-04-04T12:37:55.001Z</time></trkpt><trkpt lat="45.82998861416456" lon="9.071538374275907"><ele>228.66666666666669</ele><time>2026-04-04T12:37:56.001Z</time></trkpt><trkpt lat="45.82984749319694" lon="9.071427992420732"><ele>237.0</ele><time>2026-04-04T12:37:57.001Z</time></trkpt><trkpt lat="45.829701265864706" lon="9.071325211045535"><ele>237.0</ele><time>2026-04-04T12:37:58.001Z</time></trkpt><trkpt lat="45.829576105015846" lon="9.071193889837051"><ele>237.0</ele><time>2026-04-04T12:37:59.001Z</time></trkpt><trkpt lat="45.82944652214516" lon="9.071065163205317"><ele>237.0</ele><time>2026-04-04T12:38:00.001Z</time></trkpt><trkpt lat="45.829317812061056" lon="9.070914196348614"><ele>240.0</ele><time>2026-04-04T12:38:01.001Z</time></trkpt><trkpt lat="45.82919669048322" lon="9.070770106990242"><ele>243.0</ele><time>2026-04-04T12:38:02.001Z</time></trkpt><trkpt lat="45.829074501042065" lon="9.070615184184508"><ele>246.0</ele><time>2026-04-04T12:38:03.001Z</time></trkpt><trkpt lat="45.82895989774372" lon="9.070444859405372"><ele>246.0</ele><time>2026-04-04T12:38:04.001Z</time></trkpt><trkpt lat="45.82884911900874" lon="9.0702841618428"><ele>246.0</ele><time>2026-04-04T12:38:05.001Z</time></trkpt><trkpt lat="45.828748110912784" lon="9.07015340936006"><ele>246.0</ele><time>2026-04-04T12:38:06.001Z</time></trkpt><trkpt lat="45.82864593060554" lon="9.070031360335504"><ele>246.0</ele><time>2026-04-04T12:38:07.001Z</time></trkpt><trkpt lat="45.82852715411315" lon="9.069962407230694"><ele>238.66666666666669</ele><time>2026-04-04T12:38:08.001Z</time></trkpt><trkpt lat="45.828352430649765" lon="9.069947419426928"><ele>231.33333333333334</ele><time>2026-04-04T12:38:09.001Z</time></trkpt><trkpt lat="45.828188816602086" lon="9.069970083411793"><ele>224.0</ele><time>2026-04-04T12:38:10.001Z</time></trkpt><trkpt lat="45.82802213997966" lon="9.069965736008639"><ele>224.0</ele><time>2026-04-04T12:38:11.001Z</time></trkpt><trkpt lat="45.827859850772285" lon="9.06995670417867"><ele>224.0</ele><time>2026-04-04T12:38:12.001Z</time></trkpt><trkpt lat="45.827707915959856" lon="9.069904404493572"><ele>224.0</ele><time>2026-04-04T12:38:13.001Z</time></trkpt><trkpt lat="45.82758115243751" lon="9.069838764566867"><ele>227.39999999999998</ele><time>2026-04-04T12:38:14.001Z</time></trkpt><trkpt lat="45.82747730210284" lon="9.06972301090478"><ele>230.79999999999998</ele><time>2026-04-04T12:38:15.001Z</time></trkpt><trkpt lat="45.82738068724514" lon="9.069641048768942"><ele>234.20000000000002</ele><time>2026-04-04T12:38:16.001Z</time></trkpt><trkpt lat="45.827291101695806" lon="9.06956704057757"><ele>237.60000000000002</ele><time>2026-04-04T12:38:17.001Z</time></trkpt><trkpt lat="45.82720766602938" lon="9.069498609043107"><ele>241.0</ele><time>2026-04-04T12:38:18.001Z</time></trkpt><trkpt lat="45.827127599383736" lon="9.069432826203816"><ele>241.0</ele><time>2026-04-04T12:38:19.001Z</time></trkpt><trkpt lat="45.82703833401443" lon="9.069359485687682"><ele>241.00000000000003</ele><time>2026-04-04T12:38:20.001Z</time></trkpt><trkpt lat="45.82694506838825" lon="9.069282858551999"><ele>241.00000000000003</ele><time>2026-04-04T12:38:21.001Z</time></trkpt><trkpt lat="45.82686105393738" lon="9.069222481621708"><ele>241.0</ele><time>2026-04-04T12:38:22.001Z</time></trkpt><trkpt lat="45.8267824609318" lon="9.069157160856436"><ele>241.0</ele><time>2026-04-04T12:38:23.001Z</time></trkpt><trkpt lat="45.8266809060436" lon="9.069058361810097"><ele>242.0</ele><time>2026-04-04T12:38:24.001Z</time></trkpt><trkpt lat="45.82657604200137" lon="9.068955526432212"><ele>243.00000000000003</ele><time>2026-04-04T12:38:25.001Z</time></trkpt><trkpt lat="45.82647894363808" lon="9.068875426474706"><ele>244.00000000000003</ele><time>2026-04-04T12:38:26.001Z</time></trkpt><trkpt lat="45.82639233765858" lon="9.068812647334017"><ele>245.0</ele><time>2026-04-04T12:38:27.002Z</time></trkpt><trkpt lat="45.826326761628884" lon="9.068758217073412"><ele>246.0</ele><time>2026-04-04T12:38:28.002Z</time></trkpt><trkpt lat="45.82621971900457" lon="9.068667144122326"><ele>246.0</ele><time>2026-04-04T12:38:30.002Z</time></trkpt><trkpt lat="45.82616254207659" lon="9.06861214618515"><ele>246.0</ele><time>2026-04-04T12:38:31Z</time></trkpt><trkpt lat="45.82606823140517" lon="9.068539827436847"><ele>246.0</ele><time>2026-04-04T12:38:33Z</time></trkpt><trkpt lat="45.826005859272954" lon="9.068509370369968"><ele>246.0</ele><time>2026-04-04T12:38:34Z</time></trkpt><trkpt lat="45.825918576605574" lon="9.068467142940344"><ele>246.0</ele><time>2026-04-04T12:38:35Z</time></trkpt><trkpt lat="45.82581797959989" lon="9.068427140395928"><ele>246.0</ele><time>2026-04-04T12:38:36Z</time></trkpt><trkpt lat="45.82571117775214" lon="9.068398635271258"><ele>239.0</ele><time>2026-04-04T12:38:37Z</time></trkpt><trkpt lat="45.82560372534891" lon="9.068373018847648"><ele>232.0</ele><time>2026-04-04T12:38:38Z</time></trkpt><trkpt lat="45.825485630775205" lon="9.068387644774587"><ele>225.0</ele><time>2026-04-04T12:38:39Z</time></trkpt><trkpt lat="45.82536297188478" lon="9.068384712017096"><ele>218.0</ele><time>2026-04-04T12:38:40Z</time></trkpt><trkpt lat="45.82525241116964" lon="9.068375121986934"><ele>216.5</ele><time>2026-04-04T12:38:41Z</time></trkpt><trkpt lat="45.8251423616804" lon="9.068360904366816"><ele>215.0</ele><time>2026-04-04T12:38:42Z</time></trkpt><trkpt lat="45.82502747303733" lon="9.068352447031128"><ele>213.5</ele><time>2026-04-04T12:38:43Z</time></trkpt><trkpt lat="45.824915340599" lon="9.068349141932766"><ele>212.0</ele><time>2026-04-04T12:38:44Z</time></trkpt><trkpt lat="45.82480153630304" lon="9.068333922182871"><ele>212.0</ele><time>2026-04-04T12:38:45Z</time></trkpt><trkpt lat="45.82468881947923" lon="9.068307956504617"><ele>212.0</ele><time>2026-04-04T12:38:46Z</time></trkpt><trkpt lat="45.82457824216899" lon="9.068268859062888"><ele>212.0</ele><time>2026-04-04T12:38:47Z</time></trkpt><trkpt lat="45.82447133810066" lon="9.068205265309025"><ele>212.0</ele><time>2026-04-04T12:38:48Z</time></trkpt><trkpt lat="45.824366047903375" lon="9.068144870217147"><ele>219.5</ele><time>2026-04-04T12:38:49Z</time></trkpt><trkpt lat="45.82425408815757" lon="9.06809290869205"><ele>227.0</ele><time>2026-04-04T12:38:50Z</time></trkpt><trkpt lat="45.82414687731918" lon="9.068045171730539"><ele>234.5</ele><time>2026-04-04T12:38:51Z</time></trkpt><trkpt lat="45.8240409037865" lon="9.067991194702326"><ele>242.0</ele><time>2026-04-04T12:38:52Z</time></trkpt><trkpt lat="45.8239281143535" lon="9.067937543804065"><ele>242.0</ele><time>2026-04-04T12:38:53Z</time></trkpt><trkpt lat="45.82380598043948" lon="9.067883892663533"><ele>242.0</ele><time>2026-04-04T12:38:54Z</time></trkpt><trkpt lat="45.82368334004106" lon="9.067831273050318"><ele>242.0</ele><time>2026-04-04T12:38:55Z</time></trkpt><trkpt lat="45.82356723146193" lon="9.0677927186442"><ele>242.0</ele><time>2026-04-04T12:38:56Z</time></trkpt><trkpt lat="45.82344326286878" lon="9.067768609204247"><ele>237.25</ele><time>2026-04-04T12:38:57Z</time></trkpt><trkpt lat="45.82331680347532" lon="9.06776395499944"><ele>232.5</ele><time>2026-04-04T12:38:58Z</time></trkpt><trkpt lat="45.82319229054474" lon="9.067760530396107"><ele>227.75</ele><time>2026-04-04T12:38:59Z</time></trkpt><trkpt lat="45.82308116074015" lon="9.067751895143472"><ele>223.0</ele><time>2026-04-04T12:39:00Z</time></trkpt><trkpt lat="45.82297486997872" lon="9.06774104253829"><ele>223.0</ele><time>2026-04-04T12:39:01Z</time></trkpt><trkpt lat="45.82286891061783" lon="9.06773108085862"><ele>223.0</ele><time>2026-04-04T12:39:02Z</time></trkpt><trkpt lat="45.82277508932026" lon="9.067722823025289"><ele>223.0</ele><time>2026-04-04T12:39:03Z</time></trkpt><trkpt lat="45.82268915749082" lon="9.06770756697552"><ele>223.0</ele><time>2026-04-04T12:39:04Z</time></trkpt><trkpt lat="45.82261158869131" lon="9.067683662344132"><ele>223.0</ele><time>2026-04-04T12:39:05Z</time></trkpt><trkpt lat="45.82252303831718" lon="9.06764278379186"><ele>221.2</ele><time>2026-04-04T12:39:06Z</time></trkpt><trkpt lat="45.82243813102441" lon="9.067588197876274"><ele>219.4</ele><time>2026-04-04T12:39:07Z</time></trkpt><trkpt lat="45.82235189157657" lon="9.067526224681956"><ele>217.59999999999997</ele><time>2026-04-04T12:39:08Z</time></trkpt><trkpt lat="45.82227730653362" lon="9.067466350969832"><ele>215.79999999999998</ele><time>2026-04-04T12:39:09Z</time></trkpt><trkpt lat="45.82220788001027" lon="9.067403203810457"><ele>214.0</ele><time>2026-04-04T12:39:10Z</time></trkpt><trkpt lat="45.822115811768576" lon="9.067353336596529"><ele>215.25</ele><time>2026-04-04T12:39:11.001Z</time></trkpt><trkpt lat="45.82202923772969" lon="9.067282269452775"><ele>216.5</ele><time>2026-04-04T12:39:12.001Z</time></trkpt><trkpt lat="45.82191922910735" lon="9.067210604371704"><ele>217.75</ele><time>2026-04-04T12:39:13.001Z</time></trkpt><trkpt lat="45.821804535485214" lon="9.067141862539636"><ele>219.0</ele><time>2026-04-04T12:39:14.001Z</time></trkpt><trkpt lat="45.82168917418217" lon="9.067059395089265"><ele>219.0</ele><time>2026-04-04T12:39:15.001Z</time></trkpt><trkpt lat="45.821569906751535" lon="9.066998599935582"><ele>219.0</ele><time>2026-04-04T12:39:16.001Z</time></trkpt><trkpt lat="45.82146139947188" lon="9.066950460740843"><ele>219.0</ele><time>2026-04-04T12:39:17.001Z</time></trkpt><trkpt lat="45.8213601849508" lon="9.06688685213987"><ele>219.0</ele><time>2026-04-04T12:39:18.001Z</time></trkpt><trkpt lat="45.821264554178356" lon="9.066830917107689"><ele>219.0</ele><time>2026-04-04T12:39:19.001Z</time></trkpt><trkpt lat="45.82116948603934" lon="9.066772346190149"><ele>218.99999999999997</ele><time>2026-04-04T12:39:20.001Z</time></trkpt><trkpt lat="45.82106616213155" lon="9.06671632741648"><ele>218.99999999999997</ele><time>2026-04-04T12:39:21.001Z</time></trkpt><trkpt lat="45.82096716191885" lon="9.06664156398982"><ele>219.0</ele><time>2026-04-04T12:39:22.001Z</time></trkpt><trkpt lat="45.820868017813176" lon="9.066555842210393"><ele>219.0</ele><time>2026-04-04T12:39:23.001Z</time></trkpt><trkpt lat="45.820780980625" lon="9.06644155243305"><ele>219.25</ele><time>2026-04-04T12:39:24.001Z</time></trkpt><trkpt lat="45.82071342264738" lon="9.06629906449686"><ele>219.5</ele><time>2026-04-04T12:39:25.001Z</time></trkpt><trkpt lat="45.82065982776084" lon="9.066142648966293"><ele>219.75</ele><time>2026-04-04T12:39:26.001Z</time></trkpt><trkpt lat="45.82061170194033" lon="9.065989279681611"><ele>220.0</ele><time>2026-04-04T12:39:27.001Z</time></trkpt><trkpt lat="45.82056162950569" lon="9.065837958978378"><ele>222.0</ele><time>2026-04-04T12:39:28.001Z</time></trkpt><trkpt lat="45.82051949556245" lon="9.065683314267106"><ele>224.0</ele><time>2026-04-04T12:39:29.001Z</time></trkpt><trkpt lat="45.82046729532765" lon="9.065527299823732"><ele>226.0</ele><time>2026-04-04T12:39:30.001Z</time></trkpt><trkpt lat="45.820415666117086" lon="9.065375729173555"><ele>228.0</ele><time>2026-04-04T12:39:31.001Z</time></trkpt><trkpt lat="45.820363872586015" lon="9.065221871730923"><ele>228.0</ele><time>2026-04-04T12:39:32.001Z</time></trkpt><trkpt lat="45.82030986062289" lon="9.065055887451676"><ele>228.0</ele><time>2026-04-04T12:39:33.001Z</time></trkpt><trkpt lat="45.8202533570204" lon="9.064890408758684"><ele>228.0</ele><time>2026-04-04T12:39:34.001Z</time></trkpt><trkpt lat="45.82019684302074" lon="9.06471837422139"><ele>228.0</ele><time>2026-04-04T12:39:35.001Z</time></trkpt><trkpt lat="45.8201332628967" lon="9.064547744913655"><ele>226.0</ele><time>2026-04-04T12:39:36.001Z</time></trkpt><trkpt lat="45.8200744331995" lon="9.064375843663296"><ele>224.0</ele><time>2026-04-04T12:39:37.001Z</time></trkpt><trkpt lat="45.82001669124824" lon="9.064196017265163"><ele>222.0</ele><time>2026-04-04T12:39:38.001Z</time></trkpt><trkpt lat="45.81995593271736" lon="9.064016487865638"><ele>220.0</ele><time>2026-04-04T12:39:39.001Z</time></trkpt><trkpt lat="45.819889647305665" lon="9.06384088288381"><ele>220.0</ele><time>2026-04-04T12:39:40.001Z</time></trkpt><trkpt lat="45.81982578453044" lon="9.063679152915862"><ele>220.0</ele><time>2026-04-04T12:39:41.001Z</time></trkpt><trkpt lat="45.819737021355216" lon="9.063527489710854"><ele>220.0</ele><time>2026-04-04T12:39:42.001Z</time></trkpt><trkpt lat="45.81962848726839" lon="9.063405306792538"><ele>220.0</ele><time>2026-04-04T12:39:43.001Z</time></trkpt><trkpt lat="45.81952109153725" lon="9.063311269359064"><ele>220.6</ele><time>2026-04-04T12:39:44.001Z</time></trkpt><trkpt lat="45.819405853187995" lon="9.063234060024971"><ele>221.2</ele><time>2026-04-04T12:39:45.001Z</time></trkpt><trkpt lat="45.81929685096013" lon="9.063202981119199"><ele>221.8</ele><time>2026-04-04T12:39:46.001Z</time></trkpt><trkpt lat="45.81920459520918" lon="9.06318991673854"><ele>222.4</ele><time>2026-04-04T12:39:47.001Z</time></trkpt><trkpt lat="45.81913182612888" lon="9.063184322541268"><ele>223.0</ele><time>2026-04-04T12:39:48.001Z</time></trkpt><trkpt lat="45.8190142736446" lon="9.06312708401937"><ele>223.0</ele><time>2026-04-04T12:39:50.001Z</time></trkpt><trkpt lat="45.81892869433724" lon="9.062997653523505"><ele>223.0</ele><time>2026-04-04T12:39:52.001Z</time></trkpt><trkpt lat="45.818879535899526" lon="9.062923160324086"><ele>223.0</ele><time>2026-04-04T12:39:53.001Z</time></trkpt><trkpt lat="45.81891821652356" lon="9.062753388322687"><ele>223.0</ele><time>2026-04-04T12:39:54.001Z</time></trkpt><trkpt lat="45.81895394601263" lon="9.062615207220501"><ele>223.0</ele><time>2026-04-04T12:39:55.001Z</time></trkpt><trkpt lat="45.819014430735216" lon="9.062468954675941"><ele>224.25</ele><time>2026-04-04T12:39:56.001Z</time></trkpt><trkpt lat="45.819074724498925" lon="9.062311162257613"><ele>225.5</ele><time>2026-04-04T12:39:57.001Z</time></trkpt><trkpt lat="45.819136093263616" lon="9.062138133627645"><ele>226.75</ele><time>2026-04-04T12:39:58.001Z</time></trkpt><trkpt lat="45.81920630149905" lon="9.061951813762994"><ele>228.0</ele><time>2026-04-04T12:39:59.001Z</time></trkpt><trkpt lat="45.81926948013389" lon="9.061757622115511"><ele>231.25</ele><time>2026-04-04T12:40:00.001Z</time></trkpt><trkpt lat="45.81935076757835" lon="9.061570470842792"><ele>234.5</ele><time>2026-04-04T12:40:01.001Z</time></trkpt><trkpt lat="45.81940845595517" lon="9.061372358657657"><ele>237.75</ele><time>2026-04-04T12:40:02.001Z</time></trkpt><trkpt lat="45.81946834462014" lon="9.061209675986087"><ele>241.0</ele><time>2026-04-04T12:40:03.001Z</time></trkpt><trkpt lat="45.81952359215387" lon="9.061063128289545"><ele>241.0</ele><time>2026-04-04T12:40:04.001Z</time></trkpt><trkpt lat="45.819565534977464" lon="9.060944671996094"><ele>241.00000000000003</ele><time>2026-04-04T12:40:05.001Z</time></trkpt><trkpt lat="45.81963209757619" lon="9.060858149234015"><ele>241.00000000000003</ele><time>2026-04-04T12:40:06.001Z</time></trkpt><trkpt lat="45.81972306024778" lon="9.060815243416743"><ele>241.0</ele><time>2026-04-04T12:40:07.001Z</time></trkpt><trkpt lat="45.81985741568002" lon="9.060820136051653"><ele>241.0</ele><time>2026-04-04T12:40:08.001Z</time></trkpt><trkpt lat="45.81999357058769" lon="9.06081214677432"><ele>241.0</ele><time>2026-04-04T12:40:09.001Z</time></trkpt><trkpt lat="45.82013585481032" lon="9.060792255876562"><ele>241.0</ele><time>2026-04-04T12:40:10.001Z</time></trkpt><trkpt lat="45.82026746349353" lon="9.060795731314165"><ele>241.0</ele><time>2026-04-04T12:40:11.001Z</time></trkpt><trkpt lat="45.82039108043419" lon="9.060781290549052"><ele>241.0</ele><time>2026-04-04T12:40:12.001Z</time></trkpt><trkpt lat="45.820514445642786" lon="9.060766795050506"><ele>245.0</ele><time>2026-04-04T12:40:13.001Z</time></trkpt><trkpt lat="45.82062608283565" lon="9.060745768329689"><ele>249.00000000000003</ele><time>2026-04-04T12:40:14.001Z</time></trkpt><trkpt lat="45.8207154624103" lon="9.060701000000703"><ele>253.00000000000003</ele><time>2026-04-04T12:40:15.001Z</time></trkpt><trkpt lat="45.820807774651904" lon="9.06063179325656"><ele>257.0</ele><time>2026-04-04T12:40:16.001Z</time></trkpt><trkpt lat="45.82089370489868" lon="9.060506172245779"><ele>261.0</ele><time>2026-04-04T12:40:17.001Z</time></trkpt><trkpt lat="45.820966057770555" lon="9.060380703518806"><ele>262.8</ele><time>2026-04-04T12:40:18.001Z</time></trkpt><trkpt lat="45.8210333506253" lon="9.060279819178271"><ele>264.6</ele><time>2026-04-04T12:40:19.001Z</time></trkpt><trkpt lat="45.82110777066449" lon="9.06022082401178"><ele>266.4</ele><time>2026-04-04T12:40:20.001Z</time></trkpt><trkpt lat="45.821188390410846" lon="9.060170018708703"><ele>268.2</ele><time>2026-04-04T12:40:21.001Z</time></trkpt><trkpt lat="45.82129450936257" lon="9.060250800172138"><ele>270.0</ele><time>2026-04-04T12:40:22.001Z</time></trkpt><trkpt lat="45.8213781737669" lon="9.060379050009768"><ele>270.0</ele><time>2026-04-04T12:40:23.001Z</time></trkpt><trkpt lat="45.82146261757009" lon="9.06051942169191"><ele>270.0</ele><time>2026-04-04T12:40:24.001Z</time></trkpt><trkpt lat="45.82154951001702" lon="9.060639466200183"><ele>270.0</ele><time>2026-04-04T12:40:25.001Z</time></trkpt><trkpt lat="45.82161967230533" lon="9.060780232028296"><ele>270.0</ele><time>2026-04-04T12:40:26.001Z</time></trkpt><trkpt lat="45.82168907635499" lon="9.060915699994139"><ele>266.5</ele><time>2026-04-04T12:40:27.001Z</time></trkpt><trkpt lat="45.82176298250159" lon="9.061044517489345"><ele>263.0</ele><time>2026-04-04T12:40:28.001Z</time></trkpt><trkpt lat="45.82182104762401" lon="9.061198082678441"><ele>259.5</ele><time>2026-04-04T12:40:29.001Z</time></trkpt><trkpt lat="45.82184210406516" lon="9.06137038673689"><ele>256.0</ele><time>2026-04-04T12:40:30.001Z</time></trkpt><trkpt lat="45.821847180907874" lon="9.061513217571713"><ele>260.6</ele><time>2026-04-04T12:40:31.001Z</time></trkpt><trkpt lat="45.8218631403654" lon="9.061648473771017"><ele>265.20000000000005</ele><time>2026-04-04T12:40:32.001Z</time></trkpt><trkpt lat="45.821895840621536" lon="9.061778103578416"><ele>269.79999999999995</ele><time>2026-04-04T12:40:33.001Z</time></trkpt><trkpt lat="45.82195765201396" lon="9.061887356682417"><ele>274.4</ele><time>2026-04-04T12:40:34.001Z</time></trkpt><trkpt lat="45.82205327831619" lon="9.06194060364637"><ele>279.0</ele><time>2026-04-04T12:40:35.001Z</time></trkpt><trkpt lat="45.82215905234328" lon="9.061921994328205"><ele>279.0</ele><time>2026-04-04T12:40:36.001Z</time></trkpt><trkpt lat="45.82224133044136" lon="9.061867209660603"><ele>279.0</ele><time>2026-04-04T12:40:37Z</time></trkpt><trkpt lat="45.82229341751953" lon="9.061765211092357"><ele>279.0</ele><time>2026-04-04T12:40:38Z</time></trkpt><trkpt lat="45.82231921926599" lon="9.061621814759262"><ele>279.0</ele><time>2026-04-04T12:40:39Z</time></trkpt><trkpt lat="45.822312841936366" lon="9.061438215722639"><ele>279.0</ele><time>2026-04-04T12:40:40Z</time></trkpt><trkpt lat="45.82226312773642" lon="9.061215315164882"><ele>281.3333333333333</ele><time>2026-04-04T12:40:41Z</time></trkpt><trkpt lat="45.8221964684188" lon="9.060921280780292"><ele>283.66666666666663</ele><time>2026-04-04T12:40:42Z</time></trkpt><trkpt lat="45.822165505678065" lon="9.060666494987045"><ele>286.0</ele><time>2026-04-04T12:40:43Z</time></trkpt><trkpt lat="45.82213647875026" lon="9.060460330509779"><ele>288.25</ele><time>2026-04-04T12:40:44Z</time></trkpt><trkpt lat="45.822099433841395" lon="9.060251560977648"><ele>290.5</ele><time>2026-04-04T12:40:45Z</time></trkpt><trkpt lat="45.82204887579514" lon="9.060061661108923"><ele>292.75</ele><time>2026-04-04T12:40:46Z</time></trkpt><trkpt lat="45.821987083517534" lon="9.059873017526249"><ele>295.0</ele><time>2026-04-04T12:40:47Z</time></trkpt><trkpt lat="45.8219061934509" lon="9.059692725263782"><ele>296.0</ele><time>2026-04-04T12:40:48Z</time></trkpt><trkpt lat="45.82178047656043" lon="9.059515205886662"><ele>297.0</ele><time>2026-04-04T12:40:49Z</time></trkpt><trkpt lat="45.821616257393096" lon="9.059281579327148"><ele>298.0</ele><time>2026-04-04T12:40:50Z</time></trkpt><trkpt lat="45.821449163116" lon="9.05903556358015"><ele>298.0</ele><time>2026-04-04T12:40:51Z</time></trkpt><trkpt lat="45.82130312740827" lon="9.058796978497252"><ele>298.0</ele><time>2026-04-04T12:40:52Z</time></trkpt><trkpt lat="45.82116950618315" lon="9.058608714691458"><ele>298.0</ele><time>2026-04-04T12:40:53Z</time></trkpt><trkpt lat="45.821047880307496" lon="9.058424330733422"><ele>298.0</ele><time>2026-04-04T12:40:54Z</time></trkpt><trkpt lat="45.820956394697056" lon="9.058260551189909"><ele>298.0</ele><time>2026-04-04T12:40:55Z</time></trkpt><trkpt lat="45.82091232105758" lon="9.0580964582264"><ele>298.0</ele><time>2026-04-04T12:40:56Z</time></trkpt><trkpt lat="45.820923206798284" lon="9.057910910755757"><ele>298.0</ele><time>2026-04-04T12:40:57Z</time></trkpt><trkpt lat="45.82100272523857" lon="9.057754792858267"><ele>298.0</ele><time>2026-04-04T12:40:58Z</time></trkpt><trkpt lat="45.82109637819202" lon="9.05760204331634"><ele>298.0</ele><time>2026-04-04T12:40:59Z</time></trkpt><trkpt lat="45.821214556423314" lon="9.05744535918769"><ele>298.0</ele><time>2026-04-04T12:41:00Z</time></trkpt><trkpt lat="45.82134645008436" lon="9.057266661660544"><ele>297.3333333333333</ele><time>2026-04-04T12:41:01Z</time></trkpt><trkpt lat="45.82148513626852" lon="9.05707783850638"><ele>296.6666666666667</ele><time>2026-04-04T12:41:02Z</time></trkpt><trkpt lat="45.82162173027803" lon="9.056891658919103"><ele>296.0</ele><time>2026-04-04T12:41:03Z</time></trkpt><trkpt lat="45.82175994337364" lon="9.056704077159306"><ele>298.33333333333337</ele><time>2026-04-04T12:41:04Z</time></trkpt><trkpt lat="45.821889426238506" lon="9.056503154785817"><ele>300.6666666666667</ele><time>2026-04-04T12:41:05Z</time></trkpt><trkpt lat="45.82203415420544" lon="9.05630897023833"><ele>303.0</ele><time>2026-04-04T12:41:06Z</time></trkpt><trkpt lat="45.8221795759199" lon="9.056114095225007"><ele>303.0</ele><time>2026-04-04T12:41:07Z</time></trkpt><trkpt lat="45.82232350516111" lon="9.055923337830405"><ele>303.0</ele><time>2026-04-04T12:41:08Z</time></trkpt><trkpt lat="45.82247148781021" lon="9.055717281861723"><ele>303.0</ele><time>2026-04-04T12:41:09Z</time></trkpt><trkpt lat="45.8226323234427" lon="9.055527675056558"><ele>304.6666666666667</ele><time>2026-04-04T12:41:10Z</time></trkpt><trkpt lat="45.82275869626268" lon="9.055357479685306"><ele>306.33333333333337</ele><time>2026-04-04T12:41:11Z</time></trkpt><trkpt lat="45.82287316974173" lon="9.055203994756143"><ele>308.0</ele><time>2026-04-04T12:41:12Z</time></trkpt><trkpt lat="45.822972802622466" lon="9.055039099434792"><ele>307.6666666666667</ele><time>2026-04-04T12:41:13Z</time></trkpt><trkpt lat="45.82306750196201" lon="9.054912342668963"><ele>307.33333333333337</ele><time>2026-04-04T12:41:14Z</time></trkpt><trkpt lat="45.82313643664564" lon="9.054802034259506"><ele>307.0</ele><time>2026-04-04T12:41:15Z</time></trkpt><trkpt lat="45.823177493133926" lon="9.054711340766897"><ele>306.6666666666667</ele><time>2026-04-04T12:41:16Z</time></trkpt><trkpt lat="45.82320650468032" lon="9.054625872582777"><ele>306.3333333333333</ele><time>2026-04-04T12:41:17Z</time></trkpt><trkpt lat="45.82323775466541" lon="9.054537732472294"><ele>306.0</ele><time>2026-04-04T12:41:18Z</time></trkpt><trkpt lat="45.82318020969288" lon="9.054440429255418"><ele>306.0</ele><time>2026-04-04T12:41:19Z</time></trkpt><trkpt lat="45.82302951337286" lon="9.054480573949382"><ele>306.0</ele><time>2026-04-04T12:41:21Z</time></trkpt><trkpt lat="45.822929108475435" lon="9.05447412084195"><ele>306.0</ele><time>2026-04-04T12:41:22Z</time></trkpt><trkpt lat="45.82282209424103" lon="9.054461534091883"><ele>306.0</ele><time>2026-04-04T12:41:23Z</time></trkpt><trkpt lat="45.82270548149215" lon="9.054446571954664"><ele>305.5</ele><time>2026-04-04T12:41:24Z</time></trkpt><trkpt lat="45.82258702729302" lon="9.054467699661506"><ele>305.0</ele><time>2026-04-04T12:41:25Z</time></trkpt><trkpt lat="45.82240661988425" lon="9.05451787539197"><ele>304.5</ele><time>2026-04-04T12:41:27.001Z</time></trkpt><trkpt lat="45.8223284259096" lon="9.054541777165058"><ele>304.0</ele><time>2026-04-04T12:41:28.001Z</time></trkpt><trkpt lat="45.822250986854534" lon="9.05457501550969"><ele>304.0</ele><time>2026-04-04T12:41:29.001Z</time></trkpt><trkpt lat="45.82218625248861" lon="9.054591991808937"><ele>304.0</ele><time>2026-04-04T12:41:30.001Z</time></trkpt><trkpt lat="45.822119206351566" lon="9.054601217587132"><ele>304.0</ele><time>2026-04-04T12:41:31.001Z</time></trkpt><trkpt lat="45.82204462166592" lon="9.054607046076695"><ele>304.0</ele><time>2026-04-04T12:41:32.001Z</time></trkpt><trkpt lat="45.82195639080585" lon="9.054607269652962"><ele>304.0</ele><time>2026-04-04T12:41:33.001Z</time></trkpt><trkpt lat="45.82186409292093" lon="9.054595638141455"><ele>304.0</ele><time>2026-04-04T12:41:34.001Z</time></trkpt><trkpt lat="45.821768919513275" lon="9.054573775543313"><ele>306.5</ele><time>2026-04-04T12:41:35.001Z</time></trkpt><trkpt lat="45.82166770096941" lon="9.054561611555144"><ele>309.0</ele><time>2026-04-04T12:41:36.001Z</time></trkpt><trkpt lat="45.82154846033192" lon="9.054587431134308"><ele>311.5</ele><time>2026-04-04T12:41:37.001Z</time></trkpt><trkpt lat="45.82140338605132" lon="9.054641286878454"><ele>314.0</ele><time>2026-04-04T12:41:38.001Z</time></trkpt><trkpt lat="45.82124749035866" lon="9.05468698903786"><ele>314.0</ele><time>2026-04-04T12:41:39.001Z</time></trkpt><trkpt lat="45.82107342146706" lon="9.05473187089467"><ele>314.0</ele><time>2026-04-04T12:41:40.001Z</time></trkpt><trkpt lat="45.8209025301083" lon="9.054784863284844"><ele>314.0</ele><time>2026-04-04T12:41:41.001Z</time></trkpt><trkpt lat="45.82073951778143" lon="9.054848825489227"><ele>313.6666666666667</ele><time>2026-04-04T12:41:42.001Z</time></trkpt><trkpt lat="45.820602475399426" lon="9.054977638000445"><ele>313.3333333333333</ele><time>2026-04-04T12:41:43.001Z</time></trkpt><trkpt lat="45.82051028754588" lon="9.055183674464606"><ele>313.0</ele><time>2026-04-04T12:41:44.001Z</time></trkpt><trkpt lat="45.82046238505155" lon="9.055419558416357"><ele>313.0</ele><time>2026-04-04T12:41:45.001Z</time></trkpt><trkpt lat="45.820400886773065" lon="9.055627649713598"><ele>313.0</ele><time>2026-04-04T12:41:46.001Z</time></trkpt><trkpt lat="45.82032357845638" lon="9.055820396141616"><ele>313.0</ele><time>2026-04-04T12:41:47.001Z</time></trkpt><trkpt lat="45.82023164279676" lon="9.055980912917727"><ele>318.66666666666663</ele><time>2026-04-04T12:41:48.001Z</time></trkpt><trkpt lat="45.82011737507841" lon="9.056145156136019"><ele>324.3333333333333</ele><time>2026-04-04T12:41:49.001Z</time></trkpt><trkpt lat="45.81998055037101" lon="9.056320509314038"><ele>330.0</ele><time>2026-04-04T12:41:50.001Z</time></trkpt><trkpt lat="45.81984112452028" lon="9.056518765229624"><ele>323.0</ele><time>2026-04-04T12:41:51.001Z</time></trkpt><trkpt lat="45.819693016292234" lon="9.056726851796999"><ele>316.0</ele><time>2026-04-04T12:41:52.001Z</time></trkpt><trkpt lat="45.819555351464395" lon="9.05693342055901"><ele>309.0</ele><time>2026-04-04T12:41:53.001Z</time></trkpt><trkpt lat="45.8194342838444" lon="9.057109795279645"><ele>312.75</ele><time>2026-04-04T12:41:54.001Z</time></trkpt><trkpt lat="45.8193149991017" lon="9.057254425110004"><ele>316.5</ele><time>2026-04-04T12:41:55.001Z</time></trkpt><trkpt lat="45.819204189660105" lon="9.0573872544211"><ele>320.25</ele><time>2026-04-04T12:41:56.001Z</time></trkpt><trkpt lat="45.81907736831434" lon="9.057499311389991"><ele>324.0</ele><time>2026-04-04T12:41:57.001Z</time></trkpt><trkpt lat="45.818936025697255" lon="9.057601864308024"><ele>324.0</ele><time>2026-04-04T12:41:58.001Z</time></trkpt><trkpt lat="45.818797068705315" lon="9.057698874100774"><ele>324.0</ele><time>2026-04-04T12:41:59.001Z</time></trkpt><trkpt lat="45.818656231342466" lon="9.05779775004686"><ele>324.0</ele><time>2026-04-04T12:42:00.001Z</time></trkpt><trkpt lat="45.8185110211428" lon="9.057902427966576"><ele>336.6666666666667</ele><time>2026-04-04T12:42:01.001Z</time></trkpt><trkpt lat="45.81836814914371" lon="9.058006471536554"><ele>349.33333333333337</ele><time>2026-04-04T12:42:02.001Z</time></trkpt><trkpt lat="45.81822435088709" lon="9.058110082180765"><ele>362.0</ele><time>2026-04-04T12:42:03.001Z</time></trkpt><trkpt lat="45.81806711046708" lon="9.058222981627624"><ele>357.0</ele><time>2026-04-04T12:42:04.001Z</time></trkpt><trkpt lat="45.81789935994449" lon="9.05832349259973"><ele>352.0</ele><time>2026-04-04T12:42:05.001Z</time></trkpt><trkpt lat="45.81772677069692" lon="9.058397465525385"><ele>347.0</ele><time>2026-04-04T12:42:06.001Z</time></trkpt><trkpt lat="45.817578991206545" lon="9.058446563058544"><ele>347.0</ele><time>2026-04-04T12:42:07.001Z</time></trkpt><trkpt lat="45.81745945397532" lon="9.058558137192083"><ele>347.0</ele><time>2026-04-04T12:42:08.001Z</time></trkpt><trkpt lat="45.81735138210195" lon="9.058711926227641"><ele>347.0</ele><time>2026-04-04T12:42:09.001Z</time></trkpt><trkpt lat="45.81724419414546" lon="9.058800534451885"><ele>347.0</ele><time>2026-04-04T12:42:10.001Z</time></trkpt><trkpt lat="45.81712406048109" lon="9.058800391794804"><ele>347.0</ele><time>2026-04-04T12:42:11.001Z</time></trkpt><trkpt lat="45.81696300378169" lon="9.058760474634571"><ele>347.0</ele><time>2026-04-04T12:42:12.001Z</time></trkpt><trkpt lat="45.81678887247193" lon="9.058692511113959"><ele>347.0</ele><time>2026-04-04T12:42:13.001Z</time></trkpt><trkpt lat="45.81661111040632" lon="9.0586215410413"><ele>347.6666666666667</ele><time>2026-04-04T12:42:14.001Z</time></trkpt><trkpt lat="45.81644251485727" lon="9.058601780482684"><ele>348.3333333333333</ele><time>2026-04-04T12:42:15.001Z</time></trkpt><trkpt lat="45.81627443097967" lon="9.058665077377203"><ele>349.0</ele><time>2026-04-04T12:42:16.001Z</time></trkpt><trkpt lat="45.81610405822171" lon="9.058776944756069"><ele>352.0</ele><time>2026-04-04T12:42:17.001Z</time></trkpt><trkpt lat="45.815954563985514" lon="9.058891841998037"><ele>355.0</ele><time>2026-04-04T12:42:18.001Z</time></trkpt><trkpt lat="45.81581770104926" lon="9.05893871520338"><ele>358.0</ele><time>2026-04-04T12:42:19.001Z</time></trkpt><trkpt lat="45.8156539146681" lon="9.058936035960674"><ele>358.0</ele><time>2026-04-04T12:42:20.001Z</time></trkpt><trkpt lat="45.81547699332612" lon="9.05891391886413"><ele>358.0</ele><time>2026-04-04T12:42:21.001Z</time></trkpt><trkpt lat="45.815288000890945" lon="9.05890719805222"><ele>358.0</ele><time>2026-04-04T12:42:22.001Z</time></trkpt><trkpt lat="45.815103836877235" lon="9.058926069582858"><ele>355.66666666666663</ele><time>2026-04-04T12:42:23.001Z</time></trkpt><trkpt lat="45.81493598318016" lon="9.059017308248926"><ele>353.3333333333333</ele><time>2026-04-04T12:42:24.001Z</time></trkpt><trkpt lat="45.81480026529754" lon="9.059185070944865"><ele>351.0</ele><time>2026-04-04T12:42:25.001Z</time></trkpt><trkpt lat="45.81470099552983" lon="9.059413306611583"><ele>351.0</ele><time>2026-04-04T12:42:26.001Z</time></trkpt><trkpt lat="45.81464532176417" lon="9.059678047817979"><ele>351.0</ele><time>2026-04-04T12:42:27.001Z</time></trkpt><trkpt lat="45.814599624608476" lon="9.059942615511794"><ele>351.0</ele><time>2026-04-04T12:42:28.001Z</time></trkpt><trkpt lat="45.81455520614649" lon="9.060151328928116"><ele>353.20000000000005</ele><time>2026-04-04T12:42:29.001Z</time></trkpt><trkpt lat="45.81451370113635" lon="9.060319134875316"><ele>355.40000000000003</ele><time>2026-04-04T12:42:30.001Z</time></trkpt><trkpt lat="45.81445664344174" lon="9.060446438777676"><ele>357.6</ele><time>2026-04-04T12:42:31.001Z</time></trkpt><trkpt lat="45.814364665554336" lon="9.06051942360578"><ele>359.8</ele><time>2026-04-04T12:42:32.001Z</time></trkpt><trkpt lat="45.81426968348979" lon="9.060553008566913"><ele>362.0</ele><time>2026-04-04T12:42:33.001Z</time></trkpt><trkpt lat="45.81416557192108" lon="9.060559878685929"><ele>362.0</ele><time>2026-04-04T12:42:34.001Z</time></trkpt><trkpt lat="45.81406459868775" lon="9.060517267082572"><ele>362.0</ele><time>2026-04-04T12:42:35.001Z</time></trkpt><trkpt lat="45.81397148626227" lon="9.060431641636157"><ele>362.0</ele><time>2026-04-04T12:42:36.001Z</time></trkpt><trkpt lat="45.813895034656056" lon="9.060307665131305"><ele>362.0</ele><time>2026-04-04T12:42:37.001Z</time></trkpt><trkpt lat="45.81380717305783" lon="9.060113752434882"><ele>366.6666666666667</ele><time>2026-04-04T12:42:38.001Z</time></trkpt><trkpt lat="45.813672424298645" lon="9.059887250025989"><ele>371.3333333333333</ele><time>2026-04-04T12:42:39.001Z</time></trkpt><trkpt lat="45.81358346058647" lon="9.059684965725731"><ele>376.0</ele><time>2026-04-04T12:42:40.001Z</time></trkpt><trkpt lat="45.81352802841778" lon="9.059541024528025"><ele>380.3333333333333</ele><time>2026-04-04T12:42:41.001Z</time></trkpt><trkpt lat="45.813405923603796" lon="9.059499224702778"><ele>384.66666666666663</ele><time>2026-04-04T12:42:42.001Z</time></trkpt><trkpt lat="45.81319810134021" lon="9.059477846054849"><ele>389.0</ele><time>2026-04-04T12:42:43Z</time></trkpt><trkpt lat="45.81299258265406" lon="9.059521601046553"><ele>389.0</ele><time>2026-04-04T12:42:44Z</time></trkpt><trkpt lat="45.81277766561129" lon="9.059572103341983"><ele>389.0</ele><time>2026-04-04T12:42:45Z</time></trkpt><trkpt lat="45.81261201257888" lon="9.059576640106803"><ele>389.0</ele><time>2026-04-04T12:42:46Z</time></trkpt><trkpt lat="45.812488694952755" lon="9.059542743758788"><ele>387.75</ele><time>2026-04-04T12:42:47Z</time></trkpt><trkpt lat="45.81239607102189" lon="9.059476710790642"><ele>386.5</ele><time>2026-04-04T12:42:48Z</time></trkpt><trkpt lat="45.81230838713898" lon="9.059391364711006"><ele>385.25</ele><time>2026-04-04T12:42:49Z</time></trkpt><trkpt lat="45.812285599230776" lon="9.059214117636177"><ele>384.0</ele><time>2026-04-04T12:42:50Z</time></trkpt><trkpt lat="45.81227118160625" lon="9.059028154020764"><ele>388.0</ele><time>2026-04-04T12:42:51Z</time></trkpt><trkpt lat="45.81223066690027" lon="9.05885344551203"><ele>392.0</ele><time>2026-04-04T12:42:52Z</time></trkpt><trkpt lat="45.81214162453484" lon="9.058743733877703"><ele>396.0</ele><time>2026-04-04T12:42:53Z</time></trkpt><trkpt lat="45.8120141326886" lon="9.05866907321024"><ele>400.0</ele><time>2026-04-04T12:42:54Z</time></trkpt><trkpt lat="45.81185517616431" lon="9.058661306807526"><ele>400.33333333333337</ele><time>2026-04-04T12:42:55Z</time></trkpt><trkpt lat="45.811684316223634" lon="9.058679543834087"><ele>400.66666666666663</ele><time>2026-04-04T12:42:56Z</time></trkpt><trkpt lat="45.81149435620538" lon="9.058729955347598"><ele>401.0</ele><time>2026-04-04T12:42:57Z</time></trkpt><trkpt lat="45.811292454837385" lon="9.05877638645892"><ele>401.0</ele><time>2026-04-04T12:42:58Z</time></trkpt><trkpt lat="45.81110342345144" lon="9.05880315197817"><ele>401.0</ele><time>2026-04-04T12:42:59Z</time></trkpt><trkpt lat="45.810933806091114" lon="9.058782293899128"><ele>401.0</ele><time>2026-04-04T12:43:00Z</time></trkpt><trkpt lat="45.81078050667529" lon="9.05869798831264"><ele>401.0</ele><time>2026-04-04T12:43:01.018Z</time></trkpt><trkpt lat="45.810699336122745" lon="9.058504557502564"><ele>401.0</ele><time>2026-04-04T12:43:02.02Z</time></trkpt><trkpt lat="45.810689814145626" lon="9.05831792091968"><ele>401.0</ele><time>2026-04-04T12:43:03Z</time></trkpt><trkpt lat="45.810674648790005" lon="9.058169171984709"><ele>401.0</ele><time>2026-04-04T12:43:05Z</time></trkpt><trkpt lat="45.81064653324673" lon="9.05798800466927"><ele>401.0</ele><time>2026-04-04T12:43:06Z</time></trkpt><trkpt lat="45.810630544314186" lon="9.057812082345432"><ele>401.0</ele><time>2026-04-04T12:43:07Z</time></trkpt><trkpt lat="45.81061365171267" lon="9.057652433554766"><ele>401.0</ele><time>2026-04-04T12:43:08Z</time></trkpt><trkpt lat="45.81059137022608" lon="9.05750996693428"><ele>401.0</ele><time>2026-04-04T12:43:09Z</time></trkpt><trkpt lat="45.810558229367835" lon="9.057376734998046"><ele>401.0</ele><time>2026-04-04T12:43:10Z</time></trkpt><trkpt lat="45.81048448975786" lon="9.057254954016631"><ele>399.20000000000005</ele><time>2026-04-04T12:43:11Z</time></trkpt><trkpt lat="45.81038113756814" lon="9.05717385510364"><ele>397.40000000000003</ele><time>2026-04-04T12:43:12Z</time></trkpt><trkpt lat="45.8102724889051" lon="9.057135381303468"><ele>395.6</ele><time>2026-04-04T12:43:13Z</time></trkpt><trkpt lat="45.81018325464478" lon="9.05710487345431"><ele>393.8</ele><time>2026-04-04T12:43:14Z</time></trkpt><trkpt lat="45.81010684035126" lon="9.057063544653417"><ele>392.0</ele><time>2026-04-04T12:43:15Z</time></trkpt><trkpt lat="45.81003106881522" lon="9.057025509146028"><ele>392.0</ele><time>2026-04-04T12:43:16Z</time></trkpt><trkpt lat="45.80995996509559" lon="9.05694165064024"><ele>392.0</ele><time>2026-04-04T12:43:17Z</time></trkpt><trkpt lat="45.80990455807344" lon="9.056833082527618"><ele>392.0</ele><time>2026-04-04T12:43:18Z</time></trkpt><trkpt lat="45.809894374777535" lon="9.056713044026967"><ele>392.0</ele><time>2026-04-04T12:43:19Z</time></trkpt><trkpt lat="45.809912586935106" lon="9.056515977195135"><ele>392.0</ele><time>2026-04-04T12:43:21Z</time></trkpt><trkpt lat="45.809953589503365" lon="9.056391669496264"><ele>392.66666666666663</ele><time>2026-04-04T12:43:22Z</time></trkpt><trkpt lat="45.80999930443571" lon="9.056278799671274"><ele>393.3333333333333</ele><time>2026-04-04T12:43:23Z</time></trkpt><trkpt lat="45.81003923840258" lon="9.056163509360431"><ele>394.0</ele><time>2026-04-04T12:43:24Z</time></trkpt><trkpt lat="45.81005258937595" lon="9.056032880066551"><ele>394.66666666666663</ele><time>2026-04-04T12:43:25Z</time></trkpt><trkpt lat="45.810029244478024" lon="9.055915763666533"><ele>395.3333333333333</ele><time>2026-04-04T12:43:26Z</time></trkpt><trkpt lat="45.80998722846006" lon="9.055816207159904"><ele>396.0</ele><time>2026-04-04T12:43:27Z</time></trkpt><trkpt lat="45.80992962151488" lon="9.055710758663924"><ele>397.75</ele><time>2026-04-04T12:43:28Z</time></trkpt><trkpt lat="45.8098931451915" lon="9.055593083369537"><ele>399.5</ele><time>2026-04-04T12:43:29Z</time></trkpt><trkpt lat="45.80986295160505" lon="9.055504413150704"><ele>401.25</ele><time>2026-04-04T12:43:30Z</time></trkpt><trkpt lat="45.80988085155357" lon="9.055358933254173"><ele>403.0</ele><time>2026-04-04T12:43:32Z</time></trkpt><trkpt lat="45.80993433361531" lon="9.055058423282027"><ele>404.4</ele><time>2026-04-04T12:43:34Z</time></trkpt><trkpt lat="45.809937839434866" lon="9.05491341204522"><ele>405.79999999999995</ele><time>2026-04-04T12:43:35Z</time></trkpt><trkpt lat="45.80989951142076" lon="9.054773360759606"><ele>407.2</ele><time>2026-04-04T12:43:36Z</time></trkpt><trkpt lat="45.809859405117614" lon="9.05464600007261"><ele>408.6</ele><time>2026-04-04T12:43:37Z</time></trkpt><trkpt lat="45.80983196296767" lon="9.054488140938231"><ele>410.0</ele><time>2026-04-04T12:43:38Z</time></trkpt><trkpt lat="45.809792912117686" lon="9.054335547647748"><ele>410.0</ele><time>2026-04-04T12:43:39Z</time></trkpt><trkpt lat="45.80975181589372" lon="9.054174962433843"><ele>410.0</ele><time>2026-04-04T12:43:40Z</time></trkpt><trkpt lat="45.80969977697234" lon="9.05401577145349"><ele>410.0</ele><time>2026-04-04T12:43:41Z</time></trkpt><trkpt lat="45.80964575972621" lon="9.053786775110078"><ele>410.0</ele><time>2026-04-04T12:43:42Z</time></trkpt><trkpt lat="45.80959382021021" lon="9.053578980692809"><ele>409.3333333333333</ele><time>2026-04-04T12:43:43Z</time></trkpt><trkpt lat="45.80954712375163" lon="9.05339357537748"><ele>408.66666666666663</ele><time>2026-04-04T12:43:44Z</time></trkpt><trkpt lat="45.80950096074536" lon="9.053222927197563"><ele>408.0</ele><time>2026-04-04T12:43:45Z</time></trkpt><trkpt lat="45.809444010885386" lon="9.052958018293882"><ele>407.33333333333337</ele><time>2026-04-04T12:43:46.001Z</time></trkpt><trkpt lat="45.80938184538001" lon="9.052713671999719"><ele>406.6666666666667</ele><time>2026-04-04T12:43:47.001Z</time></trkpt><trkpt lat="45.809313776794255" lon="9.052514234991904"><ele>406.0</ele><time>2026-04-04T12:43:48.001Z</time></trkpt><trkpt lat="45.80927495396959" lon="9.052359743636076"><ele>405.00000000000006</ele><time>2026-04-04T12:43:49.001Z</time></trkpt><trkpt lat="45.80924282060532" lon="9.052253731403228"><ele>404.0</ele><time>2026-04-04T12:43:50.001Z</time></trkpt><trkpt lat="45.80920386932246" lon="9.052133429016386"><ele>403.0</ele><time>2026-04-04T12:43:52.001Z</time></trkpt><trkpt lat="45.809169020530135" lon="9.05199775051589"><ele>402.0</ele><time>2026-04-04T12:43:54.001Z</time></trkpt><trkpt lat="45.80914947998424" lon="9.051887459450128"><ele>401.00000000000006</ele><time>2026-04-04T12:43:55.001Z</time></trkpt><trkpt lat="45.80912910926021" lon="9.051766093571585"><ele>400.0</ele><time>2026-04-04T12:43:56.001Z</time></trkpt><trkpt lat="45.809099204127634" lon="9.051646268218938"><ele>401.5</ele><time>2026-04-04T12:43:57.001Z</time></trkpt><trkpt lat="45.809042752833726" lon="9.051520506670643"><ele>403.0</ele><time>2026-04-04T12:43:58.001Z</time></trkpt><trkpt lat="45.80894745531524" lon="9.051403601081551"><ele>404.5</ele><time>2026-04-04T12:43:59.001Z</time></trkpt><trkpt lat="45.80882716070932" lon="9.051262578024474"><ele>406.0</ele><time>2026-04-04T12:44:00.001Z</time></trkpt><trkpt lat="45.80870283635044" lon="9.051091378320098"><ele>406.0</ele><time>2026-04-04T12:44:01.001Z</time></trkpt><trkpt lat="45.80859915604102" lon="9.050947913166022"><ele>406.0</ele><time>2026-04-04T12:44:02.001Z</time></trkpt><trkpt lat="45.808506250742454" lon="9.05082244626252"><ele>406.0</ele><time>2026-04-04T12:44:03.001Z</time></trkpt><trkpt lat="45.80843203561359" lon="9.050710899886766"><ele>406.0</ele><time>2026-04-04T12:44:04.001Z</time></trkpt><trkpt lat="45.808363454624704" lon="9.050605999342793"><ele>405.1666666666667</ele><time>2026-04-04T12:44:05.001Z</time></trkpt><trkpt lat="45.80833123550815" lon="9.050478297008612"><ele>404.33333333333337</ele><time>2026-04-04T12:44:06.001Z</time></trkpt><trkpt lat="45.80831816620868" lon="9.050366969152702"><ele>403.5</ele><time>2026-04-04T12:44:07.001Z</time></trkpt><trkpt lat="45.808324338191966" lon="9.05024596152165"><ele>402.66666666666663</ele><time>2026-04-04T12:44:08.001Z</time></trkpt><trkpt lat="45.80834311769989" lon="9.050127018989558"><ele>401.8333333333333</ele><time>2026-04-04T12:44:09.001Z</time></trkpt><trkpt lat="45.80836539203028" lon="9.050003815728422"><ele>401.0</ele><time>2026-04-04T12:44:10.001Z</time></trkpt><trkpt lat="45.80839674431142" lon="9.049874248877671"><ele>400.8333333333333</ele><time>2026-04-04T12:44:11.001Z</time></trkpt><trkpt lat="45.80843122302594" lon="9.04974146017712"><ele>400.66666666666663</ele><time>2026-04-04T12:44:12.001Z</time></trkpt><trkpt lat="45.808458646410195" lon="9.049622051306223"><ele>400.5</ele><time>2026-04-04T12:44:13.001Z</time></trkpt><trkpt lat="45.80848363884787" lon="9.049517621838238"><ele>400.33333333333337</ele><time>2026-04-04T12:44:14.001Z</time></trkpt><trkpt lat="45.80851282144286" lon="9.049397414439499"><ele>400.1666666666667</ele><time>2026-04-04T12:44:16.001Z</time></trkpt><trkpt lat="45.80853734136125" lon="9.049294583722947"><ele>400.0</ele><time>2026-04-04T12:44:19.001Z</time></trkpt><trkpt lat="45.80856526881388" lon="9.049194488980078"><ele>401.0</ele><time>2026-04-04T12:44:23.001Z</time></trkpt><trkpt lat="45.8085971410978" lon="9.049076414588704"><ele>402.0</ele><time>2026-04-04T12:44:24.001Z</time></trkpt><trkpt lat="45.80863618155057" lon="9.04893426636159"><ele>403.0</ele><time>2026-04-04T12:44:25.001Z</time></trkpt><trkpt lat="45.8086787317102" lon="9.048798991416838"><ele>404.0</ele><time>2026-04-04T12:44:26.001Z</time></trkpt><trkpt lat="45.808733906639716" lon="9.04866386868285"><ele>405.0</ele><time>2026-04-04T12:44:27.001Z</time></trkpt><trkpt lat="45.808804502658965" lon="9.048517091748115"><ele>405.0</ele><time>2026-04-04T12:44:28.001Z</time></trkpt><trkpt lat="45.8088996235696" lon="9.048360733841939"><ele>405.0</ele><time>2026-04-04T12:44:29.001Z</time></trkpt><trkpt lat="45.80899869177666" lon="9.048194593987306"><ele>405.0</ele><time>2026-04-04T12:44:30.001Z</time></trkpt><trkpt lat="45.80910465176418" lon="9.048011948076102"><ele>403.33333333333337</ele><time>2026-04-04T12:44:31.001Z</time></trkpt><trkpt lat="45.80921988168187" lon="9.04782759212416"><ele>401.6666666666667</ele><time>2026-04-04T12:44:32.001Z</time></trkpt><trkpt lat="45.80933340420842" lon="9.047633392539474"><ele>400.0</ele><time>2026-04-04T12:44:33.001Z</time></trkpt><trkpt lat="45.80944080526503" lon="9.047454847500735"><ele>398.8</ele><time>2026-04-04T12:44:34.001Z</time></trkpt><trkpt lat="45.809542407295865" lon="9.047326768413715"><ele>397.6</ele><time>2026-04-04T12:44:35.001Z</time></trkpt><trkpt lat="45.809603624982095" lon="9.04719468419442"><ele>396.4</ele><time>2026-04-04T12:44:36.001Z</time></trkpt><trkpt lat="45.80966823162214" lon="9.047087346044613"><ele>395.2</ele><time>2026-04-04T12:44:37.001Z</time></trkpt><trkpt lat="45.80973104691673" lon="9.046983712745112"><ele>394.0</ele><time>2026-04-04T12:44:38.001Z</time></trkpt><trkpt lat="45.809804540402304" lon="9.046855951909963"><ele>394.0</ele><time>2026-04-04T12:44:39.001Z</time></trkpt><trkpt lat="45.809893724006486" lon="9.046692063598194"><ele>394.0</ele><time>2026-04-04T12:44:40.001Z</time></trkpt><trkpt lat="45.809994892500335" lon="9.04652280373039"><ele>394.0</ele><time>2026-04-04T12:44:41.001Z</time></trkpt><trkpt lat="45.8100947436536" lon="9.046350111377041"><ele>394.33333333333337</ele><time>2026-04-04T12:44:42.001Z</time></trkpt><trkpt lat="45.81019121046097" lon="9.046161879394672"><ele>394.66666666666663</ele><time>2026-04-04T12:44:43.001Z</time></trkpt><trkpt lat="45.810301161211754" lon="9.04598681102589"><ele>395.0</ele><time>2026-04-04T12:44:44.001Z</time></trkpt><trkpt lat="45.81039746492482" lon="9.045797319361773"><ele>394.66666666666663</ele><time>2026-04-04T12:44:45.001Z</time></trkpt><trkpt lat="45.8104972694557" lon="9.045600941319098"><ele>394.33333333333337</ele><time>2026-04-04T12:44:46.001Z</time></trkpt><trkpt lat="45.81059708218669" lon="9.045404496618515"><ele>394.0</ele><time>2026-04-04T12:44:47.001Z</time></trkpt><trkpt lat="45.81069656360569" lon="9.045208742837342"><ele>394.0</ele><time>2026-04-04T12:44:48.001Z</time></trkpt><trkpt lat="45.81079366706334" lon="9.045017668358971"><ele>394.0</ele><time>2026-04-04T12:44:49Z</time></trkpt><trkpt lat="45.81088749304144" lon="9.044828820658841"><ele>394.0</ele><time>2026-04-04T12:44:50Z</time></trkpt><trkpt lat="45.81096252135308" lon="9.044633949594227"><ele>396.0</ele><time>2026-04-04T12:44:51Z</time></trkpt><trkpt lat="45.81103485207373" lon="9.044448606382755"><ele>398.0</ele><time>2026-04-04T12:44:52Z</time></trkpt><trkpt lat="45.811060404742086" lon="9.04421498170614"><ele>400.0</ele><time>2026-04-04T12:44:53Z</time></trkpt><trkpt lat="45.81106110474935" lon="9.043967751939745"><ele>401.0</ele><time>2026-04-04T12:44:54Z</time></trkpt><trkpt lat="45.811059344113545" lon="9.043721306533262"><ele>402.0</ele><time>2026-04-04T12:44:55Z</time></trkpt><trkpt lat="45.81106165960601" lon="9.043484551702177"><ele>403.0</ele><time>2026-04-04T12:44:56Z</time></trkpt><trkpt lat="45.81105353838859" lon="9.043258258414395"><ele>403.33333333333337</ele><time>2026-04-04T12:44:57Z</time></trkpt><trkpt lat="45.81099340785628" lon="9.043056167262716"><ele>403.66666666666663</ele><time>2026-04-04T12:44:58Z</time></trkpt><trkpt lat="45.810895009176384" lon="9.042889938051776"><ele>404.0</ele><time>2026-04-04T12:44:59Z</time></trkpt><trkpt lat="45.810778460407086" lon="9.042739113619335"><ele>404.0</ele><time>2026-04-04T12:45:00Z</time></trkpt><trkpt lat="45.810664484810474" lon="9.042576904926861"><ele>404.0</ele><time>2026-04-04T12:45:01Z</time></trkpt><trkpt lat="45.810577443629334" lon="9.042404451923684"><ele>404.0</ele><time>2026-04-04T12:45:02Z</time></trkpt><trkpt lat="45.810523549974505" lon="9.04225202304102"><ele>404.0</ele><time>2026-04-04T12:45:03Z</time></trkpt><trkpt lat="45.810481457727505" lon="9.04211194762277"><ele>404.5</ele><time>2026-04-04T12:45:04Z</time></trkpt><trkpt lat="45.81051739134138" lon="9.041931493464963"><ele>405.0</ele><time>2026-04-04T12:45:05Z</time></trkpt><trkpt lat="45.8105906259838" lon="9.041739502096366"><ele>405.5</ele><time>2026-04-04T12:45:06Z</time></trkpt><trkpt lat="45.810671986130004" lon="9.041546549511235"><ele>406.0</ele><time>2026-04-04T12:45:07Z</time></trkpt><trkpt lat="45.81073718350907" lon="9.041360007730324"><ele>404.0</ele><time>2026-04-04T12:45:08Z</time></trkpt><trkpt lat="45.81079573633384" lon="9.041175519361255"><ele>402.0</ele><time>2026-04-04T12:45:09Z</time></trkpt><trkpt lat="45.81084686777487" lon="9.041018060093675"><ele>400.0</ele><time>2026-04-04T12:45:10Z</time></trkpt><trkpt lat="45.81089219446904" lon="9.040883311204535"><ele>398.0</ele><time>2026-04-04T12:45:11Z</time></trkpt><trkpt lat="45.810934588891" lon="9.040746115908359"><ele>397.99999999999994</ele><time>2026-04-04T12:45:12Z</time></trkpt><trkpt lat="45.81096858597804" lon="9.040604092098102"><ele>398.0</ele><time>2026-04-04T12:45:13Z</time></trkpt><trkpt lat="45.81096961823751" lon="9.040489582516788"><ele>398.0</ele><time>2026-04-04T12:45:14Z</time></trkpt><trkpt lat="45.810976234315426" lon="9.040383920851111"><ele>398.0</ele><time>2026-04-04T12:45:16Z</time></trkpt><trkpt lat="45.8109620619842" lon="9.040291808396255"><ele>397.99999999999994</ele><time>2026-04-04T12:45:18Z</time></trkpt><trkpt lat="45.81093037977908" lon="9.040152728972304"><ele>398.0</ele><time>2026-04-04T12:45:21Z</time></trkpt><trkpt lat="45.810870630913165" lon="9.039987112247363"><ele>397.3333333333333</ele><time>2026-04-04T12:45:23Z</time></trkpt><trkpt lat="45.810838565572716" lon="9.039895764517507"><ele>396.66666666666663</ele><time>2026-04-04T12:45:24Z</time></trkpt><trkpt lat="45.81079453766343" lon="9.03981132568351"><ele>396.0</ele><time>2026-04-04T12:45:25Z</time></trkpt><trkpt lat="45.81075964609525" lon="9.03970418607694"><ele>395.33333333333337</ele><time>2026-04-04T12:45:26Z</time></trkpt><trkpt lat="45.81072959123485" lon="9.039589195083446"><ele>394.6666666666667</ele><time>2026-04-04T12:45:27Z</time></trkpt><trkpt lat="45.8107038458971" lon="9.039461826748727"><ele>394.0</ele><time>2026-04-04T12:45:28Z</time></trkpt><trkpt lat="45.81071697262674" lon="9.039325025091733"><ele>394.0</ele><time>2026-04-04T12:45:29Z</time></trkpt><trkpt lat="45.81072990595737" lon="9.039186260372594"><ele>394.0</ele><time>2026-04-04T12:45:30Z</time></trkpt><trkpt lat="45.81076798484076" lon="9.039050111775593"><ele>394.0</ele><time>2026-04-04T12:45:31Z</time></trkpt><trkpt lat="45.810783892899515" lon="9.038895112554487"><ele>394.0</ele><time>2026-04-04T12:45:32Z</time></trkpt><trkpt lat="45.810858607276856" lon="9.03877094942456"><ele>394.0</ele><time>2026-04-04T12:45:33Z</time></trkpt><trkpt lat="45.81092723837226" lon="9.03865555762548"><ele>393.2</ele><time>2026-04-04T12:45:34Z</time></trkpt><trkpt lat="45.810989899377326" lon="9.038528853822854"><ele>392.4</ele><time>2026-04-04T12:45:35Z</time></trkpt><trkpt lat="45.81106649041715" lon="9.03841448613708"><ele>391.6</ele><time>2026-04-04T12:45:36Z</time></trkpt><trkpt lat="45.81112507896933" lon="9.038292627704955"><ele>390.8</ele><time>2026-04-04T12:45:37Z</time></trkpt><trkpt lat="45.81118130746585" lon="9.038176099891313"><ele>390.0</ele><time>2026-04-04T12:45:38Z</time></trkpt><trkpt lat="45.81124180106002" lon="9.038050736451288"><ele>392.75</ele><time>2026-04-04T12:45:39Z</time></trkpt><trkpt lat="45.811306746741835" lon="9.037922624641444"><ele>395.5</ele><time>2026-04-04T12:45:40Z</time></trkpt><trkpt lat="45.811375912160855" lon="9.037791137360497"><ele>398.25</ele><time>2026-04-04T12:45:41Z</time></trkpt><trkpt lat="45.81145589380802" lon="9.037651445002519"><ele>401.0</ele><time>2026-04-04T12:45:42Z</time></trkpt><trkpt lat="45.81154632029079" lon="9.037494637989086"><ele>401.5</ele><time>2026-04-04T12:45:43Z</time></trkpt><trkpt lat="45.81163878225443" lon="9.037340059122892"><ele>402.0</ele><time>2026-04-04T12:45:44Z</time></trkpt><trkpt lat="45.811728427938604" lon="9.03719127154517"><ele>402.5</ele><time>2026-04-04T12:45:45Z</time></trkpt><trkpt lat="45.81181413252092" lon="9.037054939639718"><ele>403.0</ele><time>2026-04-04T12:45:46Z</time></trkpt><trkpt lat="45.81190051112238" lon="9.036923231327627"><ele>403.0</ele><time>2026-04-04T12:45:47Z</time></trkpt><trkpt lat="45.811978130143665" lon="9.036791082463187"><ele>403.0</ele><time>2026-04-04T12:45:48Z</time></trkpt><trkpt lat="45.81207140633201" lon="9.036679347971448"><ele>403.0</ele><time>2026-04-04T12:45:49Z</time></trkpt><trkpt lat="45.812162184662725" lon="9.03656905537613"><ele>403.0</ele><time>2026-04-04T12:45:50Z</time></trkpt><trkpt lat="45.812257465629116" lon="9.036460791732173"><ele>400.5</ele><time>2026-04-04T12:45:51Z</time></trkpt><trkpt lat="45.812346685449974" lon="9.036354628852953"><ele>398.0</ele><time>2026-04-04T12:45:52.001Z</time></trkpt><trkpt lat="45.81242767945267" lon="9.036232923339133"><ele>395.5</ele><time>2026-04-04T12:45:53.001Z</time></trkpt><trkpt lat="45.81249421888846" lon="9.036112892236744"><ele>393.0</ele><time>2026-04-04T12:45:54.001Z</time></trkpt><trkpt lat="45.81256087625122" lon="9.035984834467488"><ele>393.0</ele><time>2026-04-04T12:45:55.001Z</time></trkpt><trkpt lat="45.812627447848634" lon="9.035853084367947"><ele>393.0</ele><time>2026-04-04T12:45:56.001Z</time></trkpt><trkpt lat="45.8126929378315" lon="9.035726913738067"><ele>393.0</ele><time>2026-04-04T12:45:57.001Z</time></trkpt><trkpt lat="45.812754322732694" lon="9.03559732046773"><ele>393.0</ele><time>2026-04-04T12:45:58.001Z</time></trkpt><trkpt lat="45.81281519571344" lon="9.03547677544572"><ele>393.0</ele><time>2026-04-04T12:45:59.001Z</time></trkpt><trkpt lat="45.812872419396975" lon="9.035364236608997"><ele>393.4</ele><time>2026-04-04T12:46:00.001Z</time></trkpt><trkpt lat="45.81294064247065" lon="9.035245089935572"><ele>393.79999999999995</ele><time>2026-04-04T12:46:01.001Z</time></trkpt><trkpt lat="45.813003368035055" lon="9.035126006877391"><ele>394.2</ele><time>2026-04-04T12:46:02.001Z</time></trkpt><trkpt lat="45.81306348406625" lon="9.03499663919775"><ele>394.6</ele><time>2026-04-04T12:46:03.001Z</time></trkpt><trkpt lat="45.81312564491973" lon="9.034870118371161"><ele>395.0</ele><time>2026-04-04T12:46:04.001Z</time></trkpt><trkpt lat="45.81318636027622" lon="9.034757229467932"><ele>395.0</ele><time>2026-04-04T12:46:05.001Z</time></trkpt><trkpt lat="45.81324766542246" lon="9.034632909822793"><ele>395.0</ele><time>2026-04-04T12:46:06.001Z</time></trkpt><trkpt lat="45.813312574240044" lon="9.034506772306115"><ele>395.0</ele><time>2026-04-04T12:46:07.001Z</time></trkpt><trkpt lat="45.813370219389576" lon="9.034392916288853"><ele>395.0</ele><time>2026-04-04T12:46:08.001Z</time></trkpt><trkpt lat="45.813432837911115" lon="9.03426230202697"><ele>395.0</ele><time>2026-04-04T12:46:09.001Z</time></trkpt><trkpt lat="45.81349823293859" lon="9.034130826018826"><ele>397.0</ele><time>2026-04-04T12:46:10.001Z</time></trkpt><trkpt lat="45.81356421973854" lon="9.034003509141906"><ele>399.0</ele><time>2026-04-04T12:46:11.001Z</time></trkpt><trkpt lat="45.813630873783495" lon="9.033875846577807"><ele>401.0</ele><time>2026-04-04T12:46:12.001Z</time></trkpt><trkpt lat="45.81370152814556" lon="9.03374584369964"><ele>403.0</ele><time>2026-04-04T12:46:13.001Z</time></trkpt><trkpt lat="45.813770723332055" lon="9.033615453437148"><ele>403.0</ele><time>2026-04-04T12:46:14.001Z</time></trkpt><trkpt lat="45.81383952748375" lon="9.033483235968715"><ele>403.0</ele><time>2026-04-04T12:46:15.001Z</time></trkpt><trkpt lat="45.8139038850683" lon="9.033361124530678"><ele>403.0</ele><time>2026-04-04T12:46:16.001Z</time></trkpt><trkpt lat="45.813954822243474" lon="9.033222264910657"><ele>403.0</ele><time>2026-04-04T12:46:17.001Z</time></trkpt><trkpt lat="45.81401602875597" lon="9.033090582201858"><ele>403.0</ele><time>2026-04-04T12:46:18.001Z</time></trkpt><trkpt lat="45.81406659654847" lon="9.032977666822722"><ele>403.0</ele><time>2026-04-04T12:46:19.001Z</time></trkpt><trkpt lat="45.814122456250644" lon="9.032853520053164"><ele>403.0</ele><time>2026-04-04T12:46:20.001Z</time></trkpt><trkpt lat="45.8141753977007" lon="9.03273428008826"><ele>403.0</ele><time>2026-04-04T12:46:21.001Z</time></trkpt><trkpt lat="45.81422081847022" lon="9.032604397642842"><ele>403.0</ele><time>2026-04-04T12:46:22.001Z</time></trkpt><trkpt lat="45.814267420304034" lon="9.032476093134708"><ele>403.0</ele><time>2026-04-04T12:46:23.001Z</time></trkpt><trkpt lat="45.81431579948938" lon="9.032353405712373"><ele>404.00000000000006</ele><time>2026-04-04T12:46:24.001Z</time></trkpt><trkpt lat="45.8143737139632" lon="9.032250001116713"><ele>405.0</ele><time>2026-04-04T12:46:25.001Z</time></trkpt><trkpt lat="45.81444026100896" lon="9.032159271667146"><ele>406.0</ele><time>2026-04-04T12:46:26.001Z</time></trkpt><trkpt lat="45.814495325252594" lon="9.032105741093144"><ele>407.0</ele><time>2026-04-04T12:46:27.001Z</time></trkpt><trkpt lat="45.81455299793188" lon="9.032056633477854"><ele>408.00000000000006</ele><time>2026-04-04T12:46:28.001Z</time></trkpt><trkpt lat="45.81462567819635" lon="9.032008107798921"><ele>409.0</ele><time>2026-04-04T12:46:29.001Z</time></trkpt><trkpt lat="45.8147124184096" lon="9.031973329163007"><ele>409.0</ele><time>2026-04-04T12:46:30.001Z</time></trkpt><trkpt lat="45.81479596465754" lon="9.031940213635318"><ele>409.0</ele><time>2026-04-04T12:46:31.001Z</time></trkpt><trkpt lat="45.814880934097864" lon="9.031882041501746"><ele>409.0</ele><time>2026-04-04T12:46:32.001Z</time></trkpt><trkpt lat="45.814950281086205" lon="9.031784882539052"><ele>409.0</ele><time>2026-04-04T12:46:33.001Z</time></trkpt><trkpt lat="45.81500730992893" lon="9.031660533962235"><ele>409.0</ele><time>2026-04-04T12:46:34.001Z</time></trkpt><trkpt lat="45.81505194895854" lon="9.031508387611341"><ele>409.75</ele><time>2026-04-04T12:46:35.001Z</time></trkpt><trkpt lat="45.8150819158826" lon="9.031320455278626"><ele>410.5</ele><time>2026-04-04T12:46:36.001Z</time></trkpt><trkpt lat="45.815070805271496" lon="9.031120283578897"><ele>411.25</ele><time>2026-04-04T12:46:37.001Z</time></trkpt><trkpt lat="45.815011504952935" lon="9.030919453612437"><ele>412.0</ele><time>2026-04-04T12:46:38.001Z</time></trkpt><trkpt lat="45.814936997492524" lon="9.030655448437866"><ele>414.33333333333337</ele><time>2026-04-04T12:46:39.001Z</time></trkpt><trkpt lat="45.81484438330036" lon="9.030372090360652"><ele>416.66666666666663</ele><time>2026-04-04T12:46:40.001Z</time></trkpt><trkpt lat="45.814750626742054" lon="9.03010919764045"><ele>419.0</ele><time>2026-04-04T12:46:41.001Z</time></trkpt><trkpt lat="45.81465265649993" lon="9.029845400469501"><ele>421.66666666666663</ele><time>2026-04-04T12:46:42.001Z</time></trkpt><trkpt lat="45.81457289608534" lon="9.029625079923298"><ele>424.33333333333337</ele><time>2026-04-04T12:46:43.001Z</time></trkpt><trkpt lat="45.81450201145014" lon="9.02941514039111"><ele>427.0</ele><time>2026-04-04T12:46:44.001Z</time></trkpt><trkpt lat="45.814462659422176" lon="9.029197456369358"><ele>427.6666666666667</ele><time>2026-04-04T12:46:45.001Z</time></trkpt><trkpt lat="45.81444964669315" lon="9.028976171019217"><ele>428.33333333333337</ele><time>2026-04-04T12:46:46.001Z</time></trkpt><trkpt lat="45.814463119738846" lon="9.028757861522076"><ele>429.0</ele><time>2026-04-04T12:46:47.001Z</time></trkpt><trkpt lat="45.8145180716339" lon="9.028548265247961"><ele>429.0</ele><time>2026-04-04T12:46:48.001Z</time></trkpt><trkpt lat="45.8145705500143" lon="9.028323743846244"><ele>429.0</ele><time>2026-04-04T12:46:49.001Z</time></trkpt><trkpt lat="45.81463068804377" lon="9.028070187908064"><ele>429.0</ele><time>2026-04-04T12:46:50.001Z</time></trkpt><trkpt lat="45.81469986132767" lon="9.027783535648252"><ele>429.0</ele><time>2026-04-04T12:46:51.001Z</time></trkpt><trkpt lat="45.81477110082643" lon="9.027492663749305"><ele>429.0</ele><time>2026-04-04T12:46:52.001Z</time></trkpt><trkpt lat="45.81483343982249" lon="9.027234220837155"><ele>429.0</ele><time>2026-04-04T12:46:53.001Z</time></trkpt><trkpt lat="45.81486410975579" lon="9.026994670843308"><ele>429.66666666666663</ele><time>2026-04-04T12:46:54Z</time></trkpt><trkpt lat="45.814893303941396" lon="9.026782652345288"><ele>430.3333333333333</ele><time>2026-04-04T12:46:55Z</time></trkpt><trkpt lat="45.81486747948182" lon="9.026559779412183"><ele>431.0</ele><time>2026-04-04T12:46:56Z</time></trkpt><trkpt lat="45.81478681991833" lon="9.02633526511627"><ele>433.0</ele><time>2026-04-04T12:46:57Z</time></trkpt><trkpt lat="45.81467270035948" lon="9.026140177861892"><ele>435.0</ele><time>2026-04-04T12:46:58Z</time></trkpt><trkpt lat="45.81452819572744" lon="9.025947366466495"><ele>437.0</ele><time>2026-04-04T12:46:59Z</time></trkpt><trkpt lat="45.81441384117297" lon="9.025681534364207"><ele>435.3333333333333</ele><time>2026-04-04T12:47:00Z</time></trkpt><trkpt lat="45.81431134005623" lon="9.025389012417138"><ele>433.66666666666663</ele><time>2026-04-04T12:47:01Z</time></trkpt><trkpt lat="45.814221930890874" lon="9.025113273903745"><ele>432.0</ele><time>2026-04-04T12:47:02Z</time></trkpt><trkpt lat="45.81414256853638" lon="9.024878418389573"><ele>438.33333333333337</ele><time>2026-04-04T12:47:03Z</time></trkpt><trkpt lat="45.81400986061945" lon="9.024676415174833"><ele>444.6666666666667</ele><time>2026-04-04T12:47:04Z</time></trkpt><trkpt lat="45.81380892868306" lon="9.024510484815723"><ele>451.0</ele><time>2026-04-04T12:47:05Z</time></trkpt><trkpt lat="45.81358143076923" lon="9.024376131337805"><ele>451.0</ele><time>2026-04-04T12:47:06Z</time></trkpt><trkpt lat="45.81338633222863" lon="9.024233055658508"><ele>451.0</ele><time>2026-04-04T12:47:07Z</time></trkpt><trkpt lat="45.8132220017689" lon="9.024096716227321"><ele>451.0</ele><time>2026-04-04T12:47:08Z</time></trkpt><trkpt lat="45.81307756544031" lon="9.023968716175126"><ele>451.0</ele><time>2026-04-04T12:47:09Z</time></trkpt><trkpt lat="45.81300402189318" lon="9.023774480951719"><ele>451.0</ele><time>2026-04-04T12:47:10Z</time></trkpt><trkpt lat="45.81294233590592" lon="9.023588763743366"><ele>451.0</ele><time>2026-04-04T12:47:11Z</time></trkpt><trkpt lat="45.81288005332088" lon="9.023377949578384"><ele>452.0</ele><time>2026-04-04T12:47:12Z</time></trkpt><trkpt lat="45.81279890384878" lon="9.023143722488893"><ele>453.0</ele><time>2026-04-04T12:47:13Z</time></trkpt><trkpt lat="45.812727746426745" lon="9.022893848670643"><ele>454.0</ele><time>2026-04-04T12:47:14Z</time></trkpt><trkpt lat="45.81265027796759" lon="9.022630874082566"><ele>449.33333333333337</ele><time>2026-04-04T12:47:15Z</time></trkpt><trkpt lat="45.81257636844996" lon="9.022365284677873"><ele>444.66666666666663</ele><time>2026-04-04T12:47:16Z</time></trkpt><trkpt lat="45.81250387550126" lon="9.022104991126646"><ele>440.0</ele><time>2026-04-04T12:47:17Z</time></trkpt><trkpt lat="45.812445292281275" lon="9.021878309075836"><ele>440.0</ele><time>2026-04-04T12:47:18Z</time></trkpt><trkpt lat="45.812400956714995" lon="9.021700002737084"><ele>440.0</ele><time>2026-04-04T12:47:19Z</time></trkpt><trkpt lat="45.8123926985442" lon="9.02155442430698"><ele>440.0</ele><time>2026-04-04T12:47:20Z</time></trkpt><trkpt lat="45.81237998727335" lon="9.021381354255956"><ele>440.0</ele><time>2026-04-04T12:47:21Z</time></trkpt><trkpt lat="45.812358065441295" lon="9.021171982010955"><ele>439.0</ele><time>2026-04-04T12:47:22Z</time></trkpt><trkpt lat="45.812343618057184" lon="9.020944314440333"><ele>438.0</ele><time>2026-04-04T12:47:23Z</time></trkpt><trkpt lat="45.81232868437883" lon="9.020720012616922"><ele>437.0</ele><time>2026-04-04T12:47:24Z</time></trkpt><trkpt lat="45.81231328759671" lon="9.020496253303419"><ele>436.5</ele><time>2026-04-04T12:47:25Z</time></trkpt><trkpt lat="45.8122978419368" lon="9.020266121035727"><ele>436.0</ele><time>2026-04-04T12:47:26Z</time></trkpt><trkpt lat="45.812286200736615" lon="9.020050455495523"><ele>435.5</ele><time>2026-04-04T12:47:27Z</time></trkpt><trkpt lat="45.8122771134632" lon="9.019878036059685"><ele>435.0</ele><time>2026-04-04T12:47:28Z</time></trkpt><trkpt lat="45.812273292478245" lon="9.019756133598401"><ele>434.2</ele><time>2026-04-04T12:47:29Z</time></trkpt><trkpt lat="45.81227011580006" lon="9.01962045177734"><ele>433.4</ele><time>2026-04-04T12:47:31Z</time></trkpt><trkpt lat="45.81226023106962" lon="9.019496410542477"><ele>432.6</ele><time>2026-04-04T12:47:37Z</time></trkpt><trkpt lat="45.81225271480491" lon="9.019390360500987"><ele>431.8</ele><time>2026-04-04T12:47:38Z</time></trkpt><trkpt lat="45.81223893009696" lon="9.01922567870737"><ele>431.0</ele><time>2026-04-04T12:47:39Z</time></trkpt><trkpt lat="45.81222703757373" lon="9.019045076457793"><ele>430.25</ele><time>2026-04-04T12:47:40Z</time></trkpt><trkpt lat="45.812215884355034" lon="9.01883830437522"><ele>429.5</ele><time>2026-04-04T12:47:41Z</time></trkpt><trkpt lat="45.81221174702039" lon="9.018652955366306"><ele>428.75</ele><time>2026-04-04T12:47:42Z</time></trkpt><trkpt lat="45.81223455841475" lon="9.018487806014788"><ele>428.0</ele><time>2026-04-04T12:47:43Z</time></trkpt><trkpt lat="45.81227952156237" lon="9.018343359695997"><ele>427.59999999999997</ele><time>2026-04-04T12:47:44Z</time></trkpt><trkpt lat="45.81231583140117" lon="9.018204262865245"><ele>427.19999999999993</ele><time>2026-04-04T12:47:45Z</time></trkpt><trkpt lat="45.81232266686676" lon="9.018075946181145"><ele>426.8</ele><time>2026-04-04T12:47:46Z</time></trkpt><trkpt lat="45.812280507179466" lon="9.017991439916049"><ele>426.4</ele><time>2026-04-04T12:47:47Z</time></trkpt><trkpt lat="45.81219755415376" lon="9.017895788922594"><ele>426.0</ele><time>2026-04-04T12:47:48Z</time></trkpt><trkpt lat="45.812133155509535" lon="9.017747126813653"><ele>426.0</ele><time>2026-04-04T12:47:49Z</time></trkpt><trkpt lat="45.81211606531906" lon="9.017521238562454"><ele>426.0</ele><time>2026-04-04T12:47:50Z</time></trkpt><trkpt lat="45.812120420610306" lon="9.017270926293042"><ele>426.0</ele><time>2026-04-04T12:47:51Z</time></trkpt><trkpt lat="45.81210909359312" lon="9.01698952590431"><ele>426.0</ele><time>2026-04-04T12:47:52Z</time></trkpt><trkpt lat="45.81208839941851" lon="9.016696337217777"><ele>426.0</ele><time>2026-04-04T12:47:53Z</time></trkpt><trkpt lat="45.81207315366557" lon="9.01639033864269"><ele>426.0</ele><time>2026-04-04T12:47:54.001Z</time></trkpt><trkpt lat="45.8120570302049" lon="9.016078930728122"><ele>426.33333333333337</ele><time>2026-04-04T12:47:55.001Z</time></trkpt><trkpt lat="45.81203845962721" lon="9.015776231938743"><ele>426.6666666666667</ele><time>2026-04-04T12:47:56.001Z</time></trkpt><trkpt lat="45.811993102342726" lon="9.01546316254167"><ele>427.0</ele><time>2026-04-04T12:47:57.001Z</time></trkpt><trkpt lat="45.811941335327155" lon="9.015149663647072"><ele>427.6666666666667</ele><time>2026-04-04T12:47:58.001Z</time></trkpt><trkpt lat="45.811895433559776" lon="9.014841012511813"><ele>428.33333333333337</ele><time>2026-04-04T12:47:59.001Z</time></trkpt><trkpt lat="45.81185848908442" lon="9.014564432601484"><ele>429.0</ele><time>2026-04-04T12:48:00.001Z</time></trkpt><trkpt lat="45.811818819839786" lon="9.014320292253691"><ele>426.33333333333337</ele><time>2026-04-04T12:48:01.001Z</time></trkpt><trkpt lat="45.811772810065904" lon="9.014097261810718"><ele>423.6666666666667</ele><time>2026-04-04T12:48:02.001Z</time></trkpt><trkpt lat="45.81170725595885" lon="9.013901656855072"><ele>421.0</ele><time>2026-04-04T12:48:03.001Z</time></trkpt><trkpt lat="45.81163843047233" lon="9.013729399335169"><ele>421.0</ele><time>2026-04-04T12:48:04.001Z</time></trkpt><trkpt lat="45.811587974511056" lon="9.013588907169353"><ele>421.0</ele><time>2026-04-04T12:48:05.001Z</time></trkpt><trkpt lat="45.811552201834516" lon="9.013440461451031"><ele>421.0</ele><time>2026-04-04T12:48:06.001Z</time></trkpt><trkpt lat="45.811522209975585" lon="9.013310197075818"><ele>421.0</ele><time>2026-04-04T12:48:07.001Z</time></trkpt><trkpt lat="45.81142945549372" lon="9.013221166805536"><ele>421.0</ele><time>2026-04-04T12:48:08.001Z</time></trkpt><trkpt lat="45.811296999487816" lon="9.01315776558404"><ele>421.0</ele><time>2026-04-04T12:48:09.001Z</time></trkpt><trkpt lat="45.811162793536134" lon="9.013018339378823"><ele>421.0</ele><time>2026-04-04T12:48:10.001Z</time></trkpt><trkpt lat="45.81103409556447" lon="9.012799026163998"><ele>421.0</ele><time>2026-04-04T12:48:11.001Z</time></trkpt><trkpt lat="45.81089122629729" lon="9.012581731441632"><ele>418.6666666666667</ele><time>2026-04-04T12:48:12.001Z</time></trkpt><trkpt lat="45.810736376227" lon="9.012362299195022"><ele>416.33333333333337</ele><time>2026-04-04T12:48:13.001Z</time></trkpt><trkpt lat="45.81058978514702" lon="9.012155115630518"><ele>414.0</ele><time>2026-04-04T12:48:14.001Z</time></trkpt><trkpt lat="45.81046710075591" lon="9.011943539469584"><ele>414.0</ele><time>2026-04-04T12:48:15.001Z</time></trkpt><trkpt lat="45.810364711146335" lon="9.011745405932322"><ele>414.0</ele><time>2026-04-04T12:48:16.001Z</time></trkpt><trkpt lat="45.810293123598534" lon="9.011520494595487"><ele>414.0</ele><time>2026-04-04T12:48:17.001Z</time></trkpt><trkpt lat="45.81021486572097" lon="9.011310689327996"><ele>414.0</ele><time>2026-04-04T12:48:18.001Z</time></trkpt><trkpt lat="45.810204369850474" lon="9.011076630644018"><ele>414.0</ele><time>2026-04-04T12:48:19.001Z</time></trkpt><trkpt lat="45.81019116876389" lon="9.010864070941137"><ele>414.0</ele><time>2026-04-04T12:48:20.001Z</time></trkpt><trkpt lat="45.81019405596532" lon="9.010635600914899"><ele>414.33333333333337</ele><time>2026-04-04T12:48:21.001Z</time></trkpt><trkpt lat="45.810197424474" lon="9.010405025295894"><ele>414.6666666666667</ele><time>2026-04-04T12:48:22.001Z</time></trkpt><trkpt lat="45.81023502273184" lon="9.010177846198802"><ele>415.0</ele><time>2026-04-04T12:48:23.001Z</time></trkpt><trkpt lat="45.810283293013214" lon="9.009956865781646"><ele>415.0</ele><time>2026-04-04T12:48:24.001Z</time></trkpt><trkpt lat="45.81032581053815" lon="9.00972123096116"><ele>415.0</ele><time>2026-04-04T12:48:25.001Z</time></trkpt><trkpt lat="45.81034912629736" lon="9.009479850348129"><ele>415.0</ele><time>2026-04-04T12:48:26.001Z</time></trkpt><trkpt lat="45.81035063567447" lon="9.00923068211903"><ele>415.0</ele><time>2026-04-04T12:48:27.001Z</time></trkpt><trkpt lat="45.810341123336194" lon="9.008980532125962"><ele>415.0</ele><time>2026-04-04T12:48:28.001Z</time></trkpt><trkpt lat="45.810302810185505" lon="9.008732599318504"><ele>415.0</ele><time>2026-04-04T12:48:29.001Z</time></trkpt><trkpt lat="45.81024420218395" lon="9.008495995096615"><ele>415.33333333333337</ele><time>2026-04-04T12:48:30.001Z</time></trkpt><trkpt lat="45.81016019294878" lon="9.008268670054564"><ele>415.66666666666663</ele><time>2026-04-04T12:48:31.001Z</time></trkpt><trkpt lat="45.81005444897509" lon="9.008060265497688"><ele>416.0</ele><time>2026-04-04T12:48:32.001Z</time></trkpt><trkpt lat="45.80993488118521" lon="9.007879870613127"><ele>413.66666666666663</ele><time>2026-04-04T12:48:33.001Z</time></trkpt><trkpt lat="45.809797012164445" lon="9.007721359282854"><ele>411.33333333333337</ele><time>2026-04-04T12:48:34.001Z</time></trkpt><trkpt lat="45.809646952987535" lon="9.007576005646966"><ele>409.0</ele><time>2026-04-04T12:48:35.001Z</time></trkpt><trkpt lat="45.80948271325531" lon="9.007436462136859"><ele>409.0</ele><time>2026-04-04T12:48:36.001Z</time></trkpt><trkpt lat="45.80933230154577" lon="9.007276327124817"><ele>409.0</ele><time>2026-04-04T12:48:37.001Z</time></trkpt><trkpt lat="45.80924239695917" lon="9.007077310139682"><ele>409.0</ele><time>2026-04-04T12:48:38.001Z</time></trkpt><trkpt lat="45.80917031564514" lon="9.006873074815918"><ele>406.6666666666667</ele><time>2026-04-04T12:48:39.001Z</time></trkpt><trkpt lat="45.80912585766419" lon="9.006669691995974"><ele>404.33333333333337</ele><time>2026-04-04T12:48:40.001Z</time></trkpt><trkpt lat="45.80908169128001" lon="9.006454965365043"><ele>402.0</ele><time>2026-04-04T12:48:41.001Z</time></trkpt><trkpt lat="45.809087451302325" lon="9.006220498585765"><ele>399.66666666666663</ele><time>2026-04-04T12:48:42.001Z</time></trkpt><trkpt lat="45.809119722739496" lon="9.00597540105987"><ele>397.3333333333333</ele><time>2026-04-04T12:48:43.001Z</time></trkpt><trkpt lat="45.809168780572044" lon="9.005725163666593"><ele>395.0</ele><time>2026-04-04T12:48:44.001Z</time></trkpt><trkpt lat="45.809227106185936" lon="9.005471956992428"><ele>395.0</ele><time>2026-04-04T12:48:45.001Z</time></trkpt><trkpt lat="45.80928460938464" lon="9.005211033293794"><ele>395.0</ele><time>2026-04-04T12:48:46.001Z</time></trkpt><trkpt lat="45.809328828103865" lon="9.004967505760705"><ele>395.0</ele><time>2026-04-04T12:48:47.001Z</time></trkpt><trkpt lat="45.809378807481366" lon="9.004746294543388"><ele>395.0</ele><time>2026-04-04T12:48:48.001Z</time></trkpt><trkpt lat="45.80941516314263" lon="9.00452613479441"><ele>395.0</ele><time>2026-04-04T12:48:49.001Z</time></trkpt><trkpt lat="45.80944920539407" lon="9.004343341307482"><ele>395.0</ele><time>2026-04-04T12:48:50.001Z</time></trkpt><trkpt lat="45.809476879045754" lon="9.004189387760965"><ele>395.0</ele><time>2026-04-04T12:48:51.001Z</time></trkpt><trkpt lat="45.809502652785376" lon="9.004067993975022"><ele>393.6</ele><time>2026-04-04T12:48:52.001Z</time></trkpt><trkpt lat="45.80952869275669" lon="9.003966625156156"><ele>392.2</ele><time>2026-04-04T12:48:53.001Z</time></trkpt><trkpt lat="45.80957406494058" lon="9.003885314729752"><ele>390.79999999999995</ele><time>2026-04-04T12:48:54.001Z</time></trkpt><trkpt lat="45.80962069325226" lon="9.003766038947992"><ele>389.4</ele><time>2026-04-04T12:48:55.001Z</time></trkpt><trkpt lat="45.80961323128528" lon="9.003598812885569"><ele>388.0</ele><time>2026-04-04T12:48:56.001Z</time></trkpt><trkpt lat="45.80955967116175" lon="9.003449671081487"><ele>387.6666666666667</ele><time>2026-04-04T12:48:57.001Z</time></trkpt><trkpt lat="45.809469830588434" lon="9.003289023590902"><ele>387.33333333333337</ele><time>2026-04-04T12:48:58.001Z</time></trkpt><trkpt lat="45.809364885927245" lon="9.003116751597132"><ele>387.0</ele><time>2026-04-04T12:48:59.001Z</time></trkpt><trkpt lat="45.809272176934634" lon="9.00290834156601"><ele>388.66666666666663</ele><time>2026-04-04T12:49:00Z</time></trkpt><trkpt lat="45.80917615853985" lon="9.002687177594945"><ele>390.3333333333333</ele><time>2026-04-04T12:49:01Z</time></trkpt><trkpt lat="45.80905878757371" lon="9.002479986898246"><ele>392.0</ele><time>2026-04-04T12:49:02Z</time></trkpt><trkpt lat="45.808916950742855" lon="9.002288532045716"><ele>392.0</ele><time>2026-04-04T12:49:03Z</time></trkpt><trkpt lat="45.808750055028746" lon="9.002109459769425"><ele>392.0</ele><time>2026-04-04T12:49:04Z</time></trkpt><trkpt lat="45.80857595800555" lon="9.001968640610395"><ele>392.0</ele><time>2026-04-04T12:49:05Z</time></trkpt><trkpt lat="45.808389010031476" lon="9.001834178445336"><ele>392.0</ele><time>2026-04-04T12:49:06Z</time></trkpt><trkpt lat="45.80822139108872" lon="9.001718822075734"><ele>392.0</ele><time>2026-04-04T12:49:07Z</time></trkpt><trkpt lat="45.80806076823468" lon="9.001619846920178"><ele>392.0</ele><time>2026-04-04T12:49:08Z</time></trkpt><trkpt lat="45.807895256527246" lon="9.001529639958711"><ele>392.66666666666663</ele><time>2026-04-04T12:49:09Z</time></trkpt><trkpt lat="45.807716881955734" lon="9.001457744656825"><ele>393.33333333333337</ele><time>2026-04-04T12:49:10Z</time></trkpt><trkpt lat="45.80753212122662" lon="9.001377222962079"><ele>394.0</ele><time>2026-04-04T12:49:11Z</time></trkpt><trkpt lat="45.80734698886399" lon="9.001288863194425"><ele>392.33333333333337</ele><time>2026-04-04T12:49:12Z</time></trkpt><trkpt lat="45.80716464890844" lon="9.001193933136468"><ele>390.66666666666663</ele><time>2026-04-04T12:49:13Z</time></trkpt><trkpt lat="45.80699092455193" lon="9.001124198146636"><ele>389.0</ele><time>2026-04-04T12:49:14Z</time></trkpt><trkpt lat="45.80686049740603" lon="9.001057985936775"><ele>388.25</ele><time>2026-04-04T12:49:15Z</time></trkpt><trkpt lat="45.80674289169744" lon="9.001007152429704"><ele>387.5</ele><time>2026-04-04T12:49:16Z</time></trkpt><trkpt lat="45.806627978636335" lon="9.000949391313625"><ele>386.75</ele><time>2026-04-04T12:49:17Z</time></trkpt><trkpt lat="45.806513225013205" lon="9.000891818766625"><ele>386.0</ele><time>2026-04-04T12:49:18Z</time></trkpt><trkpt lat="45.80639699200089" lon="9.000831063887539"><ele>385.75</ele><time>2026-04-04T12:49:19Z</time></trkpt><trkpt lat="45.80626926343832" lon="9.000771120604377"><ele>385.5</ele><time>2026-04-04T12:49:20Z</time></trkpt><trkpt lat="45.806133858366266" lon="9.000707540386486"><ele>385.25</ele><time>2026-04-04T12:49:21Z</time></trkpt><trkpt lat="45.805990669638966" lon="9.000636920381869"><ele>385.0</ele><time>2026-04-04T12:49:22Z</time></trkpt><trkpt lat="45.8058411439143" lon="9.00056311713372"><ele>383.6666666666667</ele><time>2026-04-04T12:49:23Z</time></trkpt><trkpt lat="45.80568261375484" lon="9.00048440644069"><ele>382.33333333333337</ele><time>2026-04-04T12:49:24Z</time></trkpt><trkpt lat="45.80551692586125" lon="9.00040724391668"><ele>381.0</ele><time>2026-04-04T12:49:25Z</time></trkpt><trkpt lat="45.80533512241473" lon="9.000319702031053"><ele>381.6666666666667</ele><time>2026-04-04T12:49:26Z</time></trkpt><trkpt lat="45.8051483949026" lon="9.00023141199687"><ele>382.33333333333337</ele><time>2026-04-04T12:49:27Z</time></trkpt><trkpt lat="45.804964253858884" lon="9.00014261590012"><ele>383.0</ele><time>2026-04-04T12:49:28Z</time></trkpt><trkpt lat="45.804777348952776" lon="9.000045895425373"><ele>383.0</ele><time>2026-04-04T12:49:29Z</time></trkpt><trkpt lat="45.80459949950324" lon="8.999948929324423"><ele>383.0</ele><time>2026-04-04T12:49:30Z</time></trkpt><trkpt lat="45.804470887542315" lon="8.999817148175449"><ele>383.0</ele><time>2026-04-04T12:49:31Z</time></trkpt><trkpt lat="45.804358907664" lon="8.99970867271125"><ele>383.5</ele><time>2026-04-04T12:49:32Z</time></trkpt><trkpt lat="45.804294593343" lon="8.999572938767583"><ele>384.0</ele><time>2026-04-04T12:49:33Z</time></trkpt><trkpt lat="45.8042439125888" lon="8.999428709620501"><ele>384.5</ele><time>2026-04-04T12:49:34Z</time></trkpt><trkpt lat="45.80418226326278" lon="8.999268678117527"><ele>385.0</ele><time>2026-04-04T12:49:35Z</time></trkpt><trkpt lat="45.80409155932962" lon="8.999112625528031"><ele>382.75</ele><time>2026-04-04T12:49:36Z</time></trkpt><trkpt lat="45.80400868920762" lon="8.99892694307446"><ele>380.5</ele><time>2026-04-04T12:49:37Z</time></trkpt><trkpt lat="45.80393549060854" lon="8.998742713472941"><ele>378.25</ele><time>2026-04-04T12:49:38Z</time></trkpt><trkpt lat="45.803863685795385" lon="8.998576998332714"><ele>376.0</ele><time>2026-04-04T12:49:39Z</time></trkpt><trkpt lat="45.80379625147753" lon="8.998427589210795"><ele>376.0</ele><time>2026-04-04T12:49:40Z</time></trkpt><trkpt lat="45.803733167039994" lon="8.998286049096208"><ele>376.0</ele><time>2026-04-04T12:49:41Z</time></trkpt><trkpt lat="45.80366695657299" lon="8.998136226314303"><ele>376.0</ele><time>2026-04-04T12:49:42Z</time></trkpt><trkpt lat="45.80360422888793" lon="8.997995976147148"><ele>376.0</ele><time>2026-04-04T12:49:43Z</time></trkpt><trkpt lat="45.803541913227555" lon="8.997850847677373"><ele>376.75</ele><time>2026-04-04T12:49:44Z</time></trkpt><trkpt lat="45.80347639113482" lon="8.99770323844534"><ele>377.5</ele><time>2026-04-04T12:49:45Z</time></trkpt><trkpt lat="45.803422148958994" lon="8.997540656454369"><ele>378.25</ele><time>2026-04-04T12:49:46Z</time></trkpt><trkpt lat="45.803359371255446" lon="8.99739406072994"><ele>379.0</ele><time>2026-04-04T12:49:47Z</time></trkpt><trkpt lat="45.803288727064384" lon="8.997261043692351"><ele>379.79999999999995</ele><time>2026-04-04T12:49:48Z</time></trkpt><trkpt lat="45.80323525361684" lon="8.997131268784532"><ele>380.59999999999997</ele><time>2026-04-04T12:49:49Z</time></trkpt><trkpt lat="45.80317791970091" lon="8.99699971493855"><ele>381.4</ele><time>2026-04-04T12:49:50Z</time></trkpt><trkpt lat="45.80311985104388" lon="8.996873039059372"><ele>382.2</ele><time>2026-04-04T12:49:51Z</time></trkpt><trkpt lat="45.803069051030135" lon="8.996761430081891"><ele>383.0</ele><time>2026-04-04T12:49:52Z</time></trkpt><trkpt lat="45.80302246265495" lon="8.996668348187873"><ele>383.33333333333337</ele><time>2026-04-04T12:49:53Z</time></trkpt><trkpt lat="45.802982801452416" lon="8.996594501105301"><ele>383.6666666666667</ele><time>2026-04-04T12:49:54Z</time></trkpt><trkpt lat="45.80294685322862" lon="8.996517807533463"><ele>384.0</ele><time>2026-04-04T12:49:55Z</time></trkpt><trkpt lat="45.802907440071834" lon="8.996425550275324"><ele>384.33333333333337</ele><time>2026-04-04T12:49:56Z</time></trkpt><trkpt lat="45.802886355547315" lon="8.996318374609897"><ele>384.6666666666667</ele><time>2026-04-04T12:49:57Z</time></trkpt><trkpt lat="45.80284329102844" lon="8.996221998350684"><ele>385.0</ele><time>2026-04-04T12:49:58Z</time></trkpt><trkpt lat="45.80277273959421" lon="8.996128458889649"><ele>385.0</ele><time>2026-04-04T12:49:59Z</time></trkpt><trkpt lat="45.80271045469015" lon="8.995985949985169"><ele>385.0</ele><time>2026-04-04T12:50:00.001Z</time></trkpt><trkpt lat="45.80267359445727" lon="8.995818732857176"><ele>385.0</ele><time>2026-04-04T12:50:01.001Z</time></trkpt><trkpt lat="45.802627563171335" lon="8.995675956477436"><ele>385.0</ele><time>2026-04-04T12:50:02.001Z</time></trkpt><trkpt lat="45.80257533236813" lon="8.99552979586838"><ele>386.0</ele><time>2026-04-04T12:50:03.001Z</time></trkpt><trkpt lat="45.8025066278296" lon="8.995394102552957"><ele>387.0</ele><time>2026-04-04T12:50:04.001Z</time></trkpt><trkpt lat="45.802442258762355" lon="8.995240093565748"><ele>388.0</ele><time>2026-04-04T12:50:05.001Z</time></trkpt><trkpt lat="45.80236040320432" lon="8.995078954803601"><ele>389.0</ele><time>2026-04-04T12:50:06.001Z</time></trkpt><trkpt lat="45.80228387666203" lon="8.994913937141508"><ele>391.3333333333333</ele><time>2026-04-04T12:50:07.001Z</time></trkpt><trkpt lat="45.80216634094275" lon="8.994705279844215"><ele>393.66666666666663</ele><time>2026-04-04T12:50:08.001Z</time></trkpt><trkpt lat="45.80202546057389" lon="8.994429585121287"><ele>396.0</ele><time>2026-04-04T12:50:09.001Z</time></trkpt><trkpt lat="45.80185014158125" lon="8.994087080310488"><ele>396.0</ele><time>2026-04-04T12:50:10.001Z</time></trkpt><trkpt lat="45.801651105434125" lon="8.993712806233113"><ele>396.0</ele><time>2026-04-04T12:50:11.001Z</time></trkpt><trkpt lat="45.80143751212405" lon="8.9933173516714"><ele>396.0</ele><time>2026-04-04T12:50:12.001Z</time></trkpt><trkpt lat="45.80125831604869" lon="8.992978071444176"><ele>396.0</ele><time>2026-04-04T12:50:13.001Z</time></trkpt><trkpt lat="45.801099359928145" lon="8.992688882561911"><ele>395.0</ele><time>2026-04-04T12:50:14.001Z</time></trkpt><trkpt lat="45.80095895434954" lon="8.992433877250116"><ele>394.0</ele><time>2026-04-04T12:50:15.001Z</time></trkpt><trkpt lat="45.80084933827849" lon="8.992212269832159"><ele>393.0</ele><time>2026-04-04T12:50:16.001Z</time></trkpt><trkpt lat="45.80076643915082" lon="8.992012365277334"><ele>393.0</ele><time>2026-04-04T12:50:17.001Z</time></trkpt><trkpt lat="45.80071096327596" lon="8.99178849531379"><ele>393.0</ele><time>2026-04-04T12:50:18.001Z</time></trkpt><trkpt lat="45.80069747385744" lon="8.991551775232887"><ele>393.0</ele><time>2026-04-04T12:50:19.001Z</time></trkpt><trkpt lat="45.80073154183215" lon="8.991259721291097"><ele>391.0</ele><time>2026-04-04T12:50:20.001Z</time></trkpt><trkpt lat="45.80076110371354" lon="8.990962057874452"><ele>389.0</ele><time>2026-04-04T12:50:21.001Z</time></trkpt><trkpt lat="45.800814826642565" lon="8.990655711423909"><ele>387.0</ele><time>2026-04-04T12:50:22.001Z</time></trkpt><trkpt lat="45.800902642589726" lon="8.990361030876674"><ele>387.0</ele><time>2026-04-04T12:50:23.001Z</time></trkpt><trkpt lat="45.80098326974332" lon="8.990041123225222"><ele>387.0</ele><time>2026-04-04T12:50:24.001Z</time></trkpt><trkpt lat="45.801072242196156" lon="8.98974399986608"><ele>387.0</ele><time>2026-04-04T12:50:25.001Z</time></trkpt><trkpt lat="45.801182566753305" lon="8.989400678291782"><ele>387.0</ele><time>2026-04-04T12:50:26.001Z</time></trkpt><trkpt lat="45.80127766945793" lon="8.989002275437057"><ele>382.5</ele><time>2026-04-04T12:50:27.001Z</time></trkpt><trkpt lat="45.8013435075666" lon="8.988644759126238"><ele>378.0</ele><time>2026-04-04T12:50:28.001Z</time></trkpt><trkpt lat="45.801421610698334" lon="8.988338101718902"><ele>376.0</ele><time>2026-04-04T12:50:29.001Z</time></trkpt><trkpt lat="45.8014809988543" lon="8.988081100466536"><ele>374.0</ele><time>2026-04-04T12:50:30.001Z</time></trkpt><trkpt lat="45.801530478397865" lon="8.987853996742396"><ele>372.0</ele><time>2026-04-04T12:50:31.001Z</time></trkpt><trkpt lat="45.80157755646437" lon="8.987640253448278"><ele>370.6666666666667</ele><time>2026-04-04T12:50:32.001Z</time></trkpt><trkpt lat="45.8016208634112" lon="8.987424623936974"><ele>369.33333333333337</ele><time>2026-04-04T12:50:33.001Z</time></trkpt><trkpt lat="45.80166985738903" lon="8.9872205990543"><ele>368.0</ele><time>2026-04-04T12:50:34.001Z</time></trkpt><trkpt lat="45.801717344430806" lon="8.987019007461546"><ele>368.0</ele><time>2026-04-04T12:50:35.001Z</time></trkpt><trkpt lat="45.80175946392208" lon="8.986829698647979"><ele>368.0</ele><time>2026-04-04T12:50:36.001Z</time></trkpt><trkpt lat="45.80180476310796" lon="8.986641857344907"><ele>368.0</ele><time>2026-04-04T12:50:37.001Z</time></trkpt><trkpt lat="45.801839946195265" lon="8.986464258814506"><ele>368.0</ele><time>2026-04-04T12:50:38.001Z</time></trkpt><trkpt lat="45.80187843352337" lon="8.986296372506704"><ele>367.5</ele><time>2026-04-04T12:50:39.001Z</time></trkpt><trkpt lat="45.801916241622486" lon="8.986164583583617"><ele>367.0</ele><time>2026-04-04T12:50:40.001Z</time></trkpt><trkpt lat="45.801941735030375" lon="8.986074678765162"><ele>366.5</ele><time>2026-04-04T12:50:41.001Z</time></trkpt><trkpt lat="45.8020022961001" lon="8.985921802303002"><ele>366.0</ele><time>2026-04-04T12:50:43.001Z</time></trkpt><trkpt lat="45.80203393383263" lon="8.98583347665371"><ele>365.5</ele><time>2026-04-04T12:50:44.001Z</time></trkpt><trkpt lat="45.8020721677469" lon="8.985736790360043"><ele>365.0</ele><time>2026-04-04T12:50:45.001Z</time></trkpt><trkpt lat="45.80203269976814" lon="8.985572943837996"><ele>365.0</ele><time>2026-04-04T12:50:46.001Z</time></trkpt><trkpt lat="45.80201748830024" lon="8.9853808615686"><ele>365.0</ele><time>2026-04-04T12:50:47.001Z</time></trkpt><trkpt lat="45.80202574357887" lon="8.985146766319055"><ele>365.0</ele><time>2026-04-04T12:50:48.001Z</time></trkpt><trkpt lat="45.80202185873406" lon="8.98490709999468"><ele>365.33333333333337</ele><time>2026-04-04T12:50:49.001Z</time></trkpt><trkpt lat="45.80200414050876" lon="8.984662277336367"><ele>365.6666666666667</ele><time>2026-04-04T12:50:50.001Z</time></trkpt><trkpt lat="45.80194459088069" lon="8.984444687892664"><ele>366.0</ele><time>2026-04-04T12:50:51.001Z</time></trkpt><trkpt lat="45.80191638790786" lon="8.984171501392154"><ele>366.0</ele><time>2026-04-04T12:50:52.001Z</time></trkpt><trkpt lat="45.801890485132766" lon="8.983876818981951"><ele>366.0</ele><time>2026-04-04T12:50:53.001Z</time></trkpt><trkpt lat="45.801870896627285" lon="8.983604186811869"><ele>366.0</ele><time>2026-04-04T12:50:54.001Z</time></trkpt><trkpt lat="45.80185556013764" lon="8.983365966317482"><ele>366.75</ele><time>2026-04-04T12:50:55.001Z</time></trkpt><trkpt lat="45.801838520028845" lon="8.983136066267221"><ele>367.5</ele><time>2026-04-04T12:50:56.001Z</time></trkpt><trkpt lat="45.801818873418235" lon="8.982925908040118"><ele>368.25</ele><time>2026-04-04T12:50:57.001Z</time></trkpt><trkpt lat="45.80179453962348" lon="8.982733417243043"><ele>369.0</ele><time>2026-04-04T12:50:58.001Z</time></trkpt><trkpt lat="45.80176109254231" lon="8.982552240232163"><ele>369.75</ele><time>2026-04-04T12:50:59.001Z</time></trkpt><trkpt lat="45.80174060922099" lon="8.982357529696873"><ele>370.5</ele><time>2026-04-04T12:51:00.001Z</time></trkpt><trkpt lat="45.801703128584094" lon="8.982161442683159"><ele>371.25</ele><time>2026-04-04T12:51:01.001Z</time></trkpt><trkpt lat="45.80166605014515" lon="8.981964961604804"><ele>372.0</ele><time>2026-04-04T12:51:02.001Z</time></trkpt><trkpt lat="45.801628911410454" lon="8.981764305665717"><ele>372.5</ele><time>2026-04-04T12:51:03.001Z</time></trkpt><trkpt lat="45.80159418625415" lon="8.98156242673212"><ele>373.0</ele><time>2026-04-04T12:51:04.001Z</time></trkpt><trkpt lat="45.8015583936506" lon="8.981361435049038"><ele>373.5</ele><time>2026-04-04T12:51:05.001Z</time></trkpt><trkpt lat="45.80152472464866" lon="8.981174965415063"><ele>374.0</ele><time>2026-04-04T12:51:06Z</time></trkpt><trkpt lat="45.80149292397475" lon="8.980999858421596"><ele>373.75</ele><time>2026-04-04T12:51:07Z</time></trkpt><trkpt lat="45.80145096414848" lon="8.98084048947633"><ele>373.5</ele><time>2026-04-04T12:51:08Z</time></trkpt><trkpt lat="45.801434759479136" lon="8.98067734943064"><ele>373.25</ele><time>2026-04-04T12:51:09Z</time></trkpt><trkpt lat="45.80141224627838" lon="8.980515089135949"><ele>373.0</ele><time>2026-04-04T12:51:10Z</time></trkpt><trkpt lat="45.80138476584278" lon="8.980328094065237"><ele>373.0</ele><time>2026-04-04T12:51:11Z</time></trkpt><trkpt lat="45.80134405057172" lon="8.980132820845323"><ele>373.0</ele><time>2026-04-04T12:51:12Z</time></trkpt><trkpt lat="45.80129700177221" lon="8.979909287426063"><ele>373.0</ele><time>2026-04-04T12:51:13Z</time></trkpt><trkpt lat="45.80124378485709" lon="8.97966683276012"><ele>371.66666666666663</ele><time>2026-04-04T12:51:14Z</time></trkpt><trkpt lat="45.80121157206559" lon="8.979401811496157"><ele>370.3333333333333</ele><time>2026-04-04T12:51:15Z</time></trkpt><trkpt lat="45.801167175346784" lon="8.979154854652517"><ele>369.0</ele><time>2026-04-04T12:51:16Z</time></trkpt><trkpt lat="45.80111239872346" lon="8.978941254653124"><ele>368.0</ele><time>2026-04-04T12:51:17Z</time></trkpt><trkpt lat="45.8010738895769" lon="8.978726272279852"><ele>367.0</ele><time>2026-04-04T12:51:18Z</time></trkpt><trkpt lat="45.801051404816995" lon="8.978515591929517"><ele>366.0</ele><time>2026-04-04T12:51:19Z</time></trkpt><trkpt lat="45.801000995040646" lon="8.978262929118552"><ele>369.3333333333333</ele><time>2026-04-04T12:51:20Z</time></trkpt><trkpt lat="45.800931419516864" lon="8.978019930943807"><ele>372.66666666666663</ele><time>2026-04-04T12:51:21Z</time></trkpt><trkpt lat="45.80088636861588" lon="8.977765567316732"><ele>376.0</ele><time>2026-04-04T12:51:22Z</time></trkpt><trkpt lat="45.800831223919346" lon="8.977544197384953"><ele>375.25</ele><time>2026-04-04T12:51:23Z</time></trkpt><trkpt lat="45.800784892221095" lon="8.977354572563385"><ele>374.5</ele><time>2026-04-04T12:51:24Z</time></trkpt><trkpt lat="45.800743877471874" lon="8.977193393570358"><ele>373.75</ele><time>2026-04-04T12:51:25Z</time></trkpt><trkpt lat="45.800710529531955" lon="8.977057818086196"><ele>373.0</ele><time>2026-04-04T12:51:26Z</time></trkpt><trkpt lat="45.8006788351824" lon="8.97692024392731"><ele>373.0</ele><time>2026-04-04T12:51:27Z</time></trkpt><trkpt lat="45.800658933513645" lon="8.97679082129204"><ele>373.0</ele><time>2026-04-04T12:51:28Z</time></trkpt><trkpt lat="45.800646213890964" lon="8.976654926643288"><ele>373.0</ele><time>2026-04-04T12:51:29Z</time></trkpt><trkpt lat="45.80061230733613" lon="8.976517769859162"><ele>373.0</ele><time>2026-04-04T12:51:30Z</time></trkpt><trkpt lat="45.800558949645506" lon="8.976380769039787"><ele>373.0</ele><time>2026-04-04T12:51:31Z</time></trkpt><trkpt lat="45.80049929775075" lon="8.97624740767346"><ele>372.25</ele><time>2026-04-04T12:51:32Z</time></trkpt><trkpt lat="45.800425382211955" lon="8.976127007414052"><ele>371.5</ele><time>2026-04-04T12:51:33Z</time></trkpt><trkpt lat="45.80032476358833" lon="8.976029315268935"><ele>370.75</ele><time>2026-04-04T12:51:34Z</time></trkpt><trkpt lat="45.80020658128799" lon="8.975959947589876"><ele>370.0</ele><time>2026-04-04T12:51:35Z</time></trkpt><trkpt lat="45.80007960872367" lon="8.975866982292168"><ele>372.66666666666663</ele><time>2026-04-04T12:51:36Z</time></trkpt><trkpt lat="45.79995641664915" lon="8.975745483263788"><ele>375.3333333333333</ele><time>2026-04-04T12:51:37Z</time></trkpt><trkpt lat="45.79983318073882" lon="8.97559036302836"><ele>378.0</ele><time>2026-04-04T12:51:38Z</time></trkpt><trkpt lat="45.79971813476469" lon="8.975406845152955"><ele>378.0</ele><time>2026-04-04T12:51:39Z</time></trkpt><trkpt lat="45.79963677454052" lon="8.975173300891596"><ele>378.0</ele><time>2026-04-04T12:51:40Z</time></trkpt><trkpt lat="45.799542501678786" lon="8.974916909899509"><ele>378.0</ele><time>2026-04-04T12:51:41Z</time></trkpt><trkpt lat="45.799448336092404" lon="8.974651474389132"><ele>378.0</ele><time>2026-04-04T12:51:42Z</time></trkpt><trkpt lat="45.79934461426464" lon="8.974406890845813"><ele>378.0</ele><time>2026-04-04T12:51:43Z</time></trkpt><trkpt lat="45.79926781127288" lon="8.974178198365259"><ele>378.0</ele><time>2026-04-04T12:51:44Z</time></trkpt><trkpt lat="45.799201001200686" lon="8.973978743015147"><ele>378.0</ele><time>2026-04-04T12:51:45Z</time></trkpt><trkpt lat="45.799121003758124" lon="8.973776337667013"><ele>378.0</ele><time>2026-04-04T12:51:46Z</time></trkpt><trkpt lat="45.799054179326404" lon="8.973590627220442"><ele>378.0</ele><time>2026-04-04T12:51:47Z</time></trkpt><trkpt lat="45.79899365822989" lon="8.973396388752441"><ele>378.0</ele><time>2026-04-04T12:51:48Z</time></trkpt><trkpt lat="45.7989447445417" lon="8.973187867822439"><ele>378.0</ele><time>2026-04-04T12:51:49Z</time></trkpt><trkpt lat="45.79890124864466" lon="8.973006365735756"><ele>378.0</ele><time>2026-04-04T12:51:50Z</time></trkpt><trkpt lat="45.798853505056805" lon="8.97285048285162"><ele>378.0</ele><time>2026-04-04T12:51:51Z</time></trkpt><trkpt lat="45.79880553696625" lon="8.97266271138846"><ele>378.0</ele><time>2026-04-04T12:51:52Z</time></trkpt><trkpt lat="45.79876041554995" lon="8.972489870179936"><ele>378.0</ele><time>2026-04-04T12:51:53Z</time></trkpt><trkpt lat="45.798694229029124" lon="8.972312633287176"><ele>378.0</ele><time>2026-04-04T12:51:54Z</time></trkpt><trkpt lat="45.79859329004925" lon="8.972103118881567"><ele>378.0</ele><time>2026-04-04T12:51:55Z</time></trkpt><trkpt lat="45.798420259755666" lon="8.97189696847079"><ele>380.0</ele><time>2026-04-04T12:51:56Z</time></trkpt><trkpt lat="45.79823850757135" lon="8.971654633362178"><ele>382.0</ele><time>2026-04-04T12:51:57Z</time></trkpt><trkpt lat="45.79804515659023" lon="8.971400329886077"><ele>382.0</ele><time>2026-04-04T12:51:58Z</time></trkpt><trkpt lat="45.79786433982199" lon="8.971146826677602"><ele>382.0</ele><time>2026-04-04T12:51:59Z</time></trkpt><trkpt lat="45.7976988939213" lon="8.970914342999546"><ele>381.3333333333333</ele><time>2026-04-04T12:52:00Z</time></trkpt><trkpt lat="45.797560814606285" lon="8.970677159424794"><ele>380.6666666666667</ele><time>2026-04-04T12:52:01.001Z</time></trkpt><trkpt lat="45.79741517181388" lon="8.970485538177993"><ele>380.0</ele><time>2026-04-04T12:52:02.001Z</time></trkpt><trkpt lat="45.79730453053641" lon="8.970314150707017"><ele>380.0</ele><time>2026-04-04T12:52:03.001Z</time></trkpt><trkpt lat="45.79720960082831" lon="8.970200616141728"><ele>380.0</ele><time>2026-04-04T12:52:04.001Z</time></trkpt><trkpt lat="45.797116790667154" lon="8.970103182022555"><ele>380.0</ele><time>2026-04-04T12:52:05.001Z</time></trkpt><trkpt lat="45.797031328676766" lon="8.970027153647784"><ele>380.0</ele><time>2026-04-04T12:52:06.001Z</time></trkpt><trkpt lat="45.79695854648531" lon="8.969947611613009"><ele>380.0</ele><time>2026-04-04T12:52:07.001Z</time></trkpt><trkpt lat="45.79690248149063" lon="8.969860135791865"><ele>380.0</ele><time>2026-04-04T12:52:08.001Z</time></trkpt><trkpt lat="45.79685212649535" lon="8.969772642541587"><ele>380.0</ele><time>2026-04-04T12:52:09.001Z</time></trkpt><trkpt lat="45.79679525482387" lon="8.969685305417492"><ele>380.0</ele><time>2026-04-04T12:52:10.001Z</time></trkpt><trkpt lat="45.79670209278603" lon="8.969543197646558"><ele>380.0</ele><time>2026-04-04T12:52:11.001Z</time></trkpt><trkpt lat="45.79662288442946" lon="8.969344564495088"><ele>378.6666666666667</ele><time>2026-04-04T12:52:12.001Z</time></trkpt><trkpt lat="45.79657451934895" lon="8.969063816868504"><ele>377.3333333333333</ele><time>2026-04-04T12:52:13.001Z</time></trkpt><trkpt lat="45.79652832559846" lon="8.968777056741528"><ele>376.0</ele><time>2026-04-04T12:52:14.001Z</time></trkpt><trkpt lat="45.79652837054761" lon="8.968484575703508"><ele>378.0</ele><time>2026-04-04T12:52:15.001Z</time></trkpt><trkpt lat="45.79656898049608" lon="8.968226839900518"><ele>380.0</ele><time>2026-04-04T12:52:16.001Z</time></trkpt><trkpt lat="45.79662096736086" lon="8.967970956610456"><ele>382.0</ele><time>2026-04-04T12:52:17.001Z</time></trkpt><trkpt lat="45.796699449941556" lon="8.967719909563131"><ele>385.0</ele><time>2026-04-04T12:52:18.001Z</time></trkpt><trkpt lat="45.79681602248962" lon="8.967458155301454"><ele>388.0</ele><time>2026-04-04T12:52:19.001Z</time></trkpt><trkpt lat="45.796976453502985" lon="8.967168980726543"><ele>384.0</ele><time>2026-04-04T12:52:20.001Z</time></trkpt><trkpt lat="45.79714988072609" lon="8.966849260625422"><ele>380.0</ele><time>2026-04-04T12:52:21.001Z</time></trkpt><trkpt lat="45.797354724872676" lon="8.966503581100628"><ele>380.0</ele><time>2026-04-04T12:52:22.001Z</time></trkpt><trkpt lat="45.79753269865673" lon="8.966204750801635"><ele>380.0</ele><time>2026-04-04T12:52:23.001Z</time></trkpt><trkpt lat="45.797706568726966" lon="8.965882159018365"><ele>379.5</ele><time>2026-04-04T12:52:24.001Z</time></trkpt><trkpt lat="45.797852942654714" lon="8.965528132099204"><ele>379.0</ele><time>2026-04-04T12:52:25.001Z</time></trkpt><trkpt lat="45.797956391099824" lon="8.965125665021796"><ele>380.5</ele><time>2026-04-04T12:52:26.001Z</time></trkpt><trkpt lat="45.798042013592074" lon="8.964665542171632"><ele>382.0</ele><time>2026-04-04T12:52:27.001Z</time></trkpt><trkpt lat="45.79811969389604" lon="8.964177961507552"><ele>382.0</ele><time>2026-04-04T12:52:28.001Z</time></trkpt><trkpt lat="45.798205962889476" lon="8.963670111632585"><ele>382.0</ele><time>2026-04-04T12:52:29.001Z</time></trkpt><trkpt lat="45.79828895314012" lon="8.963160401157532"><ele>383.5</ele><time>2026-04-04T12:52:30.001Z</time></trkpt><trkpt lat="45.79837114399072" lon="8.96271496345685"><ele>385.0</ele><time>2026-04-04T12:52:31.001Z</time></trkpt><trkpt lat="45.79843858177817" lon="8.962302016994377"><ele>381.5</ele><time>2026-04-04T12:52:32.001Z</time></trkpt><trkpt lat="45.79851659100068" lon="8.961972905431317"><ele>378.0</ele><time>2026-04-04T12:52:33.001Z</time></trkpt><trkpt lat="45.79859109181457" lon="8.961657014563196"><ele>377.6666666666667</ele><time>2026-04-04T12:52:34.001Z</time></trkpt><trkpt lat="45.79867961140262" lon="8.961368333584426"><ele>377.33333333333337</ele><time>2026-04-04T12:52:35.001Z</time></trkpt><trkpt lat="45.79878562240221" lon="8.961080669469982"><ele>377.0</ele><time>2026-04-04T12:52:36.001Z</time></trkpt><trkpt lat="45.798919535411684" lon="8.960777445446446"><ele>376.5</ele><time>2026-04-04T12:52:37.001Z</time></trkpt><trkpt lat="45.79907809923695" lon="8.96044224497386"><ele>376.0</ele><time>2026-04-04T12:52:38.001Z</time></trkpt><trkpt lat="45.79924929335713" lon="8.960082019629242"><ele>377.5</ele><time>2026-04-04T12:52:39.001Z</time></trkpt><trkpt lat="45.79942734157766" lon="8.959711410146504"><ele>379.0</ele><time>2026-04-04T12:52:40.001Z</time></trkpt><trkpt lat="45.79961446119313" lon="8.959330214571546"><ele>380.5</ele><time>2026-04-04T12:52:41.001Z</time></trkpt><trkpt lat="45.79979651335557" lon="8.95894004558336"><ele>382.0</ele><time>2026-04-04T12:52:42.001Z</time></trkpt><trkpt lat="45.799963280582624" lon="8.958559315737787"><ele>385.0</ele><time>2026-04-04T12:52:43.001Z</time></trkpt><trkpt lat="45.8000955367944" lon="8.958180147913867"><ele>388.0</ele><time>2026-04-04T12:52:44.001Z</time></trkpt><trkpt lat="45.80018964571034" lon="8.957798086458283"><ele>390.0</ele><time>2026-04-04T12:52:45.001Z</time></trkpt><trkpt lat="45.800256357679466" lon="8.957411367639954"><ele>392.0</ele><time>2026-04-04T12:52:46.001Z</time></trkpt><trkpt lat="45.80029398521878" lon="8.957020903875787"><ele>393.5</ele><time>2026-04-04T12:52:47.001Z</time></trkpt><trkpt lat="45.800306223206846" lon="8.95661266832533"><ele>395.0</ele><time>2026-04-04T12:52:48.001Z</time></trkpt><trkpt lat="45.800308285806764" lon="8.95617814769466"><ele>396.5</ele><time>2026-04-04T12:52:49.001Z</time></trkpt><trkpt lat="45.80031055026833" lon="8.955759255500599"><ele>398.0</ele><time>2026-04-04T12:52:50.001Z</time></trkpt><trkpt lat="45.80031503726337" lon="8.955385332545532"><ele>398.0</ele><time>2026-04-04T12:52:51.001Z</time></trkpt><trkpt lat="45.80032578740417" lon="8.955048613497137"><ele>398.0</ele><time>2026-04-04T12:52:52.001Z</time></trkpt><trkpt lat="45.80033402204083" lon="8.954762758993054"><ele>398.0</ele><time>2026-04-04T12:52:53.001Z</time></trkpt><trkpt lat="45.800345399858884" lon="8.954504859483702"><ele>398.25</ele><time>2026-04-04T12:52:54.001Z</time></trkpt><trkpt lat="45.80035060488846" lon="8.954265253879017"><ele>398.5</ele><time>2026-04-04T12:52:55.001Z</time></trkpt><trkpt lat="45.80036974329232" lon="8.954071115667281"><ele>398.75</ele><time>2026-04-04T12:52:56.001Z</time></trkpt><trkpt lat="45.80040154633769" lon="8.953888535693606"><ele>399.0</ele><time>2026-04-04T12:52:57.001Z</time></trkpt><trkpt lat="45.80047475334804" lon="8.95374359142132"><ele>399.0</ele><time>2026-04-04T12:52:58.001Z</time></trkpt><trkpt lat="45.80053280340343" lon="8.95361749989748"><ele>399.0</ele><time>2026-04-04T12:52:59.001Z</time></trkpt><trkpt lat="45.80051121916348" lon="8.953471424399524"><ele>399.0</ele><time>2026-04-04T12:53:00.001Z</time></trkpt><trkpt lat="45.80043703022121" lon="8.953366410120026"><ele>399.0</ele><time>2026-04-04T12:53:01.001Z</time></trkpt><trkpt lat="45.800316678694244" lon="8.953288052094498"><ele>399.0</ele><time>2026-04-04T12:53:02.001Z</time></trkpt><trkpt lat="45.80017410883108" lon="8.953198757696812"><ele>395.66666666666663</ele><time>2026-04-04T12:53:03.001Z</time></trkpt><trkpt lat="45.80003554623404" lon="8.953028847604806"><ele>392.3333333333333</ele><time>2026-04-04T12:53:04.001Z</time></trkpt><trkpt lat="45.79994169496031" lon="8.952815264893395"><ele>389.0</ele><time>2026-04-04T12:53:05.001Z</time></trkpt><trkpt lat="45.79986946039156" lon="8.952554340467366"><ele>389.0</ele><time>2026-04-04T12:53:06.001Z</time></trkpt><trkpt lat="45.79981232065631" lon="8.952245380792002"><ele>389.0</ele><time>2026-04-04T12:53:07.001Z</time></trkpt><trkpt lat="45.79978072795551" lon="8.951893749752701"><ele>389.0</ele><time>2026-04-04T12:53:08.001Z</time></trkpt><trkpt lat="45.79972527755407" lon="8.951525611230332"><ele>389.0</ele><time>2026-04-04T12:53:09.001Z</time></trkpt><trkpt lat="45.799650629817485" lon="8.951167029737013"><ele>389.0</ele><time>2026-04-04T12:53:10.001Z</time></trkpt><trkpt lat="45.79958325034078" lon="8.950804381169373"><ele>389.0</ele><time>2026-04-04T12:53:11.001Z</time></trkpt><trkpt lat="45.79952448895631" lon="8.95045232433961"><ele>389.0</ele><time>2026-04-04T12:53:12Z</time></trkpt><trkpt lat="45.79946976938583" lon="8.950084763367089"><ele>389.0</ele><time>2026-04-04T12:53:13Z</time></trkpt><trkpt lat="45.799439987811304" lon="8.94968078295508"><ele>391.5</ele><time>2026-04-04T12:53:14Z</time></trkpt><trkpt lat="45.79942283078724" lon="8.949238396386763"><ele>394.0</ele><time>2026-04-04T12:53:15Z</time></trkpt><trkpt lat="45.79939542514663" lon="8.948797530961247"><ele>394.0</ele><time>2026-04-04T12:53:16Z</time></trkpt><trkpt lat="45.79936575803145" lon="8.948409576758966"><ele>394.0</ele><time>2026-04-04T12:53:17Z</time></trkpt><trkpt lat="45.79935969510183" lon="8.948060107164158"><ele>394.33333333333337</ele><time>2026-04-04T12:53:18Z</time></trkpt><trkpt lat="45.799394969263446" lon="8.947751438198548"><ele>394.66666666666663</ele><time>2026-04-04T12:53:19Z</time></trkpt><trkpt lat="45.7994804099905" lon="8.947513298505013"><ele>395.0</ele><time>2026-04-04T12:53:20Z</time></trkpt><trkpt lat="45.7995887930277" lon="8.947279394924507"><ele>395.66666666666663</ele><time>2026-04-04T12:53:21Z</time></trkpt><trkpt lat="45.799724350709496" lon="8.947052235410581"><ele>396.33333333333337</ele><time>2026-04-04T12:53:22Z</time></trkpt><trkpt lat="45.79986082240368" lon="8.946876269675467"><ele>397.0</ele><time>2026-04-04T12:53:23Z</time></trkpt><trkpt lat="45.79999059766673" lon="8.94674515969893"><ele>396.8</ele><time>2026-04-04T12:53:24Z</time></trkpt><trkpt lat="45.80007675802464" lon="8.946656366431265"><ele>396.6</ele><time>2026-04-04T12:53:25Z</time></trkpt><trkpt lat="45.800143152220784" lon="8.94657323680473"><ele>396.40000000000003</ele><time>2026-04-04T12:53:26Z</time></trkpt><trkpt lat="45.80021898428448" lon="8.946469920515556"><ele>396.20000000000005</ele><time>2026-04-04T12:53:27Z</time></trkpt><trkpt lat="45.80030582518182" lon="8.946356233611274"><ele>396.0</ele><time>2026-04-04T12:53:28Z</time></trkpt><trkpt lat="45.80039396081654" lon="8.946226303281982"><ele>396.0</ele><time>2026-04-04T12:53:29Z</time></trkpt><trkpt lat="45.80049906907878" lon="8.946077489663178"><ele>396.0</ele><time>2026-04-04T12:53:30Z</time></trkpt><trkpt lat="45.800623647553955" lon="8.945915426392228"><ele>396.0</ele><time>2026-04-04T12:53:31Z</time></trkpt><trkpt lat="45.800742769514684" lon="8.945780119718664"><ele>397.25</ele><time>2026-04-04T12:53:32Z</time></trkpt><trkpt lat="45.800837413151555" lon="8.945673341571325"><ele>398.5</ele><time>2026-04-04T12:53:33Z</time></trkpt><trkpt lat="45.80091768689171" lon="8.945567251843169"><ele>399.75</ele><time>2026-04-04T12:53:34Z</time></trkpt><trkpt lat="45.80101066074139" lon="8.945470548750066"><ele>401.0</ele><time>2026-04-04T12:53:35Z</time></trkpt><trkpt lat="45.801122356806836" lon="8.945347422285085"><ele>401.66666666666663</ele><time>2026-04-04T12:53:36Z</time></trkpt><trkpt lat="45.80125560773856" lon="8.945184252079814"><ele>402.33333333333337</ele><time>2026-04-04T12:53:37Z</time></trkpt><trkpt lat="45.80144464710255" lon="8.945007935888798"><ele>403.0</ele><time>2026-04-04T12:53:38Z</time></trkpt><trkpt lat="45.80161584924892" lon="8.944867007925984"><ele>404.33333333333337</ele><time>2026-04-04T12:53:39Z</time></trkpt><trkpt lat="45.801767072569746" lon="8.944722232577131"><ele>405.66666666666663</ele><time>2026-04-04T12:53:40Z</time></trkpt><trkpt lat="45.80190580710386" lon="8.944568752020285"><ele>407.0</ele><time>2026-04-04T12:53:41Z</time></trkpt><trkpt lat="45.80203347516567" lon="8.944384553039223"><ele>408.3333333333333</ele><time>2026-04-04T12:53:42Z</time></trkpt><trkpt lat="45.80214404225955" lon="8.94418516086507"><ele>409.66666666666663</ele><time>2026-04-04T12:53:43Z</time></trkpt><trkpt lat="45.80224344603585" lon="8.943974339377931"><ele>411.0</ele><time>2026-04-04T12:53:44Z</time></trkpt><trkpt lat="45.80234313389239" lon="8.94376260528225"><ele>411.0</ele><time>2026-04-04T12:53:45Z</time></trkpt><trkpt lat="45.80244017754414" lon="8.943572114157538"><ele>411.0</ele><time>2026-04-04T12:53:46Z</time></trkpt><trkpt lat="45.80254593617537" lon="8.943418780111662"><ele>411.0</ele><time>2026-04-04T12:53:47Z</time></trkpt><trkpt lat="45.802649549122236" lon="8.943284777447479"><ele>412.0</ele><time>2026-04-04T12:53:48Z</time></trkpt><trkpt lat="45.802763619554824" lon="8.943143847495234"><ele>413.0</ele><time>2026-04-04T12:53:49Z</time></trkpt><trkpt lat="45.802875397310395" lon="8.943009100177667"><ele>414.0</ele><time>2026-04-04T12:53:50Z</time></trkpt><trkpt lat="45.80299353863097" lon="8.942865163523797"><ele>414.0</ele><time>2026-04-04T12:53:51Z</time></trkpt><trkpt lat="45.8031101632769" lon="8.942730951569226"><ele>414.0</ele><time>2026-04-04T12:53:52Z</time></trkpt><trkpt lat="45.803240049902264" lon="8.942584211243911"><ele>414.0</ele><time>2026-04-04T12:53:53Z</time></trkpt><trkpt lat="45.80336767776407" lon="8.942449689149907"><ele>414.66666666666663</ele><time>2026-04-04T12:53:54Z</time></trkpt><trkpt lat="45.80349712063046" lon="8.942302548366124"><ele>415.3333333333333</ele><time>2026-04-04T12:53:55Z</time></trkpt><trkpt lat="45.803618466764526" lon="8.942171198967106"><ele>416.0</ele><time>2026-04-04T12:53:56Z</time></trkpt><trkpt lat="45.80372770880901" lon="8.942060580766947"><ele>416.0</ele><time>2026-04-04T12:53:57Z</time></trkpt><trkpt lat="45.80383216340831" lon="8.942013834863076"><ele>416.0</ele><time>2026-04-04T12:53:58Z</time></trkpt><trkpt lat="45.80393921554659" lon="8.942049500263705"><ele>416.0</ele><time>2026-04-04T12:53:59Z</time></trkpt><trkpt lat="45.80405112518787" lon="8.942104946973517"><ele>416.0</ele><time>2026-04-04T12:54:00Z</time></trkpt><trkpt lat="45.80416738130232" lon="8.942150340069029"><ele>416.0</ele><time>2026-04-04T12:54:01Z</time></trkpt><trkpt lat="45.804260893380984" lon="8.942130423291117"><ele>416.0</ele><time>2026-04-04T12:54:02Z</time></trkpt><trkpt lat="45.804367590638165" lon="8.942085505806498"><ele>416.0</ele><time>2026-04-04T12:54:03Z</time></trkpt><trkpt lat="45.804477107953254" lon="8.942035743224682"><ele>416.0</ele><time>2026-04-04T12:54:04.001Z</time></trkpt><trkpt lat="45.804601867901965" lon="8.94197427552596"><ele>417.0</ele><time>2026-04-04T12:54:05.001Z</time></trkpt><trkpt lat="45.80470788136731" lon="8.941865438192472"><ele>418.0</ele><time>2026-04-04T12:54:06.001Z</time></trkpt><trkpt lat="45.804813640681076" lon="8.94174226924252"><ele>419.0</ele><time>2026-04-04T12:54:07.001Z</time></trkpt><trkpt lat="45.804901349200286" lon="8.941589224243785"><ele>420.0</ele><time>2026-04-04T12:54:08.001Z</time></trkpt><trkpt lat="45.80497629611593" lon="8.941438363692825"><ele>420.0</ele><time>2026-04-04T12:54:09.001Z</time></trkpt><trkpt lat="45.80502400704304" lon="8.941256465782137"><ele>420.0</ele><time>2026-04-04T12:54:10.001Z</time></trkpt><trkpt lat="45.80506917489747" lon="8.941060984351285"><ele>420.0</ele><time>2026-04-04T12:54:11.001Z</time></trkpt><trkpt lat="45.8051365631908" lon="8.940890266881743"><ele>420.0</ele><time>2026-04-04T12:54:12.001Z</time></trkpt><trkpt lat="45.80518604765833" lon="8.940722275736"><ele>420.5</ele><time>2026-04-04T12:54:13.001Z</time></trkpt><trkpt lat="45.80523083809826" lon="8.940575274156071"><ele>421.0</ele><time>2026-04-04T12:54:14.001Z</time></trkpt><trkpt lat="45.80527107738056" lon="8.940446073665226"><ele>421.5</ele><time>2026-04-04T12:54:15.001Z</time></trkpt><trkpt lat="45.80530419986256" lon="8.94033718517175"><ele>422.0</ele><time>2026-04-04T12:54:16.001Z</time></trkpt><trkpt lat="45.80532678086529" lon="8.940244860379776"><ele>422.5</ele><time>2026-04-04T12:54:17.001Z</time></trkpt><trkpt lat="45.8053742894464" lon="8.940180353347262"><ele>423.0</ele><time>2026-04-04T12:54:18.001Z</time></trkpt><trkpt lat="45.80544315153175" lon="8.940189013094171"><ele>423.0</ele><time>2026-04-04T12:54:19.001Z</time></trkpt><trkpt lat="45.80556767965043" lon="8.94017440366027"><ele>423.0</ele><time>2026-04-04T12:54:21.001Z</time></trkpt><trkpt lat="45.80564693023017" lon="8.94015139547347"><ele>423.0</ele><time>2026-04-04T12:54:22.001Z</time></trkpt><trkpt lat="45.80572933077363" lon="8.940155210228431"><ele>423.0</ele><time>2026-04-04T12:54:23.001Z</time></trkpt><trkpt lat="45.805818996784424" lon="8.940149713254996"><ele>423.0</ele><time>2026-04-04T12:54:24.001Z</time></trkpt><trkpt lat="45.80591202791567" lon="8.940141299402862"><ele>423.8333333333333</ele><time>2026-04-04T12:54:25.001Z</time></trkpt><trkpt lat="45.8059969429934" lon="8.940137156615355"><ele>424.66666666666663</ele><time>2026-04-04T12:54:26.001Z</time></trkpt><trkpt lat="45.8060833688655" lon="8.940127529188759"><ele>425.5</ele><time>2026-04-04T12:54:27.001Z</time></trkpt><trkpt lat="45.80615388695606" lon="8.94010006527802"><ele>426.3333333333333</ele><time>2026-04-04T12:54:28.001Z</time></trkpt><trkpt lat="45.806218687527455" lon="8.940098228067207"><ele>427.16666666666663</ele><time>2026-04-04T12:54:29.001Z</time></trkpt><trkpt lat="45.80631747095049" lon="8.940074243452026"><ele>428.0</ele><time>2026-04-04T12:54:31.001Z</time></trkpt><trkpt lat="45.806418658820434" lon="8.940060644330988"><ele>428.16666666666663</ele><time>2026-04-04T12:54:33.001Z</time></trkpt><trkpt lat="45.806521199899024" lon="8.940003497477953"><ele>428.3333333333333</ele><time>2026-04-04T12:54:35.001Z</time></trkpt><trkpt lat="45.80661090070585" lon="8.939908724235675"><ele>428.5</ele><time>2026-04-04T12:54:37.001Z</time></trkpt><trkpt lat="45.8066799618719" lon="8.939911750909303"><ele>428.66666666666663</ele><time>2026-04-04T12:54:38.001Z</time></trkpt><trkpt lat="45.80675374465756" lon="8.939896679321931"><ele>428.8333333333333</ele><time>2026-04-04T12:54:39.001Z</time></trkpt><trkpt lat="45.80682803004394" lon="8.939877794268526"><ele>429.0</ele><time>2026-04-04T12:54:40.001Z</time></trkpt><trkpt lat="45.806901353361894" lon="8.939825198041577"><ele>429.3333333333333</ele><time>2026-04-04T12:54:41.001Z</time></trkpt><trkpt lat="45.80698135567314" lon="8.939802779417343"><ele>429.66666666666663</ele><time>2026-04-04T12:54:42.001Z</time></trkpt><trkpt lat="45.80705211194612" lon="8.939727518954655"><ele>430.0</ele><time>2026-04-04T12:54:43.001Z</time></trkpt><trkpt lat="45.80710117535214" lon="8.939656012248962"><ele>430.3333333333333</ele><time>2026-04-04T12:54:44.001Z</time></trkpt><trkpt lat="45.80713211995612" lon="8.93956323675804"><ele>430.66666666666663</ele><time>2026-04-04T12:54:45.001Z</time></trkpt><trkpt lat="45.807204913431946" lon="8.939484215204523"><ele>431.0</ele><time>2026-04-04T12:54:47.001Z</time></trkpt><trkpt lat="45.80725539240339" lon="8.939423748837342"><ele>431.0</ele><time>2026-04-04T12:54:48.001Z</time></trkpt><trkpt lat="45.807325876860936" lon="8.939401150255366"><ele>431.0</ele><time>2026-04-04T12:54:50.001Z</time></trkpt><trkpt lat="45.80725990032016" lon="8.939189882972082"><ele>431.0</ele><time>2026-04-04T12:54:52.001Z</time></trkpt><trkpt lat="45.807209089559066" lon="8.93909607820613"><ele>431.0</ele><time>2026-04-04T12:54:53.001Z</time></trkpt><trkpt lat="45.80716561536577" lon="8.939010894493425"><ele>431.0</ele><time>2026-04-04T12:54:54.001Z</time></trkpt><trkpt lat="45.807131314243584" lon="8.938934909112469"><ele>431.3333333333333</ele><time>2026-04-04T12:54:56.001Z</time></trkpt><trkpt lat="45.80718311920043" lon="8.938862821796839"><ele>431.66666666666663</ele><time>2026-04-04T12:54:58.001Z</time></trkpt><trkpt lat="45.80721177135064" lon="8.938767930368773"><ele>432.0</ele><time>2026-04-04T12:54:59.001Z</time></trkpt><trkpt lat="45.8072340423334" lon="8.938653325842125"><ele>432.33333333333337</ele><time>2026-04-04T12:55:00.001Z</time></trkpt><trkpt lat="45.8072570912065" lon="8.938528222388609"><ele>432.6666666666667</ele><time>2026-04-04T12:55:02.001Z</time></trkpt><trkpt lat="45.80727111672029" lon="8.938407523415224"><ele>433.0</ele><time>2026-04-04T12:55:04.001Z</time></trkpt><trkpt lat="45.80727093664467" lon="8.938303662866128"><ele>433.1666666666667</ele><time>2026-04-04T12:55:40Z</time></trkpt><trkpt lat="45.807255791147455" lon="8.938173638061432"><ele>433.33333333333337</ele><time>2026-04-04T12:55:43Z</time></trkpt><trkpt lat="45.80722977422514" lon="8.9380520884247"><ele>433.5</ele><time>2026-04-04T12:55:46Z</time></trkpt><trkpt lat="45.80718772178564" lon="8.937977831044494"><ele>433.66666666666663</ele><time>2026-04-04T12:55:48Z</time></trkpt><trkpt lat="45.807132980414615" lon="8.937880184968222"><ele>433.8333333333333</ele><time>2026-04-04T12:55:50Z</time></trkpt><trkpt lat="45.80704275994378" lon="8.937811881653316"><ele>434.0</ele><time>2026-04-04T12:55:52Z</time></trkpt><trkpt lat="45.80695057019568" lon="8.937732974919749"><ele>434.0</ele><time>2026-04-04T12:55:54Z</time></trkpt><trkpt lat="45.80688914886264" lon="8.937649529924569"><ele>434.0</ele><time>2026-04-04T12:55:56.001Z</time></trkpt><trkpt lat="45.80684136340348" lon="8.937589833392973"><ele>434.0</ele><time>2026-04-04T12:56:03.001Z</time></trkpt><trkpt lat="45.806908845694394" lon="8.937497000677025"><ele>434.0</ele><time>2026-04-04T12:56:06.001Z</time></trkpt><trkpt lat="45.80700224919283" lon="8.937406092174763"><ele>434.0</ele><time>2026-04-04T12:56:08.001Z</time></trkpt><trkpt lat="45.80703167014267" lon="8.937265941842664"><ele>432.79999999999995</ele><time>2026-04-04T12:56:09.001Z</time></trkpt><trkpt lat="45.807071733546856" lon="8.937162667722454"><ele>431.59999999999997</ele><time>2026-04-04T12:56:10.001Z</time></trkpt><trkpt lat="45.807108697253305" lon="8.937064304772312"><ele>430.4</ele><time>2026-04-04T12:56:11.001Z</time></trkpt><trkpt lat="45.807157665865276" lon="8.936956758825971"><ele>429.2</ele><time>2026-04-04T12:56:12.001Z</time></trkpt><trkpt lat="45.80722673681299" lon="8.936833733656655"><ele>428.0</ele><time>2026-04-04T12:56:13.001Z</time></trkpt><trkpt lat="45.80730159351191" lon="8.936701706190666"><ele>426.0</ele><time>2026-04-04T12:56:14.001Z</time></trkpt><trkpt lat="45.80737908624662" lon="8.936565029471263"><ele>424.0</ele><time>2026-04-04T12:56:15.001Z</time></trkpt><trkpt lat="45.80745635056341" lon="8.936414105666259"><ele>422.0</ele><time>2026-04-04T12:56:16.001Z</time></trkpt><trkpt lat="45.807532438940825" lon="8.936274517631398"><ele>420.0</ele><time>2026-04-04T12:56:17.001Z</time></trkpt><trkpt lat="45.8076080122394" lon="8.936143476719979"><ele>420.2</ele><time>2026-04-04T12:56:18.001Z</time></trkpt><trkpt lat="45.80767659206968" lon="8.9360194308657"><ele>420.4</ele><time>2026-04-04T12:56:19.001Z</time></trkpt><trkpt lat="45.80774776941222" lon="8.935906370453512"><ele>420.6</ele><time>2026-04-04T12:56:20.001Z</time></trkpt><trkpt lat="45.80781059335652" lon="8.9357967431788"><ele>420.8</ele><time>2026-04-04T12:56:21.001Z</time></trkpt><trkpt lat="45.80786310576225" lon="8.935707949278651"><ele>421.0</ele><time>2026-04-04T12:56:22.001Z</time></trkpt><trkpt lat="45.80790770625555" lon="8.935633625711983"><ele>420.20000000000005</ele><time>2026-04-04T12:56:23.001Z</time></trkpt><trkpt lat="45.80795423926706" lon="8.935562215840832"><ele>419.40000000000003</ele><time>2026-04-04T12:56:24.001Z</time></trkpt><trkpt lat="45.80803474810908" lon="8.93546049713628"><ele>418.6</ele><time>2026-04-04T12:56:26.001Z</time></trkpt><trkpt lat="45.80814022233119" lon="8.935382967930963"><ele>417.8</ele><time>2026-04-04T12:56:28.001Z</time></trkpt><trkpt lat="45.80820564467298" lon="8.93533078792457"><ele>417.0</ele><time>2026-04-04T12:56:29.001Z</time></trkpt><trkpt lat="45.80822670337146" lon="8.935152939403462"><ele>417.0</ele><time>2026-04-04T12:56:31.001Z</time></trkpt><trkpt lat="45.808194304702326" lon="8.935059357033778"><ele>417.0</ele><time>2026-04-04T12:56:32.001Z</time></trkpt><trkpt lat="45.80810010784867" lon="8.935040616242327"><ele>417.0</ele><time>2026-04-04T12:56:33.001Z</time></trkpt><trkpt lat="45.80801716297395" lon="8.93502394439823"><ele>417.0</ele><time>2026-04-04T12:56:34.001Z</time></trkpt><trkpt lat="45.807936264242606" lon="8.934931767805239"><ele>417.0</ele><time>2026-04-04T12:56:35.001Z</time></trkpt><trkpt lat="45.80787119106804" lon="8.934783600593082"><ele>416.25</ele><time>2026-04-04T12:56:36.001Z</time></trkpt><trkpt lat="45.807765961302835" lon="8.934683829240495"><ele>415.5</ele><time>2026-04-04T12:56:37.001Z</time></trkpt><trkpt lat="45.807671707886854" lon="8.934528180208872"><ele>414.75</ele><time>2026-04-04T12:56:38.001Z</time></trkpt><trkpt lat="45.80757666255995" lon="8.934336067134293"><ele>414.0</ele><time>2026-04-04T12:56:39.001Z</time></trkpt><trkpt lat="45.807483787470716" lon="8.934143948255166"><ele>412.33333333333337</ele><time>2026-04-04T12:56:40.001Z</time></trkpt><trkpt lat="45.80741656679615" lon="8.933936605820065"><ele>410.6666666666667</ele><time>2026-04-04T12:56:41.001Z</time></trkpt><trkpt lat="45.807353352824514" lon="8.933717750577586"><ele>409.0</ele><time>2026-04-04T12:56:42.001Z</time></trkpt><trkpt lat="45.80724388919807" lon="8.933265899826523"><ele>408.6666666666667</ele><time>2026-04-04T12:56:44.001Z</time></trkpt><trkpt lat="45.807192298387996" lon="8.93302926635221"><ele>408.33333333333337</ele><time>2026-04-04T12:56:45.001Z</time></trkpt><trkpt lat="45.80714369510026" lon="8.9327891530904"><ele>408.0</ele><time>2026-04-04T12:56:46.001Z</time></trkpt><trkpt lat="45.807099704868826" lon="8.932525750918094"><ele>408.0</ele><time>2026-04-04T12:56:47.001Z</time></trkpt><trkpt lat="45.80706156770843" lon="8.932286187906847"><ele>408.0</ele><time>2026-04-04T12:56:48.001Z</time></trkpt><trkpt lat="45.80702102516534" lon="8.932024211330171"><ele>408.0</ele><time>2026-04-04T12:56:49.001Z</time></trkpt><trkpt lat="45.80696873112433" lon="8.931706230934337"><ele>408.0</ele><time>2026-04-04T12:56:50.001Z</time></trkpt><trkpt lat="45.806912067375386" lon="8.931377427897907"><ele>408.0</ele><time>2026-04-04T12:56:51.001Z</time></trkpt><trkpt lat="45.80685508040993" lon="8.931045249441143"><ele>406.5</ele><time>2026-04-04T12:56:52.001Z</time></trkpt><trkpt lat="45.80679963150998" lon="8.930719017245893"><ele>405.0</ele><time>2026-04-04T12:56:53.001Z</time></trkpt><trkpt lat="45.80674044489097" lon="8.93037759189182"><ele>405.0</ele><time>2026-04-04T12:56:54.001Z</time></trkpt><trkpt lat="45.80668102582936" lon="8.930033693264015"><ele>405.0</ele><time>2026-04-04T12:56:55.001Z</time></trkpt><trkpt lat="45.806625777986184" lon="8.929691168347617"><ele>405.0</ele><time>2026-04-04T12:56:56.001Z</time></trkpt><trkpt lat="45.80659759008988" lon="8.929348033406175"><ele>405.0</ele><time>2026-04-04T12:56:57.001Z</time></trkpt><trkpt lat="45.80659981153069" lon="8.929000715536292"><ele>405.0</ele><time>2026-04-04T12:56:58.001Z</time></trkpt><trkpt lat="45.806613035854205" lon="8.928640296410519"><ele>405.0</ele><time>2026-04-04T12:56:59.001Z</time></trkpt><trkpt lat="45.80662584260844" lon="8.928291257545151"><ele>405.0</ele><time>2026-04-04T12:57:00.001Z</time></trkpt><trkpt lat="45.806636808871296" lon="8.92799237951196"><ele>405.0</ele><time>2026-04-04T12:57:01.001Z</time></trkpt><trkpt lat="45.80664526293933" lon="8.927761970228433"><ele>405.0</ele><time>2026-04-04T12:57:02.001Z</time></trkpt><trkpt lat="45.80665400416122" lon="8.92760899633388"><ele>404.75</ele><time>2026-04-04T12:57:03.001Z</time></trkpt><trkpt lat="45.80666316558845" lon="8.927491005466747"><ele>404.5</ele><time>2026-04-04T12:57:04.001Z</time></trkpt><trkpt lat="45.80677244070356" lon="8.927417536958929"><ele>404.25</ele><time>2026-04-04T12:57:05.001Z</time></trkpt><trkpt lat="45.80684219928001" lon="8.927300693024687"><ele>404.0</ele><time>2026-04-04T12:57:06.001Z</time></trkpt><trkpt lat="45.80698885753523" lon="8.927238691287732"><ele>404.0</ele><time>2026-04-04T12:57:07.002Z</time></trkpt><trkpt lat="45.80715118061653" lon="8.927172787467015"><ele>404.0</ele><time>2026-04-04T12:57:08.002Z</time></trkpt><trkpt lat="45.80732502400566" lon="8.927088205065582"><ele>404.0</ele><time>2026-04-04T12:57:09.002Z</time></trkpt><trkpt lat="45.80751330450565" lon="8.92697410055605"><ele>405.0</ele><time>2026-04-04T12:57:10.002Z</time></trkpt><trkpt lat="45.807706185895704" lon="8.926823658419647"><ele>406.0</ele><time>2026-04-04T12:57:11.002Z</time></trkpt><trkpt lat="45.80790709162455" lon="8.926644970481446"><ele>406.0</ele><time>2026-04-04T12:57:12.002Z</time></trkpt><trkpt lat="45.808118706286" lon="8.926458272909365"><ele>406.0</ele><time>2026-04-04T12:57:13.002Z</time></trkpt><trkpt lat="45.808308652476754" lon="8.926303330753509"><ele>406.0</ele><time>2026-04-04T12:57:14.002Z</time></trkpt><trkpt lat="45.80848817173687" lon="8.926163173725277"><ele>406.0</ele><time>2026-04-04T12:57:15.002Z</time></trkpt><trkpt lat="45.808662255627695" lon="8.926021475083902"><ele>406.0</ele><time>2026-04-04T12:57:16.002Z</time></trkpt><trkpt lat="45.808819301734104" lon="8.925889982965865"><ele>406.25</ele><time>2026-04-04T12:57:17.002Z</time></trkpt><trkpt lat="45.808937359307535" lon="8.92580029314327"><ele>406.5</ele><time>2026-04-04T12:57:18.002Z</time></trkpt><trkpt lat="45.80905718225386" lon="8.925714677509273"><ele>406.75</ele><time>2026-04-04T12:57:19.002Z</time></trkpt><trkpt lat="45.809177491328875" lon="8.925612481335323"><ele>407.0</ele><time>2026-04-04T12:57:20.002Z</time></trkpt><trkpt lat="45.80930372457649" lon="8.925499372014471"><ele>407.66666666666663</ele><time>2026-04-04T12:57:21.002Z</time></trkpt><trkpt lat="45.80943432853889" lon="8.925376980241069"><ele>408.33333333333337</ele><time>2026-04-04T12:57:22.002Z</time></trkpt><trkpt lat="45.809566678713416" lon="8.925232316523342"><ele>409.0</ele><time>2026-04-04T12:57:23.002Z</time></trkpt><trkpt lat="45.80970584034608" lon="8.925091290164609"><ele>408.0</ele><time>2026-04-04T12:57:24.001Z</time></trkpt><trkpt lat="45.80985490766554" lon="8.924952509299379"><ele>407.0</ele><time>2026-04-04T12:57:25.001Z</time></trkpt><trkpt lat="45.8099965245939" lon="8.92479431060622"><ele>406.0</ele><time>2026-04-04T12:57:26.001Z</time></trkpt><trkpt lat="45.81013381113614" lon="8.924649720081499"><ele>405.0</ele><time>2026-04-04T12:57:27.001Z</time></trkpt><trkpt lat="45.81026960641719" lon="8.924513655570841"><ele>404.0</ele><time>2026-04-04T12:57:28.001Z</time></trkpt><trkpt lat="45.81038429076217" lon="8.924375032821633"><ele>403.0</ele><time>2026-04-04T12:57:29.001Z</time></trkpt><trkpt lat="45.81046628494239" lon="8.924217166157526"><ele>403.0</ele><time>2026-04-04T12:57:30.001Z</time></trkpt><trkpt lat="45.810511241601894" lon="8.924044556245963"><ele>403.0</ele><time>2026-04-04T12:57:31Z</time></trkpt><trkpt lat="45.810525804942195" lon="8.92389881700274"><ele>403.0</ele><time>2026-04-04T12:57:32Z</time></trkpt><trkpt lat="45.81052939595793" lon="8.923793178777863"><ele>403.0</ele><time>2026-04-04T12:57:33Z</time></trkpt><trkpt lat="45.81051258671778" lon="8.923602127370176"><ele>403.0</ele><time>2026-04-04T12:57:35Z</time></trkpt><trkpt lat="45.81049809563706" lon="8.92347081802676"><ele>404.0</ele><time>2026-04-04T12:57:36Z</time></trkpt><trkpt lat="45.810479460445016" lon="8.923345957099816"><ele>405.0</ele><time>2026-04-04T12:57:37Z</time></trkpt><trkpt lat="45.810463809265364" lon="8.923219984958935"><ele>406.0</ele><time>2026-04-04T12:57:38Z</time></trkpt><trkpt lat="45.810453703632724" lon="8.923068039766461"><ele>407.0</ele><time>2026-04-04T12:57:39Z</time></trkpt><trkpt lat="45.81044372127531" lon="8.92291205787497"><ele>408.0</ele><time>2026-04-04T12:57:40Z</time></trkpt><trkpt lat="45.81042018216409" lon="8.922749202069856"><ele>408.0</ele><time>2026-04-04T12:57:41Z</time></trkpt><trkpt lat="45.810384857716585" lon="8.922583296881617"><ele>408.0</ele><time>2026-04-04T12:57:42Z</time></trkpt><trkpt lat="45.81033757430887" lon="8.92241582054995"><ele>408.0</ele><time>2026-04-04T12:57:43Z</time></trkpt><trkpt lat="45.81029417150204" lon="8.92224769441597"><ele>408.0</ele><time>2026-04-04T12:57:44Z</time></trkpt><trkpt lat="45.81025814271856" lon="8.922100346050563"><ele>408.79999999999995</ele><time>2026-04-04T12:57:45Z</time></trkpt><trkpt lat="45.81024049670484" lon="8.922012152519786"><ele>409.6</ele><time>2026-04-04T12:57:46Z</time></trkpt><trkpt lat="45.81022776490049" lon="8.921920459923912"><ele>410.4</ele><time>2026-04-04T12:57:48Z</time></trkpt><trkpt lat="45.810320209057394" lon="8.921818424986228"><ele>411.20000000000005</ele><time>2026-04-04T12:57:51Z</time></trkpt><trkpt lat="45.81042979927879" lon="8.921749745963695"><ele>412.0</ele><time>2026-04-04T12:57:52Z</time></trkpt><trkpt lat="45.810559742014654" lon="8.921642253320458"><ele>412.0</ele><time>2026-04-04T12:57:53Z</time></trkpt><trkpt lat="45.81072970665678" lon="8.921559048146515"><ele>412.0</ele><time>2026-04-04T12:57:54Z</time></trkpt><trkpt lat="45.810887186941315" lon="8.921459539646609"><ele>412.0</ele><time>2026-04-04T12:57:55Z</time></trkpt><trkpt lat="45.81104407178309" lon="8.921335911245388"><ele>412.0</ele><time>2026-04-04T12:57:56Z</time></trkpt><trkpt lat="45.81120955633229" lon="8.921245543555962"><ele>412.0</ele><time>2026-04-04T12:57:57Z</time></trkpt><trkpt lat="45.81134063423126" lon="8.921160046446307"><ele>412.0</ele><time>2026-04-04T12:57:58.001Z</time></trkpt><trkpt lat="45.81141870789855" lon="8.921100223889864"><ele>412.0</ele><time>2026-04-04T12:57:59.001Z</time></trkpt><trkpt lat="45.8115008382783" lon="8.921015088476597"><ele>412.0</ele><time>2026-04-04T12:58:00.001Z</time></trkpt><trkpt lat="45.81158828220852" lon="8.92090881780468"><ele>412.0</ele><time>2026-04-04T12:58:01.001Z</time></trkpt><trkpt lat="45.811673038536284" lon="8.920780236329273"><ele>412.0</ele><time>2026-04-04T12:58:02.001Z</time></trkpt><trkpt lat="45.81176153218933" lon="8.920638261980198"><ele>412.0</ele><time>2026-04-04T12:58:03.001Z</time></trkpt><trkpt lat="45.81184787368755" lon="8.920505834287376"><ele>411.25</ele><time>2026-04-04T12:58:04.001Z</time></trkpt><trkpt lat="45.81192985241367" lon="8.920387825124955"><ele>410.5</ele><time>2026-04-04T12:58:05.001Z</time></trkpt><trkpt lat="45.81202080688655" lon="8.92026975869371"><ele>409.75</ele><time>2026-04-04T12:58:06.001Z</time></trkpt><trkpt lat="45.81211429748775" lon="8.920195471916994"><ele>409.0</ele><time>2026-04-04T12:58:07.001Z</time></trkpt><trkpt lat="45.81222507218599" lon="8.920165152436626"><ele>409.0</ele><time>2026-04-04T12:58:08.001Z</time></trkpt><trkpt lat="45.812325602864505" lon="8.920166659365885"><ele>409.0</ele><time>2026-04-04T12:58:09.001Z</time></trkpt><trkpt lat="45.81239355561929" lon="8.92015160803519"><ele>409.0</ele><time>2026-04-04T12:58:10.001Z</time></trkpt><trkpt lat="45.81244241557074" lon="8.919993452873676"><ele>409.0</ele><time>2026-04-04T12:58:12.001Z</time></trkpt><trkpt lat="45.81234753692734" lon="8.91973757830136"><ele>409.5</ele><time>2026-04-04T12:58:14.001Z</time></trkpt><trkpt lat="45.81230283392502" lon="8.919581415486492"><ele>410.0</ele><time>2026-04-04T12:58:15.001Z</time></trkpt><trkpt lat="45.812251557465444" lon="8.919379240041549"><ele>410.5</ele><time>2026-04-04T12:58:16.001Z</time></trkpt><trkpt lat="45.812180476796875" lon="8.919165928302613"><ele>411.0</ele><time>2026-04-04T12:58:17.001Z</time></trkpt><trkpt lat="45.81210225333555" lon="8.91894194386931"><ele>411.66666666666663</ele><time>2026-04-04T12:58:18.001Z</time></trkpt><trkpt lat="45.8120134748879" lon="8.91870039468398"><ele>412.3333333333333</ele><time>2026-04-04T12:58:19.001Z</time></trkpt><trkpt lat="45.81190708605726" lon="8.918470767949099"><ele>413.0</ele><time>2026-04-04T12:58:20.001Z</time></trkpt><trkpt lat="45.811813805353566" lon="8.918229075542364"><ele>413.3333333333333</ele><time>2026-04-04T12:58:21.001Z</time></trkpt><trkpt lat="45.81171974627066" lon="8.917996409631948"><ele>413.66666666666663</ele><time>2026-04-04T12:58:22.001Z</time></trkpt><trkpt lat="45.81165986389082" lon="8.917802718819146"><ele>414.0</ele><time>2026-04-04T12:58:23.001Z</time></trkpt><trkpt lat="45.811578640522164" lon="8.91764586388277"><ele>414.5</ele><time>2026-04-04T12:58:24.001Z</time></trkpt><trkpt lat="45.81151884322776" lon="8.917515678101559"><ele>415.0</ele><time>2026-04-04T12:58:25.001Z</time></trkpt><trkpt lat="45.811435718102246" lon="8.91742785123757"><ele>415.5</ele><time>2026-04-04T12:58:26.001Z</time></trkpt><trkpt lat="45.81131895472548" lon="8.91737022763783"><ele>416.0</ele><time>2026-04-04T12:58:27.001Z</time></trkpt><trkpt lat="45.81119624783629" lon="8.917325923335218"><ele>416.0</ele><time>2026-04-04T12:58:28.001Z</time></trkpt><trkpt lat="45.81107397551937" lon="8.917251032111647"><ele>416.0</ele><time>2026-04-04T12:58:29.001Z</time></trkpt><trkpt lat="45.81097569778144" lon="8.917086541860286"><ele>416.0</ele><time>2026-04-04T12:58:30.001Z</time></trkpt><trkpt lat="45.81084375322961" lon="8.91696315856363"><ele>416.0</ele><time>2026-04-04T12:58:31.001Z</time></trkpt><trkpt lat="45.810716593687474" lon="8.91681988025191"><ele>417.3333333333333</ele><time>2026-04-04T12:58:32.001Z</time></trkpt><trkpt lat="45.810595676175794" lon="8.916664259186788"><ele>418.66666666666663</ele><time>2026-04-04T12:58:33.001Z</time></trkpt><trkpt lat="45.81047095051933" lon="8.916525740590561"><ele>420.0</ele><time>2026-04-04T12:58:34.001Z</time></trkpt><trkpt lat="45.81036125645476" lon="8.916393645090562"><ele>420.0</ele><time>2026-04-04T12:58:35.001Z</time></trkpt><trkpt lat="45.810269519981055" lon="8.916241992039385"><ele>420.0</ele><time>2026-04-04T12:58:36.001Z</time></trkpt><trkpt lat="45.81017303047108" lon="8.916065135990483"><ele>420.0</ele><time>2026-04-04T12:58:37.001Z</time></trkpt><trkpt lat="45.81006389551755" lon="8.91589621145949"><ele>420.25</ele><time>2026-04-04T12:58:38.001Z</time></trkpt><trkpt lat="45.80995883157763" lon="8.915708418798117"><ele>420.5</ele><time>2026-04-04T12:58:39.001Z</time></trkpt><trkpt lat="45.809865399391775" lon="8.915559347650673"><ele>420.75</ele><time>2026-04-04T12:58:40.001Z</time></trkpt><trkpt lat="45.80980378350922" lon="8.915416670389773"><ele>421.0</ele><time>2026-04-04T12:58:41.001Z</time></trkpt><trkpt lat="45.8097759587247" lon="8.915244793522366"><ele>419.6666666666667</ele><time>2026-04-04T12:58:42.001Z</time></trkpt><trkpt lat="45.80979267809741" lon="8.915032780350314"><ele>418.33333333333337</ele><time>2026-04-04T12:58:43.001Z</time></trkpt><trkpt lat="45.80979228585264" lon="8.914789939350717"><ele>417.0</ele><time>2026-04-04T12:58:44.001Z</time></trkpt><trkpt lat="45.809810928885334" lon="8.914536847054121"><ele>417.0</ele><time>2026-04-04T12:58:45.001Z</time></trkpt><trkpt lat="45.80981857563017" lon="8.914278109058676"><ele>417.0</ele><time>2026-04-04T12:58:46.001Z</time></trkpt><trkpt lat="45.809817189015675" lon="8.914028792466098"><ele>417.0</ele><time>2026-04-04T12:58:47.001Z</time></trkpt><trkpt lat="45.8097935713247" lon="8.913773553978928"><ele>416.33333333333337</ele><time>2026-04-04T12:58:48.001Z</time></trkpt><trkpt lat="45.80972773407994" lon="8.913520437402733"><ele>415.6666666666667</ele><time>2026-04-04T12:58:49.001Z</time></trkpt><trkpt lat="45.809631322127295" lon="8.91327164687091"><ele>415.0</ele><time>2026-04-04T12:58:50.001Z</time></trkpt><trkpt lat="45.80952521445304" lon="8.913017036221445"><ele>415.33333333333337</ele><time>2026-04-04T12:58:51.001Z</time></trkpt><trkpt lat="45.80943026434123" lon="8.912760109144342"><ele>415.66666666666663</ele><time>2026-04-04T12:58:52.001Z</time></trkpt><trkpt lat="45.809330906136154" lon="8.912507135792653"><ele>416.0</ele><time>2026-04-04T12:58:53.001Z</time></trkpt><trkpt lat="45.80923872714862" lon="8.912270245550516"><ele>415.0</ele><time>2026-04-04T12:58:54.001Z</time></trkpt><trkpt lat="45.80917960415651" lon="8.912020315889746"><ele>414.0</ele><time>2026-04-04T12:58:55.001Z</time></trkpt><trkpt lat="45.80910683093053" lon="8.911785181676157"><ele>413.0</ele><time>2026-04-04T12:58:56.001Z</time></trkpt><trkpt lat="45.809044953580404" lon="8.911530189207049"><ele>413.0</ele><time>2026-04-04T12:58:57.001Z</time></trkpt><trkpt lat="45.808982047899015" lon="8.911278493403836"><ele>413.0</ele><time>2026-04-04T12:58:58.001Z</time></trkpt><trkpt lat="45.80892055449763" lon="8.911019068837632"><ele>413.0</ele><time>2026-04-04T12:58:59.001Z</time></trkpt><trkpt lat="45.80885974857932" lon="8.910758771770475"><ele>414.3333333333333</ele><time>2026-04-04T12:59:00.001Z</time></trkpt><trkpt lat="45.80878973973243" lon="8.910495117071209"><ele>415.66666666666663</ele><time>2026-04-04T12:59:01.001Z</time></trkpt><trkpt lat="45.80872327784617" lon="8.91023035465333"><ele>417.0</ele><time>2026-04-04T12:59:02.001Z</time></trkpt><trkpt lat="45.80866057460025" lon="8.909965669381574"><ele>417.66666666666663</ele><time>2026-04-04T12:59:03.001Z</time></trkpt><trkpt lat="45.80859739004049" lon="8.909704991183695"><ele>418.3333333333333</ele><time>2026-04-04T12:59:04.001Z</time></trkpt><trkpt lat="45.808519957845" lon="8.909452063823029"><ele>419.0</ele><time>2026-04-04T12:59:05.001Z</time></trkpt><trkpt lat="45.808452140308425" lon="8.909199726738033"><ele>419.0</ele><time>2026-04-04T12:59:06.001Z</time></trkpt><trkpt lat="45.80838176595333" lon="8.908946622574375"><ele>419.0</ele><time>2026-04-04T12:59:07.001Z</time></trkpt><trkpt lat="45.80831132257081" lon="8.908712306444695"><ele>419.0</ele><time>2026-04-04T12:59:08.001Z</time></trkpt><trkpt lat="45.80823734534192" lon="8.908507299646327"><ele>420.75</ele><time>2026-04-04T12:59:09.001Z</time></trkpt><trkpt lat="45.80817360951279" lon="8.908331012562426"><ele>422.5</ele><time>2026-04-04T12:59:10.001Z</time></trkpt><trkpt lat="45.80812844099414" lon="8.908152665561168"><ele>424.25</ele><time>2026-04-04T12:59:11.001Z</time></trkpt><trkpt lat="45.808120463396705" lon="8.907990961148966"><ele>426.0</ele><time>2026-04-04T12:59:12.001Z</time></trkpt><trkpt lat="45.808139785582966" lon="8.907826644229438"><ele>426.0</ele><time>2026-04-04T12:59:13.001Z</time></trkpt><trkpt lat="45.80818221809005" lon="8.907654218948462"><ele>426.0</ele><time>2026-04-04T12:59:14.001Z</time></trkpt><trkpt lat="45.808301245527524" lon="8.90754352124078"><ele>426.0</ele><time>2026-04-04T12:59:15.001Z</time></trkpt><trkpt lat="45.808437405089826" lon="8.907420655315256"><ele>426.0</ele><time>2026-04-04T12:59:16.001Z</time></trkpt><trkpt lat="45.8085776116576" lon="8.907274754210244"><ele>428.66666666666663</ele><time>2026-04-04T12:59:17.001Z</time></trkpt><trkpt lat="45.8087285919975" lon="8.907147033069672"><ele>431.3333333333333</ele><time>2026-04-04T12:59:18.001Z</time></trkpt><trkpt lat="45.808857893864705" lon="8.907037959355357"><ele>434.0</ele><time>2026-04-04T12:59:19.001Z</time></trkpt><trkpt lat="45.808978544645385" lon="8.906954383389957"><ele>434.0</ele><time>2026-04-04T12:59:20.001Z</time></trkpt><trkpt lat="45.809104993462775" lon="8.906927463650273"><ele>434.0</ele><time>2026-04-04T12:59:21.002Z</time></trkpt><trkpt lat="45.809271963022844" lon="8.906944374596023"><ele>434.0</ele><time>2026-04-04T12:59:22.002Z</time></trkpt><trkpt lat="45.809451655461174" lon="8.906979733238996"><ele>436.0</ele><time>2026-04-04T12:59:23.002Z</time></trkpt><trkpt lat="45.80963262946979" lon="8.90701293890415"><ele>438.0</ele><time>2026-04-04T12:59:24.002Z</time></trkpt><trkpt lat="45.80982278537102" lon="8.907045574733756"><ele>440.0</ele><time>2026-04-04T12:59:25.002Z</time></trkpt><trkpt lat="45.81001526323519" lon="8.907077650464045"><ele>437.66666666666663</ele><time>2026-04-04T12:59:26.002Z</time></trkpt><trkpt lat="45.8102108730691" lon="8.907104214158155"><ele>435.33333333333337</ele><time>2026-04-04T12:59:27.002Z</time></trkpt><trkpt lat="45.81039818347493" lon="8.907129925297147"><ele>433.0</ele><time>2026-04-04T12:59:28.002Z</time></trkpt><trkpt lat="45.8105597833615" lon="8.90716579915639"><ele>433.0</ele><time>2026-04-04T12:59:29.002Z</time></trkpt><trkpt lat="45.81069638152457" lon="8.907228862975742"><ele>433.0</ele><time>2026-04-04T12:59:30Z</time></trkpt><trkpt lat="45.810820756348775" lon="8.907331988084762"><ele>433.0</ele><time>2026-04-04T12:59:31Z</time></trkpt><trkpt lat="45.810947002451776" lon="8.907481304097518"><ele>432.75</ele><time>2026-04-04T12:59:32Z</time></trkpt><trkpt lat="45.811058394934236" lon="8.90763943497231"><ele>432.5</ele><time>2026-04-04T12:59:33Z</time></trkpt><trkpt lat="45.81115821068809" lon="8.907756802216898"><ele>432.25</ele><time>2026-04-04T12:59:34Z</time></trkpt><trkpt lat="45.8112735154288" lon="8.907857458362137"><ele>432.0</ele><time>2026-04-04T12:59:35Z</time></trkpt><trkpt lat="45.81142310719665" lon="8.907926973184706"><ele>432.0</ele><time>2026-04-04T12:59:36Z</time></trkpt><trkpt lat="45.811581010834885" lon="8.907952208149371"><ele>432.0</ele><time>2026-04-04T12:59:37Z</time></trkpt><trkpt lat="45.81175573539355" lon="8.908011498993256"><ele>432.0</ele><time>2026-04-04T12:59:38Z</time></trkpt><trkpt lat="45.81193134459845" lon="8.908069200454628"><ele>429.0</ele><time>2026-04-04T12:59:39Z</time></trkpt><trkpt lat="45.812111152441226" lon="8.908092555159072"><ele>426.0</ele><time>2026-04-04T12:59:40Z</time></trkpt><trkpt lat="45.81228677221357" lon="8.90807756978049"><ele>423.0</ele><time>2026-04-04T12:59:41Z</time></trkpt><trkpt lat="45.81242162730144" lon="8.90805384677632"><ele>423.0</ele><time>2026-04-04T12:59:42Z</time></trkpt><trkpt lat="45.81253100291963" lon="8.907974904893786"><ele>423.0</ele><time>2026-04-04T12:59:43Z</time></trkpt><trkpt lat="45.81262414447409" lon="8.907819224497896"><ele>423.0</ele><time>2026-04-04T12:59:44Z</time></trkpt><trkpt lat="45.81273311365294" lon="8.90760892823534"><ele>423.0</ele><time>2026-04-04T12:59:45Z</time></trkpt><trkpt lat="45.812840177332944" lon="8.90735662764177"><ele>413.0</ele><time>2026-04-04T12:59:46Z</time></trkpt><trkpt lat="45.81293808779136" lon="8.907125510937481"><ele>403.0</ele><time>2026-04-04T12:59:47Z</time></trkpt><trkpt lat="45.813025374084425" lon="8.906913698717517"><ele>393.0</ele><time>2026-04-04T12:59:48Z</time></trkpt><trkpt lat="45.813078843566274" lon="8.906724528327052"><ele>393.0</ele><time>2026-04-04T12:59:49Z</time></trkpt><trkpt lat="45.81307012743651" lon="8.906490454299865"><ele>393.0</ele><time>2026-04-04T12:59:50Z</time></trkpt><trkpt lat="45.81301362311062" lon="8.906207079206592"><ele>393.0</ele><time>2026-04-04T12:59:51Z</time></trkpt><trkpt lat="45.81295357706781" lon="8.905892625660059"><ele>390.0</ele><time>2026-04-04T12:59:52Z</time></trkpt><trkpt lat="45.81289354178705" lon="8.905582136471791"><ele>387.0</ele><time>2026-04-04T12:59:53Z</time></trkpt><trkpt lat="45.8128269979726" lon="8.905252326638111"><ele>381.0</ele><time>2026-04-04T12:59:54Z</time></trkpt><trkpt lat="45.81275214491837" lon="8.904920120210843"><ele>375.0</ele><time>2026-04-04T12:59:55Z</time></trkpt><trkpt lat="45.81269623667255" lon="8.904559919353968"><ele>392.0</ele><time>2026-04-04T12:59:56Z</time></trkpt><trkpt lat="45.8126467565941" lon="8.904181205616736"><ele>409.0</ele><time>2026-04-04T12:59:57Z</time></trkpt><trkpt lat="45.81261764221968" lon="8.903813838574901"><ele>409.0</ele><time>2026-04-04T12:59:58Z</time></trkpt><trkpt lat="45.81259097323431" lon="8.90343322522491"><ele>409.0</ele><time>2026-04-04T12:59:59Z</time></trkpt><trkpt lat="45.81256566431466" lon="8.90307202239559"><ele>403.5</ele><time>2026-04-04T13:00:00Z</time></trkpt><trkpt lat="45.812540479909934" lon="8.902728111371639"><ele>398.0</ele><time>2026-04-04T13:00:01Z</time></trkpt><trkpt lat="45.81251478705971" lon="8.902390940234282"><ele>395.3333333333333</ele><time>2026-04-04T13:00:02Z</time></trkpt><trkpt lat="45.812495058468585" lon="8.902084808898541"><ele>392.66666666666663</ele><time>2026-04-04T13:00:03Z</time></trkpt><trkpt lat="45.81249289382652" lon="8.901806291364155"><ele>390.0</ele><time>2026-04-04T13:00:04Z</time></trkpt><trkpt lat="45.8125193961776" lon="8.901548775241908"><ele>387.0</ele><time>2026-04-04T13:00:05Z</time></trkpt><trkpt lat="45.812557781343656" lon="8.901282312708918"><ele>384.0</ele><time>2026-04-04T13:00:06Z</time></trkpt><trkpt lat="45.81257410706645" lon="8.901002526586632"><ele>381.0</ele><time>2026-04-04T13:00:07Z</time></trkpt><trkpt lat="45.812598402126945" lon="8.900733991037981"><ele>381.0</ele><time>2026-04-04T13:00:08Z</time></trkpt><trkpt lat="45.812579252404106" lon="8.900442487513962"><ele>381.0</ele><time>2026-04-04T13:00:09Z</time></trkpt><trkpt lat="45.812517835271315" lon="8.90013493048518"><ele>381.0</ele><time>2026-04-04T13:00:10Z</time></trkpt><trkpt lat="45.81246839808339" lon="8.899800443433701"><ele>376.0</ele><time>2026-04-04T13:00:11Z</time></trkpt><trkpt lat="45.812418394264235" lon="8.89946134255124"><ele>371.0</ele><time>2026-04-04T13:00:12Z</time></trkpt><trkpt lat="45.81233743363233" lon="8.89912436741276"><ele>365.5</ele><time>2026-04-04T13:00:13Z</time></trkpt><trkpt lat="45.81224752368568" lon="8.898789680015508"><ele>360.0</ele><time>2026-04-04T13:00:14Z</time></trkpt><trkpt lat="45.81213514436078" lon="8.898463222406082"><ele>352.5</ele><time>2026-04-04T13:00:15Z</time></trkpt><trkpt lat="45.81199429516537" lon="8.898141775996752"><ele>345.0</ele><time>2026-04-04T13:00:16Z</time></trkpt><trkpt lat="45.81183789839938" lon="8.897817755940574"><ele>359.0</ele><time>2026-04-04T13:00:17.001Z</time></trkpt><trkpt lat="45.811700545122854" lon="8.897477213416929"><ele>373.0</ele><time>2026-04-04T13:00:18.001Z</time></trkpt><trkpt lat="45.811572726370315" lon="8.897160953320903"><ele>373.0</ele><time>2026-04-04T13:00:19.001Z</time></trkpt><trkpt lat="45.81145653625281" lon="8.896841310478091"><ele>373.0</ele><time>2026-04-04T13:00:20.001Z</time></trkpt><trkpt lat="45.8113542562532" lon="8.896565480800064"><ele>368.3333333333333</ele><time>2026-04-04T13:00:21.001Z</time></trkpt><trkpt lat="45.81125908353355" lon="8.896308817646734"><ele>363.6666666666667</ele><time>2026-04-04T13:00:22.001Z</time></trkpt><trkpt lat="45.81115986987552" lon="8.896036129483035"><ele>359.0</ele><time>2026-04-04T13:00:23.001Z</time></trkpt><trkpt lat="45.811058726635565" lon="8.895753508758228"><ele>361.0</ele><time>2026-04-04T13:00:24.001Z</time></trkpt><trkpt lat="45.81096369673114" lon="8.895480663208325"><ele>363.0</ele><time>2026-04-04T13:00:25.001Z</time></trkpt><trkpt lat="45.81087247055414" lon="8.895236968139598"><ele>365.0</ele><time>2026-04-04T13:00:26.001Z</time></trkpt><trkpt lat="45.81076806078378" lon="8.895017053844867"><ele>365.0</ele><time>2026-04-04T13:00:27.001Z</time></trkpt><trkpt lat="45.81064745999799" lon="8.894788643006338"><ele>365.0</ele><time>2026-04-04T13:00:28.001Z</time></trkpt><trkpt lat="45.810495563684974" lon="8.894584257620762"><ele>365.0</ele><time>2026-04-04T13:00:29.001Z</time></trkpt><trkpt lat="45.81031017720478" lon="8.89440482376185"><ele>366.6666666666667</ele><time>2026-04-04T13:00:30.001Z</time></trkpt><trkpt lat="45.8101158943784" lon="8.894207238393076"><ele>368.3333333333333</ele><time>2026-04-04T13:00:31.001Z</time></trkpt><trkpt lat="45.80994719625205" lon="8.894034447072627"><ele>370.0</ele><time>2026-04-04T13:00:32.001Z</time></trkpt><trkpt lat="45.809828308177316" lon="8.89388239793661"><ele>370.0</ele><time>2026-04-04T13:00:33.001Z</time></trkpt><trkpt lat="45.80971958512702" lon="8.893768208826868"><ele>370.0</ele><time>2026-04-04T13:00:34.001Z</time></trkpt><trkpt lat="45.80961493470591" lon="8.893657697883667"><ele>370.0</ele><time>2026-04-04T13:00:35.001Z</time></trkpt><trkpt lat="45.80951310264282" lon="8.893549692222349"><ele>370.0</ele><time>2026-04-04T13:00:36.001Z</time></trkpt><trkpt lat="45.80940806569453" lon="8.89343705128858"><ele>369.75</ele><time>2026-04-04T13:00:37.001Z</time></trkpt><trkpt lat="45.80929718707376" lon="8.893318145794353"><ele>369.5</ele><time>2026-04-04T13:00:38.001Z</time></trkpt><trkpt lat="45.809181163178934" lon="8.893193722551919"><ele>369.25</ele><time>2026-04-04T13:00:39.001Z</time></trkpt><trkpt lat="45.80906749818967" lon="8.893072772061053"><ele>369.0</ele><time>2026-04-04T13:00:40.001Z</time></trkpt><trkpt lat="45.80895882724991" lon="8.892957217964772"><ele>369.0</ele><time>2026-04-04T13:00:41.001Z</time></trkpt><trkpt lat="45.808848675005486" lon="8.892841233888202"><ele>369.0</ele><time>2026-04-04T13:00:42.001Z</time></trkpt><trkpt lat="45.80873925299267" lon="8.892726363898257"><ele>369.0</ele><time>2026-04-04T13:00:43.001Z</time></trkpt><trkpt lat="45.808617993059165" lon="8.892619648228345"><ele>369.0</ele><time>2026-04-04T13:00:44.001Z</time></trkpt><trkpt lat="45.8085042077414" lon="8.892495991085777"><ele>369.75</ele><time>2026-04-04T13:00:45.001Z</time></trkpt><trkpt lat="45.80839208740001" lon="8.892379928357418"><ele>370.5</ele><time>2026-04-04T13:00:46.001Z</time></trkpt><trkpt lat="45.80828067730554" lon="8.892264958298323"><ele>371.25</ele><time>2026-04-04T13:00:47.001Z</time></trkpt><trkpt lat="45.808164313064204" lon="8.892144623022856"><ele>372.0</ele><time>2026-04-04T13:00:48.001Z</time></trkpt><trkpt lat="45.80805354307963" lon="8.892025039452673"><ele>372.0</ele><time>2026-04-04T13:00:49.001Z</time></trkpt><trkpt lat="45.807940167230086" lon="8.89190852645725"><ele>372.0</ele><time>2026-04-04T13:00:50.001Z</time></trkpt><trkpt lat="45.807828800320465" lon="8.891786283776996"><ele>372.0</ele><time>2026-04-04T13:00:51.001Z</time></trkpt><trkpt lat="45.80771728656351" lon="8.891669180832393"><ele>372.0</ele><time>2026-04-04T13:00:52.001Z</time></trkpt><trkpt lat="45.80761169561584" lon="8.891550535039729"><ele>375.0</ele><time>2026-04-04T13:00:53.001Z</time></trkpt><trkpt lat="45.80750391278234" lon="8.891411220603946"><ele>378.0</ele><time>2026-04-04T13:00:54.001Z</time></trkpt><trkpt lat="45.80740217349268" lon="8.891256397503085"><ele>381.0</ele><time>2026-04-04T13:00:55.001Z</time></trkpt><trkpt lat="45.80730927658344" lon="8.891023550594523"><ele>376.3333333333333</ele><time>2026-04-04T13:00:56.001Z</time></trkpt><trkpt lat="45.80722436023409" lon="8.890764901856647"><ele>371.66666666666663</ele><time>2026-04-04T13:00:57.001Z</time></trkpt><trkpt lat="45.807138894501044" lon="8.890502672632815"><ele>367.0</ele><time>2026-04-04T13:00:58.001Z</time></trkpt><trkpt lat="45.807043678730224" lon="8.89022021749741"><ele>365.66666666666663</ele><time>2026-04-04T13:00:59.001Z</time></trkpt><trkpt lat="45.8069608012396" lon="8.889952874258892"><ele>364.3333333333333</ele><time>2026-04-04T13:01:00.001Z</time></trkpt><trkpt lat="45.80687292199791" lon="8.889665929248116"><ele>363.0</ele><time>2026-04-04T13:01:01.001Z</time></trkpt><trkpt lat="45.806781176586654" lon="8.889392122091266"><ele>364.3333333333333</ele><time>2026-04-04T13:01:02.001Z</time></trkpt><trkpt lat="45.80669174722187" lon="8.88912709258993"><ele>365.66666666666663</ele><time>2026-04-04T13:01:03.001Z</time></trkpt><trkpt lat="45.80660901737752" lon="8.888881917573437"><ele>367.0</ele><time>2026-04-04T13:01:04.001Z</time></trkpt><trkpt lat="45.806520885682374" lon="8.888625061210007"><ele>364.66666666666663</ele><time>2026-04-04T13:01:05.001Z</time></trkpt><trkpt lat="45.80643254829988" lon="8.888365671345374"><ele>362.3333333333333</ele><time>2026-04-04T13:01:06.001Z</time></trkpt><trkpt lat="45.80634332873659" lon="8.888103691050718"><ele>360.0</ele><time>2026-04-04T13:01:07.001Z</time></trkpt><trkpt lat="45.80625559819036" lon="8.88784004226289"><ele>359.0</ele><time>2026-04-04T13:01:08.001Z</time></trkpt><trkpt lat="45.80617164473901" lon="8.887575645015422"><ele>358.0</ele><time>2026-04-04T13:01:09.001Z</time></trkpt><trkpt lat="45.80608901765369" lon="8.88732420299458"><ele>357.0</ele><time>2026-04-04T13:01:10.001Z</time></trkpt><trkpt lat="45.806008811662" lon="8.887083269042968"><ele>359.75</ele><time>2026-04-04T13:01:11.001Z</time></trkpt><trkpt lat="45.805959548531895" lon="8.886934907141566"><ele>362.5</ele><time>2026-04-04T13:01:12.001Z</time></trkpt><trkpt lat="45.80591709566202" lon="8.886806052951188"><ele>365.25</ele><time>2026-04-04T13:01:13.001Z</time></trkpt><trkpt lat="45.805869413837975" lon="8.886657713205068"><ele>368.0</ele><time>2026-04-04T13:01:14.001Z</time></trkpt><trkpt lat="45.805816989458975" lon="8.886495196910099"><ele>368.0</ele><time>2026-04-04T13:01:15.001Z</time></trkpt><trkpt lat="45.80576051867487" lon="8.886323532324152"><ele>368.0</ele><time>2026-04-04T13:01:16.001Z</time></trkpt><trkpt lat="45.80570254230878" lon="8.886144468114079"><ele>368.0</ele><time>2026-04-04T13:01:17.001Z</time></trkpt><trkpt lat="45.80564474449044" lon="8.885964504265623"><ele>368.0</ele><time>2026-04-04T13:01:18.001Z</time></trkpt><trkpt lat="45.805571647322516" lon="8.885798874228984"><ele>366.25</ele><time>2026-04-04T13:01:19.001Z</time></trkpt><trkpt lat="45.805516338226795" lon="8.885632042530888"><ele>364.5</ele><time>2026-04-04T13:01:20.001Z</time></trkpt><trkpt lat="45.80547093030613" lon="8.885445213621885"><ele>362.75</ele><time>2026-04-04T13:01:21.001Z</time></trkpt><trkpt lat="45.805411509241026" lon="8.885268652166868"><ele>361.0</ele><time>2026-04-04T13:01:22.001Z</time></trkpt><trkpt lat="45.80535261304898" lon="8.885103649112688"><ele>363.3333333333333</ele><time>2026-04-04T13:01:23.001Z</time></trkpt><trkpt lat="45.80528855206355" lon="8.884929018953594"><ele>365.6666666666667</ele><time>2026-04-04T13:01:24.001Z</time></trkpt><trkpt lat="45.80520582965419" lon="8.88474112285721"><ele>368.0</ele><time>2026-04-04T13:01:25.001Z</time></trkpt><trkpt lat="45.80509799878503" lon="8.884531716329938"><ele>368.0</ele><time>2026-04-04T13:01:26.001Z</time></trkpt><trkpt lat="45.80497482267618" lon="8.884332618604217"><ele>368.0</ele><time>2026-04-04T13:01:27.001Z</time></trkpt><trkpt lat="45.804867949679625" lon="8.884175798809032"><ele>368.0</ele><time>2026-04-04T13:01:28.001Z</time></trkpt><trkpt lat="45.80477104154" lon="8.884019613151528"><ele>367.25</ele><time>2026-04-04T13:01:29.001Z</time></trkpt><trkpt lat="45.804651694406395" lon="8.883917877771704"><ele>366.5</ele><time>2026-04-04T13:01:30.001Z</time></trkpt><trkpt lat="45.80452365515194" lon="8.883854622608549"><ele>365.75</ele><time>2026-04-04T13:01:31.001Z</time></trkpt><trkpt lat="45.8044224281843" lon="8.883784753433062"><ele>365.0</ele><time>2026-04-04T13:01:32.001Z</time></trkpt><trkpt lat="45.80432942723856" lon="8.883725994517432"><ele>365.0</ele><time>2026-04-04T13:01:33.001Z</time></trkpt><trkpt lat="45.80424443033511" lon="8.88365525081106"><ele>365.0</ele><time>2026-04-04T13:01:34.001Z</time></trkpt><trkpt lat="45.80418190730009" lon="8.883530607754665"><ele>365.0</ele><time>2026-04-04T13:01:35.001Z</time></trkpt><trkpt lat="45.804094787665754" lon="8.88338997654107"><ele>365.0</ele><time>2026-04-04T13:01:36Z</time></trkpt><trkpt lat="45.80400256456888" lon="8.883237453958262"><ele>362.25</ele><time>2026-04-04T13:01:37Z</time></trkpt><trkpt lat="45.803912212546564" lon="8.883086556684994"><ele>359.5</ele><time>2026-04-04T13:01:38Z</time></trkpt><trkpt lat="45.80382384604861" lon="8.882936461256131"><ele>356.75</ele><time>2026-04-04T13:01:39Z</time></trkpt><trkpt lat="45.80373525519651" lon="8.882783499351918"><ele>354.0</ele><time>2026-04-04T13:01:40Z</time></trkpt><trkpt lat="45.80364609918352" lon="8.882625886982707"><ele>354.2</ele><time>2026-04-04T13:01:41Z</time></trkpt><trkpt lat="45.80356337514638" lon="8.882483287945115"><ele>354.4</ele><time>2026-04-04T13:01:42Z</time></trkpt><trkpt lat="45.80347826923039" lon="8.882378675370772"><ele>354.6</ele><time>2026-04-04T13:01:43Z</time></trkpt><trkpt lat="45.80342824755955" lon="8.882287036128469"><ele>354.8</ele><time>2026-04-04T13:01:44Z</time></trkpt><trkpt lat="45.803349781257594" lon="8.88216274025636"><ele>355.0</ele><time>2026-04-04T13:01:46Z</time></trkpt><trkpt lat="45.803300531894116" lon="8.882103728874078"><ele>355.0</ele><time>2026-04-04T13:01:47Z</time></trkpt><trkpt lat="45.803213535544906" lon="8.882066342466503"><ele>355.0</ele><time>2026-04-04T13:01:48Z</time></trkpt><trkpt lat="45.80309916867067" lon="8.882035044684237"><ele>355.0</ele><time>2026-04-04T13:01:49Z</time></trkpt><trkpt lat="45.80299023207608" lon="8.88196184090034"><ele>355.0</ele><time>2026-04-04T13:01:50Z</time></trkpt><trkpt lat="45.802867375153255" lon="8.881909725655097"><ele>355.0</ele><time>2026-04-04T13:01:51Z</time></trkpt><trkpt lat="45.80275695955503" lon="8.881863869313433"><ele>355.0</ele><time>2026-04-04T13:01:52Z</time></trkpt><trkpt lat="45.8026674190042" lon="8.881825039826099"><ele>355.0</ele><time>2026-04-04T13:01:53Z</time></trkpt><trkpt lat="45.802592040462564" lon="8.881792097497271"><ele>355.0</ele><time>2026-04-04T13:01:54Z</time></trkpt><trkpt lat="45.802458881797186" lon="8.881756968077468"><ele>355.0</ele><time>2026-04-04T13:01:56Z</time></trkpt><trkpt lat="45.802378520098465" lon="8.881723615273364"><ele>355.16666666666663</ele><time>2026-04-04T13:01:57Z</time></trkpt><trkpt lat="45.80228105415085" lon="8.881676901026653"><ele>355.3333333333333</ele><time>2026-04-04T13:01:58Z</time></trkpt><trkpt lat="45.802192120554906" lon="8.881627710613094"><ele>355.5</ele><time>2026-04-04T13:01:59Z</time></trkpt><trkpt lat="45.802107819886594" lon="8.88159432639417"><ele>355.6666666666667</ele><time>2026-04-04T13:02:00Z</time></trkpt><trkpt lat="45.802034776080305" lon="8.881559172251148"><ele>355.83333333333337</ele><time>2026-04-04T13:02:01Z</time></trkpt><trkpt lat="45.801960399256366" lon="8.88150319342693"><ele>356.0</ele><time>2026-04-04T13:02:02Z</time></trkpt><trkpt lat="45.80186585744841" lon="8.88149415934926"><ele>355.83333333333337</ele><time>2026-04-04T13:02:03Z</time></trkpt><trkpt lat="45.801781756964175" lon="8.881460361330804"><ele>355.6666666666667</ele><time>2026-04-04T13:02:04Z</time></trkpt><trkpt lat="45.80170639719967" lon="8.881436747044399"><ele>355.5</ele><time>2026-04-04T13:02:05Z</time></trkpt><trkpt lat="45.80163241250358" lon="8.881392332466211"><ele>355.3333333333333</ele><time>2026-04-04T13:02:06Z</time></trkpt><trkpt lat="45.80156398102824" lon="8.881378627210818"><ele>355.16666666666663</ele><time>2026-04-04T13:02:07Z</time></trkpt><trkpt lat="45.80144941269032" lon="8.88138854446225"><ele>355.0</ele><time>2026-04-04T13:02:09Z</time></trkpt><trkpt lat="45.80137619160227" lon="8.881362084245483"><ele>355.0</ele><time>2026-04-04T13:02:11Z</time></trkpt><trkpt lat="45.80129614699732" lon="8.881358683465537"><ele>355.0</ele><time>2026-04-04T13:02:13Z</time></trkpt><trkpt lat="45.8012212924544" lon="8.881379413448338"><ele>355.0</ele><time>2026-04-04T13:02:15Z</time></trkpt><trkpt lat="45.80117753979375" lon="8.881305531617057"><ele>355.0</ele><time>2026-04-04T13:02:17.001Z</time></trkpt><trkpt lat="45.801193748203175" lon="8.881051441438686"><ele>355.0</ele><time>2026-04-04T13:02:19.001Z</time></trkpt><trkpt lat="45.80121108880974" lon="8.880948773319238"><ele>355.0</ele><time>2026-04-04T13:02:20.001Z</time></trkpt><trkpt lat="45.80121956565988" lon="8.880843366573645"><ele>355.0</ele><time>2026-04-04T13:02:21.001Z</time></trkpt><trkpt lat="45.801231477850145" lon="8.880731230129028"><ele>355.0</ele><time>2026-04-04T13:02:22.001Z</time></trkpt><trkpt lat="45.80123966852737" lon="8.880608117246945"><ele>355.0</ele><time>2026-04-04T13:02:23.001Z</time></trkpt><trkpt lat="45.80124390105476" lon="8.880484959358787"><ele>355.0</ele><time>2026-04-04T13:02:24.001Z</time></trkpt><trkpt lat="45.80124617678757" lon="8.880341382053826"><ele>355.0</ele><time>2026-04-04T13:02:25.001Z</time></trkpt><trkpt lat="45.80125080149333" lon="8.880205288092352"><ele>355.0</ele><time>2026-04-04T13:02:26.001Z</time></trkpt><trkpt lat="45.80125830310533" lon="8.880066327888818"><ele>355.0</ele><time>2026-04-04T13:02:27.001Z</time></trkpt><trkpt lat="45.801281966976305" lon="8.879935951709397"><ele>355.0</ele><time>2026-04-04T13:02:28.001Z</time></trkpt><trkpt lat="45.80129059172056" lon="8.879796654999913"><ele>355.0</ele><time>2026-04-04T13:02:29.001Z</time></trkpt><trkpt lat="45.80129842575976" lon="8.879660923697205"><ele>355.0</ele><time>2026-04-04T13:02:30.001Z</time></trkpt><trkpt lat="45.80130685520355" lon="8.879514877473252"><ele>355.0</ele><time>2026-04-04T13:02:31.001Z</time></trkpt><trkpt lat="45.80129324281886" lon="8.879369522287424"><ele>355.0</ele><time>2026-04-04T13:02:32.001Z</time></trkpt><trkpt lat="45.801312007672" lon="8.87922336729612"><ele>355.0</ele><time>2026-04-04T13:02:33.001Z</time></trkpt><trkpt lat="45.801314615164436" lon="8.879078177407097"><ele>355.0</ele><time>2026-04-04T13:02:34.001Z</time></trkpt><trkpt lat="45.801318702784286" lon="8.878964758613519"><ele>355.0</ele><time>2026-04-04T13:02:35.001Z</time></trkpt><trkpt lat="45.801333611998" lon="8.878815269511044"><ele>354.8</ele><time>2026-04-04T13:02:37.001Z</time></trkpt><trkpt lat="45.80131307106894" lon="8.878719266488535"><ele>354.6</ele><time>2026-04-04T13:02:38.001Z</time></trkpt><trkpt lat="45.80133296241534" lon="8.87853414013251"><ele>354.4</ele><time>2026-04-04T13:02:40.001Z</time></trkpt><trkpt lat="45.8013451756806" lon="8.878421752372775"><ele>354.2</ele><time>2026-04-04T13:02:41.001Z</time></trkpt><trkpt lat="45.80136992232501" lon="8.87830041220721"><ele>354.0</ele><time>2026-04-04T13:02:42.001Z</time></trkpt><trkpt lat="45.80137330498183" lon="8.878176254690697"><ele>353.6666666666667</ele><time>2026-04-04T13:02:43.001Z</time></trkpt><trkpt lat="45.801396930294395" lon="8.878075883064877"><ele>353.3333333333333</ele><time>2026-04-04T13:02:44.001Z</time></trkpt><trkpt lat="45.80140400760694" lon="8.877959911181215"><ele>353.0</ele><time>2026-04-04T13:02:45.001Z</time></trkpt><trkpt lat="45.80141779194677" lon="8.87785885488439"><ele>352.66666666666663</ele><time>2026-04-04T13:02:46.001Z</time></trkpt><trkpt lat="45.80143151667447" lon="8.87775381267093"><ele>352.3333333333333</ele><time>2026-04-04T13:02:47.001Z</time></trkpt><trkpt lat="45.80144272400552" lon="8.877659408459857"><ele>352.0</ele><time>2026-04-04T13:02:48.001Z</time></trkpt><trkpt lat="45.80144718451722" lon="8.877485260415085"><ele>352.0</ele><time>2026-04-04T13:02:50.001Z</time></trkpt><trkpt lat="45.801454271590984" lon="8.877362466335265"><ele>352.0</ele><time>2026-04-04T13:02:52.001Z</time></trkpt><trkpt lat="45.801459545894495" lon="8.877257175293606"><ele>352.0</ele><time>2026-04-04T13:02:54.001Z</time></trkpt><trkpt lat="45.801423578593386" lon="8.87709562641369"><ele>352.0</ele><time>2026-04-04T13:02:56.001Z</time></trkpt><trkpt lat="45.80138802263071" lon="8.877021016091131"><ele>352.0</ele><time>2026-04-04T13:02:57.001Z</time></trkpt><trkpt lat="45.80131701573741" lon="8.876866963543698"><ele>352.0</ele><time>2026-04-04T13:02:59.001Z</time></trkpt><trkpt lat="45.80131111816466" lon="8.87675509068678"><ele>352.0</ele><time>2026-04-04T13:03:00.001Z</time></trkpt><trkpt lat="45.801320692974414" lon="8.87663740152784"><ele>352.0</ele><time>2026-04-04T13:03:01.001Z</time></trkpt><trkpt lat="45.80132788069926" lon="8.876531042298865"><ele>352.0</ele><time>2026-04-04T13:03:02.001Z</time></trkpt><trkpt lat="45.80133074303349" lon="8.876410111192117"><ele>352.0</ele><time>2026-04-04T13:03:03.001Z</time></trkpt><trkpt lat="45.801336201074974" lon="8.87629722318367"><ele>352.0</ele><time>2026-04-04T13:03:04.001Z</time></trkpt><trkpt lat="45.801328338996264" lon="8.876179904941461"><ele>352.0</ele><time>2026-04-04T13:03:05.001Z</time></trkpt><trkpt lat="45.8012876973532" lon="8.876068188557689"><ele>352.0</ele><time>2026-04-04T13:03:06.001Z</time></trkpt><trkpt lat="45.8012263879511" lon="8.87596041725353"><ele>352.0</ele><time>2026-04-04T13:03:07.001Z</time></trkpt><trkpt lat="45.80115527349567" lon="8.875853976280325"><ele>352.0</ele><time>2026-04-04T13:03:08.001Z</time></trkpt><trkpt lat="45.80108148900211" lon="8.875778837482763"><ele>352.0</ele><time>2026-04-04T13:03:09.001Z</time></trkpt><trkpt lat="45.800982499038696" lon="8.875714233184022"><ele>349.25</ele><time>2026-04-04T13:03:10.001Z</time></trkpt><trkpt lat="45.80087331673108" lon="8.875660514180709"><ele>346.5</ele><time>2026-04-04T13:03:11.001Z</time></trkpt><trkpt lat="45.8007633855844" lon="8.87560074178883"><ele>343.75</ele><time>2026-04-04T13:03:12.001Z</time></trkpt><trkpt lat="45.8006582614904" lon="8.875532977894963"><ele>341.0</ele><time>2026-04-04T13:03:13.001Z</time></trkpt><trkpt lat="45.80055095966553" lon="8.875469868443794"><ele>341.0</ele><time>2026-04-04T13:03:14.001Z</time></trkpt><trkpt lat="45.8004529715559" lon="8.875404220963443"><ele>341.0</ele><time>2026-04-04T13:03:15.001Z</time></trkpt><trkpt lat="45.800350369906546" lon="8.875339965668788"><ele>341.0</ele><time>2026-04-04T13:03:16.001Z</time></trkpt><trkpt lat="45.80025408292526" lon="8.87528109919799"><ele>341.0</ele><time>2026-04-04T13:03:17.001Z</time></trkpt><trkpt lat="45.80016512976042" lon="8.875215423480325"><ele>341.0</ele><time>2026-04-04T13:03:18.001Z</time></trkpt><trkpt lat="45.80006631677557" lon="8.87516377271754"><ele>340.5</ele><time>2026-04-04T13:03:19.001Z</time></trkpt><trkpt lat="45.79997384864537" lon="8.875114145884181"><ele>340.0</ele><time>2026-04-04T13:03:20.001Z</time></trkpt><trkpt lat="45.79989423222781" lon="8.875056690387995"><ele>339.5</ele><time>2026-04-04T13:03:21.001Z</time></trkpt><trkpt lat="45.799836382284404" lon="8.874990473319569"><ele>339.0</ele><time>2026-04-04T13:03:22.001Z</time></trkpt><trkpt lat="45.799817682710604" lon="8.874894439563592"><ele>338.5</ele><time>2026-04-04T13:03:23.001Z</time></trkpt><trkpt lat="45.79982160810081" lon="8.874778087214764"><ele>338.0</ele><time>2026-04-04T13:03:24.001Z</time></trkpt><trkpt lat="45.79984332621735" lon="8.874656138200182"><ele>338.0</ele><time>2026-04-04T13:03:25.001Z</time></trkpt><trkpt lat="45.79989008754342" lon="8.874577930046799"><ele>338.0</ele><time>2026-04-04T13:03:26.001Z</time></trkpt><trkpt lat="45.799912755413956" lon="8.874464110284414"><ele>338.0</ele><time>2026-04-04T13:03:28.001Z</time></trkpt><trkpt lat="45.79981725417816" lon="8.87449873804251"><ele>338.0</ele><time>2026-04-04T13:03:30.001Z</time></trkpt><trkpt lat="45.799735744631334" lon="8.874527117525886"><ele>338.0</ele><time>2026-04-04T13:03:33.001Z</time></trkpt><trkpt lat="45.799807451885655" lon="8.874480668190659"><ele>338.0</ele><time>2026-04-04T13:03:38.001Z</time></trkpt><trkpt lat="45.7998901416734" lon="8.874198845742267"><ele>336.0</ele><time>2026-04-04T13:03:39.001Z</time></trkpt><trkpt lat="45.79994636184855" lon="8.874098988755062"><ele>334.0</ele><time>2026-04-04T13:03:40.001Z</time></trkpt><trkpt lat="45.79998752496249" lon="8.873986775638746"><ele>332.0</ele><time>2026-04-04T13:03:41.001Z</time></trkpt><trkpt lat="45.800027702434775" lon="8.873879317015147"><ele>330.0</ele><time>2026-04-04T13:03:42Z</time></trkpt><trkpt lat="45.80007280999883" lon="8.873779565466943"><ele>328.0</ele><time>2026-04-04T13:03:43Z</time></trkpt><trkpt lat="45.80012414905097" lon="8.873675101786231"><ele>326.0</ele><time>2026-04-04T13:03:44Z</time></trkpt><trkpt lat="45.80017096244329" lon="8.873580453629877"><ele>326.0</ele><time>2026-04-04T13:03:46Z</time></trkpt><trkpt lat="45.800211104685616" lon="8.873495455987946"><ele>326.0</ele><time>2026-04-04T13:03:52Z</time></trkpt><trkpt lat="45.8002448697232" lon="8.873412965536007"><ele>326.0</ele><time>2026-04-04T13:03:55Z</time></trkpt><trkpt lat="45.80028004273022" lon="8.873322552571949"><ele>326.0</ele><time>2026-04-04T13:03:57Z</time></trkpt><trkpt lat="45.80035669125826" lon="8.873176643861683"><ele>326.0</ele><time>2026-04-04T13:03:59Z</time></trkpt><trkpt lat="45.80041923546167" lon="8.873097778909065"><ele>326.0</ele><time>2026-04-04T13:04:00Z</time></trkpt><trkpt lat="45.80049745265234" lon="8.873008153409133"><ele>325.0</ele><time>2026-04-04T13:04:01Z</time></trkpt><trkpt lat="45.800575639855914" lon="8.87295119450692"><ele>324.0</ele><time>2026-04-04T13:04:02Z</time></trkpt><trkpt lat="45.80066203491175" lon="8.872930570897633"><ele>323.0</ele><time>2026-04-04T13:04:03Z</time></trkpt><trkpt lat="45.80075097831599" lon="8.872950556501062"><ele>322.0</ele><time>2026-04-04T13:04:04Z</time></trkpt><trkpt lat="45.80083465648349" lon="8.872974305938268"><ele>321.0</ele><time>2026-04-04T13:04:05Z</time></trkpt><trkpt lat="45.80091811906388" lon="8.873006114455412"><ele>320.0</ele><time>2026-04-04T13:04:06Z</time></trkpt><trkpt lat="45.800996996812046" lon="8.8730385786975"><ele>317.5</ele><time>2026-04-04T13:04:07Z</time></trkpt><trkpt lat="45.801072266226726" lon="8.87307457136009"><ele>315.0</ele><time>2026-04-04T13:04:08Z</time></trkpt><trkpt lat="45.80114877515754" lon="8.873111165699912"><ele>312.5</ele><time>2026-04-04T13:04:09Z</time></trkpt><trkpt lat="45.80121948016201" lon="8.873121317718027"><ele>310.0</ele><time>2026-04-04T13:04:10Z</time></trkpt><trkpt lat="45.80134215003256" lon="8.873054419062807"><ele>307.5</ele><time>2026-04-04T13:04:12Z</time></trkpt><trkpt lat="45.80138636987751" lon="8.872973214005617"><ele>305.0</ele><time>2026-04-04T13:04:13Z</time></trkpt><trkpt lat="45.80142922602824" lon="8.872883950740652"><ele>305.0</ele><time>2026-04-04T13:04:14Z</time></trkpt><trkpt lat="45.80145597630657" lon="8.8727940126613"><ele>305.0</ele><time>2026-04-04T13:04:15Z</time></trkpt><trkpt lat="45.801492216564085" lon="8.872715180737387"><ele>305.0</ele><time>2026-04-04T13:04:16Z</time></trkpt><trkpt lat="45.80153107059303" lon="8.872535771721953"><ele>305.0</ele><time>2026-04-04T13:04:18Z</time></trkpt><trkpt lat="45.801558730233495" lon="8.872388924071313"><ele>305.0</ele><time>2026-04-04T13:04:20Z</time></trkpt><trkpt lat="45.801575129660854" lon="8.872282414814403"><ele>305.0</ele><time>2026-04-04T13:04:21Z</time></trkpt><trkpt lat="45.801579449533776" lon="8.87215752251554"><ele>305.0</ele><time>2026-04-04T13:04:23Z</time></trkpt><trkpt lat="45.801610417072574" lon="8.872066051281921"><ele>305.0</ele><time>2026-04-04T13:04:25Z</time></trkpt><trkpt lat="45.80170089156847" lon="8.87202880046416"><ele>305.0</ele><time>2026-04-04T13:04:29Z</time></trkpt><trkpt lat="45.801767837046555" lon="8.871979421784033"><ele>305.0</ele><time>2026-04-04T13:04:30Z</time></trkpt><trkpt lat="45.80181307603865" lon="8.87189169761073"><ele>305.0</ele><time>2026-04-04T13:04:31Z</time></trkpt><trkpt lat="45.80182929727603" lon="8.871772614655717"><ele>305.0</ele><time>2026-04-04T13:04:32Z</time></trkpt><trkpt lat="45.80180580862446" lon="8.871644256172923"><ele>305.0</ele><time>2026-04-04T13:04:33Z</time></trkpt><trkpt lat="45.801749798576985" lon="8.871553111429632"><ele>305.0</ele><time>2026-04-04T13:04:34Z</time></trkpt><trkpt lat="45.801674563288124" lon="8.871499023649768"><ele>305.0</ele><time>2026-04-04T13:04:35Z</time></trkpt><trkpt lat="45.801596586868484" lon="8.871466379682126"><ele>305.0</ele><time>2026-04-04T13:04:36Z</time></trkpt><trkpt lat="45.80154913405373" lon="8.871351920467747"><ele>305.0</ele><time>2026-04-04T13:04:37.001Z</time></trkpt><trkpt lat="45.80149486190306" lon="8.871235694575532"><ele>305.0</ele><time>2026-04-04T13:04:38.001Z</time></trkpt><trkpt lat="45.80145929990548" lon="8.87110546193653"><ele>305.0</ele><time>2026-04-04T13:04:39.001Z</time></trkpt><trkpt lat="45.80142982849047" lon="8.870963907084207"><ele>305.0</ele><time>2026-04-04T13:04:40.001Z</time></trkpt><trkpt lat="45.801401801474476" lon="8.870836844801156"><ele>305.0</ele><time>2026-04-04T13:04:41.001Z</time></trkpt><trkpt lat="45.80139150933897" lon="8.870688781571753"><ele>305.0</ele><time>2026-04-04T13:04:42.001Z</time></trkpt><trkpt lat="45.801392072034105" lon="8.870512141452934"><ele>305.0</ele><time>2026-04-04T13:04:43.001Z</time></trkpt><trkpt lat="45.801418846139406" lon="8.87033173607816"><ele>309.0</ele><time>2026-04-04T13:04:44.001Z</time></trkpt><trkpt lat="45.80143845822138" lon="8.870128999609994"><ele>313.0</ele><time>2026-04-04T13:04:45.001Z</time></trkpt><trkpt lat="45.801472153950655" lon="8.869863724782155"><ele>317.0</ele><time>2026-04-04T13:04:46.001Z</time></trkpt><trkpt lat="45.8015075244098" lon="8.869571476613226"><ele>317.0</ele><time>2026-04-04T13:04:47.001Z</time></trkpt><trkpt lat="45.80154297445816" lon="8.869288305195086"><ele>317.0</ele><time>2026-04-04T13:04:48.001Z</time></trkpt><trkpt lat="45.80157990431473" lon="8.869016719559818"><ele>317.0</ele><time>2026-04-04T13:04:49.001Z</time></trkpt><trkpt lat="45.801614418138435" lon="8.86877083150859"><ele>317.0</ele><time>2026-04-04T13:04:50.001Z</time></trkpt><trkpt lat="45.801645953098735" lon="8.868538179632738"><ele>317.0</ele><time>2026-04-04T13:04:51.001Z</time></trkpt><trkpt lat="45.801676658933" lon="8.868321403199827"><ele>317.0</ele><time>2026-04-04T13:04:52.001Z</time></trkpt><trkpt lat="45.80170727539931" lon="8.868119339302309"><ele>316.0</ele><time>2026-04-04T13:04:53.001Z</time></trkpt><trkpt lat="45.80174324912808" lon="8.867949692931102"><ele>315.0</ele><time>2026-04-04T13:04:54.001Z</time></trkpt><trkpt lat="45.80178808102685" lon="8.867792443579106"><ele>314.0</ele><time>2026-04-04T13:04:55.001Z</time></trkpt><trkpt lat="45.801831370786765" lon="8.867660620690467"><ele>313.0</ele><time>2026-04-04T13:04:56.001Z</time></trkpt><trkpt lat="45.80187599527626" lon="8.86752541584711"><ele>312.0</ele><time>2026-04-04T13:04:57.001Z</time></trkpt><trkpt lat="45.80191023436074" lon="8.867421749450127"><ele>316.8333333333333</ele><time>2026-04-04T13:04:58.001Z</time></trkpt><trkpt lat="45.801941118085345" lon="8.867328858074941"><ele>321.6666666666667</ele><time>2026-04-04T13:04:59.001Z</time></trkpt><trkpt lat="45.80197479436825" lon="8.867229553604687"><ele>326.5</ele><time>2026-04-04T13:05:00.001Z</time></trkpt><trkpt lat="45.80200677727518" lon="8.867137367929653"><ele>331.33333333333337</ele><time>2026-04-04T13:05:01.001Z</time></trkpt><trkpt lat="45.80204256767095" lon="8.86704570413393"><ele>336.1666666666667</ele><time>2026-04-04T13:05:02.001Z</time></trkpt><trkpt lat="45.80209242379687" lon="8.866946764872147"><ele>341.0</ele><time>2026-04-04T13:05:03.001Z</time></trkpt><trkpt lat="45.80216946560176" lon="8.866832360942693"><ele>333.6666666666667</ele><time>2026-04-04T13:05:04.001Z</time></trkpt><trkpt lat="45.80227918454477" lon="8.866692732830817"><ele>326.3333333333333</ele><time>2026-04-04T13:05:05.001Z</time></trkpt><trkpt lat="45.80240390656496" lon="8.866545577211514"><ele>319.0</ele><time>2026-04-04T13:05:06.001Z</time></trkpt><trkpt lat="45.80253076248766" lon="8.866398861903182"><ele>319.0</ele><time>2026-04-04T13:05:07.001Z</time></trkpt><trkpt lat="45.80266340774271" lon="8.866240937328637"><ele>319.0</ele><time>2026-04-04T13:05:08.001Z</time></trkpt><trkpt lat="45.802793890454915" lon="8.866042380049718"><ele>319.0</ele><time>2026-04-04T13:05:09.001Z</time></trkpt><trkpt lat="45.80290494372297" lon="8.865857917062993"><ele>321.0</ele><time>2026-04-04T13:05:10.001Z</time></trkpt><trkpt lat="45.80298999660957" lon="8.865683814387298"><ele>323.0</ele><time>2026-04-04T13:05:11.001Z</time></trkpt><trkpt lat="45.803078594494245" lon="8.865531554676737"><ele>325.0</ele><time>2026-04-04T13:05:12.001Z</time></trkpt><trkpt lat="45.80317307800552" lon="8.865396730979588"><ele>327.0</ele><time>2026-04-04T13:05:13.001Z</time></trkpt><trkpt lat="45.80327471609275" lon="8.865273363365821"><ele>327.0</ele><time>2026-04-04T13:05:14.001Z</time></trkpt><trkpt lat="45.80337491942357" lon="8.865163561654086"><ele>327.0</ele><time>2026-04-04T13:05:15.001Z</time></trkpt><trkpt lat="45.803455761847566" lon="8.865068713425643"><ele>327.0</ele><time>2026-04-04T13:05:16.001Z</time></trkpt><trkpt lat="45.80354878923892" lon="8.86498126348118"><ele>327.0</ele><time>2026-04-04T13:05:17.001Z</time></trkpt><trkpt lat="45.80364200719568" lon="8.86490154015827"><ele>326.5</ele><time>2026-04-04T13:05:18.001Z</time></trkpt><trkpt lat="45.8037487387195" lon="8.864812661697606"><ele>326.0</ele><time>2026-04-04T13:05:19.001Z</time></trkpt><trkpt lat="45.80385317570216" lon="8.86470908543629"><ele>325.5</ele><time>2026-04-04T13:05:20.001Z</time></trkpt><trkpt lat="45.803955417385005" lon="8.864610013878353"><ele>325.0</ele><time>2026-04-04T13:05:21.001Z</time></trkpt><trkpt lat="45.804061318608866" lon="8.864488648278247"><ele>325.0</ele><time>2026-04-04T13:05:22.001Z</time></trkpt><trkpt lat="45.80420591652936" lon="8.864353891321898"><ele>325.0</ele><time>2026-04-04T13:05:23.001Z</time></trkpt><trkpt lat="45.80433618959073" lon="8.864237950759893"><ele>325.0</ele><time>2026-04-04T13:05:24.001Z</time></trkpt><trkpt lat="45.804441257966964" lon="8.864126192352186"><ele>321.8</ele><time>2026-04-04T13:05:25.001Z</time></trkpt><trkpt lat="45.80452243207775" lon="8.86401356388406"><ele>318.6</ele><time>2026-04-04T13:05:26.001Z</time></trkpt><trkpt lat="45.804593569540614" lon="8.863919016335851"><ele>315.4</ele><time>2026-04-04T13:05:27.001Z</time></trkpt><trkpt lat="45.80466036846449" lon="8.863846127230364"><ele>312.2</ele><time>2026-04-04T13:05:28.001Z</time></trkpt><trkpt lat="45.80473487271326" lon="8.863788905498739"><ele>309.0</ele><time>2026-04-04T13:05:29.001Z</time></trkpt><trkpt lat="45.80480953824157" lon="8.86374127464844"><ele>309.0</ele><time>2026-04-04T13:05:30.001Z</time></trkpt><trkpt lat="45.80488457309078" lon="8.863704645953204"><ele>309.0</ele><time>2026-04-04T13:05:31.001Z</time></trkpt><trkpt lat="45.804952225711155" lon="8.863701517745872"><ele>309.0</ele><time>2026-04-04T13:05:34.001Z</time></trkpt><trkpt lat="45.80509701471275" lon="8.863704010745616"><ele>309.0</ele><time>2026-04-04T13:05:36.001Z</time></trkpt><trkpt lat="45.80517786444415" lon="8.863708953862973"><ele>309.0</ele><time>2026-04-04T13:05:37.001Z</time></trkpt><trkpt lat="45.80526358683655" lon="8.8636912046431"><ele>308.4</ele><time>2026-04-04T13:05:38.001Z</time></trkpt><trkpt lat="45.8053269516364" lon="8.863647886552933"><ele>307.79999999999995</ele><time>2026-04-04T13:05:39.001Z</time></trkpt><trkpt lat="45.805398310031414" lon="8.863473497307016"><ele>307.20000000000005</ele><time>2026-04-04T13:05:41.001Z</time></trkpt><trkpt lat="45.805409409983014" lon="8.8633570618941"><ele>306.6</ele><time>2026-04-04T13:05:42.001Z</time></trkpt><trkpt lat="45.80540635885067" lon="8.863229446782965"><ele>306.0</ele><time>2026-04-04T13:05:43.001Z</time></trkpt><trkpt lat="45.805403055674525" lon="8.863098360105683"><ele>306.0</ele><time>2026-04-04T13:05:44.001Z</time></trkpt><trkpt lat="45.805408887443555" lon="8.86296602794245"><ele>306.0</ele><time>2026-04-04T13:05:45.001Z</time></trkpt><trkpt lat="45.80543351095355" lon="8.862822358803102"><ele>306.0</ele><time>2026-04-04T13:05:46.001Z</time></trkpt><trkpt lat="45.8054740840321" lon="8.862670247149774"><ele>306.0</ele><time>2026-04-04T13:05:47.001Z</time></trkpt><trkpt lat="45.80553655111329" lon="8.862519234081471"><ele>306.0</ele><time>2026-04-04T13:05:47.999Z</time></trkpt><trkpt lat="45.8056129363409" lon="8.862362746302436"><ele>306.0</ele><time>2026-04-04T13:05:48.999Z</time></trkpt><trkpt lat="45.80569473510343" lon="8.86219871249483"><ele>306.0</ele><time>2026-04-04T13:05:49.999Z</time></trkpt><trkpt lat="45.805776969720185" lon="8.862030018755267"><ele>306.0</ele><time>2026-04-04T13:05:50.999Z</time></trkpt><trkpt lat="45.8058692306686" lon="8.861851956027088"><ele>306.0</ele><time>2026-04-04T13:05:51.999Z</time></trkpt><trkpt lat="45.80596421838902" lon="8.861672499561529"><ele>306.0</ele><time>2026-04-04T13:05:53Z</time></trkpt><trkpt lat="45.80605922917252" lon="8.861500595331487"><ele>306.0</ele><time>2026-04-04T13:05:54Z</time></trkpt><trkpt lat="45.806159250630856" lon="8.861316421212386"><ele>306.0</ele><time>2026-04-04T13:05:55Z</time></trkpt><trkpt lat="45.806256707902094" lon="8.861127454208546"><ele>306.6666666666667</ele><time>2026-04-04T13:05:56Z</time></trkpt><trkpt lat="45.806355481339594" lon="8.86094421452664"><ele>307.33333333333337</ele><time>2026-04-04T13:05:57Z</time></trkpt><trkpt lat="45.80645710981144" lon="8.860756877021135"><ele>308.0</ele><time>2026-04-04T13:05:58Z</time></trkpt><trkpt lat="45.80656064185457" lon="8.860571952669558"><ele>308.0</ele><time>2026-04-04T13:05:59Z</time></trkpt><trkpt lat="45.80666149162818" lon="8.860386366856462"><ele>308.0</ele><time>2026-04-04T13:06:00Z</time></trkpt><trkpt lat="45.80676716891564" lon="8.860201505028074"><ele>308.0</ele><time>2026-04-04T13:06:01Z</time></trkpt><trkpt lat="45.80688938200649" lon="8.86001807656322"><ele>310.6666666666667</ele><time>2026-04-04T13:06:02Z</time></trkpt><trkpt lat="45.80704416721294" lon="8.859854877160616"><ele>313.3333333333333</ele><time>2026-04-04T13:06:03Z</time></trkpt><trkpt lat="45.80721729447873" lon="8.859730828276533"><ele>316.0</ele><time>2026-04-04T13:06:04Z</time></trkpt><trkpt lat="45.807374472979866" lon="8.8596073466637"><ele>316.0</ele><time>2026-04-04T13:06:05Z</time></trkpt><trkpt lat="45.80754748933273" lon="8.859520079558445"><ele>316.0</ele><time>2026-04-04T13:06:06Z</time></trkpt><trkpt lat="45.80772945024196" lon="8.859452658020189"><ele>316.0</ele><time>2026-04-04T13:06:07Z</time></trkpt><trkpt lat="45.8079115157522" lon="8.859407577169037"><ele>316.66666666666663</ele><time>2026-04-04T13:06:08Z</time></trkpt><trkpt lat="45.808105827710456" lon="8.859331122378185"><ele>317.3333333333333</ele><time>2026-04-04T13:06:09Z</time></trkpt><trkpt lat="45.80834826068338" lon="8.859265361281944"><ele>318.0</ele><time>2026-04-04T13:06:10Z</time></trkpt><trkpt lat="45.80856944968565" lon="8.859181148858612"><ele>322.6666666666667</ele><time>2026-04-04T13:06:11Z</time></trkpt><trkpt lat="45.80874917265148" lon="8.859110703534123"><ele>327.33333333333337</ele><time>2026-04-04T13:06:12Z</time></trkpt><trkpt lat="45.80886888284531" lon="8.858983149979018"><ele>332.0</ele><time>2026-04-04T13:06:13Z</time></trkpt><trkpt lat="45.808931358644685" lon="8.858784889230233"><ele>332.0</ele><time>2026-04-04T13:06:14Z</time></trkpt><trkpt lat="45.8089475469425" lon="8.858577315751967"><ele>332.0</ele><time>2026-04-04T13:06:15Z</time></trkpt><trkpt lat="45.80895043535485" lon="8.858327215289492"><ele>332.0</ele><time>2026-04-04T13:06:16Z</time></trkpt><trkpt lat="45.808957890962084" lon="8.85805249387526"><ele>333.0</ele><time>2026-04-04T13:06:17Z</time></trkpt><trkpt lat="45.808993993581886" lon="8.857772351403565"><ele>334.0</ele><time>2026-04-04T13:06:18Z</time></trkpt><trkpt lat="45.80901731670353" lon="8.857459483361078"><ele>335.0</ele><time>2026-04-04T13:06:19Z</time></trkpt><trkpt lat="45.80903144963856" lon="8.857165640760142"><ele>335.0</ele><time>2026-04-04T13:06:20Z</time></trkpt><trkpt lat="45.80906635632449" lon="8.856916192912315"><ele>335.0</ele><time>2026-04-04T13:06:21Z</time></trkpt><trkpt lat="45.80907788514337" lon="8.856708655325255"><ele>335.0</ele><time>2026-04-04T13:06:22Z</time></trkpt><trkpt lat="45.809091660598845" lon="8.856525776202863"><ele>334.0</ele><time>2026-04-04T13:06:23Z</time></trkpt><trkpt lat="45.80912705318852" lon="8.856363460054913"><ele>333.0</ele><time>2026-04-04T13:06:24Z</time></trkpt><trkpt lat="45.809190235668765" lon="8.856232762678172"><ele>332.0</ele><time>2026-04-04T13:06:25Z</time></trkpt><trkpt lat="45.809262817695604" lon="8.85610536232444"><ele>331.0</ele><time>2026-04-04T13:06:26Z</time></trkpt><trkpt lat="45.80933648266193" lon="8.856003873810515"><ele>330.0</ele><time>2026-04-04T13:06:27Z</time></trkpt><trkpt lat="45.80940250079349" lon="8.855910378241546"><ele>333.4</ele><time>2026-04-04T13:06:28Z</time></trkpt><trkpt lat="45.80947411578887" lon="8.855804747472956"><ele>336.8</ele><time>2026-04-04T13:06:29Z</time></trkpt><trkpt lat="45.80953969855117" lon="8.855705622553216"><ele>340.20000000000005</ele><time>2026-04-04T13:06:30Z</time></trkpt><trkpt lat="45.80959596264429" lon="8.855625079548668"><ele>343.6</ele><time>2026-04-04T13:06:31Z</time></trkpt><trkpt lat="45.80965284472665" lon="8.85553938746561"><ele>347.0</ele><time>2026-04-04T13:06:32Z</time></trkpt><trkpt lat="45.809715070256125" lon="8.855437661046354"><ele>347.0</ele><time>2026-04-04T13:06:33Z</time></trkpt><trkpt lat="45.809783314756864" lon="8.855330156358454"><ele>347.0</ele><time>2026-04-04T13:06:34Z</time></trkpt><trkpt lat="45.80985069063986" lon="8.855209665683804"><ele>347.0</ele><time>2026-04-04T13:06:35Z</time></trkpt><trkpt lat="45.8099120401539" lon="8.855086132808744"><ele>347.0</ele><time>2026-04-04T13:06:36Z</time></trkpt><trkpt lat="45.809969833338506" lon="8.854982824886749"><ele>347.0</ele><time>2026-04-04T13:06:37Z</time></trkpt><trkpt lat="45.810021375777985" lon="8.854922379997715"><ele>347.5</ele><time>2026-04-04T13:06:38Z</time></trkpt><trkpt lat="45.81009733966435" lon="8.85482155228227"><ele>348.0</ele><time>2026-04-04T13:06:40Z</time></trkpt><trkpt lat="45.8101995557445" lon="8.854733156918844"><ele>348.5</ele><time>2026-04-04T13:06:42Z</time></trkpt><trkpt lat="45.81034389536053" lon="8.854658771595417"><ele>349.0</ele><time>2026-04-04T13:06:44Z</time></trkpt><trkpt lat="45.810463385773836" lon="8.85460648962309"><ele>350.2</ele><time>2026-04-04T13:06:45Z</time></trkpt><trkpt lat="45.81056709646588" lon="8.854554078972182"><ele>351.4</ele><time>2026-04-04T13:06:46Z</time></trkpt><trkpt lat="45.810667037388285" lon="8.854506931683197"><ele>352.6</ele><time>2026-04-04T13:06:47Z</time></trkpt><trkpt lat="45.81075520106883" lon="8.854465814005334"><ele>353.8</ele><time>2026-04-04T13:06:48Z</time></trkpt><trkpt lat="45.810826547244574" lon="8.8544258851043"><ele>355.0</ele><time>2026-04-04T13:06:49Z</time></trkpt><trkpt lat="45.810919784406636" lon="8.854381648493154"><ele>355.0</ele><time>2026-04-04T13:06:51Z</time></trkpt><trkpt lat="45.81098406074834" lon="8.854346385281314"><ele>355.0</ele><time>2026-04-04T13:06:52Z</time></trkpt><trkpt lat="45.8110724136446" lon="8.854300284756588"><ele>355.0</ele><time>2026-04-04T13:06:53Z</time></trkpt><trkpt lat="45.8111910441865" lon="8.854243407690278"><ele>355.0</ele><time>2026-04-04T13:06:54Z</time></trkpt><trkpt lat="45.81134173050533" lon="8.854184027185878"><ele>355.0</ele><time>2026-04-04T13:06:55Z</time></trkpt><trkpt lat="45.811472221992524" lon="8.854107208973907"><ele>357.5</ele><time>2026-04-04T13:06:56Z</time></trkpt><trkpt lat="45.811593148123414" lon="8.854046173033613"><ele>360.0</ele><time>2026-04-04T13:06:57.001Z</time></trkpt><trkpt lat="45.8117082100229" lon="8.853985446351583"><ele>362.5</ele><time>2026-04-04T13:06:58.001Z</time></trkpt><trkpt lat="45.81182557333517" lon="8.853927681537227"><ele>365.0</ele><time>2026-04-04T13:06:59.001Z</time></trkpt><trkpt lat="45.81192306085323" lon="8.85387426540164"><ele>365.1666666666667</ele><time>2026-04-04T13:07:00.001Z</time></trkpt><trkpt lat="45.81199974337182" lon="8.85380468142231"><ele>365.33333333333337</ele><time>2026-04-04T13:07:01.001Z</time></trkpt><trkpt lat="45.81206358886002" lon="8.853716266396875"><ele>365.5</ele><time>2026-04-04T13:07:02.001Z</time></trkpt><trkpt lat="45.812111773379335" lon="8.85364088387648"><ele>365.6666666666667</ele><time>2026-04-04T13:07:03.001Z</time></trkpt><trkpt lat="45.81216624018851" lon="8.85356390145334"><ele>365.8333333333333</ele><time>2026-04-04T13:07:04.001Z</time></trkpt><trkpt lat="45.81224455410981" lon="8.853459877514997"><ele>366.0</ele><time>2026-04-04T13:07:05.001Z</time></trkpt><trkpt lat="45.81235934404795" lon="8.853335602915646"><ele>367.0</ele><time>2026-04-04T13:07:06.001Z</time></trkpt><trkpt lat="45.81248198872598" lon="8.853195966101463"><ele>368.0</ele><time>2026-04-04T13:07:07.001Z</time></trkpt><trkpt lat="45.812596161001984" lon="8.853050334109183"><ele>369.0</ele><time>2026-04-04T13:07:08.001Z</time></trkpt><trkpt lat="45.81272620245403" lon="8.852881141416091"><ele>369.6666666666667</ele><time>2026-04-04T13:07:09.001Z</time></trkpt><trkpt lat="45.812859131191615" lon="8.852709780322403"><ele>370.33333333333337</ele><time>2026-04-04T13:07:10.001Z</time></trkpt><trkpt lat="45.81299950763172" lon="8.852523823172136"><ele>371.0</ele><time>2026-04-04T13:07:11.001Z</time></trkpt><trkpt lat="45.813131842298134" lon="8.852342260177268"><ele>371.0</ele><time>2026-04-04T13:07:12.001Z</time></trkpt><trkpt lat="45.81324828635406" lon="8.852200394765319"><ele>371.0</ele><time>2026-04-04T13:07:13.001Z</time></trkpt><trkpt lat="45.81335876210307" lon="8.852066808257579"><ele>371.0</ele><time>2026-04-04T13:07:14.001Z</time></trkpt><trkpt lat="45.813465044934134" lon="8.851926781930246"><ele>371.0</ele><time>2026-04-04T13:07:15.001Z</time></trkpt><trkpt lat="45.813569432560534" lon="8.851781909050631"><ele>373.0</ele><time>2026-04-04T13:07:16.001Z</time></trkpt><trkpt lat="45.81371241792035" lon="8.851632952970704"><ele>375.0</ele><time>2026-04-04T13:07:17.001Z</time></trkpt><trkpt lat="45.81384022300231" lon="8.851441001092292"><ele>377.0</ele><time>2026-04-04T13:07:18.001Z</time></trkpt><trkpt lat="45.81395000734034" lon="8.851259107926005"><ele>377.0</ele><time>2026-04-04T13:07:19.001Z</time></trkpt><trkpt lat="45.81402076014791" lon="8.851028823461204"><ele>377.0</ele><time>2026-04-04T13:07:20.001Z</time></trkpt><trkpt lat="45.81406973061016" lon="8.850775513581304"><ele>377.0</ele><time>2026-04-04T13:07:21.001Z</time></trkpt><trkpt lat="45.81415995359154" lon="8.850551171560838"><ele>375.6666666666667</ele><time>2026-04-04T13:07:22.001Z</time></trkpt><trkpt lat="45.814262271618304" lon="8.850316285595241"><ele>374.3333333333333</ele><time>2026-04-04T13:07:23.001Z</time></trkpt><trkpt lat="45.81436649083088" lon="8.850170877642746"><ele>373.0</ele><time>2026-04-04T13:07:24.001Z</time></trkpt><trkpt lat="45.81446020802453" lon="8.849990132364457"><ele>372.5</ele><time>2026-04-04T13:07:25.001Z</time></trkpt><trkpt lat="45.81455385064665" lon="8.849859769839535"><ele>372.0</ele><time>2026-04-04T13:07:26.001Z</time></trkpt><trkpt lat="45.81463477703383" lon="8.849735004609727"><ele>371.5</ele><time>2026-04-04T13:07:27.001Z</time></trkpt><trkpt lat="45.81471882203138" lon="8.849611681576548"><ele>371.0</ele><time>2026-04-04T13:07:28.001Z</time></trkpt><trkpt lat="45.814798455911266" lon="8.84949020279602"><ele>371.0</ele><time>2026-04-04T13:07:29.001Z</time></trkpt><trkpt lat="45.81487266332164" lon="8.849380948593675"><ele>371.0</ele><time>2026-04-04T13:07:30.001Z</time></trkpt><trkpt lat="45.81493168194683" lon="8.84928003405297"><ele>371.0</ele><time>2026-04-04T13:07:31.001Z</time></trkpt><trkpt lat="45.81498675805927" lon="8.849195447204364"><ele>371.0</ele><time>2026-04-04T13:07:32.001Z</time></trkpt><trkpt lat="45.815061948437325" lon="8.84908364070361"><ele>371.0</ele><time>2026-04-04T13:07:34.001Z</time></trkpt><trkpt lat="45.81511077923872" lon="8.848999029139241"><ele>371.0</ele><time>2026-04-04T13:07:36.001Z</time></trkpt><trkpt lat="45.81515744755843" lon="8.848911131482527"><ele>371.0</ele><time>2026-04-04T13:07:39.001Z</time></trkpt><trkpt lat="45.81522254705496" lon="8.848833491907751"><ele>371.0</ele><time>2026-04-04T13:07:41.001Z</time></trkpt><trkpt lat="45.815282460913046" lon="8.848701574450864"><ele>371.0</ele><time>2026-04-04T13:07:42.001Z</time></trkpt><trkpt lat="45.81536750229751" lon="8.848570092771949"><ele>371.0</ele><time>2026-04-04T13:07:43.001Z</time></trkpt><trkpt lat="45.81546260911786" lon="8.848425074081474"><ele>371.33333333333337</ele><time>2026-04-04T13:07:44.001Z</time></trkpt><trkpt lat="45.81555618314439" lon="8.8482664362464"><ele>371.6666666666667</ele><time>2026-04-04T13:07:45.001Z</time></trkpt><trkpt lat="45.8156546155973" lon="8.848095924537857"><ele>372.0</ele><time>2026-04-04T13:07:46.001Z</time></trkpt><trkpt lat="45.815764231818356" lon="8.847912656343416"><ele>372.0</ele><time>2026-04-04T13:07:47.001Z</time></trkpt><trkpt lat="45.81586145902711" lon="8.847747900373568"><ele>372.0</ele><time>2026-04-04T13:07:48.001Z</time></trkpt><trkpt lat="45.81596235406025" lon="8.847586019979257"><ele>372.0</ele><time>2026-04-04T13:07:49.001Z</time></trkpt><trkpt lat="45.81606774498155" lon="8.847424813856454"><ele>371.6666666666667</ele><time>2026-04-04T13:07:50.001Z</time></trkpt><trkpt lat="45.81618390778117" lon="8.847268438469692"><ele>371.33333333333337</ele><time>2026-04-04T13:07:51.001Z</time></trkpt><trkpt lat="45.81628118379398" lon="8.847084666145143"><ele>371.0</ele><time>2026-04-04T13:07:52.001Z</time></trkpt><trkpt lat="45.81638447616696" lon="8.846915628419975"><ele>371.33333333333337</ele><time>2026-04-04T13:07:53.001Z</time></trkpt><trkpt lat="45.816501243702035" lon="8.846734436781997"><ele>371.6666666666667</ele><time>2026-04-04T13:07:53.999Z</time></trkpt><trkpt lat="45.81661832422768" lon="8.846563430859646"><ele>372.0</ele><time>2026-04-04T13:07:54.999Z</time></trkpt><trkpt lat="45.816724051691764" lon="8.84638706356055"><ele>372.3333333333333</ele><time>2026-04-04T13:07:55.999Z</time></trkpt><trkpt lat="45.81682507674453" lon="8.846222625886409"><ele>372.66666666666663</ele><time>2026-04-04T13:07:56.999Z</time></trkpt><trkpt lat="45.816933279811344" lon="8.846045867787241"><ele>373.0</ele><time>2026-04-04T13:07:57.999Z</time></trkpt><trkpt lat="45.81705362117682" lon="8.8458683900006"><ele>373.25</ele><time>2026-04-04T13:07:58.999Z</time></trkpt><trkpt lat="45.817149692034455" lon="8.845721865219275"><ele>373.5</ele><time>2026-04-04T13:07:59.999Z</time></trkpt><trkpt lat="45.81723422515383" lon="8.845563325694231"><ele>373.75</ele><time>2026-04-04T13:08:00.999Z</time></trkpt><trkpt lat="45.81731979014969" lon="8.845434335445537"><ele>374.0</ele><time>2026-04-04T13:08:01.999Z</time></trkpt><trkpt lat="45.817402038762715" lon="8.845308544706413"><ele>374.0</ele><time>2026-04-04T13:08:02.999Z</time></trkpt><trkpt lat="45.81747727480007" lon="8.845188789727993"><ele>374.0</ele><time>2026-04-04T13:08:03.999Z</time></trkpt><trkpt lat="45.817552387087105" lon="8.84507513900151"><ele>374.0</ele><time>2026-04-04T13:08:04.999Z</time></trkpt><trkpt lat="45.81763249851538" lon="8.844958188530567"><ele>374.0</ele><time>2026-04-04T13:08:05.999Z</time></trkpt><trkpt lat="45.81770148718977" lon="8.844839625794316"><ele>374.0</ele><time>2026-04-04T13:08:06.999Z</time></trkpt><trkpt lat="45.817762792474184" lon="8.844733571512734"><ele>374.0</ele><time>2026-04-04T13:08:07.999Z</time></trkpt><trkpt lat="45.817818976992214" lon="8.844644153479843"><ele>374.0</ele><time>2026-04-04T13:08:08.999Z</time></trkpt><trkpt lat="45.81787719544991" lon="8.84456219018454"><ele>374.0</ele><time>2026-04-04T13:08:09.999Z</time></trkpt><trkpt lat="45.81793328392702" lon="8.844476105891001"><ele>374.0</ele><time>2026-04-04T13:08:10.999Z</time></trkpt><trkpt lat="45.818001504951255" lon="8.8443832271229"><ele>374.0</ele><time>2026-04-04T13:08:11.999Z</time></trkpt><trkpt lat="45.818072578925914" lon="8.844288735038207"><ele>374.0</ele><time>2026-04-04T13:08:13Z</time></trkpt><trkpt lat="45.81813902518967" lon="8.844215993056942"><ele>374.1666666666667</ele><time>2026-04-04T13:08:14Z</time></trkpt><trkpt lat="45.81819805594222" lon="8.844115944192785"><ele>374.33333333333337</ele><time>2026-04-04T13:08:15Z</time></trkpt><trkpt lat="45.81825423621181" lon="8.844028800780633"><ele>374.5</ele><time>2026-04-04T13:08:16Z</time></trkpt><trkpt lat="45.8182971865457" lon="8.843950759589642"><ele>374.6666666666667</ele><time>2026-04-04T13:08:17Z</time></trkpt><trkpt lat="45.81834332356566" lon="8.843861116659609"><ele>374.8333333333333</ele><time>2026-04-04T13:08:18Z</time></trkpt><trkpt lat="45.81838201024602" lon="8.843764942022037"><ele>375.0</ele><time>2026-04-04T13:08:19Z</time></trkpt><trkpt lat="45.81842903346973" lon="8.84366589139373"><ele>375.0</ele><time>2026-04-04T13:08:20Z</time></trkpt><trkpt lat="45.81848250142129" lon="8.843577497405482"><ele>375.0</ele><time>2026-04-04T13:08:21Z</time></trkpt><trkpt lat="45.818538845846405" lon="8.843488795844898"><ele>375.0</ele><time>2026-04-04T13:08:22Z</time></trkpt><trkpt lat="45.818596325293264" lon="8.843380586467294"><ele>375.0</ele><time>2026-04-04T13:08:23Z</time></trkpt><trkpt lat="45.818657382582714" lon="8.843316944348908"><ele>375.0</ele><time>2026-04-04T13:08:24Z</time></trkpt><trkpt lat="45.81870649256988" lon="8.843237970290915"><ele>375.0</ele><time>2026-04-04T13:08:25Z</time></trkpt><trkpt lat="45.81875214135406" lon="8.843164562114382"><ele>375.0</ele><time>2026-04-04T13:08:26Z</time></trkpt><trkpt lat="45.81880943573561" lon="8.843072428909176"><ele>375.0</ele><time>2026-04-04T13:08:28Z</time></trkpt><trkpt lat="45.8186519300484" lon="8.842891790423016"><ele>375.0</ele><time>2026-04-04T13:08:37Z</time></trkpt><trkpt lat="45.81859480655533" lon="8.842845867725329"><ele>375.0</ele><time>2026-04-04T13:08:38Z</time></trkpt><trkpt lat="45.818525422911385" lon="8.842799918050593"><ele>375.0</ele><time>2026-04-04T13:08:39Z</time></trkpt><trkpt lat="45.818454959850826" lon="8.842748296400238"><ele>375.1666666666667</ele><time>2026-04-04T13:08:40Z</time></trkpt><trkpt lat="45.81839253988638" lon="8.84268110315435"><ele>375.3333333333333</ele><time>2026-04-04T13:08:41Z</time></trkpt><trkpt lat="45.81829829347891" lon="8.8426326208743"><ele>375.5</ele><time>2026-04-04T13:08:42Z</time></trkpt><trkpt lat="45.81821273606505" lon="8.842562270318782"><ele>375.66666666666663</ele><time>2026-04-04T13:08:43Z</time></trkpt><trkpt lat="45.81813422290018" lon="8.842506831767185"><ele>375.8333333333333</ele><time>2026-04-04T13:08:44Z</time></trkpt><trkpt lat="45.81805842605504" lon="8.842457286888015"><ele>376.0</ele><time>2026-04-04T13:08:45Z</time></trkpt><trkpt lat="45.8179898832268" lon="8.842399366559569"><ele>376.25</ele><time>2026-04-04T13:08:46Z</time></trkpt><trkpt lat="45.817875780240676" lon="8.842341631909232"><ele>376.5</ele><time>2026-04-04T13:08:48Z</time></trkpt><trkpt lat="45.8179121086137" lon="8.842161127742616"><ele>376.75</ele><time>2026-04-04T13:08:52Z</time></trkpt><trkpt lat="45.817947655483216" lon="8.841997207279015"><ele>377.0</ele><time>2026-04-04T13:08:53Z</time></trkpt><trkpt lat="45.81799679820241" lon="8.841840787635384"><ele>376.8</ele><time>2026-04-04T13:08:54Z</time></trkpt><trkpt lat="45.81804087322141" lon="8.841712072527203"><ele>376.6</ele><time>2026-04-04T13:08:55Z</time></trkpt><trkpt lat="45.81808501287788" lon="8.841484940341747"><ele>376.40000000000003</ele><time>2026-04-04T13:08:57Z</time></trkpt><trkpt lat="45.81812368156276" lon="8.841408418432025"><ele>376.20000000000005</ele><time>2026-04-04T13:08:58Z</time></trkpt><trkpt lat="45.81814663682185" lon="8.841307157193025"><ele>376.0</ele><time>2026-04-04T13:08:59Z</time></trkpt><trkpt lat="45.81818641106236" lon="8.841146919407896"><ele>376.0</ele><time>2026-04-04T13:09:01Z</time></trkpt><trkpt lat="45.818212127762635" lon="8.841050743536433"><ele>376.0</ele><time>2026-04-04T13:09:02Z</time></trkpt><trkpt lat="45.81824150256519" lon="8.8409408869785"><ele>376.0</ele><time>2026-04-04T13:09:03Z</time></trkpt><trkpt lat="45.81826707047248" lon="8.840845267628055"><ele>376.0</ele><time>2026-04-04T13:09:04.001Z</time></trkpt><trkpt lat="45.81830288639265" lon="8.84071132256521"><ele>376.0</ele><time>2026-04-04T13:09:06.001Z</time></trkpt><trkpt lat="45.8181026513998" lon="8.84059302110998"><ele>375.8333333333333</ele><time>2026-04-04T13:09:09.001Z</time></trkpt><trkpt lat="45.818031960764024" lon="8.840539729129622"><ele>375.66666666666663</ele><time>2026-04-04T13:09:10.001Z</time></trkpt><trkpt lat="45.817948016809105" lon="8.840501315587442"><ele>375.5</ele><time>2026-04-04T13:09:11.001Z</time></trkpt><trkpt lat="45.81786172811358" lon="8.840484317035946"><ele>375.3333333333333</ele><time>2026-04-04T13:09:12.001Z</time></trkpt><trkpt lat="45.81779323614158" lon="8.840450665305115"><ele>375.1666666666667</ele><time>2026-04-04T13:09:13.001Z</time></trkpt><trkpt lat="45.817702956664675" lon="8.840397801888162"><ele>375.0</ele><time>2026-04-04T13:09:15.001Z</time></trkpt><trkpt lat="45.81767264543013" lon="8.840254564901244"><ele>375.0</ele><time>2026-04-04T13:09:17.001Z</time></trkpt><trkpt lat="45.817695942788966" lon="8.84015012788056"><ele>375.0</ele><time>2026-04-04T13:09:18.001Z</time></trkpt><trkpt lat="45.81772542515373" lon="8.840021997305442"><ele>375.0</ele><time>2026-04-04T13:09:19.001Z</time></trkpt><trkpt lat="45.81774476265378" lon="8.839889199587077"><ele>375.0</ele><time>2026-04-04T13:09:20.001Z</time></trkpt><trkpt lat="45.817758095876535" lon="8.839753665293776"><ele>375.0</ele><time>2026-04-04T13:09:21.001Z</time></trkpt><trkpt lat="45.817773484654246" lon="8.839610875873793"><ele>375.0</ele><time>2026-04-04T13:09:22.001Z</time></trkpt><trkpt lat="45.81778761654972" lon="8.839456641660359"><ele>375.0</ele><time>2026-04-04T13:09:23.001Z</time></trkpt><trkpt lat="45.817824748678" lon="8.839292906302074"><ele>375.0</ele><time>2026-04-04T13:09:24.001Z</time></trkpt><trkpt lat="45.817833459053226" lon="8.83912692314186"><ele>375.0</ele><time>2026-04-04T13:09:25.001Z</time></trkpt><trkpt lat="45.81786923096614" lon="8.838960090102404"><ele>374.75</ele><time>2026-04-04T13:09:26.001Z</time></trkpt><trkpt lat="45.817878944750696" lon="8.838784236548411"><ele>374.5</ele><time>2026-04-04T13:09:27.001Z</time></trkpt><trkpt lat="45.81790675154152" lon="8.83860952414367"><ele>374.25</ele><time>2026-04-04T13:09:28.001Z</time></trkpt><trkpt lat="45.817931812968574" lon="8.83843990721373"><ele>374.0</ele><time>2026-04-04T13:09:29.001Z</time></trkpt><trkpt lat="45.817953033231426" lon="8.838275476221797"><ele>374.0</ele><time>2026-04-04T13:09:30.001Z</time></trkpt><trkpt lat="45.81797884438248" lon="8.838108526896415"><ele>374.0</ele><time>2026-04-04T13:09:31.001Z</time></trkpt><trkpt lat="45.818005237375075" lon="8.837945814804007"><ele>374.0</ele><time>2026-04-04T13:09:32.001Z</time></trkpt><trkpt lat="45.81802792937521" lon="8.837786819782094"><ele>374.0</ele><time>2026-04-04T13:09:33.001Z</time></trkpt><trkpt lat="45.81804166867995" lon="8.837625771978345"><ele>374.33333333333337</ele><time>2026-04-04T13:09:34.001Z</time></trkpt><trkpt lat="45.81804787568838" lon="8.837483739271365"><ele>374.6666666666667</ele><time>2026-04-04T13:09:35.001Z</time></trkpt><trkpt lat="45.81807460793446" lon="8.837353063471701"><ele>375.0</ele><time>2026-04-04T13:09:36.001Z</time></trkpt><trkpt lat="45.81808566278781" lon="8.837230501236201"><ele>375.3333333333333</ele><time>2026-04-04T13:09:37.001Z</time></trkpt><trkpt lat="45.81808177474726" lon="8.837106689876977"><ele>375.66666666666663</ele><time>2026-04-04T13:09:38.001Z</time></trkpt><trkpt lat="45.81810150203553" lon="8.836997285176071"><ele>376.0</ele><time>2026-04-04T13:09:39.001Z</time></trkpt><trkpt lat="45.81814786510297" lon="8.836928998965517"><ele>376.0</ele><time>2026-04-04T13:09:40.001Z</time></trkpt><trkpt lat="45.81820612273908" lon="8.83686775847911"><ele>376.0</ele><time>2026-04-04T13:09:41.001Z</time></trkpt><trkpt lat="45.818267712415185" lon="8.836822216869084"><ele>376.0</ele><time>2026-04-04T13:09:42.001Z</time></trkpt><trkpt lat="45.818350641685704" lon="8.836775761949085"><ele>376.0</ele><time>2026-04-04T13:09:44.001Z</time></trkpt><trkpt lat="45.81841377482281" lon="8.836695335997671"><ele>376.0</ele><time>2026-04-04T13:09:45.001Z</time></trkpt><trkpt lat="45.81849535382727" lon="8.836609670781073"><ele>376.0</ele><time>2026-04-04T13:09:47.001Z</time></trkpt><trkpt lat="45.81837915393071" lon="8.836356881661203"><ele>376.0</ele><time>2026-04-04T13:09:48.001Z</time></trkpt><trkpt lat="45.81832244317334" lon="8.836209487955685"><ele>376.0</ele><time>2026-04-04T13:09:49.001Z</time></trkpt><trkpt lat="45.818269710055446" lon="8.836063264288978"><ele>376.0</ele><time>2026-04-04T13:09:50.001Z</time></trkpt><trkpt lat="45.81821948145357" lon="8.835906661552023"><ele>376.0</ele><time>2026-04-04T13:09:51.001Z</time></trkpt><trkpt lat="45.8181807273373" lon="8.835742349709962"><ele>376.0</ele><time>2026-04-04T13:09:52.001Z</time></trkpt><trkpt lat="45.8181264524859" lon="8.835579623476102"><ele>376.0</ele><time>2026-04-04T13:09:53.001Z</time></trkpt><trkpt lat="45.818076461114146" lon="8.835407100895235"><ele>376.0</ele><time>2026-04-04T13:09:54.001Z</time></trkpt><trkpt lat="45.81802518813559" lon="8.835231876922853"><ele>376.0</ele><time>2026-04-04T13:09:55.001Z</time></trkpt><trkpt lat="45.81797674445734" lon="8.835059474466822"><ele>376.0</ele><time>2026-04-04T13:09:56.001Z</time></trkpt><trkpt lat="45.817926587190165" lon="8.834880285625694"><ele>376.0</ele><time>2026-04-04T13:09:57.001Z</time></trkpt><trkpt lat="45.81787996481899" lon="8.83472175842659"><ele>376.0</ele><time>2026-04-04T13:09:58.001Z</time></trkpt><trkpt lat="45.817842054347054" lon="8.834583839025568"><ele>376.0</ele><time>2026-04-04T13:09:59.001Z</time></trkpt><trkpt lat="45.817782651645174" lon="8.834437255876685"><ele>376.20000000000005</ele><time>2026-04-04T13:09:59.999Z</time></trkpt><trkpt lat="45.81773952420899" lon="8.834301998571082"><ele>376.40000000000003</ele><time>2026-04-04T13:10:00.999Z</time></trkpt><trkpt lat="45.81769766406817" lon="8.834170323981642"><ele>376.6</ele><time>2026-04-04T13:10:01.999Z</time></trkpt><trkpt lat="45.81765716141109" lon="8.83403823090457"><ele>376.8</ele><time>2026-04-04T13:10:02.999Z</time></trkpt><trkpt lat="45.81761886665489" lon="8.833911462811239"><ele>377.0</ele><time>2026-04-04T13:10:03.999Z</time></trkpt><trkpt lat="45.81758373366864" lon="8.833792901792918"><ele>377.25</ele><time>2026-04-04T13:10:04.999Z</time></trkpt><trkpt lat="45.81754703799659" lon="8.833661379970067"><ele>377.5</ele><time>2026-04-04T13:10:05.999Z</time></trkpt><trkpt lat="45.81751211694434" lon="8.83355109530505"><ele>377.75</ele><time>2026-04-04T13:10:06.999Z</time></trkpt><trkpt lat="45.81741839896549" lon="8.833356515395812"><ele>378.0</ele><time>2026-04-04T13:10:08.999Z</time></trkpt><trkpt lat="45.81748575643581" lon="8.833137227170614"><ele>378.0</ele><time>2026-04-04T13:10:09.999Z</time></trkpt><trkpt lat="45.81746747806672" lon="8.833027807316737"><ele>378.0</ele><time>2026-04-04T13:10:10.999Z</time></trkpt><trkpt lat="45.81745473459843" lon="8.83292981461137"><ele>378.0</ele><time>2026-04-04T13:10:11.999Z</time></trkpt><trkpt lat="45.81744790520683" lon="8.832791049728359"><ele>378.0</ele><time>2026-04-04T13:10:13.999Z</time></trkpt><trkpt lat="45.8174314370697" lon="8.832593272995277"><ele>378.0</ele><time>2026-04-04T13:11:11Z</time></trkpt><trkpt lat="45.81741614858817" lon="8.83247539024164"><ele>378.59999999999997</ele><time>2026-04-04T13:11:12Z</time></trkpt><trkpt lat="45.81741368110177" lon="8.83236664339319"><ele>379.2</ele><time>2026-04-04T13:11:13Z</time></trkpt><trkpt lat="45.81725470143962" lon="8.832241312460456"><ele>379.8</ele><time>2026-04-04T13:11:15Z</time></trkpt><trkpt lat="45.81719126155432" lon="8.832237686662397"><ele>380.4</ele><time>2026-04-04T13:11:16.001Z</time></trkpt><trkpt lat="45.817128297636636" lon="8.832247336656051"><ele>381.0</ele><time>2026-04-04T13:11:17.001Z</time></trkpt><trkpt lat="45.817030066060454" lon="8.832238026158969"><ele>381.0</ele><time>2026-04-04T13:11:19.001Z</time></trkpt><trkpt lat="45.81694799016866" lon="8.832199548414543"><ele>381.0</ele><time>2026-04-04T13:11:21.001Z</time></trkpt><trkpt lat="45.81683321084216" lon="8.832195533925804"><ele>381.0</ele><time>2026-04-04T13:11:23.001Z</time></trkpt><trkpt lat="45.81672633161848" lon="8.832190315224445"><ele>381.0</ele><time>2026-04-04T13:11:25.001Z</time></trkpt><trkpt lat="45.81664181641879" lon="8.832175348983924"><ele>381.0</ele><time>2026-04-04T13:11:27.001Z</time></trkpt><trkpt lat="45.816528556912644" lon="8.832150764949445"><ele>381.20000000000005</ele><time>2026-04-04T13:11:29.001Z</time></trkpt><trkpt lat="45.81643312714775" lon="8.832143614169537"><ele>381.40000000000003</ele><time>2026-04-04T13:11:31.001Z</time></trkpt><trkpt lat="45.81635340030808" lon="8.832135340802727"><ele>381.6</ele><time>2026-04-04T13:11:33.001Z</time></trkpt><trkpt lat="45.8162572475762" lon="8.832131675512926"><ele>381.8</ele><time>2026-04-04T13:11:45.001Z</time></trkpt><trkpt lat="45.81617973988606" lon="8.832064091135576"><ele>382.0</ele><time>2026-04-04T13:11:47.001Z</time></trkpt><trkpt lat="45.81610548199616" lon="8.831963250690826"><ele>382.0</ele><time>2026-04-04T13:11:49.001Z</time></trkpt><trkpt lat="45.81602585295202" lon="8.831841440289004"><ele>382.0</ele><time>2026-04-04T13:11:51.001Z</time></trkpt><trkpt lat="45.815938455645316" lon="8.831699448206587"><ele>382.0</ele><time>2026-04-04T13:11:53.001Z</time></trkpt><trkpt lat="45.815868955440855" lon="8.83159572147616"><ele>382.0</ele><time>2026-04-04T13:11:54.001Z</time></trkpt><trkpt lat="45.81578879297476" lon="8.831459202629823"><ele>383.66666666666663</ele><time>2026-04-04T13:11:55.001Z</time></trkpt><trkpt lat="45.815700365164844" lon="8.831261194442877"><ele>385.3333333333333</ele><time>2026-04-04T13:11:56.001Z</time></trkpt><trkpt lat="45.81560935545474" lon="8.831060708345438"><ele>387.0</ele><time>2026-04-04T13:11:57.001Z</time></trkpt><trkpt lat="45.81550921081008" lon="8.830902368131195"><ele>387.0</ele><time>2026-04-04T13:11:58.001Z</time></trkpt><trkpt lat="45.81541258879555" lon="8.830751194058644"><ele>387.0</ele><time>2026-04-04T13:11:59.001Z</time></trkpt><trkpt lat="45.81532379235734" lon="8.830602117600131"><ele>387.0</ele><time>2026-04-04T13:12:00.001Z</time></trkpt><trkpt lat="45.81524969056945" lon="8.83045304759294"><ele>387.0</ele><time>2026-04-04T13:12:01.001Z</time></trkpt><trkpt lat="45.8151649129132" lon="8.830314664502998"><ele>387.0</ele><time>2026-04-04T13:12:02.001Z</time></trkpt><trkpt lat="45.81509353994976" lon="8.830205815868249"><ele>387.0</ele><time>2026-04-04T13:12:03.001Z</time></trkpt><trkpt lat="45.815041527705134" lon="8.830135816250678"><ele>387.0</ele><time>2026-04-04T13:12:04.001Z</time></trkpt><trkpt lat="45.81496760870833" lon="8.83006282860936"><ele>387.0</ele><time>2026-04-04T13:14:02.002Z</time></trkpt><trkpt lat="45.81490385856195" lon="8.829951376841466"><ele>387.0</ele><time>2026-04-04T13:14:04.002Z</time></trkpt><trkpt lat="45.814954327798056" lon="8.829847607782263"><ele>387.0</ele><time>2026-04-04T13:14:05.002Z</time></trkpt><trkpt lat="45.81503025581791" lon="8.829757353003854"><ele>387.0</ele><time>2026-04-04T13:14:06.002Z</time></trkpt><trkpt lat="45.81509717825074" lon="8.829651814491756"><ele>387.0</ele><time>2026-04-04T13:14:07.002Z</time></trkpt><trkpt lat="45.81517733571103" lon="8.82954824976462"><ele>387.0</ele><time>2026-04-04T13:14:08.002Z</time></trkpt><trkpt lat="45.81525773544508" lon="8.829431916685257"><ele>387.0</ele><time>2026-04-04T13:14:09.002Z</time></trkpt><trkpt lat="45.815335174122886" lon="8.829311925334373"><ele>386.25</ele><time>2026-04-04T13:14:10.002Z</time></trkpt><trkpt lat="45.81541593511457" lon="8.829188416581335"><ele>385.5</ele><time>2026-04-04T13:14:11.002Z</time></trkpt><trkpt lat="45.815505163019026" lon="8.829071449364479"><ele>384.75</ele><time>2026-04-04T13:14:12.001Z</time></trkpt><trkpt lat="45.815603459045285" lon="8.82894582393203"><ele>384.0</ele><time>2026-04-04T13:14:13.001Z</time></trkpt><trkpt lat="45.815689349121726" lon="8.828828548542853"><ele>384.0</ele><time>2026-04-04T13:14:14.001Z</time></trkpt><trkpt lat="45.815764964700215" lon="8.828711162125007"><ele>384.0</ele><time>2026-04-04T13:14:15.001Z</time></trkpt><trkpt lat="45.81583495918252" lon="8.828611188689795"><ele>384.0</ele><time>2026-04-04T13:14:16.001Z</time></trkpt><trkpt lat="45.81590367279527" lon="8.828518506839407"><ele>384.0</ele><time>2026-04-04T13:14:17.001Z</time></trkpt><trkpt lat="45.81597214454284" lon="8.828418864734488"><ele>384.0</ele><time>2026-04-04T13:14:18.001Z</time></trkpt><trkpt lat="45.81604792772518" lon="8.828345262933498"><ele>384.3333333333333</ele><time>2026-04-04T13:14:19.001Z</time></trkpt><trkpt lat="45.816111592351945" lon="8.82824957870645"><ele>384.66666666666663</ele><time>2026-04-04T13:14:20.001Z</time></trkpt><trkpt lat="45.816170800884926" lon="8.82815765945687"><ele>385.0</ele><time>2026-04-04T13:14:21.001Z</time></trkpt><trkpt lat="45.81622958539101" lon="8.828072915654698"><ele>385.3333333333333</ele><time>2026-04-04T13:14:22.001Z</time></trkpt><trkpt lat="45.81628564158466" lon="8.827999376952404"><ele>385.66666666666663</ele><time>2026-04-04T13:14:23.001Z</time></trkpt><trkpt lat="45.8163316484983" lon="8.827923605992599"><ele>386.0</ele><time>2026-04-04T13:14:24.001Z</time></trkpt><trkpt lat="45.81638037341727" lon="8.827847795762612"><ele>385.99999999999994</ele><time>2026-04-04T13:14:25.001Z</time></trkpt><trkpt lat="45.816437349008716" lon="8.827770096836248"><ele>386.0</ele><time>2026-04-04T13:14:26.001Z</time></trkpt><trkpt lat="45.81648587341301" lon="8.827689731825835"><ele>386.0</ele><time>2026-04-04T13:14:27.001Z</time></trkpt><trkpt lat="45.81653451083086" lon="8.827616535201619"><ele>386.0</ele><time>2026-04-04T13:14:29.001Z</time></trkpt><trkpt lat="45.816606446492756" lon="8.827491913148911"><ele>385.99999999999994</ele><time>2026-04-04T13:14:38.001Z</time></trkpt><trkpt lat="45.81664855249571" lon="8.827420769380003"><ele>386.0</ele><time>2026-04-04T13:14:39.001Z</time></trkpt><trkpt lat="45.81670623744487" lon="8.827354349370413"><ele>386.66666666666663</ele><time>2026-04-04T13:14:40.001Z</time></trkpt><trkpt lat="45.81677049415519" lon="8.827256723434187"><ele>387.3333333333333</ele><time>2026-04-04T13:14:41.001Z</time></trkpt><trkpt lat="45.81682525612275" lon="8.827154823728273"><ele>388.0</ele><time>2026-04-04T13:14:42.001Z</time></trkpt><trkpt lat="45.81688195358602" lon="8.827075237675015"><ele>388.66666666666663</ele><time>2026-04-04T13:14:43.001Z</time></trkpt><trkpt lat="45.816942282213965" lon="8.827017859336454"><ele>389.3333333333333</ele><time>2026-04-04T13:14:44.001Z</time></trkpt><trkpt lat="45.81700557502045" lon="8.826951295424957"><ele>390.0</ele><time>2026-04-04T13:14:45.001Z</time></trkpt><trkpt lat="45.81704458779433" lon="8.82685935435093"><ele>389.6</ele><time>2026-04-04T13:14:46.001Z</time></trkpt><trkpt lat="45.81712917468481" lon="8.82672297509714"><ele>389.2</ele><time>2026-04-04T13:14:48.001Z</time></trkpt><trkpt lat="45.81720485074819" lon="8.826616701021063"><ele>388.79999999999995</ele><time>2026-04-04T13:14:50.001Z</time></trkpt><trkpt lat="45.81726807135915" lon="8.826533887098378"><ele>388.4</ele><time>2026-04-04T13:14:52.001Z</time></trkpt><trkpt lat="45.817331694127596" lon="8.826493343168522"><ele>388.0</ele><time>2026-04-04T13:14:54.001Z</time></trkpt><trkpt lat="45.817436707525" lon="8.826538878989801"><ele>388.00000000000006</ele><time>2026-04-04T13:14:56.001Z</time></trkpt><trkpt lat="45.81753187051001" lon="8.826522090470457"><ele>388.0</ele><time>2026-04-04T13:14:58.001Z</time></trkpt><trkpt lat="45.81759925933545" lon="8.826481258590897"><ele>388.0</ele><time>2026-04-04T13:15:00.001Z</time></trkpt><trkpt lat="45.81764323600625" lon="8.826389769628896"><ele>388.0</ele><time>2026-04-04T13:15:02.001Z</time></trkpt><trkpt lat="45.81768745967547" lon="8.826284237017653"><ele>388.00000000000006</ele><time>2026-04-04T13:15:04.001Z</time></trkpt><trkpt lat="45.81770958619762" lon="8.8261941477877"><ele>388.0</ele><time>2026-04-04T13:15:06.001Z</time></trkpt><trkpt lat="45.81776216324028" lon="8.826137305960119"><ele>388.0</ele><time>2026-04-04T13:15:08.001Z</time></trkpt><trkpt lat="45.81781000807502" lon="8.826055632985293"><ele>388.0</ele><time>2026-04-04T13:15:11.001Z</time></trkpt><trkpt lat="45.81789035807799" lon="8.825919978064421"><ele>388.0</ele><time>2026-04-04T13:15:13.001Z</time></trkpt><trkpt lat="45.81796988079958" lon="8.825788155965327"><ele>388.0</ele><time>2026-04-04T13:15:14.001Z</time></trkpt><trkpt lat="45.81802400495685" lon="8.825698116930472"><ele>388.0</ele><time>2026-04-04T13:15:15.001Z</time></trkpt><trkpt lat="45.81808574326331" lon="8.825595411182825"><ele>387.75</ele><time>2026-04-04T13:15:16.001Z</time></trkpt><trkpt lat="45.818160561394414" lon="8.825472244655248"><ele>387.5</ele><time>2026-04-04T13:15:17.001Z</time></trkpt><trkpt lat="45.81824722931483" lon="8.825326467137819"><ele>387.25</ele><time>2026-04-04T13:15:18.001Z</time></trkpt><trkpt lat="45.81832497270206" lon="8.825173028446804"><ele>387.0</ele><time>2026-04-04T13:15:19.001Z</time></trkpt><trkpt lat="45.81839229670658" lon="8.82499633514158"><ele>387.0</ele><time>2026-04-04T13:15:20.001Z</time></trkpt><trkpt lat="45.81846665251009" lon="8.82480030941122"><ele>387.0</ele><time>2026-04-04T13:15:21.001Z</time></trkpt><trkpt lat="45.81853115277116" lon="8.824588178373183"><ele>387.0</ele><time>2026-04-04T13:15:22.001Z</time></trkpt><trkpt lat="45.81859774284601" lon="8.82437293921476"><ele>386.66666666666663</ele><time>2026-04-04T13:15:23.001Z</time></trkpt><trkpt lat="45.81867031994721" lon="8.824140403218639"><ele>386.3333333333333</ele><time>2026-04-04T13:15:24.001Z</time></trkpt><trkpt lat="45.81874150630128" lon="8.82390706023103"><ele>386.0</ele><time>2026-04-04T13:15:25.001Z</time></trkpt><trkpt lat="45.818820721432324" lon="8.823673484872034"><ele>385.3333333333333</ele><time>2026-04-04T13:15:26.001Z</time></trkpt><trkpt lat="45.81890033207301" lon="8.823430803738342"><ele>384.66666666666663</ele><time>2026-04-04T13:15:27.002Z</time></trkpt><trkpt lat="45.818985897383214" lon="8.823185470628337"><ele>384.0</ele><time>2026-04-04T13:15:28.002Z</time></trkpt><trkpt lat="45.81907257629365" lon="8.822936244701799"><ele>384.0</ele><time>2026-04-04T13:15:29.002Z</time></trkpt><trkpt lat="45.819154331479645" lon="8.822683039426087"><ele>384.0</ele><time>2026-04-04T13:15:30.002Z</time></trkpt><trkpt lat="45.819241758921656" lon="8.822462951019961"><ele>384.0</ele><time>2026-04-04T13:15:31.002Z</time></trkpt><trkpt lat="45.81927072891401" lon="8.822328063679096"><ele>384.5</ele><time>2026-04-04T13:15:32.002Z</time></trkpt><trkpt lat="45.819333056704544" lon="8.822199150804147"><ele>385.0</ele><time>2026-04-04T13:17:06.001Z</time></trkpt><trkpt lat="45.81937775620522" lon="8.822070334572011"><ele>385.5</ele><time>2026-04-04T13:17:07.001Z</time></trkpt><trkpt lat="45.819431444238845" lon="8.821918425836449"><ele>386.0</ele><time>2026-04-04T13:17:08.001Z</time></trkpt><trkpt lat="45.81948757811747" lon="8.821758270410111"><ele>386.25</ele><time>2026-04-04T13:17:09.001Z</time></trkpt><trkpt lat="45.819552089577854" lon="8.821590023767643"><ele>386.5</ele><time>2026-04-04T13:17:10.001Z</time></trkpt><trkpt lat="45.8196278451526" lon="8.821409849202643"><ele>386.75</ele><time>2026-04-04T13:17:11.001Z</time></trkpt><trkpt lat="45.81970884714152" lon="8.82123365429914"><ele>387.0</ele><time>2026-04-04T13:17:12.001Z</time></trkpt><trkpt lat="45.81980022247529" lon="8.821068524540486"><ele>387.5</ele><time>2026-04-04T13:17:13.001Z</time></trkpt><trkpt lat="45.819887481221386" lon="8.820928980780545"><ele>388.0</ele><time>2026-04-04T13:17:14.001Z</time></trkpt><trkpt lat="45.81998046668049" lon="8.82078468501586"><ele>388.5</ele><time>2026-04-04T13:17:15.001Z</time></trkpt><trkpt lat="45.82006346285604" lon="8.820608872723838"><ele>389.0</ele><time>2026-04-04T13:17:16.001Z</time></trkpt><trkpt lat="45.820174075193734" lon="8.820475929347468"><ele>389.25</ele><time>2026-04-04T13:17:17.001Z</time></trkpt><trkpt lat="45.820282204056504" lon="8.820351584765472"><ele>389.5</ele><time>2026-04-04T13:17:18.001Z</time></trkpt><trkpt lat="45.82039528073002" lon="8.820189984641491"><ele>389.75</ele><time>2026-04-04T13:17:19.001Z</time></trkpt><trkpt lat="45.82050516849285" lon="8.820041700630863"><ele>390.0</ele><time>2026-04-04T13:17:20.001Z</time></trkpt><trkpt lat="45.82063828699805" lon="8.819928484706189"><ele>390.0</ele><time>2026-04-04T13:17:21.001Z</time></trkpt><trkpt lat="45.820745975678115" lon="8.81978205222942"><ele>390.0</ele><time>2026-04-04T13:17:22.001Z</time></trkpt><trkpt lat="45.8208527147598" lon="8.819636910989546"><ele>390.0</ele><time>2026-04-04T13:17:23.001Z</time></trkpt><trkpt lat="45.82096158151769" lon="8.819488876638307"><ele>390.0</ele><time>2026-04-04T13:17:24.001Z</time></trkpt><trkpt lat="45.82106155749506" lon="8.81935293169085"><ele>390.5</ele><time>2026-04-04T13:17:25.001Z</time></trkpt><trkpt lat="45.82115982390006" lon="8.819219276780899"><ele>391.0</ele><time>2026-04-04T13:17:26.001Z</time></trkpt><trkpt lat="45.821245133351994" lon="8.8191077056269"><ele>391.5</ele><time>2026-04-04T13:17:27.001Z</time></trkpt><trkpt lat="45.82134134495312" lon="8.819003443145656"><ele>392.0</ele><time>2026-04-04T13:17:28.001Z</time></trkpt><trkpt lat="45.82144249123186" lon="8.818871354960375"><ele>392.0</ele><time>2026-04-04T13:17:29.001Z</time></trkpt><trkpt lat="45.82155896350146" lon="8.818742381236058"><ele>392.0</ele><time>2026-04-04T13:17:30.001Z</time></trkpt><trkpt lat="45.82167026841125" lon="8.818585315926123"><ele>392.0</ele><time>2026-04-04T13:17:31.001Z</time></trkpt><trkpt lat="45.82178198995942" lon="8.818432420331053"><ele>391.3333333333333</ele><time>2026-04-04T13:17:32.001Z</time></trkpt><trkpt lat="45.82189592985634" lon="8.818274908766197"><ele>390.66666666666663</ele><time>2026-04-04T13:17:33.001Z</time></trkpt><trkpt lat="45.82201124764577" lon="8.818113806986391"><ele>390.0</ele><time>2026-04-04T13:17:34.001Z</time></trkpt><trkpt lat="45.82212738838567" lon="8.81794785987564"><ele>390.0</ele><time>2026-04-04T13:17:35.001Z</time></trkpt><trkpt lat="45.822247008638364" lon="8.81777498861193"><ele>390.0</ele><time>2026-04-04T13:17:36.001Z</time></trkpt><trkpt lat="45.82234961888593" lon="8.817580299256889"><ele>390.0</ele><time>2026-04-04T13:17:37.001Z</time></trkpt><trkpt lat="45.82246870426991" lon="8.817406250293825"><ele>390.33333333333337</ele><time>2026-04-04T13:17:38.001Z</time></trkpt><trkpt lat="45.82258421593951" lon="8.817222106845264"><ele>390.6666666666667</ele><time>2026-04-04T13:17:39.001Z</time></trkpt><trkpt lat="45.82268640130519" lon="8.817024328337723"><ele>391.0</ele><time>2026-04-04T13:17:40.001Z</time></trkpt><trkpt lat="45.82278242683163" lon="8.816809771600052"><ele>392.0</ele><time>2026-04-04T13:17:41.001Z</time></trkpt><trkpt lat="45.82285379027465" lon="8.816580695527284"><ele>393.0</ele><time>2026-04-04T13:17:42.001Z</time></trkpt><trkpt lat="45.82291671679991" lon="8.816352514921684"><ele>394.0</ele><time>2026-04-04T13:17:43.001Z</time></trkpt><trkpt lat="45.82296525447113" lon="8.816147064452064"><ele>394.0</ele><time>2026-04-04T13:17:44.001Z</time></trkpt><trkpt lat="45.823014089315215" lon="8.815953432133444"><ele>394.0</ele><time>2026-04-04T13:17:45.001Z</time></trkpt><trkpt lat="45.823062141249544" lon="8.815759037726087"><ele>394.0</ele><time>2026-04-04T13:17:46.001Z</time></trkpt><trkpt lat="45.823105136896714" lon="8.815563604388945"><ele>394.0</ele><time>2026-04-04T13:17:47.001Z</time></trkpt><trkpt lat="45.82316182352154" lon="8.815384790312184"><ele>394.0</ele><time>2026-04-04T13:17:48.001Z</time></trkpt><trkpt lat="45.82321021506991" lon="8.815209257384451"><ele>394.0</ele><time>2026-04-04T13:17:49.001Z</time></trkpt><trkpt lat="45.82325766800889" lon="8.815022722539823"><ele>394.0</ele><time>2026-04-04T13:17:50.001Z</time></trkpt><trkpt lat="45.82330711387627" lon="8.814848214155186"><ele>394.0</ele><time>2026-04-04T13:17:51.001Z</time></trkpt><trkpt lat="45.82334693822586" lon="8.814709997549794"><ele>394.2</ele><time>2026-04-04T13:17:52.001Z</time></trkpt><trkpt lat="45.82338724781491" lon="8.814598403528096"><ele>394.4</ele><time>2026-04-04T13:17:53.001Z</time></trkpt><trkpt lat="45.82341830285902" lon="8.814445805305832"><ele>394.6</ele><time>2026-04-04T13:17:54.002Z</time></trkpt><trkpt lat="45.8234647144505" lon="8.814289055011399"><ele>394.8</ele><time>2026-04-04T13:17:55.002Z</time></trkpt><trkpt lat="45.8235146857537" lon="8.81411489304205"><ele>395.0</ele><time>2026-04-04T13:17:56.002Z</time></trkpt><trkpt lat="45.82356843822247" lon="8.813933740477083"><ele>395.0</ele><time>2026-04-04T13:17:57.002Z</time></trkpt><trkpt lat="45.8236286416593" lon="8.813745225573738"><ele>395.0</ele><time>2026-04-04T13:17:58.002Z</time></trkpt><trkpt lat="45.8236739555596" lon="8.813545283864272"><ele>395.0</ele><time>2026-04-04T13:17:59.002Z</time></trkpt><trkpt lat="45.82372360161181" lon="8.813330757893015"><ele>395.0</ele><time>2026-04-04T13:18:00.002Z</time></trkpt><trkpt lat="45.82377765796296" lon="8.813119168346265"><ele>395.0</ele><time>2026-04-04T13:18:01.002Z</time></trkpt><trkpt lat="45.82383089378276" lon="8.812901259241873"><ele>395.0</ele><time>2026-04-04T13:18:02.002Z</time></trkpt><trkpt lat="45.823888280631216" lon="8.812676308203795"><ele>395.0</ele><time>2026-04-04T13:18:03.002Z</time></trkpt><trkpt lat="45.823950798186445" lon="8.812453008550612"><ele>395.66666666666663</ele><time>2026-04-04T13:18:04.002Z</time></trkpt><trkpt lat="45.82401315998228" lon="8.812228197235104"><ele>396.33333333333337</ele><time>2026-04-04T13:18:05.002Z</time></trkpt><trkpt lat="45.82407643050274" lon="8.811988748097908"><ele>397.0</ele><time>2026-04-04T13:18:06.002Z</time></trkpt><trkpt lat="45.824133667519725" lon="8.811753513729375"><ele>397.33333333333337</ele><time>2026-04-04T13:18:07.002Z</time></trkpt><trkpt lat="45.824195095024095" lon="8.811511814267313"><ele>397.66666666666663</ele><time>2026-04-04T13:18:08.002Z</time></trkpt><trkpt lat="45.82425512867468" lon="8.811266719893064"><ele>398.0</ele><time>2026-04-04T13:18:09.002Z</time></trkpt><trkpt lat="45.824323282712875" lon="8.811037186176023"><ele>398.0</ele><time>2026-04-04T13:18:10.002Z</time></trkpt><trkpt lat="45.82438705648297" lon="8.810805648386228"><ele>398.0</ele><time>2026-04-04T13:18:11.002Z</time></trkpt><trkpt lat="45.824446568791636" lon="8.81056561924809"><ele>398.0</ele><time>2026-04-04T13:18:12.002Z</time></trkpt><trkpt lat="45.824509796013" lon="8.810317492017488"><ele>398.66666666666663</ele><time>2026-04-04T13:18:13.002Z</time></trkpt><trkpt lat="45.82457049111398" lon="8.810081059597417"><ele>399.33333333333337</ele><time>2026-04-04T13:18:14.002Z</time></trkpt><trkpt lat="45.82465016143809" lon="8.809840879795637"><ele>400.0</ele><time>2026-04-04T13:18:15.002Z</time></trkpt><trkpt lat="45.82470328160619" lon="8.809592002742974"><ele>400.0</ele><time>2026-04-04T13:18:16.002Z</time></trkpt><trkpt lat="45.82477181024439" lon="8.809351709008151"><ele>400.0</ele><time>2026-04-04T13:18:17.002Z</time></trkpt><trkpt lat="45.82483235018105" lon="8.809108086855085"><ele>400.0</ele><time>2026-04-04T13:18:18.002Z</time></trkpt><trkpt lat="45.824876972820576" lon="8.808855200240595"><ele>400.6666666666667</ele><time>2026-04-04T13:18:19.002Z</time></trkpt><trkpt lat="45.824937293893456" lon="8.808616825212018"><ele>401.33333333333337</ele><time>2026-04-04T13:18:20.002Z</time></trkpt><trkpt lat="45.824961889058606" lon="8.808389749445071"><ele>402.0</ele><time>2026-04-04T13:18:21.002Z</time></trkpt><trkpt lat="45.82499802033639" lon="8.808190411914463"><ele>402.5</ele><time>2026-04-04T13:18:22.002Z</time></trkpt><trkpt lat="45.82502996739647" lon="8.808008418249562"><ele>403.0</ele><time>2026-04-04T13:18:23.002Z</time></trkpt><trkpt lat="45.82505226548971" lon="8.80782865302899"><ele>403.5</ele><time>2026-04-04T13:18:24Z</time></trkpt><trkpt lat="45.82508348602937" lon="8.807654403290085"><ele>404.0</ele><time>2026-04-04T13:18:25Z</time></trkpt><trkpt lat="45.825114512891595" lon="8.807476950970251"><ele>404.0</ele><time>2026-04-04T13:18:26Z</time></trkpt><trkpt lat="45.82513877087275" lon="8.80729565754994"><ele>404.0</ele><time>2026-04-04T13:18:27Z</time></trkpt><trkpt lat="45.82516130974631" lon="8.807098393516053"><ele>404.0</ele><time>2026-04-04T13:18:28Z</time></trkpt><trkpt lat="45.82519249949216" lon="8.80691199122964"><ele>404.0</ele><time>2026-04-04T13:18:29Z</time></trkpt><trkpt lat="45.82521736502883" lon="8.806716413425578"><ele>404.0</ele><time>2026-04-04T13:18:30Z</time></trkpt><trkpt lat="45.82526923715306" lon="8.806547578757268"><ele>404.0</ele><time>2026-04-04T13:18:31Z</time></trkpt><trkpt lat="45.82529895703185" lon="8.806357232579453"><ele>404.0</ele><time>2026-04-04T13:18:32Z</time></trkpt><trkpt lat="45.82532721838871" lon="8.806176230288886"><ele>404.0</ele><time>2026-04-04T13:18:33Z</time></trkpt><trkpt lat="45.82535567035665" lon="8.806000635394065"><ele>404.25</ele><time>2026-04-04T13:18:34Z</time></trkpt><trkpt lat="45.82538968776929" lon="8.805818622751511"><ele>404.5</ele><time>2026-04-04T13:18:35Z</time></trkpt><trkpt lat="45.825434069027196" lon="8.805646203497288"><ele>404.75</ele><time>2026-04-04T13:18:36Z</time></trkpt><trkpt lat="45.825485704850145" lon="8.805495697628084"><ele>405.0</ele><time>2026-04-04T13:18:37Z</time></trkpt><trkpt lat="45.825528724687274" lon="8.805371687337043"><ele>405.0</ele><time>2026-04-04T13:18:38Z</time></trkpt><trkpt lat="45.82557443514865" lon="8.805277220397457"><ele>405.0</ele><time>2026-04-04T13:18:39Z</time></trkpt><trkpt lat="45.82561566814759" lon="8.805141044124602"><ele>405.0</ele><time>2026-04-04T13:18:41Z</time></trkpt><trkpt lat="45.8256557623237" lon="8.805041857052535"><ele>405.0</ele><time>2026-04-04T13:18:44Z</time></trkpt><trkpt lat="45.82571084709382" lon="8.804925136267899"><ele>405.0</ele><time>2026-04-04T13:19:32.001Z</time></trkpt><trkpt lat="45.82576124791917" lon="8.804795160178147"><ele>405.0</ele><time>2026-04-04T13:19:33.001Z</time></trkpt><trkpt lat="45.82581549283471" lon="8.80465464545293"><ele>405.0</ele><time>2026-04-04T13:19:34.001Z</time></trkpt><trkpt lat="45.82587244324152" lon="8.804507260117076"><ele>405.0</ele><time>2026-04-04T13:19:35.001Z</time></trkpt><trkpt lat="45.82593559531171" lon="8.804341727394721"><ele>405.0</ele><time>2026-04-04T13:19:36.001Z</time></trkpt><trkpt lat="45.8260028281722" lon="8.80416613530868"><ele>405.0</ele><time>2026-04-04T13:19:37.001Z</time></trkpt><trkpt lat="45.82607481052612" lon="8.803978139002487"><ele>405.0</ele><time>2026-04-04T13:19:38.001Z</time></trkpt><trkpt lat="45.826141883042965" lon="8.803802965783339"><ele>405.0</ele><time>2026-04-04T13:19:39.001Z</time></trkpt><trkpt lat="45.82620364994215" lon="8.803641649191631"><ele>405.0</ele><time>2026-04-04T13:19:40.001Z</time></trkpt><trkpt lat="45.826269625882595" lon="8.803482388939873"><ele>403.75</ele><time>2026-04-04T13:19:41.001Z</time></trkpt><trkpt lat="45.826343765740475" lon="8.803335078649894"><ele>402.5</ele><time>2026-04-04T13:19:42.001Z</time></trkpt><trkpt lat="45.82643016461777" lon="8.803192634828712"><ele>401.25</ele><time>2026-04-04T13:19:43.001Z</time></trkpt><trkpt lat="45.826517822442575" lon="8.80306032668298"><ele>400.0</ele><time>2026-04-04T13:19:44.001Z</time></trkpt><trkpt lat="45.82661499390514" lon="8.80292369020769"><ele>400.0</ele><time>2026-04-04T13:19:45.001Z</time></trkpt><trkpt lat="45.826713561655744" lon="8.80278957016056"><ele>400.0</ele><time>2026-04-04T13:19:46.001Z</time></trkpt><trkpt lat="45.826814054505775" lon="8.802656065301884"><ele>400.0</ele><time>2026-04-04T13:19:47.001Z</time></trkpt><trkpt lat="45.82691468376623" lon="8.80252482729606"><ele>400.0</ele><time>2026-04-04T13:19:48.001Z</time></trkpt><trkpt lat="45.82701515904554" lon="8.802396303099757"><ele>401.75</ele><time>2026-04-04T13:19:49.001Z</time></trkpt><trkpt lat="45.82711655438452" lon="8.802266601965963"><ele>403.5</ele><time>2026-04-04T13:19:50.001Z</time></trkpt><trkpt lat="45.82721716713478" lon="8.802137112664104"><ele>405.25</ele><time>2026-04-04T13:19:51.001Z</time></trkpt><trkpt lat="45.827318150697536" lon="8.802006307649181"><ele>407.0</ele><time>2026-04-04T13:19:52.001Z</time></trkpt><trkpt lat="45.82741959637351" lon="8.801873859445655"><ele>406.25</ele><time>2026-04-04T13:19:53.001Z</time></trkpt><trkpt lat="45.827519831797694" lon="8.80174316912156"><ele>405.5</ele><time>2026-04-04T13:19:54.001Z</time></trkpt><trkpt lat="45.827617050465214" lon="8.801615283586207"><ele>404.75</ele><time>2026-04-04T13:19:55.001Z</time></trkpt><trkpt lat="45.82771703818129" lon="8.801483755846188"><ele>404.0</ele><time>2026-04-04T13:19:56.001Z</time></trkpt><trkpt lat="45.827818915531424" lon="8.801349742255564"><ele>405.0</ele><time>2026-04-04T13:19:57.001Z</time></trkpt><trkpt lat="45.827917422287754" lon="8.801220162643064"><ele>406.0</ele><time>2026-04-04T13:19:58.001Z</time></trkpt><trkpt lat="45.82801436304878" lon="8.801092642712868"><ele>407.0</ele><time>2026-04-04T13:19:59.001Z</time></trkpt><trkpt lat="45.82811305128191" lon="8.80096282427063"><ele>408.0</ele><time>2026-04-04T13:20:00.001Z</time></trkpt><trkpt lat="45.82821328182738" lon="8.800830976903539"><ele>408.0</ele><time>2026-04-04T13:20:01.002Z</time></trkpt><trkpt lat="45.82831295091328" lon="8.800699868222598"><ele>408.0</ele><time>2026-04-04T13:20:02.002Z</time></trkpt><trkpt lat="45.82840933448229" lon="8.800573640157603"><ele>408.0</ele><time>2026-04-04T13:20:03.002Z</time></trkpt><trkpt lat="45.8284955903018" lon="8.800460948036589"><ele>408.0</ele><time>2026-04-04T13:20:04.002Z</time></trkpt><trkpt lat="45.82857557070777" lon="8.800356455032333"><ele>409.2</ele><time>2026-04-04T13:20:05.002Z</time></trkpt><trkpt lat="45.828653440228074" lon="8.800254719738703"><ele>410.4</ele><time>2026-04-04T13:20:06.002Z</time></trkpt><trkpt lat="45.82872499484268" lon="8.800161236324854"><ele>411.59999999999997</ele><time>2026-04-04T13:20:07.002Z</time></trkpt><trkpt lat="45.82878781662947" lon="8.800080013733437"><ele>412.79999999999995</ele><time>2026-04-04T13:20:08.002Z</time></trkpt><trkpt lat="45.82885001107043" lon="8.79999854449634"><ele>414.0</ele><time>2026-04-04T13:20:09.002Z</time></trkpt><trkpt lat="45.82892229150793" lon="8.79990496502916"><ele>414.0</ele><time>2026-04-04T13:20:10.002Z</time></trkpt><trkpt lat="45.82900429965548" lon="8.799799087870024"><ele>414.0</ele><time>2026-04-04T13:20:11.002Z</time></trkpt><trkpt lat="45.82907117047227" lon="8.799712753844982"><ele>414.0</ele><time>2026-04-04T13:20:12.002Z</time></trkpt><trkpt lat="45.82913275552509" lon="8.799633243902496"><ele>414.0</ele><time>2026-04-04T13:20:13.002Z</time></trkpt><trkpt lat="45.829188206328034" lon="8.799561945171755"><ele>414.0</ele><time>2026-04-04T13:20:14.002Z</time></trkpt><trkpt lat="45.829237686476745" lon="8.799498906993378"><ele>414.0</ele><time>2026-04-04T13:20:15.002Z</time></trkpt><trkpt lat="45.82928503941658" lon="8.799438578766402"><ele>414.0</ele><time>2026-04-04T13:20:16.002Z</time></trkpt><trkpt lat="45.82933366110649" lon="8.799376634176783"><ele>414.0</ele><time>2026-04-04T13:20:17.002Z</time></trkpt><trkpt lat="45.82941189642193" lon="8.799276961537556"><ele>414.0</ele><time>2026-04-04T13:20:19.002Z</time></trkpt><trkpt lat="45.829470829396364" lon="8.799200974238733"><ele>414.0</ele><time>2026-04-04T13:20:21.002Z</time></trkpt><trkpt lat="45.82952307909986" lon="8.799131526164638"><ele>414.0</ele><time>2026-04-04T13:20:24.002Z</time></trkpt><trkpt lat="45.82957897472953" lon="8.799056559115206"><ele>414.0</ele><time>2026-04-04T13:20:59Z</time></trkpt><trkpt lat="45.82964510823162" lon="8.798967441387271"><ele>413.75</ele><time>2026-04-04T13:21:00Z</time></trkpt><trkpt lat="45.82972424039804" lon="8.798860010613025"><ele>413.5</ele><time>2026-04-04T13:21:01Z</time></trkpt><trkpt lat="45.82981135298414" lon="8.798738670260208"><ele>413.25</ele><time>2026-04-04T13:21:02.001Z</time></trkpt><trkpt lat="45.82990044314439" lon="8.798605777812341"><ele>413.0</ele><time>2026-04-04T13:21:03.001Z</time></trkpt><trkpt lat="45.829988337736474" lon="8.798445174749748"><ele>412.66666666666663</ele><time>2026-04-04T13:21:04.001Z</time></trkpt><trkpt lat="45.83010243267241" lon="8.798300742799404"><ele>412.33333333333337</ele><time>2026-04-04T13:21:05.001Z</time></trkpt><trkpt lat="45.8302206107342" lon="8.798153751522179"><ele>412.0</ele><time>2026-04-04T13:21:06.001Z</time></trkpt><trkpt lat="45.830348620029014" lon="8.79799207342262"><ele>413.6666666666667</ele><time>2026-04-04T13:21:07.001Z</time></trkpt><trkpt lat="45.83048700854397" lon="8.797823673004585"><ele>415.33333333333337</ele><time>2026-04-04T13:21:08.001Z</time></trkpt><trkpt lat="45.830630130038344" lon="8.797644617961282"><ele>417.0</ele><time>2026-04-04T13:21:09.001Z</time></trkpt><trkpt lat="45.83077990296518" lon="8.797460732001305"><ele>417.0</ele><time>2026-04-04T13:21:10.001Z</time></trkpt><trkpt lat="45.83093172323293" lon="8.797264599504011"><ele>417.0</ele><time>2026-04-04T13:21:11.001Z</time></trkpt><trkpt lat="45.8310890767791" lon="8.797056139756249"><ele>417.0</ele><time>2026-04-04T13:21:12.001Z</time></trkpt><trkpt lat="45.831251739009765" lon="8.796844519340498"><ele>417.66666666666663</ele><time>2026-04-04T13:21:13.001Z</time></trkpt><trkpt lat="45.83139852110375" lon="8.796656069111743"><ele>418.3333333333333</ele><time>2026-04-04T13:21:14.001Z</time></trkpt><trkpt lat="45.831549265679406" lon="8.796454283328591"><ele>419.0</ele><time>2026-04-04T13:21:15.001Z</time></trkpt><trkpt lat="45.831710703641114" lon="8.79627737878674"><ele>421.66666666666663</ele><time>2026-04-04T13:21:16.001Z</time></trkpt><trkpt lat="45.83185713599116" lon="8.796085897727112"><ele>424.33333333333337</ele><time>2026-04-04T13:21:17.001Z</time></trkpt><trkpt lat="45.83200763871063" lon="8.795867977832597"><ele>427.0</ele><time>2026-04-04T13:21:18.001Z</time></trkpt><trkpt lat="45.83214740953409" lon="8.795625744992483"><ele>428.0</ele><time>2026-04-04T13:21:19.001Z</time></trkpt><trkpt lat="45.83227629580507" lon="8.795374957601739"><ele>429.0</ele><time>2026-04-04T13:21:20.001Z</time></trkpt><trkpt lat="45.83240585670251" lon="8.795110366303662"><ele>430.0</ele><time>2026-04-04T13:21:21.001Z</time></trkpt><trkpt lat="45.83253131222315" lon="8.794852324370282"><ele>432.33333333333337</ele><time>2026-04-04T13:21:22.001Z</time></trkpt><trkpt lat="45.83265306513229" lon="8.794605225410368"><ele>434.66666666666663</ele><time>2026-04-04T13:21:23.001Z</time></trkpt><trkpt lat="45.83276986430177" lon="8.794366200825888"><ele>437.0</ele><time>2026-04-04T13:21:24.001Z</time></trkpt><trkpt lat="45.832881809534484" lon="8.794138513691985"><ele>437.0</ele><time>2026-04-04T13:21:25.001Z</time></trkpt><trkpt lat="45.83299905079205" lon="8.793905522790372"><ele>437.0</ele><time>2026-04-04T13:21:26.001Z</time></trkpt><trkpt lat="45.8331258730428" lon="8.793653491365056"><ele>437.0</ele><time>2026-04-04T13:21:27.001Z</time></trkpt><trkpt lat="45.8332441625461" lon="8.793390400073692"><ele>436.0</ele><time>2026-04-04T13:21:28.001Z</time></trkpt><trkpt lat="45.833373150373404" lon="8.79316255666117"><ele>435.0</ele><time>2026-04-04T13:21:29.001Z</time></trkpt><trkpt lat="45.833507140459126" lon="8.792871224078393"><ele>434.0</ele><time>2026-04-04T13:21:30.001Z</time></trkpt><trkpt lat="45.83364211650429" lon="8.792581846694784"><ele>432.66666666666663</ele><time>2026-04-04T13:21:31.001Z</time></trkpt><trkpt lat="45.83374336207497" lon="8.792372527244295"><ele>431.33333333333337</ele><time>2026-04-04T13:21:32.001Z</time></trkpt><trkpt lat="45.83383991189075" lon="8.792173067258913"><ele>430.0</ele><time>2026-04-04T13:21:33.001Z</time></trkpt><trkpt lat="45.83392980272203" lon="8.791979838335786"><ele>429.25</ele><time>2026-04-04T13:21:34.001Z</time></trkpt><trkpt lat="45.83400753519776" lon="8.791803414266"><ele>428.5</ele><time>2026-04-04T13:21:35.001Z</time></trkpt><trkpt lat="45.83408244376167" lon="8.79163690406402"><ele>427.75</ele><time>2026-04-04T13:21:36.001Z</time></trkpt><trkpt lat="45.834158637334234" lon="8.79148494397218"><ele>427.0</ele><time>2026-04-04T13:21:37.001Z</time></trkpt><trkpt lat="45.83424843239326" lon="8.791373844829565"><ele>427.0</ele><time>2026-04-04T13:21:38.001Z</time></trkpt><trkpt lat="45.83435273249546" lon="8.791270041881805"><ele>427.0</ele><time>2026-04-04T13:21:40.001Z</time></trkpt><trkpt lat="45.83444319728777" lon="8.791194255618608"><ele>427.0</ele><time>2026-04-04T13:21:41.001Z</time></trkpt><trkpt lat="45.83452620402829" lon="8.79106616035217"><ele>427.0</ele><time>2026-04-04T13:21:42.001Z</time></trkpt><trkpt lat="45.83460022208085" lon="8.790885172877974"><ele>427.0</ele><time>2026-04-04T13:21:43.001Z</time></trkpt><trkpt lat="45.83467356635348" lon="8.790680715230714"><ele>427.0</ele><time>2026-04-04T13:21:44.001Z</time></trkpt><trkpt lat="45.83474650012835" lon="8.790461690297041"><ele>427.0</ele><time>2026-04-04T13:21:45.001Z</time></trkpt><trkpt lat="45.83483221806146" lon="8.790233240979159"><ele>429.33333333333337</ele><time>2026-04-04T13:21:46.001Z</time></trkpt><trkpt lat="45.834929283068355" lon="8.790002256070945"><ele>431.66666666666663</ele><time>2026-04-04T13:21:47.001Z</time></trkpt><trkpt lat="45.83501304851657" lon="8.789747663374165"><ele>434.0</ele><time>2026-04-04T13:21:48.001Z</time></trkpt><trkpt lat="45.835100390193006" lon="8.789473108441307"><ele>433.3333333333333</ele><time>2026-04-04T13:21:49.001Z</time></trkpt><trkpt lat="45.83518563080785" lon="8.789180047267225"><ele>432.66666666666663</ele><time>2026-04-04T13:21:50.001Z</time></trkpt><trkpt lat="45.83526650053508" lon="8.788886748772965"><ele>432.0</ele><time>2026-04-04T13:21:51.001Z</time></trkpt><trkpt lat="45.83535247436053" lon="8.788591242729922"><ele>431.66666666666663</ele><time>2026-04-04T13:21:52.001Z</time></trkpt><trkpt lat="45.83543775286098" lon="8.788313810863182"><ele>431.3333333333333</ele><time>2026-04-04T13:21:53.001Z</time></trkpt><trkpt lat="45.835534741236735" lon="8.788041834108572"><ele>431.0</ele><time>2026-04-04T13:21:54.001Z</time></trkpt><trkpt lat="45.83561797688996" lon="8.787760891063156"><ele>431.66666666666663</ele><time>2026-04-04T13:21:55.001Z</time></trkpt><trkpt lat="45.835690518944716" lon="8.787473042175938"><ele>432.33333333333337</ele><time>2026-04-04T13:21:56.001Z</time></trkpt><trkpt lat="45.835771957152886" lon="8.78719252718299"><ele>433.0</ele><time>2026-04-04T13:21:57.001Z</time></trkpt><trkpt lat="45.83584792440509" lon="8.786934881906447"><ele>434.0</ele><time>2026-04-04T13:21:58.002Z</time></trkpt><trkpt lat="45.83593283652359" lon="8.786706654878573"><ele>435.0</ele><time>2026-04-04T13:21:59.002Z</time></trkpt><trkpt lat="45.83598637192395" lon="8.786472866174162"><ele>436.0</ele><time>2026-04-04T13:22:00.002Z</time></trkpt><trkpt lat="45.836061001695114" lon="8.786252480352028"><ele>436.0</ele><time>2026-04-04T13:22:01.002Z</time></trkpt><trkpt lat="45.83613156722973" lon="8.786018590382623"><ele>436.0</ele><time>2026-04-04T13:22:02.002Z</time></trkpt><trkpt lat="45.83620959906928" lon="8.785794561177408"><ele>436.0</ele><time>2026-04-04T13:22:03.002Z</time></trkpt><trkpt lat="45.836264711639465" lon="8.785558127856373"><ele>436.6666666666667</ele><time>2026-04-04T13:22:04.002Z</time></trkpt><trkpt lat="45.83633814410829" lon="8.785331214800971"><ele>437.33333333333337</ele><time>2026-04-04T13:22:05.002Z</time></trkpt><trkpt lat="45.836410375561435" lon="8.785099007183272"><ele>438.0</ele><time>2026-04-04T13:22:06.002Z</time></trkpt><trkpt lat="45.83649435573435" lon="8.784875965187458"><ele>438.33333333333337</ele><time>2026-04-04T13:22:07.002Z</time></trkpt><trkpt lat="45.836564144287166" lon="8.784647364596513"><ele>438.6666666666667</ele><time>2026-04-04T13:22:08.002Z</time></trkpt><trkpt lat="45.8366220030183" lon="8.784405084796008"><ele>439.0</ele><time>2026-04-04T13:22:09.002Z</time></trkpt><trkpt lat="45.8366955858029" lon="8.784173917805807"><ele>439.33333333333337</ele><time>2026-04-04T13:22:10.002Z</time></trkpt><trkpt lat="45.836764817785436" lon="8.78394223519636"><ele>439.66666666666663</ele><time>2026-04-04T13:22:11.002Z</time></trkpt><trkpt lat="45.83684345714207" lon="8.78372293886197"><ele>440.0</ele><time>2026-04-04T13:22:12.002Z</time></trkpt><trkpt lat="45.83691410117646" lon="8.783488249089327"><ele>441.3333333333333</ele><time>2026-04-04T13:22:13.002Z</time></trkpt><trkpt lat="45.83698387628435" lon="8.783261177633749"><ele>442.66666666666663</ele><time>2026-04-04T13:22:14.002Z</time></trkpt><trkpt lat="45.83705270799132" lon="8.783037176374627"><ele>444.0</ele><time>2026-04-04T13:22:15.002Z</time></trkpt><trkpt lat="45.83711974401797" lon="8.782818820550284"><ele>445.25</ele><time>2026-04-04T13:22:16.002Z</time></trkpt><trkpt lat="45.83716586580969" lon="8.782619211219641"><ele>446.5</ele><time>2026-04-04T13:22:17.002Z</time></trkpt><trkpt lat="45.83721865698611" lon="8.78243502400278"><ele>447.75</ele><time>2026-04-04T13:22:18.002Z</time></trkpt><trkpt lat="45.837274769768094" lon="8.782248043282019"><ele>449.0</ele><time>2026-04-04T13:22:19.002Z</time></trkpt><trkpt lat="45.83734721935839" lon="8.78206287897171"><ele>449.0</ele><time>2026-04-04T13:22:20.002Z</time></trkpt><trkpt lat="45.83739978795115" lon="8.781892168832275"><ele>449.0</ele><time>2026-04-04T13:22:21.002Z</time></trkpt><trkpt lat="45.83745388954974" lon="8.781727986977508"><ele>449.0</ele><time>2026-04-04T13:22:22.002Z</time></trkpt><trkpt lat="45.837481927725264" lon="8.78155900580005"><ele>449.0</ele><time>2026-04-04T13:22:23.002Z</time></trkpt><trkpt lat="45.83751640211511" lon="8.781400607698806"><ele>448.75</ele><time>2026-04-04T13:22:24.002Z</time></trkpt><trkpt lat="45.83751873029636" lon="8.78125199915932"><ele>448.5</ele><time>2026-04-04T13:22:25.002Z</time></trkpt><trkpt lat="45.83750988880701" lon="8.781091802245555"><ele>448.25</ele><time>2026-04-04T13:22:26.002Z</time></trkpt><trkpt lat="45.837468578364266" lon="8.780905967693407"><ele>448.0</ele><time>2026-04-04T13:22:27.002Z</time></trkpt><trkpt lat="45.83743155746403" lon="8.780727190517014"><ele>448.0</ele><time>2026-04-04T13:22:28.002Z</time></trkpt><trkpt lat="45.83740073390045" lon="8.78054776360066"><ele>448.0</ele><time>2026-04-04T13:22:29.002Z</time></trkpt><trkpt lat="45.83737320927841" lon="8.7803790261806"><ele>448.0</ele><time>2026-04-04T13:22:30.002Z</time></trkpt><trkpt lat="45.83734268350939" lon="8.780220297465531"><ele>448.0</ele><time>2026-04-04T13:22:31.002Z</time></trkpt><trkpt lat="45.83731298009631" lon="8.780063893277315"><ele>448.0</ele><time>2026-04-04T13:22:32.002Z</time></trkpt><trkpt lat="45.83728212201363" lon="8.779911580605251"><ele>448.0</ele><time>2026-04-04T13:22:33.002Z</time></trkpt><trkpt lat="45.83724414341077" lon="8.779743781137245"><ele>448.0</ele><time>2026-04-04T13:22:34.002Z</time></trkpt><trkpt lat="45.83722059185375" lon="8.77956862404845"><ele>448.0</ele><time>2026-04-04T13:22:35.001Z</time></trkpt><trkpt lat="45.83718299704723" lon="8.779392842036762"><ele>448.25</ele><time>2026-04-04T13:22:36.001Z</time></trkpt><trkpt lat="45.83714906993536" lon="8.779206859056648"><ele>448.5</ele><time>2026-04-04T13:22:37.001Z</time></trkpt><trkpt lat="45.83711625569874" lon="8.779028484794898"><ele>448.75</ele><time>2026-04-04T13:22:38.001Z</time></trkpt><trkpt lat="45.83708711166025" lon="8.778847675063604"><ele>449.0</ele><time>2026-04-04T13:22:39.001Z</time></trkpt><trkpt lat="45.83709674330932" lon="8.778669976470843"><ele>447.5</ele><time>2026-04-04T13:22:40.001Z</time></trkpt><trkpt lat="45.83710716850035" lon="8.778500825916298"><ele>446.0</ele><time>2026-04-04T13:22:41.001Z</time></trkpt><trkpt lat="45.837140320118095" lon="8.778328761979518"><ele>444.5</ele><time>2026-04-04T13:22:42Z</time></trkpt><trkpt lat="45.837193743839066" lon="8.778100879849703"><ele>443.0</ele><time>2026-04-04T13:22:43.001Z</time></trkpt><trkpt lat="45.83725997001615" lon="8.7778278181652"><ele>439.5</ele><time>2026-04-04T13:22:44Z</time></trkpt><trkpt lat="45.83733699826088" lon="8.7775107932725"><ele>436.0</ele><time>2026-04-04T13:22:45Z</time></trkpt><trkpt lat="45.83741305984199" lon="8.777196478750538"><ele>436.0</ele><time>2026-04-04T13:22:46Z</time></trkpt><trkpt lat="45.8374877197863" lon="8.776884251201588"><ele>436.0</ele><time>2026-04-04T13:22:47Z</time></trkpt><trkpt lat="45.83756204711921" lon="8.776573577755933"><ele>437.33333333333337</ele><time>2026-04-04T13:22:48Z</time></trkpt><trkpt lat="45.837630760999986" lon="8.776286971780115"><ele>438.66666666666663</ele><time>2026-04-04T13:22:49Z</time></trkpt><trkpt lat="45.83769500556776" lon="8.776018731836944"><ele>440.0</ele><time>2026-04-04T13:22:50Z</time></trkpt><trkpt lat="45.83775884946825" lon="8.775752070057017"><ele>440.0</ele><time>2026-04-04T13:22:51Z</time></trkpt><trkpt lat="45.83781873473903" lon="8.775501943210255"><ele>440.0</ele><time>2026-04-04T13:22:52Z</time></trkpt><trkpt lat="45.8378779966288" lon="8.775254419555363"><ele>440.0</ele><time>2026-04-04T13:22:53Z</time></trkpt><trkpt lat="45.8379350363225" lon="8.775016177711871"><ele>436.66666666666663</ele><time>2026-04-04T13:22:54Z</time></trkpt><trkpt lat="45.83798611560105" lon="8.774802833111002"><ele>433.33333333333337</ele><time>2026-04-04T13:22:55Z</time></trkpt><trkpt lat="45.83803617111304" lon="8.774593933623278"><ele>430.0</ele><time>2026-04-04T13:22:56Z</time></trkpt><trkpt lat="45.83808405039564" lon="8.774394092714136"><ele>428.25</ele><time>2026-04-04T13:22:57.001Z</time></trkpt><trkpt lat="45.83813102055102" lon="8.774198046307053"><ele>426.5</ele><time>2026-04-04T13:22:58.001Z</time></trkpt><trkpt lat="45.83816011287663" lon="8.77400700808263"><ele>424.75</ele><time>2026-04-04T13:22:59.001Z</time></trkpt><trkpt lat="45.838206985648696" lon="8.773835224860925"><ele>423.0</ele><time>2026-04-04T13:23:00.001Z</time></trkpt><trkpt lat="45.838247171611236" lon="8.773665052725775"><ele>421.66666666666663</ele><time>2026-04-04T13:23:01.001Z</time></trkpt><trkpt lat="45.83829707283532" lon="8.773468246634772"><ele>420.3333333333333</ele><time>2026-04-04T13:23:02.001Z</time></trkpt><trkpt lat="45.838343946589085" lon="8.77325630348585"><ele>419.0</ele><time>2026-04-04T13:23:03.001Z</time></trkpt><trkpt lat="45.83839340625469" lon="8.773047561092909"><ele>419.0</ele><time>2026-04-04T13:23:04.001Z</time></trkpt><trkpt lat="45.838442333579614" lon="8.772842841152796"><ele>419.0</ele><time>2026-04-04T13:23:05.001Z</time></trkpt><trkpt lat="45.83848639833565" lon="8.772657902557965"><ele>419.0</ele><time>2026-04-04T13:23:06.001Z</time></trkpt><trkpt lat="45.83852677754558" lon="8.772471320308986"><ele>419.0</ele><time>2026-04-04T13:23:07.001Z</time></trkpt><trkpt lat="45.83857165682204" lon="8.772283741068135"><ele>419.75</ele><time>2026-04-04T13:23:08.001Z</time></trkpt><trkpt lat="45.83861874527388" lon="8.772092926436537"><ele>420.5</ele><time>2026-04-04T13:23:09.001Z</time></trkpt><trkpt lat="45.83866898859206" lon="8.77189173954592"><ele>421.25</ele><time>2026-04-04T13:23:10.001Z</time></trkpt><trkpt lat="45.838723481296014" lon="8.771691100162428"><ele>422.0</ele><time>2026-04-04T13:23:11.001Z</time></trkpt><trkpt lat="45.838776558435605" lon="8.77148598693118"><ele>422.0</ele><time>2026-04-04T13:23:12.001Z</time></trkpt><trkpt lat="45.838837250014734" lon="8.771278427258599"><ele>422.0</ele><time>2026-04-04T13:23:13.001Z</time></trkpt><trkpt lat="45.838889896251814" lon="8.771065855239883"><ele>422.0</ele><time>2026-04-04T13:23:14.001Z</time></trkpt><trkpt lat="45.83893917546106" lon="8.770848160359254"><ele>421.25</ele><time>2026-04-04T13:23:15.001Z</time></trkpt><trkpt lat="45.838986898677604" lon="8.770635677412226"><ele>420.5</ele><time>2026-04-04T13:23:16.001Z</time></trkpt><trkpt lat="45.83903559308757" lon="8.770438844886401"><ele>419.75</ele><time>2026-04-04T13:23:17.001Z</time></trkpt><trkpt lat="45.839066277936496" lon="8.770253082678323"><ele>419.0</ele><time>2026-04-04T13:23:18.001Z</time></trkpt><trkpt lat="45.83911312468735" lon="8.770092181509812"><ele>419.0</ele><time>2026-04-04T13:23:19.001Z</time></trkpt><trkpt lat="45.83913415643378" lon="8.769932337802823"><ele>419.0</ele><time>2026-04-04T13:23:20.001Z</time></trkpt><trkpt lat="45.839172328535994" lon="8.769790804635251"><ele>419.0</ele><time>2026-04-04T13:23:21.001Z</time></trkpt><trkpt lat="45.83920647782471" lon="8.76966540888222"><ele>419.0</ele><time>2026-04-04T13:23:22.001Z</time></trkpt><trkpt lat="45.83923798071849" lon="8.769518397900237"><ele>419.0</ele><time>2026-04-04T13:23:23.001Z</time></trkpt><trkpt lat="45.83927509114601" lon="8.769360156377948"><ele>420.4</ele><time>2026-04-04T13:23:24.001Z</time></trkpt><trkpt lat="45.83930779850274" lon="8.769207729665323"><ele>421.79999999999995</ele><time>2026-04-04T13:23:25.001Z</time></trkpt><trkpt lat="45.83933943865981" lon="8.769066661870946"><ele>423.20000000000005</ele><time>2026-04-04T13:23:26.001Z</time></trkpt><trkpt lat="45.839366667451834" lon="8.76894226430405"><ele>424.6</ele><time>2026-04-04T13:23:27.001Z</time></trkpt><trkpt lat="45.8394025076385" lon="8.76880926448993"><ele>426.0</ele><time>2026-04-04T13:23:28.001Z</time></trkpt><trkpt lat="45.839440761821635" lon="8.768672523291022"><ele>425.99999999999994</ele><time>2026-04-04T13:23:29.001Z</time></trkpt><trkpt lat="45.839473391752385" lon="8.768547995920757"><ele>426.0</ele><time>2026-04-04T13:23:30.001Z</time></trkpt><trkpt lat="45.83949971505299" lon="8.768454697684167"><ele>426.0</ele><time>2026-04-04T13:23:31.001Z</time></trkpt><trkpt lat="45.83952521236341" lon="8.768364474689571"><ele>426.0</ele><time>2026-04-04T13:23:32.001Z</time></trkpt><trkpt lat="45.839548408760734" lon="8.768259810557538"><ele>426.0</ele><time>2026-04-04T13:23:33.001Z</time></trkpt><trkpt lat="45.8395708990572" lon="8.768167159528613"><ele>425.99999999999994</ele><time>2026-04-04T13:23:34.001Z</time></trkpt><trkpt lat="45.83959190889413" lon="8.768070832180511"><ele>426.0</ele><time>2026-04-04T13:23:35.001Z</time></trkpt><trkpt lat="45.83961157246698" lon="8.767961604723407"><ele>426.5</ele><time>2026-04-04T13:23:36.001Z</time></trkpt><trkpt lat="45.83962543816334" lon="8.76784795968007"><ele>427.0</ele><time>2026-04-04T13:23:37.001Z</time></trkpt><trkpt lat="45.83962851726217" lon="8.767710757549535"><ele>427.5</ele><time>2026-04-04T13:23:38.001Z</time></trkpt><trkpt lat="45.839634343065406" lon="8.767523225038323"><ele>428.0</ele><time>2026-04-04T13:23:39.001Z</time></trkpt><trkpt lat="45.839638198924355" lon="8.767299168652317"><ele>428.0</ele><time>2026-04-04T13:23:40.001Z</time></trkpt><trkpt lat="45.83964570913279" lon="8.767080565215322"><ele>428.0</ele><time>2026-04-04T13:23:41.001Z</time></trkpt><trkpt lat="45.839656945708256" lon="8.766864282767239"><ele>428.0</ele><time>2026-04-04T13:23:42.001Z</time></trkpt><trkpt lat="45.83966226468103" lon="8.766637154586796"><ele>427.66666666666663</ele><time>2026-04-04T13:23:43.001Z</time></trkpt><trkpt lat="45.839673460815305" lon="8.766398963923118"><ele>427.33333333333337</ele><time>2026-04-04T13:23:44.001Z</time></trkpt><trkpt lat="45.8396995395014" lon="8.766150940084612"><ele>427.0</ele><time>2026-04-04T13:23:45.001Z</time></trkpt><trkpt lat="45.83971188913484" lon="8.765902856055545"><ele>427.0</ele><time>2026-04-04T13:23:46.001Z</time></trkpt><trkpt lat="45.83970995359588" lon="8.765643280228728"><ele>427.0</ele><time>2026-04-04T13:23:47.001Z</time></trkpt><trkpt lat="45.839727877470004" lon="8.765397716580203"><ele>427.0</ele><time>2026-04-04T13:23:48.001Z</time></trkpt><trkpt lat="45.83973842202836" lon="8.765150134141205"><ele>425.33333333333337</ele><time>2026-04-04T13:23:49.001Z</time></trkpt><trkpt lat="45.83974649091596" lon="8.764896966358727"><ele>423.66666666666663</ele><time>2026-04-04T13:23:50.001Z</time></trkpt><trkpt lat="45.839759626961005" lon="8.764654816659112"><ele>422.0</ele><time>2026-04-04T13:23:51.001Z</time></trkpt><trkpt lat="45.839773844028116" lon="8.764422332431147"><ele>421.3333333333333</ele><time>2026-04-04T13:23:52.001Z</time></trkpt><trkpt lat="45.83978769432453" lon="8.764190694659913"><ele>420.66666666666663</ele><time>2026-04-04T13:23:53.001Z</time></trkpt><trkpt lat="45.83980122882465" lon="8.763964617210016"><ele>420.0</ele><time>2026-04-04T13:23:54.001Z</time></trkpt><trkpt lat="45.83980796901212" lon="8.763737500684146"><ele>419.66666666666663</ele><time>2026-04-04T13:23:55.001Z</time></trkpt><trkpt lat="45.839822198503256" lon="8.76351921850386"><ele>419.3333333333333</ele><time>2026-04-04T13:23:56.001Z</time></trkpt><trkpt lat="45.839846816614084" lon="8.763295492571352"><ele>419.0</ele><time>2026-04-04T13:23:57.001Z</time></trkpt><trkpt lat="45.83985840477242" lon="8.763072460035113"><ele>419.0</ele><time>2026-04-04T13:23:58.001Z</time></trkpt><trkpt lat="45.83986996818218" lon="8.762849897826298"><ele>419.0</ele><time>2026-04-04T13:23:59.001Z</time></trkpt><trkpt lat="45.83988222896894" lon="8.762613913086136"><ele>419.0</ele><time>2026-04-04T13:24:00.001Z</time></trkpt><trkpt lat="45.83989587381651" lon="8.762351288897333"><ele>417.66666666666663</ele><time>2026-04-04T13:24:01.001Z</time></trkpt><trkpt lat="45.83990898382939" lon="8.762099699914813"><ele>416.33333333333337</ele><time>2026-04-04T13:24:02.001Z</time></trkpt><trkpt lat="45.839922980078136" lon="8.761837282187164"><ele>415.0</ele><time>2026-04-04T13:24:03.001Z</time></trkpt><trkpt lat="45.83993710569614" lon="8.761572438545254"><ele>413.6666666666667</ele><time>2026-04-04T13:24:04.002Z</time></trkpt><trkpt lat="45.83993966119856" lon="8.761307126027008"><ele>412.33333333333337</ele><time>2026-04-04T13:24:05.002Z</time></trkpt><trkpt lat="45.83995182595325" lon="8.761048936000776"><ele>411.0</ele><time>2026-04-04T13:24:06.002Z</time></trkpt><trkpt lat="45.839972924587826" lon="8.760784084207362"><ele>410.33333333333337</ele><time>2026-04-04T13:24:07.002Z</time></trkpt><trkpt lat="45.83998122477295" lon="8.76051259019696"><ele>409.6666666666667</ele><time>2026-04-04T13:24:08.002Z</time></trkpt><trkpt lat="45.83999697479493" lon="8.76026151979735"><ele>409.0</ele><time>2026-04-04T13:24:09.002Z</time></trkpt><trkpt lat="45.84001038814925" lon="8.76002123715506"><ele>407.6666666666667</ele><time>2026-04-04T13:24:10.002Z</time></trkpt><trkpt lat="45.840021524876036" lon="8.759776226556038"><ele>406.33333333333337</ele><time>2026-04-04T13:24:11.002Z</time></trkpt><trkpt lat="45.84003415728186" lon="8.759535504987559"><ele>405.0</ele><time>2026-04-04T13:24:12.002Z</time></trkpt><trkpt lat="45.84004801032196" lon="8.759278843856697"><ele>404.33333333333337</ele><time>2026-04-04T13:24:13.002Z</time></trkpt><trkpt lat="45.84006111794718" lon="8.759027665955958"><ele>403.6666666666667</ele><time>2026-04-04T13:24:14.002Z</time></trkpt><trkpt lat="45.8400737204222" lon="8.758776036566555"><ele>403.0</ele><time>2026-04-04T13:24:15.002Z</time></trkpt><trkpt lat="45.84009047506976" lon="8.758541776551978"><ele>403.0</ele><time>2026-04-04T13:24:16.002Z</time></trkpt><trkpt lat="45.84009689495572" lon="8.758313684474205"><ele>403.0</ele><time>2026-04-04T13:24:17.002Z</time></trkpt><trkpt lat="45.8401088103126" lon="8.758086462064481"><ele>403.0</ele><time>2026-04-04T13:24:18.002Z</time></trkpt><trkpt lat="45.84012083642843" lon="8.75785794804527"><ele>403.25</ele><time>2026-04-04T13:24:19.002Z</time></trkpt><trkpt lat="45.840134274355144" lon="8.757639464615158"><ele>403.5</ele><time>2026-04-04T13:24:20.002Z</time></trkpt><trkpt lat="45.84013723499164" lon="8.757439605939592"><ele>403.75</ele><time>2026-04-04T13:24:21.002Z</time></trkpt><trkpt lat="45.84014238043096" lon="8.757248398850292"><ele>404.0</ele><time>2026-04-04T13:24:22.002Z</time></trkpt><trkpt lat="45.84013016444107" lon="8.757070851958607"><ele>404.0</ele><time>2026-04-04T13:24:23.002Z</time></trkpt><trkpt lat="45.84016365535083" lon="8.756875039819505"><ele>404.0</ele><time>2026-04-04T13:24:24.002Z</time></trkpt><trkpt lat="45.84007512054321" lon="8.75666152078831"><ele>404.0</ele><time>2026-04-04T13:24:25.002Z</time></trkpt><trkpt lat="45.84001057551735" lon="8.756479548159989"><ele>404.0</ele><time>2026-04-04T13:24:26.002Z</time></trkpt><trkpt lat="45.83994699314209" lon="8.756301880849595"><ele>404.0</ele><time>2026-04-04T13:24:27.002Z</time></trkpt><trkpt lat="45.83988686600251" lon="8.756133868327217"><ele>404.0</ele><time>2026-04-04T13:24:28.002Z</time></trkpt><trkpt lat="45.839820348206146" lon="8.755947586877994"><ele>404.0</ele><time>2026-04-04T13:24:29.002Z</time></trkpt><trkpt lat="45.83974908103799" lon="8.75574546329101"><ele>404.3333333333333</ele><time>2026-04-04T13:24:30.002Z</time></trkpt><trkpt lat="45.839670586685095" lon="8.755518994431423"><ele>404.66666666666663</ele><time>2026-04-04T13:24:31.002Z</time></trkpt><trkpt lat="45.83959471660955" lon="8.755323035613095"><ele>405.0</ele><time>2026-04-04T13:24:32.002Z</time></trkpt><trkpt lat="45.83957222621322" lon="8.755114971559214"><ele>405.0</ele><time>2026-04-04T13:24:33.002Z</time></trkpt><trkpt lat="45.83955847522547" lon="8.754900311170928"><ele>405.0</ele><time>2026-04-04T13:24:34.002Z</time></trkpt><trkpt lat="45.839562854427776" lon="8.754693739311238"><ele>405.0</ele><time>2026-04-04T13:24:35.002Z</time></trkpt><trkpt lat="45.839578863079176" lon="8.754473377775428"><ele>405.0</ele><time>2026-04-04T13:24:36.002Z</time></trkpt><trkpt lat="45.83959583263596" lon="8.754272434902749"><ele>404.0</ele><time>2026-04-04T13:24:37.002Z</time></trkpt><trkpt lat="45.839624175815295" lon="8.75401719399425"><ele>403.0</ele><time>2026-04-04T13:24:38.002Z</time></trkpt><trkpt lat="45.83965798318452" lon="8.753742508944477"><ele>402.0</ele><time>2026-04-04T13:24:39.002Z</time></trkpt><trkpt lat="45.839693229643984" lon="8.753454619553091"><ele>401.0</ele><time>2026-04-04T13:24:40.002Z</time></trkpt><trkpt lat="45.839727923157426" lon="8.753145887493613"><ele>400.0</ele><time>2026-04-04T13:24:41Z</time></trkpt><trkpt lat="45.83976309579075" lon="8.752825590569211"><ele>399.0</ele><time>2026-04-04T13:24:42Z</time></trkpt><trkpt lat="45.839798600127786" lon="8.752497215128562"><ele>396.33333333333337</ele><time>2026-04-04T13:24:43Z</time></trkpt><trkpt lat="45.83983082839416" lon="8.752199139523471"><ele>393.6666666666667</ele><time>2026-04-04T13:24:44Z</time></trkpt><trkpt lat="45.83986188873317" lon="8.751920812538414"><ele>391.0</ele><time>2026-04-04T13:24:45Z</time></trkpt><trkpt lat="45.8399080398263" lon="8.75167584355754"><ele>389.0</ele><time>2026-04-04T13:24:46Z</time></trkpt><trkpt lat="45.83998226367824" lon="8.751476823515228"><ele>387.0</ele><time>2026-04-04T13:24:47Z</time></trkpt><trkpt lat="45.84008201682359" lon="8.751290183255596"><ele>385.0</ele><time>2026-04-04T13:24:48Z</time></trkpt><trkpt lat="45.84019493038703" lon="8.751096002197926"><ele>387.0</ele><time>2026-04-04T13:24:49Z</time></trkpt><trkpt lat="45.840311005525145" lon="8.75089360575394"><ele>389.0</ele><time>2026-04-04T13:24:50Z</time></trkpt><trkpt lat="45.84043230936174" lon="8.750683810220384"><ele>391.0</ele><time>2026-04-04T13:24:51Z</time></trkpt><trkpt lat="45.84055342530855" lon="8.75047532284396"><ele>391.0</ele><time>2026-04-04T13:24:52Z</time></trkpt><trkpt lat="45.84067779163192" lon="8.750259889954783"><ele>391.0</ele><time>2026-04-04T13:24:53Z</time></trkpt><trkpt lat="45.84080106482626" lon="8.75004663892218"><ele>391.0</ele><time>2026-04-04T13:24:54Z</time></trkpt><trkpt lat="45.84091712850212" lon="8.749845860876931"><ele>391.33333333333337</ele><time>2026-04-04T13:24:55Z</time></trkpt><trkpt lat="45.84102132288403" lon="8.749666007669358"><ele>391.66666666666663</ele><time>2026-04-04T13:24:56Z</time></trkpt><trkpt lat="45.841119592211925" lon="8.749496348009133"><ele>392.0</ele><time>2026-04-04T13:24:57Z</time></trkpt><trkpt lat="45.84121304695077" lon="8.749335000784349"><ele>392.0</ele><time>2026-04-04T13:24:58Z</time></trkpt><trkpt lat="45.84128629460807" lon="8.749208541943137"><ele>392.0</ele><time>2026-04-04T13:24:59Z</time></trkpt><trkpt lat="45.84136877175054" lon="8.749066550836366"><ele>392.0</ele><time>2026-04-04T13:25:00Z</time></trkpt><trkpt lat="45.841453062093215" lon="8.748921677963397"><ele>392.0</ele><time>2026-04-04T13:25:01Z</time></trkpt><trkpt lat="45.84153583580249" lon="8.748779411808481"><ele>392.0</ele><time>2026-04-04T13:25:02Z</time></trkpt><trkpt lat="45.84159655838416" lon="8.748634982734837"><ele>392.0</ele><time>2026-04-04T13:25:03Z</time></trkpt><trkpt lat="45.84166025743173" lon="8.748491553849792"><ele>392.0</ele><time>2026-04-04T13:25:04Z</time></trkpt><trkpt lat="45.84169539853965" lon="8.748321201913727"><ele>392.0</ele><time>2026-04-04T13:25:05Z</time></trkpt><trkpt lat="45.84171510921185" lon="8.74817088763773"><ele>391.20000000000005</ele><time>2026-04-04T13:25:06Z</time></trkpt><trkpt lat="45.84174232712207" lon="8.748023396123676"><ele>390.4</ele><time>2026-04-04T13:25:07Z</time></trkpt><trkpt lat="45.84175919768614" lon="8.747886811862445"><ele>389.6</ele><time>2026-04-04T13:25:08Z</time></trkpt><trkpt lat="45.84177089181951" lon="8.747748712276694"><ele>388.79999999999995</ele><time>2026-04-04T13:25:09Z</time></trkpt><trkpt lat="45.841774360856654" lon="8.747602819676077"><ele>388.0</ele><time>2026-04-04T13:25:10.001Z</time></trkpt><trkpt lat="45.84175770707111" lon="8.747454531401063"><ele>388.00000000000006</ele><time>2026-04-04T13:25:11.001Z</time></trkpt><trkpt lat="45.84173715676104" lon="8.747327473482592"><ele>388.0</ele><time>2026-04-04T13:25:12.001Z</time></trkpt><trkpt lat="45.84171212045019" lon="8.74720564163052"><ele>388.0</ele><time>2026-04-04T13:25:13.001Z</time></trkpt><trkpt lat="45.841677510702745" lon="8.747090920909928"><ele>388.0</ele><time>2026-04-04T13:25:14.001Z</time></trkpt><trkpt lat="45.84163586374577" lon="8.746978212830362"><ele>388.00000000000006</ele><time>2026-04-04T13:25:15.001Z</time></trkpt><trkpt lat="45.841605794253596" lon="8.746868769278814"><ele>388.0</ele><time>2026-04-04T13:25:16.001Z</time></trkpt><trkpt lat="45.84159894405321" lon="8.746726920712822"><ele>388.0</ele><time>2026-04-04T13:25:17.001Z</time></trkpt><trkpt lat="45.84158651279123" lon="8.746586913996767"><ele>388.0</ele><time>2026-04-04T13:25:18.001Z</time></trkpt><trkpt lat="45.841562946442075" lon="8.746415926607432"><ele>388.0</ele><time>2026-04-04T13:25:19.001Z</time></trkpt><trkpt lat="45.84155872006014" lon="8.74622684254374"><ele>388.0</ele><time>2026-04-04T13:25:20.001Z</time></trkpt><trkpt lat="45.841550753574644" lon="8.746031185447183"><ele>388.0</ele><time>2026-04-04T13:25:21.001Z</time></trkpt><trkpt lat="45.841535282731286" lon="8.745844869816862"><ele>388.0</ele><time>2026-04-04T13:25:22.001Z</time></trkpt><trkpt lat="45.84149862475813" lon="8.745664406463826"><ele>388.0</ele><time>2026-04-04T13:25:23.001Z</time></trkpt><trkpt lat="45.84144120764886" lon="8.74549419879704"><ele>388.0</ele><time>2026-04-04T13:25:24.001Z</time></trkpt><trkpt lat="45.84137741426083" lon="8.745320587933112"><ele>387.75</ele><time>2026-04-04T13:25:25.001Z</time></trkpt><trkpt lat="45.84131437212747" lon="8.745173012389083"><ele>387.5</ele><time>2026-04-04T13:25:26.001Z</time></trkpt><trkpt lat="45.841261464251694" lon="8.745018095482646"><ele>387.25</ele><time>2026-04-04T13:25:27.001Z</time></trkpt><trkpt lat="45.8411974810414" lon="8.7448721392865"><ele>387.0</ele><time>2026-04-04T13:25:28.001Z</time></trkpt><trkpt lat="45.84114483173133" lon="8.744742148641814"><ele>387.0</ele><time>2026-04-04T13:25:29.001Z</time></trkpt><trkpt lat="45.841100630122675" lon="8.744616287474106"><ele>387.0</ele><time>2026-04-04T13:25:30.001Z</time></trkpt><trkpt lat="45.84106063289546" lon="8.744473579636912"><ele>387.0</ele><time>2026-04-04T13:25:31.001Z</time></trkpt><trkpt lat="45.84102313031367" lon="8.74431778367935"><ele>387.0</ele><time>2026-04-04T13:25:32.001Z</time></trkpt><trkpt lat="45.84097482663841" lon="8.744155054023956"><ele>387.0</ele><time>2026-04-04T13:25:33.001Z</time></trkpt><trkpt lat="45.8409218926701" lon="8.744008993008247"><ele>385.0</ele><time>2026-04-04T13:25:34.001Z</time></trkpt><trkpt lat="45.840866772812824" lon="8.743877489938578"><ele>383.0</ele><time>2026-04-04T13:25:35.001Z</time></trkpt><trkpt lat="45.84082965569492" lon="8.743777809279365"><ele>381.0</ele><time>2026-04-04T13:25:36.001Z</time></trkpt><trkpt lat="45.84079519865901" lon="8.743684830614379"><ele>379.0</ele><time>2026-04-04T13:25:37.001Z</time></trkpt><trkpt lat="45.84075480717563" lon="8.743517046133409"><ele>377.0</ele><time>2026-04-04T13:25:39.001Z</time></trkpt><trkpt lat="45.84075783256494" lon="8.743416947351681"><ele>376.40000000000003</ele><time>2026-04-04T13:25:40.001Z</time></trkpt><trkpt lat="45.84075452164985" lon="8.743297086352152"><ele>375.8</ele><time>2026-04-04T13:25:41.001Z</time></trkpt><trkpt lat="45.84073161100835" lon="8.743183530825354"><ele>375.2</ele><time>2026-04-04T13:25:42.001Z</time></trkpt><trkpt lat="45.84059720996355" lon="8.74305448591448"><ele>374.6</ele><time>2026-04-04T13:25:44.001Z</time></trkpt><trkpt lat="45.84052831735028" lon="8.743003020994704"><ele>374.0</ele><time>2026-04-04T13:25:45.001Z</time></trkpt><trkpt lat="45.84048188241592" lon="8.742921683875176"><ele>374.0</ele><time>2026-04-04T13:25:46.001Z</time></trkpt><trkpt lat="45.84043188787768" lon="8.742796707906816"><ele>374.0</ele><time>2026-04-04T13:25:47.001Z</time></trkpt><trkpt lat="45.84038321445843" lon="8.742658335839565"><ele>374.0</ele><time>2026-04-04T13:25:48.001Z</time></trkpt><trkpt lat="45.84033586187604" lon="8.742519594072041"><ele>374.0</ele><time>2026-04-04T13:25:49.001Z</time></trkpt><trkpt lat="45.840287468130114" lon="8.742377951503013"><ele>374.0</ele><time>2026-04-04T13:25:50.001Z</time></trkpt><trkpt lat="45.84023467043016" lon="8.742226951322257"><ele>375.2</ele><time>2026-04-04T13:25:51.001Z</time></trkpt><trkpt lat="45.84018431660368" lon="8.74207660673695"><ele>376.4</ele><time>2026-04-04T13:25:52.001Z</time></trkpt><trkpt lat="45.840126291657285" lon="8.74193039415786"><ele>377.6</ele><time>2026-04-04T13:25:53.001Z</time></trkpt><trkpt lat="45.84008263369011" lon="8.741792977998777"><ele>378.8</ele><time>2026-04-04T13:25:54.001Z</time></trkpt><trkpt lat="45.84004296260814" lon="8.741662125536324"><ele>380.0</ele><time>2026-04-04T13:25:55.001Z</time></trkpt><trkpt lat="45.84001076201731" lon="8.741515223982883"><ele>375.75</ele><time>2026-04-04T13:25:56.001Z</time></trkpt><trkpt lat="45.84000701389436" lon="8.74134262515884"><ele>371.5</ele><time>2026-04-04T13:25:57.001Z</time></trkpt><trkpt lat="45.840018201880675" lon="8.741112128358834"><ele>367.25</ele><time>2026-04-04T13:25:58.001Z</time></trkpt><trkpt lat="45.840028371096295" lon="8.740881136327713"><ele>363.0</ele><time>2026-04-04T13:25:59.001Z</time></trkpt><trkpt lat="45.84001892981403" lon="8.74071095786718"><ele>362.4</ele><time>2026-04-04T13:26:00.001Z</time></trkpt><trkpt lat="45.840025161282426" lon="8.740566007870779"><ele>361.79999999999995</ele><time>2026-04-04T13:26:01.001Z</time></trkpt><trkpt lat="45.84003551325317" lon="8.740419262816653"><ele>361.2</ele><time>2026-04-04T13:26:02.001Z</time></trkpt><trkpt lat="45.840056515205866" lon="8.740277569416671"><ele>360.6</ele><time>2026-04-04T13:26:03.001Z</time></trkpt><trkpt lat="45.840097938783224" lon="8.740147651174928"><ele>360.0</ele><time>2026-04-04T13:26:04.001Z</time></trkpt><trkpt lat="45.84016066505696" lon="8.740036986442743"><ele>362.75</ele><time>2026-04-04T13:26:05.001Z</time></trkpt><trkpt lat="45.840261542442" lon="8.739948225230478"><ele>365.5</ele><time>2026-04-04T13:26:06.001Z</time></trkpt><trkpt lat="45.840377134599976" lon="8.739862876350955"><ele>368.25</ele><time>2026-04-04T13:26:07.001Z</time></trkpt><trkpt lat="45.84049289843022" lon="8.739762213776675"><ele>371.0</ele><time>2026-04-04T13:26:08.001Z</time></trkpt><trkpt lat="45.840614778445264" lon="8.739688533066952"><ele>371.0</ele><time>2026-04-04T13:26:09.001Z</time></trkpt><trkpt lat="45.840732081396865" lon="8.739585751697371"><ele>371.0</ele><time>2026-04-04T13:26:10.001Z</time></trkpt><trkpt lat="45.840847153751426" lon="8.7394773044003"><ele>371.0</ele><time>2026-04-04T13:26:11.001Z</time></trkpt><trkpt lat="45.840961433551534" lon="8.739358652705011"><ele>371.0</ele><time>2026-04-04T13:26:12.001Z</time></trkpt><trkpt lat="45.84106153224298" lon="8.739237929240534"><ele>373.75</ele><time>2026-04-04T13:26:13.001Z</time></trkpt><trkpt lat="45.841152271594886" lon="8.739118110266203"><ele>376.5</ele><time>2026-04-04T13:26:14.001Z</time></trkpt><trkpt lat="45.84123519845472" lon="8.738997306853303"><ele>379.25</ele><time>2026-04-04T13:26:15.001Z</time></trkpt><trkpt lat="45.841298403212726" lon="8.73883622312098"><ele>382.0</ele><time>2026-04-04T13:26:16.002Z</time></trkpt><trkpt lat="45.8413516831659" lon="8.738625658124151"><ele>376.66666666666663</ele><time>2026-04-04T13:26:17.002Z</time></trkpt><trkpt lat="45.8413965587639" lon="8.73835435797521"><ele>371.3333333333333</ele><time>2026-04-04T13:26:18.002Z</time></trkpt><trkpt lat="45.84146705285199" lon="8.738076796636978"><ele>366.0</ele><time>2026-04-04T13:26:19.002Z</time></trkpt><trkpt lat="45.84152335564122" lon="8.73780621190795"><ele>363.6666666666667</ele><time>2026-04-04T13:26:20.002Z</time></trkpt><trkpt lat="45.841550556859566" lon="8.73752556312968"><ele>361.33333333333337</ele><time>2026-04-04T13:26:21.002Z</time></trkpt><trkpt lat="45.841612898070785" lon="8.737259137095757"><ele>359.0</ele><time>2026-04-04T13:26:22.002Z</time></trkpt><trkpt lat="45.84167727514819" lon="8.736991612920798"><ele>356.6666666666667</ele><time>2026-04-04T13:26:23.002Z</time></trkpt><trkpt lat="45.84174052619166" lon="8.736723736492243"><ele>354.3333333333333</ele><time>2026-04-04T13:26:24.002Z</time></trkpt><trkpt lat="45.84179879237042" lon="8.736456346255961"><ele>352.0</ele><time>2026-04-04T13:26:25.002Z</time></trkpt><trkpt lat="45.841855666835244" lon="8.736177886153168"><ele>357.0</ele><time>2026-04-04T13:26:26.002Z</time></trkpt><trkpt lat="45.8419107863585" lon="8.735902448325536"><ele>362.0</ele><time>2026-04-04T13:26:27.002Z</time></trkpt><trkpt lat="45.84196768386941" lon="8.735628556466109"><ele>367.0</ele><time>2026-04-04T13:26:28.002Z</time></trkpt><trkpt lat="45.84202631415716" lon="8.735353434833621"><ele>366.3333333333333</ele><time>2026-04-04T13:26:29.002Z</time></trkpt><trkpt lat="45.84208793344534" lon="8.73507909190813"><ele>365.6666666666667</ele><time>2026-04-04T13:26:30.002Z</time></trkpt><trkpt lat="45.84214649921474" lon="8.734812574632311"><ele>365.0</ele><time>2026-04-04T13:26:31.002Z</time></trkpt><trkpt lat="45.84218923969043" lon="8.73456835083769"><ele>363.6666666666667</ele><time>2026-04-04T13:26:32.002Z</time></trkpt><trkpt lat="45.842210626287134" lon="8.73433412304104"><ele>362.3333333333333</ele><time>2026-04-04T13:26:33.002Z</time></trkpt><trkpt lat="45.842217690553994" lon="8.734089879110229"><ele>361.0</ele><time>2026-04-04T13:26:34.002Z</time></trkpt><trkpt lat="45.842203002418785" lon="8.733827217293681"><ele>361.0</ele><time>2026-04-04T13:26:35.002Z</time></trkpt><trkpt lat="45.84218045334336" lon="8.733558289146798"><ele>361.0</ele><time>2026-04-04T13:26:36.002Z</time></trkpt><trkpt lat="45.8421613891151" lon="8.73328163675366"><ele>361.0</ele><time>2026-04-04T13:26:37.002Z</time></trkpt><trkpt lat="45.84213493324452" lon="8.732995923367346"><ele>359.3333333333333</ele><time>2026-04-04T13:26:38.002Z</time></trkpt><trkpt lat="45.842105837294014" lon="8.732700925542648"><ele>357.6666666666667</ele><time>2026-04-04T13:26:39.002Z</time></trkpt><trkpt lat="45.84208252905302" lon="8.732411096267915"><ele>356.0</ele><time>2026-04-04T13:26:40.002Z</time></trkpt><trkpt lat="45.842068781043494" lon="8.73214858223731"><ele>354.33333333333337</ele><time>2026-04-04T13:26:41.002Z</time></trkpt><trkpt lat="45.84208341170984" lon="8.73188644850952"><ele>352.6666666666667</ele><time>2026-04-04T13:26:42.002Z</time></trkpt><trkpt lat="45.84211360518868" lon="8.731616148352716"><ele>351.0</ele><time>2026-04-04T13:26:43.002Z</time></trkpt><trkpt lat="45.842183846269855" lon="8.73134566551731"><ele>351.0</ele><time>2026-04-04T13:26:44.002Z</time></trkpt><trkpt lat="45.84223183984594" lon="8.73107248097269"><ele>351.0</ele><time>2026-04-04T13:26:45.002Z</time></trkpt><trkpt lat="45.8423050985691" lon="8.730807583473792"><ele>351.0</ele><time>2026-04-04T13:26:46.002Z</time></trkpt><trkpt lat="45.84237223282568" lon="8.730533951573943"><ele>349.0</ele><time>2026-04-04T13:26:47Z</time></trkpt><trkpt lat="45.84243700355734" lon="8.730281517354245"><ele>347.0</ele><time>2026-04-04T13:26:48Z</time></trkpt><trkpt lat="45.84249800060845" lon="8.730038958452072"><ele>345.0</ele><time>2026-04-04T13:26:49Z</time></trkpt><trkpt lat="45.842558333902055" lon="8.72978710892236"><ele>346.6666666666667</ele><time>2026-04-04T13:26:50Z</time></trkpt><trkpt lat="45.842625922098556" lon="8.72952793944884"><ele>348.33333333333337</ele><time>2026-04-04T13:26:51Z</time></trkpt><trkpt lat="45.84268619355078" lon="8.729297361973789"><ele>350.0</ele><time>2026-04-04T13:26:52Z</time></trkpt><trkpt lat="45.84273730716731" lon="8.729095878363726"><ele>350.0</ele><time>2026-04-04T13:26:53Z</time></trkpt><trkpt lat="45.842785892298" lon="8.728893854220253"><ele>350.0</ele><time>2026-04-04T13:26:54Z</time></trkpt><trkpt lat="45.842820101198875" lon="8.728694411101483"><ele>350.0</ele><time>2026-04-04T13:26:55Z</time></trkpt><trkpt lat="45.84282925905988" lon="8.728495042418304"><ele>350.0</ele><time>2026-04-04T13:26:56Z</time></trkpt><trkpt lat="45.842815836466734" lon="8.728318464320864"><ele>349.0</ele><time>2026-04-04T13:26:57Z</time></trkpt><trkpt lat="45.84279850545879" lon="8.728133642933859"><ele>348.0</ele><time>2026-04-04T13:26:58Z</time></trkpt><trkpt lat="45.842806275307034" lon="8.72793932696393"><ele>347.0</ele><time>2026-04-04T13:26:59Z</time></trkpt><trkpt lat="45.84280198041786" lon="8.727739047842157"><ele>346.0</ele><time>2026-04-04T13:27:00Z</time></trkpt><trkpt lat="45.84279576300378" lon="8.727473890141642"><ele>343.66666666666663</ele><time>2026-04-04T13:27:01Z</time></trkpt><trkpt lat="45.84278861069887" lon="8.72719946684337"><ele>341.3333333333333</ele><time>2026-04-04T13:27:02Z</time></trkpt><trkpt lat="45.8427717334179" lon="8.726952002448256"><ele>339.0</ele><time>2026-04-04T13:27:03Z</time></trkpt><trkpt lat="45.84276919633592" lon="8.72671586398015"><ele>337.5</ele><time>2026-04-04T13:27:04Z</time></trkpt><trkpt lat="45.84276778488623" lon="8.726493193041769"><ele>336.0</ele><time>2026-04-04T13:27:05Z</time></trkpt><trkpt lat="45.84276575809688" lon="8.72628623621581"><ele>334.5</ele><time>2026-04-04T13:27:06Z</time></trkpt><trkpt lat="45.842758516355985" lon="8.726086903434872"><ele>333.0</ele><time>2026-04-04T13:27:07Z</time></trkpt><trkpt lat="45.842753576403354" lon="8.72587870741872"><ele>331.3333333333333</ele><time>2026-04-04T13:27:08Z</time></trkpt><trkpt lat="45.84275112831183" lon="8.725619623476433"><ele>329.66666666666663</ele><time>2026-04-04T13:27:09Z</time></trkpt><trkpt lat="45.842751714960535" lon="8.725335588674472"><ele>328.0</ele><time>2026-04-04T13:27:10Z</time></trkpt><trkpt lat="45.842764141676234" lon="8.72508732493753"><ele>326.66666666666663</ele><time>2026-04-04T13:27:11Z</time></trkpt><trkpt lat="45.84276124026124" lon="8.724848021068816"><ele>325.3333333333333</ele><time>2026-04-04T13:27:12Z</time></trkpt><trkpt lat="45.84275272085158" lon="8.724619806244624"><ele>324.0</ele><time>2026-04-04T13:27:13Z</time></trkpt><trkpt lat="45.842743144602544" lon="8.724399184125986"><ele>322.5</ele><time>2026-04-04T13:27:14Z</time></trkpt><trkpt lat="45.84274945261425" lon="8.724200286871849"><ele>321.0</ele><time>2026-04-04T13:27:15Z</time></trkpt><trkpt lat="45.84277089791539" lon="8.72403907477617"><ele>319.5</ele><time>2026-04-04T13:27:16Z</time></trkpt><trkpt lat="45.842826449019796" lon="8.72388280420524"><ele>318.0</ele><time>2026-04-04T13:27:17Z</time></trkpt><trkpt lat="45.84290833171329" lon="8.723724424411778"><ele>314.6666666666667</ele><time>2026-04-04T13:27:18Z</time></trkpt><trkpt lat="45.84300792953497" lon="8.723553276874233"><ele>311.33333333333337</ele><time>2026-04-04T13:27:19Z</time></trkpt><trkpt lat="45.84311601959491" lon="8.723362858309933"><ele>308.0</ele><time>2026-04-04T13:27:20Z</time></trkpt><trkpt lat="45.843227590635095" lon="8.723157477076905"><ele>308.0</ele><time>2026-04-04T13:27:21Z</time></trkpt><trkpt lat="45.843344746790365" lon="8.722952717870024"><ele>308.0</ele><time>2026-04-04T13:27:22Z</time></trkpt><trkpt lat="45.84346565381504" lon="8.722739408550858"><ele>308.0</ele><time>2026-04-04T13:27:23Z</time></trkpt><trkpt lat="45.843572045300924" lon="8.722540920135412"><ele>308.33333333333337</ele><time>2026-04-04T13:27:24Z</time></trkpt><trkpt lat="45.84367069872411" lon="8.72233971420761"><ele>308.6666666666667</ele><time>2026-04-04T13:27:25Z</time></trkpt><trkpt lat="45.84374583357232" lon="8.722134039378133"><ele>309.0</ele><time>2026-04-04T13:27:26Z</time></trkpt><trkpt lat="45.843821522846625" lon="8.72188267343496"><ele>306.6666666666667</ele><time>2026-04-04T13:27:27.001Z</time></trkpt><trkpt lat="45.84390982680341" lon="8.72165028281747"><ele>304.33333333333337</ele><time>2026-04-04T13:27:28.001Z</time></trkpt><trkpt lat="45.844013786287185" lon="8.721433017825825"><ele>302.0</ele><time>2026-04-04T13:27:29.001Z</time></trkpt><trkpt lat="45.8440818373615" lon="8.721223159350187"><ele>302.0</ele><time>2026-04-04T13:27:30.001Z</time></trkpt><trkpt lat="45.84411941793133" lon="8.72100028319205"><ele>302.0</ele><time>2026-04-04T13:27:31.001Z</time></trkpt><trkpt lat="45.844111601849896" lon="8.720783706154245"><ele>302.0</ele><time>2026-04-04T13:27:32.001Z</time></trkpt><trkpt lat="45.844160390361274" lon="8.720533599367968"><ele>302.0</ele><time>2026-04-04T13:27:33.001Z</time></trkpt><trkpt lat="45.84419575365967" lon="8.72027664816099"><ele>302.0</ele><time>2026-04-04T13:27:34.001Z</time></trkpt><trkpt lat="45.84427288089891" lon="8.720045111873562"><ele>302.0</ele><time>2026-04-04T13:27:35.001Z</time></trkpt><trkpt lat="45.844324734854" lon="8.719832221693686"><ele>304.25</ele><time>2026-04-04T13:27:36.001Z</time></trkpt><trkpt lat="45.84436425870901" lon="8.719651520296193"><ele>306.5</ele><time>2026-04-04T13:27:37.001Z</time></trkpt><trkpt lat="45.84440704612585" lon="8.719473525242202"><ele>308.75</ele><time>2026-04-04T13:27:38.001Z</time></trkpt><trkpt lat="45.84444893567844" lon="8.719304139360311"><ele>311.0</ele><time>2026-04-04T13:27:39.001Z</time></trkpt><trkpt lat="45.84449370116791" lon="8.719131392809519"><ele>311.0</ele><time>2026-04-04T13:27:40.001Z</time></trkpt><trkpt lat="45.844537165165974" lon="8.718966370342242"><ele>311.0</ele><time>2026-04-04T13:27:41.001Z</time></trkpt><trkpt lat="45.8445776693596" lon="8.718802092418736"><ele>311.0</ele><time>2026-04-04T13:27:42.001Z</time></trkpt><trkpt lat="45.84462355184659" lon="8.718633927343472"><ele>311.0</ele><time>2026-04-04T13:27:43.001Z</time></trkpt><trkpt lat="45.84466828883961" lon="8.718451941655537"><ele>309.75</ele><time>2026-04-04T13:27:44.001Z</time></trkpt><trkpt lat="45.844705916667124" lon="8.718253550263348"><ele>308.5</ele><time>2026-04-04T13:27:45.001Z</time></trkpt><trkpt lat="45.84472694621548" lon="8.718044380191117"><ele>307.25</ele><time>2026-04-04T13:27:46.001Z</time></trkpt><trkpt lat="45.84473558341944" lon="8.717829786599298"><ele>306.0</ele><time>2026-04-04T13:27:47.001Z</time></trkpt><trkpt lat="45.84474054930146" lon="8.717624361322361"><ele>303.5</ele><time>2026-04-04T13:27:48.001Z</time></trkpt><trkpt lat="45.844745402597205" lon="8.717425651747881"><ele>301.0</ele><time>2026-04-04T13:27:49.001Z</time></trkpt><trkpt lat="45.84474824538881" lon="8.717234653013188"><ele>298.5</ele><time>2026-04-04T13:27:50.001Z</time></trkpt><trkpt lat="45.84474863120117" lon="8.717045986494592"><ele>296.0</ele><time>2026-04-04T13:27:51.001Z</time></trkpt><trkpt lat="45.84475110793266" lon="8.716859211620982"><ele>294.75</ele><time>2026-04-04T13:27:52.001Z</time></trkpt><trkpt lat="45.84475293243043" lon="8.7166806040944"><ele>293.5</ele><time>2026-04-04T13:27:53.001Z</time></trkpt><trkpt lat="45.84475315501724" lon="8.716503408258236"><ele>292.25</ele><time>2026-04-04T13:27:54.001Z</time></trkpt><trkpt lat="45.844776836440346" lon="8.716332465154993"><ele>291.0</ele><time>2026-04-04T13:27:55.001Z</time></trkpt><trkpt lat="45.84476227485362" lon="8.716166842100211"><ele>289.6</ele><time>2026-04-04T13:27:56.001Z</time></trkpt><trkpt lat="45.84476452236096" lon="8.71600701339654"><ele>288.20000000000005</ele><time>2026-04-04T13:27:57.001Z</time></trkpt><trkpt lat="45.844771689765636" lon="8.715855215421772"><ele>286.79999999999995</ele><time>2026-04-04T13:27:58.001Z</time></trkpt><trkpt lat="45.84477779848763" lon="8.71570241667502"><ele>285.4</ele><time>2026-04-04T13:27:59.001Z</time></trkpt><trkpt lat="45.84477693317585" lon="8.715554329886999"><ele>284.0</ele><time>2026-04-04T13:28:00.001Z</time></trkpt><trkpt lat="45.84477904223616" lon="8.715416966450405"><ele>284.0</ele><time>2026-04-04T13:28:01.001Z</time></trkpt><trkpt lat="45.84478259623837" lon="8.715279979528765"><ele>284.0</ele><time>2026-04-04T13:28:02.001Z</time></trkpt><trkpt lat="45.844776353465626" lon="8.715155325143362"><ele>284.0</ele><time>2026-04-04T13:28:03.001Z</time></trkpt><trkpt lat="45.8447797520499" lon="8.715045224591938"><ele>284.0</ele><time>2026-04-04T13:28:04.001Z</time></trkpt><trkpt lat="45.844792728922236" lon="8.714860311378068"><ele>284.0</ele><time>2026-04-04T13:28:06.001Z</time></trkpt><trkpt lat="45.84480374618211" lon="8.714745858702864"><ele>283.2</ele><time>2026-04-04T13:28:07.001Z</time></trkpt><trkpt lat="45.84482687093019" lon="8.71464303896934"><ele>282.4</ele><time>2026-04-04T13:28:08.001Z</time></trkpt><trkpt lat="45.84488091864295" lon="8.71451298361802"><ele>281.6</ele><time>2026-04-04T13:28:10.001Z</time></trkpt><trkpt lat="45.8449545969006" lon="8.714433970583354"><ele>280.8</ele><time>2026-04-04T13:28:12.001Z</time></trkpt><trkpt lat="45.845028069479355" lon="8.714359540139597"><ele>280.0</ele><time>2026-04-04T13:28:14.001Z</time></trkpt><trkpt lat="45.84510064017994" lon="8.714277843388176"><ele>280.66666666666663</ele><time>2026-04-04T13:28:16.001Z</time></trkpt><trkpt lat="45.84518540901531" lon="8.714188305623452"><ele>281.3333333333333</ele><time>2026-04-04T13:28:18.001Z</time></trkpt><trkpt lat="45.845232311554824" lon="8.714126404081238"><ele>282.0</ele><time>2026-04-04T13:28:19.001Z</time></trkpt><trkpt lat="45.84529349786957" lon="8.71407595137136"><ele>282.6666666666667</ele><time>2026-04-04T13:28:20.001Z</time></trkpt><trkpt lat="45.84534577183805" lon="8.714016515609062"><ele>283.33333333333337</ele><time>2026-04-04T13:28:21.001Z</time></trkpt><trkpt lat="45.845400864240695" lon="8.713947160026326"><ele>284.0</ele><time>2026-04-04T13:28:22.001Z</time></trkpt><trkpt lat="45.84546126158475" lon="8.713882271645865"><ele>284.0</ele><time>2026-04-04T13:28:23.001Z</time></trkpt><trkpt lat="45.84552315818337" lon="8.713807920225989"><ele>284.0</ele><time>2026-04-04T13:28:24.001Z</time></trkpt><trkpt lat="45.84558177356811" lon="8.713744214962468"><ele>284.0</ele><time>2026-04-04T13:28:25.001Z</time></trkpt><trkpt lat="45.84564865536485" lon="8.713683142650988"><ele>284.0</ele><time>2026-04-04T13:28:26.001Z</time></trkpt><trkpt lat="45.84572090151415" lon="8.713621012642806"><ele>284.0</ele><time>2026-04-04T13:28:27.001Z</time></trkpt><trkpt lat="45.84577524498005" lon="8.713522919535267"><ele>284.0</ele><time>2026-04-04T13:28:28.001Z</time></trkpt><trkpt lat="45.84582032605496" lon="8.713425687416606"><ele>283.5</ele><time>2026-04-04T13:28:29.001Z</time></trkpt><trkpt lat="45.845850780017074" lon="8.713335738339055"><ele>283.0</ele><time>2026-04-04T13:28:30.001Z</time></trkpt><trkpt lat="45.845875556053315" lon="8.713234086879687"><ele>282.5</ele><time>2026-04-04T13:28:31.001Z</time></trkpt><trkpt lat="45.84589613354839" lon="8.713129612435244"><ele>282.0</ele><time>2026-04-04T13:28:32.001Z</time></trkpt><trkpt lat="45.84591303962593" lon="8.713006533921902"><ele>281.5</ele><time>2026-04-04T13:28:33.002Z</time></trkpt><trkpt lat="45.845924314968734" lon="8.712884611983108"><ele>281.0</ele><time>2026-04-04T13:28:34.002Z</time></trkpt><trkpt lat="45.84593891908315" lon="8.71277180669985"><ele>280.40000000000003</ele><time>2026-04-04T13:28:35.002Z</time></trkpt><trkpt lat="45.84595834794688" lon="8.712665091866471"><ele>279.8</ele><time>2026-04-04T13:28:36.002Z</time></trkpt><trkpt lat="45.845984786692966" lon="8.712510893625783"><ele>279.20000000000005</ele><time>2026-04-04T13:28:38.002Z</time></trkpt><trkpt lat="45.84605025499083" lon="8.712356516660194"><ele>278.6</ele><time>2026-04-04T13:28:40.002Z</time></trkpt><trkpt lat="45.84611280437162" lon="8.712283661598402"><ele>278.0</ele><time>2026-04-04T13:28:41.002Z</time></trkpt><trkpt lat="45.84617185281496" lon="8.712228545458684"><ele>278.0</ele><time>2026-04-04T13:28:42.002Z</time></trkpt><trkpt lat="45.846234091770754" lon="8.712174493626405"><ele>278.0</ele><time>2026-04-04T13:28:43.002Z</time></trkpt><trkpt lat="45.84631401048109" lon="8.712163007228359"><ele>278.0</ele><time>2026-04-04T13:28:44.002Z</time></trkpt><trkpt lat="45.84637767385856" lon="8.712120055540431"><ele>278.0</ele><time>2026-04-04T13:28:45.002Z</time></trkpt><trkpt lat="45.84649812021408" lon="8.7120273633862"><ele>278.0</ele><time>2026-04-04T13:28:47.002Z</time></trkpt><trkpt lat="45.84658156800931" lon="8.711953676580197"><ele>278.0</ele><time>2026-04-04T13:28:48.002Z</time></trkpt><trkpt lat="45.84668601090505" lon="8.711861058130436"><ele>278.0</ele><time>2026-04-04T13:28:49.002Z</time></trkpt><trkpt lat="45.84679956568304" lon="8.711760033034631"><ele>278.0</ele><time>2026-04-04T13:28:50.002Z</time></trkpt><trkpt lat="45.846901258125925" lon="8.711669561584051"><ele>278.0</ele><time>2026-04-04T13:28:51.002Z</time></trkpt><trkpt lat="45.84699274620462" lon="8.711588545668793"><ele>278.0</ele><time>2026-04-04T13:28:52.002Z</time></trkpt><trkpt lat="45.84707721959702" lon="8.711514032284459"><ele>278.0</ele><time>2026-04-04T13:28:52.999Z</time></trkpt><trkpt lat="45.84715716197787" lon="8.711443515735564"><ele>278.0</ele><time>2026-04-04T13:28:53.999Z</time></trkpt><trkpt lat="45.84724702190486" lon="8.711364250928849"><ele>278.0</ele><time>2026-04-04T13:28:54.999Z</time></trkpt><trkpt lat="45.84734883659036" lon="8.711274440922189"><ele>278.0</ele><time>2026-04-04T13:28:55.999Z</time></trkpt><trkpt lat="45.84745626713761" lon="8.711179677175627"><ele>278.0</ele><time>2026-04-04T13:28:56.999Z</time></trkpt><trkpt lat="45.84755436889076" lon="8.711093219321649"><ele>278.0</ele><time>2026-04-04T13:28:57.999Z</time></trkpt><trkpt lat="45.84765702816509" lon="8.711002779191785"><ele>278.0</ele><time>2026-04-04T13:28:58.999Z</time></trkpt><trkpt lat="45.84775521549601" lon="8.710916278748414"><ele>278.0</ele><time>2026-04-04T13:28:59.999Z</time></trkpt><trkpt lat="45.84784731844597" lon="8.710835137460005"><ele>277.8</ele><time>2026-04-04T13:29:00.999Z</time></trkpt><trkpt lat="45.84793189492962" lon="8.710759373345285"><ele>277.6</ele><time>2026-04-04T13:29:01.999Z</time></trkpt><trkpt lat="45.84801287418853" lon="8.710688534450984"><ele>277.4</ele><time>2026-04-04T13:29:02.999Z</time></trkpt><trkpt lat="45.84810173017897" lon="8.710611125793317"><ele>277.2</ele><time>2026-04-04T13:29:03.999Z</time></trkpt><trkpt lat="45.84820036400547" lon="8.710523431799531"><ele>277.0</ele><time>2026-04-04T13:29:04.999Z</time></trkpt><trkpt lat="45.848301639104776" lon="8.710430380735813"><ele>277.0</ele><time>2026-04-04T13:29:05.999Z</time></trkpt><trkpt lat="45.848404760544184" lon="8.71033402765978"><ele>277.0</ele><time>2026-04-04T13:29:07Z</time></trkpt><trkpt lat="45.84849589605412" lon="8.710197383316846"><ele>277.0</ele><time>2026-04-04T13:29:08Z</time></trkpt><trkpt lat="45.84859999342757" lon="8.71007830254635"><ele>277.0</ele><time>2026-04-04T13:29:09Z</time></trkpt><trkpt lat="45.84869969324703" lon="8.709946737833164"><ele>277.25</ele><time>2026-04-04T13:29:10Z</time></trkpt><trkpt lat="45.848799957131206" lon="8.709804897965402"><ele>277.5</ele><time>2026-04-04T13:29:11Z</time></trkpt><trkpt lat="45.848892932218206" lon="8.709668171243752"><ele>277.75</ele><time>2026-04-04T13:29:12Z</time></trkpt><trkpt lat="45.848974032652066" lon="8.709530772533917"><ele>278.0</ele><time>2026-04-04T13:29:13Z</time></trkpt><trkpt lat="45.84906513296105" lon="8.709382420097166"><ele>278.0</ele><time>2026-04-04T13:29:14Z</time></trkpt><trkpt lat="45.849150542911765" lon="8.709236670067769"><ele>278.0</ele><time>2026-04-04T13:29:15Z</time></trkpt><trkpt lat="45.849229990170706" lon="8.709106574376522"><ele>278.0</ele><time>2026-04-04T13:29:16Z</time></trkpt><trkpt lat="45.849305223299574" lon="8.708975005266137"><ele>278.0</ele><time>2026-04-04T13:29:17Z</time></trkpt><trkpt lat="45.84938489239593" lon="8.708841488507346"><ele>277.75</ele><time>2026-04-04T13:29:18Z</time></trkpt><trkpt lat="45.849460356731406" lon="8.708706335290646"><ele>277.5</ele><time>2026-04-04T13:29:19Z</time></trkpt><trkpt lat="45.84954008455615" lon="8.708574612640248"><ele>277.25</ele><time>2026-04-04T13:29:20Z</time></trkpt><trkpt lat="45.84961887176497" lon="8.708443816609421"><ele>277.0</ele><time>2026-04-04T13:29:21Z</time></trkpt><trkpt lat="45.84969664595427" lon="8.708308131081061"><ele>277.0</ele><time>2026-04-04T13:29:22Z</time></trkpt><trkpt lat="45.84977635993987" lon="8.708175645014332"><ele>277.0</ele><time>2026-04-04T13:29:23Z</time></trkpt><trkpt lat="45.84985762948336" lon="8.708045387012902"><ele>277.0</ele><time>2026-04-04T13:29:24Z</time></trkpt><trkpt lat="45.84993698209435" lon="8.707914354205615"><ele>277.0</ele><time>2026-04-04T13:29:25Z</time></trkpt><trkpt lat="45.8500158168714" lon="8.707781933709937"><ele>277.0</ele><time>2026-04-04T13:29:26Z</time></trkpt><trkpt lat="45.85009788558096" lon="8.707645209149627"><ele>277.0</ele><time>2026-04-04T13:29:27Z</time></trkpt><trkpt lat="45.850171709090134" lon="8.707516736430374"><ele>277.0</ele><time>2026-04-04T13:29:28Z</time></trkpt><trkpt lat="45.850240713468615" lon="8.707397962848944"><ele>277.0</ele><time>2026-04-04T13:29:29Z</time></trkpt><trkpt lat="45.85030632464275" lon="8.707288368113456"><ele>277.16666666666663</ele><time>2026-04-04T13:29:30Z</time></trkpt><trkpt lat="45.85036996282128" lon="8.707184720964229"><ele>277.3333333333333</ele><time>2026-04-04T13:29:31Z</time></trkpt><trkpt lat="45.85042621994263" lon="8.707095302936683"><ele>277.5</ele><time>2026-04-04T13:29:32Z</time></trkpt><trkpt lat="45.850473578350616" lon="8.707010343829996"><ele>277.6666666666667</ele><time>2026-04-04T13:29:33Z</time></trkpt><trkpt lat="45.8505214715425" lon="8.706928263132882"><ele>277.83333333333337</ele><time>2026-04-04T13:29:34Z</time></trkpt><trkpt lat="45.85056699780974" lon="8.706856144925794"><ele>278.0</ele><time>2026-04-04T13:29:35Z</time></trkpt><trkpt lat="45.85064460605662" lon="8.706722341679319"><ele>278.0</ele><time>2026-04-04T13:29:37Z</time></trkpt><trkpt lat="45.850717841230896" lon="8.706596202878364"><ele>278.0</ele><time>2026-04-04T13:29:39Z</time></trkpt><trkpt lat="45.85080713530836" lon="8.706516087182278"><ele>278.0</ele><time>2026-04-04T13:29:41Z</time></trkpt><trkpt lat="45.85084200316899" lon="8.706394459677114"><ele>278.0</ele><time>2026-04-04T13:29:43Z</time></trkpt><trkpt lat="45.850939143859875" lon="8.706242240166167"><ele>278.25</ele><time>2026-04-04T13:29:45Z</time></trkpt><trkpt lat="45.85101759653658" lon="8.706134123343988"><ele>278.5</ele><time>2026-04-04T13:29:46Z</time></trkpt><trkpt lat="45.85109886305181" lon="8.706011167792422"><ele>278.75</ele><time>2026-04-04T13:29:47Z</time></trkpt><trkpt lat="45.851182414745125" lon="8.705882700799883"><ele>279.0</ele><time>2026-04-04T13:29:48Z</time></trkpt><trkpt lat="45.851269892600534" lon="8.705731937944632"><ele>279.0</ele><time>2026-04-04T13:29:49Z</time></trkpt><trkpt lat="45.851368625511235" lon="8.705568457080895"><ele>279.0</ele><time>2026-04-04T13:29:50.001Z</time></trkpt><trkpt lat="45.85147010138822" lon="8.705389968247236"><ele>279.0</ele><time>2026-04-04T13:29:51.001Z</time></trkpt><trkpt lat="45.85157455823447" lon="8.70521393583883"><ele>279.0</ele><time>2026-04-04T13:29:52.001Z</time></trkpt><trkpt lat="45.851680850129306" lon="8.705035244526464"><ele>279.0</ele><time>2026-04-04T13:29:53.001Z</time></trkpt><trkpt lat="45.85180058289827" lon="8.70486642437819"><ele>279.0</ele><time>2026-04-04T13:29:54.001Z</time></trkpt><trkpt lat="45.851894530652416" lon="8.704675580339705"><ele>279.0</ele><time>2026-04-04T13:29:55.001Z</time></trkpt><trkpt lat="45.852002851239696" lon="8.704497548167453"><ele>279.0</ele><time>2026-04-04T13:29:56.001Z</time></trkpt><trkpt lat="45.85211912922125" lon="8.704336297757072"><ele>279.0</ele><time>2026-04-04T13:29:57.001Z</time></trkpt><trkpt lat="45.852225433457505" lon="8.70415938569449"><ele>278.6666666666667</ele><time>2026-04-04T13:29:58.001Z</time></trkpt><trkpt lat="45.852330659897774" lon="8.703984267258567"><ele>278.33333333333337</ele><time>2026-04-04T13:29:59.001Z</time></trkpt><trkpt lat="45.852438439432824" lon="8.703804899895339"><ele>278.0</ele><time>2026-04-04T13:30:00.001Z</time></trkpt><trkpt lat="45.852546980974815" lon="8.703624264480204"><ele>278.33333333333337</ele><time>2026-04-04T13:30:01.001Z</time></trkpt><trkpt lat="45.85265444727852" lon="8.703445041609967"><ele>278.6666666666667</ele><time>2026-04-04T13:30:02.001Z</time></trkpt><trkpt lat="45.852763298709554" lon="8.703263059226515"><ele>279.0</ele><time>2026-04-04T13:30:03.001Z</time></trkpt><trkpt lat="45.85286957257505" lon="8.703087027682628"><ele>279.0</ele><time>2026-04-04T13:30:04.001Z</time></trkpt><trkpt lat="45.85296741858047" lon="8.702924956025571"><ele>279.0</ele><time>2026-04-04T13:30:05.001Z</time></trkpt><trkpt lat="45.85306829651938" lon="8.702757862416098"><ele>279.0</ele><time>2026-04-04T13:30:06.001Z</time></trkpt><trkpt lat="45.85316963881747" lon="8.702589999538004"><ele>279.0</ele><time>2026-04-04T13:30:07.001Z</time></trkpt><trkpt lat="45.853265484702824" lon="8.702427867009606"><ele>279.0</ele><time>2026-04-04T13:30:08.001Z</time></trkpt><trkpt lat="45.85333975980708" lon="8.70227417277934"><ele>279.0</ele><time>2026-04-04T13:30:09.001Z</time></trkpt><trkpt lat="45.853417554992355" lon="8.702153809053188"><ele>279.0</ele><time>2026-04-04T13:30:10.001Z</time></trkpt><trkpt lat="45.85349026769626" lon="8.702044874903338"><ele>279.0</ele><time>2026-04-04T13:30:11.001Z</time></trkpt><trkpt lat="45.85356527552958" lon="8.701948536461776"><ele>279.0</ele><time>2026-04-04T13:30:12.001Z</time></trkpt><trkpt lat="45.853641383340175" lon="8.701832986411127"><ele>279.0</ele><time>2026-04-04T13:30:13.001Z</time></trkpt><trkpt lat="45.85371645932216" lon="8.701676544729125"><ele>279.0</ele><time>2026-04-04T13:30:14.001Z</time></trkpt><trkpt lat="45.853802498812954" lon="8.701506374390533"><ele>279.0</ele><time>2026-04-04T13:30:15.001Z</time></trkpt><trkpt lat="45.85390686452769" lon="8.701336300678697"><ele>279.0</ele><time>2026-04-04T13:30:16.001Z</time></trkpt><trkpt lat="45.85401972649154" lon="8.701146085843563"><ele>279.0</ele><time>2026-04-04T13:30:17.001Z</time></trkpt><trkpt lat="45.85413808647124" lon="8.700947985089783"><ele>279.3333333333333</ele><time>2026-04-04T13:30:18.001Z</time></trkpt><trkpt lat="45.854257588059106" lon="8.700762408172928"><ele>279.66666666666663</ele><time>2026-04-04T13:30:19.001Z</time></trkpt><trkpt lat="45.85437299472617" lon="8.700588779295334"><ele>280.0</ele><time>2026-04-04T13:30:20.001Z</time></trkpt><trkpt lat="45.854457621479895" lon="8.700398495674145"><ele>279.0</ele><time>2026-04-04T13:30:21.001Z</time></trkpt><trkpt lat="45.85450691629444" lon="8.700165035553889"><ele>278.0</ele><time>2026-04-04T13:30:22.001Z</time></trkpt><trkpt lat="45.854520770046996" lon="8.699914053677873"><ele>277.0</ele><time>2026-04-04T13:30:23.001Z</time></trkpt><trkpt lat="45.854512187981165" lon="8.699684147944803"><ele>277.0</ele><time>2026-04-04T13:30:24.001Z</time></trkpt><trkpt lat="45.85448614419003" lon="8.699477808466293"><ele>277.0</ele><time>2026-04-04T13:30:25.001Z</time></trkpt><trkpt lat="45.85443038353584" lon="8.699310636502807"><ele>277.0</ele><time>2026-04-04T13:30:26.001Z</time></trkpt><trkpt lat="45.85438415356888" lon="8.69919898578943"><ele>277.0</ele><time>2026-04-04T13:30:27.001Z</time></trkpt><trkpt lat="45.85433843722752" lon="8.69912288325103"><ele>277.0</ele><time>2026-04-04T13:30:28.001Z</time></trkpt><trkpt lat="45.85436000227004" lon="8.699026727372694"><ele>275.8333333333333</ele><time>2026-04-04T13:30:31.001Z</time></trkpt><trkpt lat="45.854359464900256" lon="8.698928231906505"><ele>274.66666666666663</ele><time>2026-04-04T13:30:32.001Z</time></trkpt><trkpt lat="45.854367386209724" lon="8.698806498948702"><ele>273.5</ele><time>2026-04-04T13:30:33.001Z</time></trkpt><trkpt lat="45.85434968797311" lon="8.698694054414853"><ele>272.3333333333333</ele><time>2026-04-04T13:30:34.001Z</time></trkpt><trkpt lat="45.85431821567164" lon="8.698605753616373"><ele>271.1666666666667</ele><time>2026-04-04T13:30:35.001Z</time></trkpt><trkpt lat="45.85428413795225" lon="8.698515565272126"><ele>270.0</ele><time>2026-04-04T13:30:36.001Z</time></trkpt><trkpt lat="45.8542598341192" lon="8.698395171042144"><ele>269.0</ele><time>2026-04-04T13:30:37.001Z</time></trkpt><trkpt lat="45.85425602223072" lon="8.698283233909331"><ele>268.0</ele><time>2026-04-04T13:30:38.001Z</time></trkpt><trkpt lat="45.854263510666954" lon="8.698167000303135"><ele>267.0</ele><time>2026-04-04T13:30:39.001Z</time></trkpt><trkpt lat="45.85428536437775" lon="8.69803414474411"><ele>266.0</ele><time>2026-04-04T13:30:40.001Z</time></trkpt><trkpt lat="45.85431217567153" lon="8.69787659217873"><ele>265.0</ele><time>2026-04-04T13:30:41.001Z</time></trkpt><trkpt lat="45.85433944447556" lon="8.69771373327095"><ele>264.0</ele><time>2026-04-04T13:30:42.001Z</time></trkpt><trkpt lat="45.85436077918709" lon="8.697537903478729"><ele>263.0</ele><time>2026-04-04T13:30:43.001Z</time></trkpt><trkpt lat="45.85439228839349" lon="8.697351953894659"><ele>262.0</ele><time>2026-04-04T13:30:44.001Z</time></trkpt><trkpt lat="45.854417750528285" lon="8.697166385816251"><ele>261.0</ele><time>2026-04-04T13:30:45.001Z</time></trkpt><trkpt lat="45.854439920012624" lon="8.696967992741172"><ele>259.3333333333333</ele><time>2026-04-04T13:30:46.001Z</time></trkpt><trkpt lat="45.854463109871354" lon="8.696751154983705"><ele>257.66666666666663</ele><time>2026-04-04T13:30:47.002Z</time></trkpt><trkpt lat="45.854489398593444" lon="8.696558671658508"><ele>256.0</ele><time>2026-04-04T13:30:48.002Z</time></trkpt><trkpt lat="45.854519453045945" lon="8.696329551314903"><ele>256.0</ele><time>2026-04-04T13:30:49.002Z</time></trkpt><trkpt lat="45.854548340109176" lon="8.696086113089324"><ele>256.0</ele><time>2026-04-04T13:30:50.002Z</time></trkpt><trkpt lat="45.854579209097416" lon="8.695836906990689"><ele>256.0</ele><time>2026-04-04T13:30:51.002Z</time></trkpt><trkpt lat="45.85460004144031" lon="8.695595565211885"><ele>256.0</ele><time>2026-04-04T13:30:52.002Z</time></trkpt><trkpt lat="45.85461536155292" lon="8.695335586308628"><ele>256.0</ele><time>2026-04-04T13:30:53.002Z</time></trkpt><trkpt lat="45.854630646262535" lon="8.695084008526674"><ele>256.0</ele><time>2026-04-04T13:30:54.002Z</time></trkpt><trkpt lat="45.854617534355455" lon="8.694845265038557"><ele>256.0</ele><time>2026-04-04T13:30:55.002Z</time></trkpt><trkpt lat="45.85458811190018" lon="8.69456972146831"><ele>256.0</ele><time>2026-04-04T13:30:56.002Z</time></trkpt><trkpt lat="45.854537763692576" lon="8.694259065404967"><ele>256.0</ele><time>2026-04-04T13:30:57.002Z</time></trkpt><trkpt lat="45.85448079683976" lon="8.693938347773354"><ele>256.5</ele><time>2026-04-04T13:30:58.002Z</time></trkpt><trkpt lat="45.85442166845368" lon="8.693604684175641"><ele>257.0</ele><time>2026-04-04T13:30:59Z</time></trkpt><trkpt lat="45.85436653899697" lon="8.693261326104874"><ele>257.0</ele><time>2026-04-04T13:31:00Z</time></trkpt><trkpt lat="45.854335312682814" lon="8.692927107414938"><ele>257.0</ele><time>2026-04-04T13:31:01Z</time></trkpt><trkpt lat="45.854328443755236" lon="8.692589947662459"><ele>256.33333333333337</ele><time>2026-04-04T13:31:02Z</time></trkpt><trkpt lat="45.854343189093946" lon="8.692271823285614"><ele>255.66666666666669</ele><time>2026-04-04T13:31:03Z</time></trkpt><trkpt lat="45.85437709470077" lon="8.69196180500692"><ele>255.0</ele><time>2026-04-04T13:31:04Z</time></trkpt><trkpt lat="45.8544364381525" lon="8.691658499334444"><ele>254.5</ele><time>2026-04-04T13:31:05Z</time></trkpt><trkpt lat="45.854519006846736" lon="8.69136143888035"><ele>254.0</ele><time>2026-04-04T13:31:06Z</time></trkpt><trkpt lat="45.854614803682345" lon="8.691058545359734"><ele>253.5</ele><time>2026-04-04T13:31:07Z</time></trkpt><trkpt lat="45.854702552460616" lon="8.690745389004785"><ele>253.0</ele><time>2026-04-04T13:31:08Z</time></trkpt><trkpt lat="45.85480463108738" lon="8.690436967297114"><ele>253.0</ele><time>2026-04-04T13:31:09Z</time></trkpt><trkpt lat="45.854907709129805" lon="8.690120107507076"><ele>253.0</ele><time>2026-04-04T13:31:10Z</time></trkpt><trkpt lat="45.855011777508" lon="8.689809543899475"><ele>253.0</ele><time>2026-04-04T13:31:11Z</time></trkpt><trkpt lat="45.855116669362566" lon="8.689497473285336"><ele>253.0</ele><time>2026-04-04T13:31:12Z</time></trkpt><trkpt lat="45.855217055715336" lon="8.689206602388975"><ele>253.0</ele><time>2026-04-04T13:31:13Z</time></trkpt><trkpt lat="45.85531179869867" lon="8.688920265611156"><ele>253.0</ele><time>2026-04-04T13:31:14Z</time></trkpt><trkpt lat="45.85541322048969" lon="8.688640192733448"><ele>253.0</ele><time>2026-04-04T13:31:15Z</time></trkpt><trkpt lat="45.855504365488436" lon="8.688345482536608"><ele>253.66666666666666</ele><time>2026-04-04T13:31:16Z</time></trkpt><trkpt lat="45.85558474216733" lon="8.688050556442239"><ele>254.33333333333331</ele><time>2026-04-04T13:31:17Z</time></trkpt><trkpt lat="45.85566715431624" lon="8.68775976842944"><ele>255.0</ele><time>2026-04-04T13:31:18Z</time></trkpt><trkpt lat="45.85573130267513" lon="8.687464163456895"><ele>255.0</ele><time>2026-04-04T13:31:19Z</time></trkpt><trkpt lat="45.8557708741596" lon="8.687178548377776"><ele>255.0</ele><time>2026-04-04T13:31:20Z</time></trkpt><trkpt lat="45.85578586031095" lon="8.686900561189915"><ele>255.0</ele><time>2026-04-04T13:31:21Z</time></trkpt><trkpt lat="45.855784631894096" lon="8.686632712438076"><ele>251.66666666666669</ele><time>2026-04-04T13:31:22Z</time></trkpt><trkpt lat="45.855772458168104" lon="8.686364629626366"><ele>248.33333333333334</ele><time>2026-04-04T13:31:23Z</time></trkpt><trkpt lat="45.85573939898338" lon="8.686084727769037"><ele>245.0</ele><time>2026-04-04T13:31:24Z</time></trkpt><trkpt lat="45.855688010792825" lon="8.685798688844208"><ele>245.33333333333334</ele><time>2026-04-04T13:31:25Z</time></trkpt><trkpt lat="45.855621813654786" lon="8.685511722844373"><ele>245.66666666666669</ele><time>2026-04-04T13:31:26Z</time></trkpt><trkpt lat="45.85554881035434" lon="8.685224141709357"><ele>246.0</ele><time>2026-04-04T13:31:27Z</time></trkpt><trkpt lat="45.85548330917513" lon="8.68494978406938"><ele>246.0</ele><time>2026-04-04T13:31:28Z</time></trkpt><trkpt lat="45.855426133941364" lon="8.684686508018512"><ele>246.0</ele><time>2026-04-04T13:31:29Z</time></trkpt><trkpt lat="45.85536923721879" lon="8.684418865920584"><ele>246.0</ele><time>2026-04-04T13:31:30Z</time></trkpt><trkpt lat="45.855317216692896" lon="8.684156618501072"><ele>246.33333333333331</ele><time>2026-04-04T13:31:31Z</time></trkpt><trkpt lat="45.855281156747616" lon="8.68390559519439"><ele>246.66666666666666</ele><time>2026-04-04T13:31:32Z</time></trkpt><trkpt lat="45.855271592557" lon="8.683642536666591"><ele>247.0</ele><time>2026-04-04T13:31:33Z</time></trkpt><trkpt lat="45.855226749147384" lon="8.683406552764021"><ele>248.33333333333331</ele><time>2026-04-04T13:31:34Z</time></trkpt><trkpt lat="45.85530066853244" lon="8.683131337669517"><ele>249.66666666666669</ele><time>2026-04-04T13:31:35Z</time></trkpt><trkpt lat="45.85535096806283" lon="8.682889728343554"><ele>251.0</ele><time>2026-04-04T13:31:36Z</time></trkpt><trkpt lat="45.85540744018327" lon="8.682636600518167"><ele>252.66666666666669</ele><time>2026-04-04T13:31:37Z</time></trkpt><trkpt lat="45.855516289030284" lon="8.682414770036248"><ele>254.33333333333331</ele><time>2026-04-04T13:31:38Z</time></trkpt><trkpt lat="45.855605325099795" lon="8.682205885484533"><ele>256.0</ele><time>2026-04-04T13:31:39Z</time></trkpt><trkpt lat="45.855706140778544" lon="8.682031676863955"><ele>255.8</ele><time>2026-04-04T13:31:40Z</time></trkpt><trkpt lat="45.8557921229277" lon="8.681884688348466"><ele>255.60000000000002</ele><time>2026-04-04T13:31:41Z</time></trkpt><trkpt lat="45.85586755568615" lon="8.681758538553227"><ele>255.4</ele><time>2026-04-04T13:31:42Z</time></trkpt><trkpt lat="45.85593474568372" lon="8.681650587408427"><ele>255.2</ele><time>2026-04-04T13:31:43.001Z</time></trkpt><trkpt lat="45.85598241950737" lon="8.681571833435004"><ele>255.0</ele><time>2026-04-04T13:31:44.001Z</time></trkpt><trkpt lat="45.85606630194688" lon="8.681459777008312"><ele>255.0</ele><time>2026-04-04T13:31:46.001Z</time></trkpt><trkpt lat="45.85612315185541" lon="8.681418593057911"><ele>255.0</ele><time>2026-04-04T13:31:47.001Z</time></trkpt><trkpt lat="45.85619175649989" lon="8.681386805252908"><ele>255.0</ele><time>2026-04-04T13:31:48.001Z</time></trkpt><trkpt lat="45.85626711901935" lon="8.681349121748177"><ele>255.0</ele><time>2026-04-04T13:31:49.001Z</time></trkpt><trkpt lat="45.85632873949291" lon="8.681262829620923"><ele>255.0</ele><time>2026-04-04T13:31:50.001Z</time></trkpt><trkpt lat="45.856362287798625" lon="8.681126552431923"><ele>255.0</ele><time>2026-04-04T13:31:51.001Z</time></trkpt><trkpt lat="45.856418346898764" lon="8.680996987905498"><ele>254.33333333333331</ele><time>2026-04-04T13:31:52.001Z</time></trkpt><trkpt lat="45.85652085319122" lon="8.680883842927507"><ele>253.66666666666666</ele><time>2026-04-04T13:31:53.001Z</time></trkpt><trkpt lat="45.856657499008165" lon="8.680785030378711"><ele>253.0</ele><time>2026-04-04T13:31:54.001Z</time></trkpt><trkpt lat="45.85682232025495" lon="8.680685475936416"><ele>252.0</ele><time>2026-04-04T13:31:55.001Z</time></trkpt><trkpt lat="45.857016815202066" lon="8.680584669146192"><ele>251.0</ele><time>2026-04-04T13:31:56.001Z</time></trkpt><trkpt lat="45.85726160322825" lon="8.680520625655104"><ele>251.0</ele><time>2026-04-04T13:31:57.001Z</time></trkpt><trkpt lat="45.8575387846878" lon="8.680496493550885"><ele>251.0</ele><time>2026-04-04T13:31:58.001Z</time></trkpt><trkpt lat="45.85783696562328" lon="8.680487288550292"><ele>250.5</ele><time>2026-04-04T13:31:59.001Z</time></trkpt><trkpt lat="45.858146994924745" lon="8.680443730336991"><ele>250.0</ele><time>2026-04-04T13:32:00.001Z</time></trkpt><trkpt lat="45.85846251936397" lon="8.680407914664903"><ele>250.0</ele><time>2026-04-04T13:32:01.001Z</time></trkpt><trkpt lat="45.85876722356553" lon="8.680367358521742"><ele>250.0</ele><time>2026-04-04T13:32:02.001Z</time></trkpt><trkpt lat="45.859062598718616" lon="8.680313797670536"><ele>251.0</ele><time>2026-04-04T13:32:03.001Z</time></trkpt><trkpt lat="45.85935852586401" lon="8.680228106151777"><ele>252.0</ele><time>2026-04-04T13:32:04.001Z</time></trkpt><trkpt lat="45.85964986560409" lon="8.680087153003916"><ele>252.0</ele><time>2026-04-04T13:32:05.001Z</time></trkpt><trkpt lat="45.85995850417354" lon="8.679937440114491"><ele>252.0</ele><time>2026-04-04T13:32:06.001Z</time></trkpt><trkpt lat="45.86028053980045" lon="8.679756520402302"><ele>252.5</ele><time>2026-04-04T13:32:07.001Z</time></trkpt><trkpt lat="45.860613462280064" lon="8.679575506423083"><ele>253.0</ele><time>2026-04-04T13:32:08.001Z</time></trkpt><trkpt lat="45.86093068881334" lon="8.679406038442432"><ele>252.5</ele><time>2026-04-04T13:32:09.001Z</time></trkpt><trkpt lat="45.861252603339075" lon="8.679237953880287"><ele>252.0</ele><time>2026-04-04T13:32:10.001Z</time></trkpt><trkpt lat="45.86156948375234" lon="8.679073501290965"><ele>253.0</ele><time>2026-04-04T13:32:11.001Z</time></trkpt><trkpt lat="45.861888011984384" lon="8.67892006771782"><ele>254.0</ele><time>2026-04-04T13:32:12.001Z</time></trkpt><trkpt lat="45.86220538125499" lon="8.67878364540201"><ele>254.0</ele><time>2026-04-04T13:32:13.001Z</time></trkpt><trkpt lat="45.86253162287396" lon="8.67866171157475"><ele>254.0</ele><time>2026-04-04T13:32:14.001Z</time></trkpt><trkpt lat="45.862853767593265" lon="8.678564622940709"><ele>253.0</ele><time>2026-04-04T13:32:15.001Z</time></trkpt><trkpt lat="45.86317309227122" lon="8.678494375706396"><ele>252.0</ele><time>2026-04-04T13:32:16.001Z</time></trkpt><trkpt lat="45.863474248376455" lon="8.67844658914"><ele>250.5</ele><time>2026-04-04T13:32:17.001Z</time></trkpt><trkpt lat="45.863770961897345" lon="8.678415875352101"><ele>249.0</ele><time>2026-04-04T13:32:18.001Z</time></trkpt><trkpt lat="45.86407166363672" lon="8.678396255371105"><ele>249.5</ele><time>2026-04-04T13:32:19.001Z</time></trkpt><trkpt lat="45.86437798474349" lon="8.678375943724301"><ele>250.0</ele><time>2026-04-04T13:32:20.001Z</time></trkpt><trkpt lat="45.86469613678993" lon="8.678353488978"><ele>250.0</ele><time>2026-04-04T13:32:21.001Z</time></trkpt><trkpt lat="45.8650118272285" lon="8.678333117674969"><ele>250.0</ele><time>2026-04-04T13:32:22.001Z</time></trkpt><trkpt lat="45.86533356402291" lon="8.678310078375228"><ele>249.0</ele><time>2026-04-04T13:32:23.001Z</time></trkpt><trkpt lat="45.865659671526046" lon="8.67828817804683"><ele>248.0</ele><time>2026-04-04T13:32:24.001Z</time></trkpt><trkpt lat="45.865968321703" lon="8.678264221767192"><ele>247.5</ele><time>2026-04-04T13:32:25.001Z</time></trkpt><trkpt lat="45.866259359506216" lon="8.67822491611067"><ele>247.0</ele><time>2026-04-04T13:32:26.001Z</time></trkpt><trkpt lat="45.866541233636205" lon="8.67815704538659"><ele>248.0</ele><time>2026-04-04T13:32:27.001Z</time></trkpt><trkpt lat="45.86681850404334" lon="8.67804366045713"><ele>249.0</ele><time>2026-04-04T13:32:28.001Z</time></trkpt><trkpt lat="45.867088902473256" lon="8.677893379404528"><ele>245.0</ele><time>2026-04-04T13:32:29.001Z</time></trkpt><trkpt lat="45.867344865702" lon="8.677703288433623"><ele>241.0</ele><time>2026-04-04T13:32:30.001Z</time></trkpt><trkpt lat="45.867594364883196" lon="8.677472662484188"><ele>241.0</ele><time>2026-04-04T13:32:31.001Z</time></trkpt><trkpt lat="45.86782875966912" lon="8.67721616984957"><ele>241.0</ele><time>2026-04-04T13:32:32.001Z</time></trkpt><trkpt lat="45.86803977679565" lon="8.676927531059366"><ele>240.0</ele><time>2026-04-04T13:32:33.001Z</time></trkpt><trkpt lat="45.86823798902297" lon="8.67660367090545"><ele>239.0</ele><time>2026-04-04T13:32:34.001Z</time></trkpt><trkpt lat="45.868425151834195" lon="8.67625847378689"><ele>239.5</ele><time>2026-04-04T13:32:35.001Z</time></trkpt><trkpt lat="45.86860957613775" lon="8.675892403186664"><ele>240.0</ele><time>2026-04-04T13:32:36.001Z</time></trkpt><trkpt lat="45.86878707340443" lon="8.675532997942927"><ele>239.5</ele><time>2026-04-04T13:32:37.001Z</time></trkpt><trkpt lat="45.86894945314461" lon="8.675223560622083"><ele>239.0</ele><time>2026-04-04T13:32:38.002Z</time></trkpt><trkpt lat="45.869103202609786" lon="8.674929748158867"><ele>239.0</ele><time>2026-04-04T13:32:39.002Z</time></trkpt><trkpt lat="45.86924885282901" lon="8.67467755521913"><ele>239.0</ele><time>2026-04-04T13:32:40.002Z</time></trkpt><trkpt lat="45.86939437876058" lon="8.674458160006516"><ele>239.0</ele><time>2026-04-04T13:32:41.002Z</time></trkpt><trkpt lat="45.86955151079555" lon="8.674273415486914"><ele>240.0</ele><time>2026-04-04T13:32:42.002Z</time></trkpt><trkpt lat="45.86970397480831" lon="8.674132408532474"><ele>241.0</ele><time>2026-04-04T13:32:43.002Z</time></trkpt><trkpt lat="45.869852405821874" lon="8.674012103915194"><ele>242.0</ele><time>2026-04-04T13:32:44.002Z</time></trkpt><trkpt lat="45.86999050792583" lon="8.67390126730567"><ele>242.0</ele><time>2026-04-04T13:32:45.002Z</time></trkpt><trkpt lat="45.870118429639916" lon="8.67379033029287"><ele>242.0</ele><time>2026-04-04T13:32:46.002Z</time></trkpt><trkpt lat="45.870238833726546" lon="8.6736706583736"><ele>242.0</ele><time>2026-04-04T13:32:47.002Z</time></trkpt><trkpt lat="45.870337746214254" lon="8.673527808997205"><ele>242.0</ele><time>2026-04-04T13:32:48.002Z</time></trkpt><trkpt lat="45.87042965842793" lon="8.67336450468088"><ele>242.0</ele><time>2026-04-04T13:32:49.002Z</time></trkpt><trkpt lat="45.87050540330927" lon="8.673182138833011"><ele>242.0</ele><time>2026-04-04T13:32:50.002Z</time></trkpt><trkpt lat="45.870557662917015" lon="8.672994151203243"><ele>242.0</ele><time>2026-04-04T13:32:51.002Z</time></trkpt><trkpt lat="45.87059679940019" lon="8.672830616628033"><ele>242.0</ele><time>2026-04-04T13:32:52.002Z</time></trkpt><trkpt lat="45.870631552615215" lon="8.672693702443018"><ele>242.00000000000003</ele><time>2026-04-04T13:32:53.002Z</time></trkpt><trkpt lat="45.87066742244156" lon="8.672591294341952"><ele>242.0</ele><time>2026-04-04T13:32:54.002Z</time></trkpt><trkpt lat="45.87072050294969" lon="8.672507506560494"><ele>242.0</ele><time>2026-04-04T13:32:55.002Z</time></trkpt><trkpt lat="45.87080080256657" lon="8.672434263744076"><ele>242.0</ele><time>2026-04-04T13:32:56.002Z</time></trkpt><trkpt lat="45.87089666569461" lon="8.67238941168238"><ele>242.00000000000003</ele><time>2026-04-04T13:32:57.002Z</time></trkpt><trkpt lat="45.870967377870365" lon="8.67230301685285"><ele>242.0</ele><time>2026-04-04T13:32:58.002Z</time></trkpt><trkpt lat="45.87097555976435" lon="8.672173724396039"><ele>242.39999999999998</ele><time>2026-04-04T13:32:59.002Z</time></trkpt><trkpt lat="45.87095567896315" lon="8.672041819290445"><ele>242.79999999999998</ele><time>2026-04-04T13:33:00.002Z</time></trkpt><trkpt lat="45.87090862136743" lon="8.671922951117901"><ele>243.2</ele><time>2026-04-04T13:33:01.002Z</time></trkpt><trkpt lat="45.8708367175513" lon="8.671847298417887"><ele>243.6</ele><time>2026-04-04T13:33:02.002Z</time></trkpt><trkpt lat="45.870753576090664" lon="8.671766209594184"><ele>244.0</ele><time>2026-04-04T13:33:03.002Z</time></trkpt><trkpt lat="45.87067690199826" lon="8.671633550101285"><ele>242.33333333333331</ele><time>2026-04-04T13:33:04.002Z</time></trkpt><trkpt lat="45.87063653861307" lon="8.671397939135963"><ele>240.66666666666669</ele><time>2026-04-04T13:33:05Z</time></trkpt><trkpt lat="45.870536803048935" lon="8.67108424839637"><ele>239.0</ele><time>2026-04-04T13:33:06Z</time></trkpt><trkpt lat="45.87042294437808" lon="8.67080266145945"><ele>238.66666666666669</ele><time>2026-04-04T13:33:07Z</time></trkpt><trkpt lat="45.87035246076194" lon="8.670542079676297"><ele>238.33333333333331</ele><time>2026-04-04T13:33:08Z</time></trkpt><trkpt lat="45.87029707700551" lon="8.670314053721707"><ele>238.0</ele><time>2026-04-04T13:33:09Z</time></trkpt><trkpt lat="45.87026140151981" lon="8.67007998030696"><ele>238.0</ele><time>2026-04-04T13:33:10Z</time></trkpt><trkpt lat="45.87024453717488" lon="8.669840560625167"><ele>238.0</ele><time>2026-04-04T13:33:11Z</time></trkpt><trkpt lat="45.870245955799106" lon="8.66958379457758"><ele>238.0</ele><time>2026-04-04T13:33:12Z</time></trkpt><trkpt lat="45.87026198029982" lon="8.669336104043477"><ele>237.0</ele><time>2026-04-04T13:33:13Z</time></trkpt><trkpt lat="45.87029598148596" lon="8.669103229513876"><ele>236.0</ele><time>2026-04-04T13:33:14Z</time></trkpt><trkpt lat="45.87034640730202" lon="8.668864620185786"><ele>235.0</ele><time>2026-04-04T13:33:15Z</time></trkpt><trkpt lat="45.87041227499797" lon="8.66864225323897"><ele>235.33333333333331</ele><time>2026-04-04T13:33:16Z</time></trkpt><trkpt lat="45.870495541540066" lon="8.668428140304831"><ele>235.66666666666669</ele><time>2026-04-04T13:33:17Z</time></trkpt><trkpt lat="45.87059207752984" lon="8.668226802109972"><ele>236.0</ele><time>2026-04-04T13:33:18Z</time></trkpt><trkpt lat="45.8706940506728" lon="8.6680254260258"><ele>236.0</ele><time>2026-04-04T13:33:19Z</time></trkpt><trkpt lat="45.870821988852086" lon="8.66785008643422"><ele>236.0</ele><time>2026-04-04T13:33:20Z</time></trkpt><trkpt lat="45.87096945601982" lon="8.667708539586412"><ele>236.0</ele><time>2026-04-04T13:33:21Z</time></trkpt><trkpt lat="45.87111498245569" lon="8.667579628370612"><ele>235.66666666666669</ele><time>2026-04-04T13:33:22Z</time></trkpt><trkpt lat="45.87127206161552" lon="8.667449598164488"><ele>235.33333333333331</ele><time>2026-04-04T13:33:23Z</time></trkpt><trkpt lat="45.87144065476747" lon="8.667357955065452"><ele>235.0</ele><time>2026-04-04T13:33:24Z</time></trkpt><trkpt lat="45.87161808412889" lon="8.667320719132597"><ele>236.5</ele><time>2026-04-04T13:33:25Z</time></trkpt><trkpt lat="45.871841021950544" lon="8.667278473920517"><ele>238.0</ele><time>2026-04-04T13:33:26Z</time></trkpt><trkpt lat="45.872115807874444" lon="8.66725008506445"><ele>238.0</ele><time>2026-04-04T13:33:27Z</time></trkpt><trkpt lat="45.872407352524675" lon="8.667231100504758"><ele>238.0</ele><time>2026-04-04T13:33:28Z</time></trkpt><trkpt lat="45.872718448707964" lon="8.66720770674413"><ele>238.0</ele><time>2026-04-04T13:33:29Z</time></trkpt><trkpt lat="45.873054032430524" lon="8.667183160381859"><ele>238.0</ele><time>2026-04-04T13:33:30Z</time></trkpt><trkpt lat="45.873375386912244" lon="8.667144370307163"><ele>238.0</ele><time>2026-04-04T13:33:31Z</time></trkpt><trkpt lat="45.87365901425014" lon="8.667151679892754"><ele>238.0</ele><time>2026-04-04T13:33:32Z</time></trkpt><trkpt lat="45.873918478311126" lon="8.66714387860164"><ele>238.0</ele><time>2026-04-04T13:33:33Z</time></trkpt><trkpt lat="45.87418318477338" lon="8.667164939853897"><ele>238.0</ele><time>2026-04-04T13:33:34Z</time></trkpt><trkpt lat="45.874435359010114" lon="8.667226813319845"><ele>237.5</ele><time>2026-04-04T13:33:35Z</time></trkpt><trkpt lat="45.874662430549385" lon="8.667322241980585"><ele>237.0</ele><time>2026-04-04T13:33:36Z</time></trkpt><trkpt lat="45.87488125056272" lon="8.667452741279492"><ele>237.0</ele><time>2026-04-04T13:33:37Z</time></trkpt><trkpt lat="45.87510080388591" lon="8.66762673694735"><ele>237.0</ele><time>2026-04-04T13:33:38Z</time></trkpt><trkpt lat="45.875325841153796" lon="8.667847047308015"><ele>237.5</ele><time>2026-04-04T13:33:39Z</time></trkpt><trkpt lat="45.87556204774252" lon="8.668095991230278"><ele>238.0</ele><time>2026-04-04T13:33:40Z</time></trkpt><trkpt lat="45.8758179690301" lon="8.668343030627348"><ele>239.0</ele><time>2026-04-04T13:33:41Z</time></trkpt><trkpt lat="45.87606863539454" lon="8.668622330582947"><ele>240.0</ele><time>2026-04-04T13:33:42Z</time></trkpt><trkpt lat="45.876326378385144" lon="8.66890941554381"><ele>240.0</ele><time>2026-04-04T13:33:43Z</time></trkpt><trkpt lat="45.87657184631914" lon="8.669172230466366"><ele>240.0</ele><time>2026-04-04T13:33:44Z</time></trkpt><trkpt lat="45.876790148241234" lon="8.669401994518603"><ele>244.0</ele><time>2026-04-04T13:33:45Z</time></trkpt><trkpt lat="45.87699321083541" lon="8.669604851793535"><ele>248.0</ele><time>2026-04-04T13:33:46Z</time></trkpt><trkpt lat="45.87718675081628" lon="8.66977615431415"><ele>248.0</ele><time>2026-04-04T13:33:47Z</time></trkpt><trkpt lat="45.87737082282399" lon="8.669915728888176"><ele>248.0</ele><time>2026-04-04T13:33:48.001Z</time></trkpt><trkpt lat="45.877554849939045" lon="8.670020048945648"><ele>248.0</ele><time>2026-04-04T13:33:49.001Z</time></trkpt><trkpt lat="45.87774162768408" lon="8.670111810187624"><ele>248.33333333333334</ele><time>2026-04-04T13:33:50.001Z</time></trkpt><trkpt lat="45.877923406473066" lon="8.670187055729254"><ele>248.66666666666669</ele><time>2026-04-04T13:33:51.001Z</time></trkpt><trkpt lat="45.87809958274464" lon="8.670225488499602"><ele>249.0</ele><time>2026-04-04T13:33:52.001Z</time></trkpt><trkpt lat="45.8782752021691" lon="8.670253087360951"><ele>250.33333333333331</ele><time>2026-04-04T13:33:53.001Z</time></trkpt><trkpt lat="45.878446410617535" lon="8.670249094324205"><ele>251.66666666666666</ele><time>2026-04-04T13:33:54.001Z</time></trkpt><trkpt lat="45.87862565580332" lon="8.670235816152683"><ele>253.0</ele><time>2026-04-04T13:33:55.001Z</time></trkpt><trkpt lat="45.878796749002845" lon="8.670210446931804"><ele>253.0</ele><time>2026-04-04T13:33:56.001Z</time></trkpt><trkpt lat="45.87896169018581" lon="8.670160756551645"><ele>253.0</ele><time>2026-04-04T13:33:57.001Z</time></trkpt><trkpt lat="45.879132987742715" lon="8.670097581347859"><ele>253.0</ele><time>2026-04-04T13:33:58.001Z</time></trkpt><trkpt lat="45.87932645501606" lon="8.669989442138855"><ele>258.5</ele><time>2026-04-04T13:33:59.001Z</time></trkpt><trkpt lat="45.87956643632797" lon="8.669851572893164"><ele>264.0</ele><time>2026-04-04T13:34:00.001Z</time></trkpt><trkpt lat="45.879806163679966" lon="8.6696364812294"><ele>264.0</ele><time>2026-04-04T13:34:01.001Z</time></trkpt><trkpt lat="45.88005189198263" lon="8.669436581332034"><ele>264.0</ele><time>2026-04-04T13:34:02.001Z</time></trkpt><trkpt lat="45.88025487487733" lon="8.669246584497495"><ele>264.0</ele><time>2026-04-04T13:34:03.001Z</time></trkpt><trkpt lat="45.88043552259098" lon="8.669074018365453"><ele>264.0</ele><time>2026-04-04T13:34:04.001Z</time></trkpt><trkpt lat="45.88060801870329" lon="8.668917175293586"><ele>264.0</ele><time>2026-04-04T13:34:05.001Z</time></trkpt><trkpt lat="45.88078766186505" lon="8.668806682971649"><ele>258.0</ele><time>2026-04-04T13:34:06.001Z</time></trkpt><trkpt lat="45.88100352769353" lon="8.668682809151301"><ele>252.0</ele><time>2026-04-04T13:34:07.001Z</time></trkpt><trkpt lat="45.881269327167445" lon="8.668534782422501"><ele>250.5</ele><time>2026-04-04T13:34:08.001Z</time></trkpt><trkpt lat="45.88156095608845" lon="8.66837236882471"><ele>249.0</ele><time>2026-04-04T13:34:09.001Z</time></trkpt><trkpt lat="45.88185501211698" lon="8.66818503888284"><ele>249.0</ele><time>2026-04-04T13:34:10.001Z</time></trkpt><trkpt lat="45.88215926755769" lon="8.668027562204255"><ele>249.0</ele><time>2026-04-04T13:34:11.001Z</time></trkpt><trkpt lat="45.88243009335896" lon="8.667871533507697"><ele>250.0</ele><time>2026-04-04T13:34:12.001Z</time></trkpt><trkpt lat="45.88267216495146" lon="8.66771967102578"><ele>251.0</ele><time>2026-04-04T13:34:13.001Z</time></trkpt><trkpt lat="45.88289265816557" lon="8.667556105502701"><ele>251.0</ele><time>2026-04-04T13:34:14.001Z</time></trkpt><trkpt lat="45.88308162724574" lon="8.667385683061118"><ele>251.0</ele><time>2026-04-04T13:34:15.001Z</time></trkpt><trkpt lat="45.88326586885043" lon="8.667219114954404"><ele>251.0</ele><time>2026-04-04T13:34:16.001Z</time></trkpt><trkpt lat="45.88342534658832" lon="8.667074588403711"><ele>251.0</ele><time>2026-04-04T13:34:17.001Z</time></trkpt><trkpt lat="45.88354257696831" lon="8.666958420208141"><ele>251.00000000000003</ele><time>2026-04-04T13:34:18.001Z</time></trkpt><trkpt lat="45.88362722898982" lon="8.666869920877875"><ele>251.00000000000003</ele><time>2026-04-04T13:34:19.001Z</time></trkpt><trkpt lat="45.88369942820338" lon="8.666803480487422"><ele>251.0</ele><time>2026-04-04T13:34:20.001Z</time></trkpt><trkpt lat="45.88377998225977" lon="8.66678339171508"><ele>251.0</ele><time>2026-04-04T13:34:21.001Z</time></trkpt><trkpt lat="45.88385827001209" lon="8.666814750576371"><ele>251.0</ele><time>2026-04-04T13:34:22.001Z</time></trkpt><trkpt lat="45.88392991826154" lon="8.666893025151527"><ele>251.00000000000003</ele><time>2026-04-04T13:34:23.001Z</time></trkpt><trkpt lat="45.883963391149265" lon="8.667004831637556"><ele>251.00000000000003</ele><time>2026-04-04T13:34:24.001Z</time></trkpt><trkpt lat="45.88394122865446" lon="8.667124106199083"><ele>251.0</ele><time>2026-04-04T13:34:25.001Z</time></trkpt><trkpt lat="45.883883469601116" lon="8.66722346734918"><ele>251.0</ele><time>2026-04-04T13:34:26.001Z</time></trkpt><trkpt lat="45.88376747223522" lon="8.66729454139955"><ele>251.25</ele><time>2026-04-04T13:34:27.001Z</time></trkpt><trkpt lat="45.8837118028412" lon="8.66737753708466"><ele>251.5</ele><time>2026-04-04T13:34:28.001Z</time></trkpt><trkpt lat="45.88359628985274" lon="8.667523553920002"><ele>251.75</ele><time>2026-04-04T13:34:29.001Z</time></trkpt><trkpt lat="45.88352021643706" lon="8.667722345655449"><ele>252.0</ele><time>2026-04-04T13:34:30.001Z</time></trkpt><trkpt lat="45.883466836556984" lon="8.66793084018361"><ele>252.25</ele><time>2026-04-04T13:34:31.001Z</time></trkpt><trkpt lat="45.88342440948084" lon="8.668131984447735"><ele>252.5</ele><time>2026-04-04T13:34:32.001Z</time></trkpt><trkpt lat="45.88342675682302" lon="8.668325334016158"><ele>252.75</ele><time>2026-04-04T13:34:33.001Z</time></trkpt><trkpt lat="45.88349074883779" lon="8.668494680657952"><ele>253.0</ele><time>2026-04-04T13:34:34.001Z</time></trkpt><trkpt lat="45.88359457892575" lon="8.668641018803198"><ele>253.0</ele><time>2026-04-04T13:34:35.001Z</time></trkpt><trkpt lat="45.88372959415832" lon="8.668726274175427"><ele>253.0</ele><time>2026-04-04T13:34:36.001Z</time></trkpt><trkpt lat="45.883908770467" lon="8.668758582896366"><ele>253.0</ele><time>2026-04-04T13:34:37.001Z</time></trkpt><trkpt lat="45.8841214671541" lon="8.668767340089037"><ele>253.5</ele><time>2026-04-04T13:34:38.001Z</time></trkpt><trkpt lat="45.884354950743045" lon="8.668776259553805"><ele>254.0</ele><time>2026-04-04T13:34:39.001Z</time></trkpt><trkpt lat="45.88459732485818" lon="8.668806348595162"><ele>254.0</ele><time>2026-04-04T13:34:40.001Z</time></trkpt><trkpt lat="45.884834620888206" lon="8.668859765445223"><ele>254.0</ele><time>2026-04-04T13:34:41.001Z</time></trkpt><trkpt lat="45.88506169820833" lon="8.668934141727172"><ele>253.0</ele><time>2026-04-04T13:34:42.001Z</time></trkpt><trkpt lat="45.88527619970694" lon="8.669028569783366"><ele>252.0</ele><time>2026-04-04T13:34:43.002Z</time></trkpt><trkpt lat="45.8854874438939" lon="8.669120653563752"><ele>251.0</ele><time>2026-04-04T13:34:44.002Z</time></trkpt><trkpt lat="45.885695098124856" lon="8.669203976343642"><ele>251.0</ele><time>2026-04-04T13:34:45.002Z</time></trkpt><trkpt lat="45.88588089670823" lon="8.669285979714996"><ele>251.0</ele><time>2026-04-04T13:34:46.002Z</time></trkpt><trkpt lat="45.88602652513611" lon="8.669347528542326"><ele>251.0</ele><time>2026-04-04T13:34:47.002Z</time></trkpt><trkpt lat="45.88614836243814" lon="8.669409641747261"><ele>251.0</ele><time>2026-04-04T13:34:48.002Z</time></trkpt><trkpt lat="45.88626369128253" lon="8.66946572325391"><ele>251.00000000000003</ele><time>2026-04-04T13:34:49.002Z</time></trkpt><trkpt lat="45.88638020923561" lon="8.669495202363118"><ele>251.00000000000003</ele><time>2026-04-04T13:34:50.002Z</time></trkpt><trkpt lat="45.886463497244364" lon="8.66947348526491"><ele>251.0</ele><time>2026-04-04T13:34:51.002Z</time></trkpt><trkpt lat="45.886542426791536" lon="8.669425924734123"><ele>251.0</ele><time>2026-04-04T13:34:52.002Z</time></trkpt><trkpt lat="45.88661664199389" lon="8.669374531538804"><ele>251.20000000000002</ele><time>2026-04-04T13:34:53.002Z</time></trkpt><trkpt lat="45.88669093005324" lon="8.669345652557247"><ele>251.40000000000003</ele><time>2026-04-04T13:34:54.002Z</time></trkpt><trkpt lat="45.88678232960635" lon="8.669348774235353"><ele>251.6</ele><time>2026-04-04T13:34:56.002Z</time></trkpt><trkpt lat="45.88688867269412" lon="8.669323271539312"><ele>251.8</ele><time>2026-04-04T13:35:00.002Z</time></trkpt><trkpt lat="45.887014458373514" lon="8.66932231582296"><ele>252.0</ele><time>2026-04-04T13:35:01.002Z</time></trkpt><trkpt lat="45.887171719279195" lon="8.669317535294061"><ele>250.66666666666669</ele><time>2026-04-04T13:35:02.002Z</time></trkpt><trkpt lat="45.8873448290273" lon="8.669293887145978"><ele>249.33333333333334</ele><time>2026-04-04T13:35:03.002Z</time></trkpt><trkpt lat="45.88753004135923" lon="8.669234603395651"><ele>248.0</ele><time>2026-04-04T13:35:04.002Z</time></trkpt><trkpt lat="45.88772295456587" lon="8.669176530103062"><ele>248.0</ele><time>2026-04-04T13:35:05.002Z</time></trkpt><trkpt lat="45.88790888106026" lon="8.66912664774026"><ele>248.0</ele><time>2026-04-04T13:35:06.002Z</time></trkpt><trkpt lat="45.8880786435562" lon="8.669076809564785"><ele>248.0</ele><time>2026-04-04T13:35:07.002Z</time></trkpt><trkpt lat="45.8882541642404" lon="8.669030199192223"><ele>248.0</ele><time>2026-04-04T13:35:08.002Z</time></trkpt><trkpt lat="45.88840406986526" lon="8.668988642716007"><ele>248.0</ele><time>2026-04-04T13:35:09.002Z</time></trkpt><trkpt lat="45.888557727294405" lon="8.668947056948342"><ele>248.0</ele><time>2026-04-04T13:35:10.002Z</time></trkpt><trkpt lat="45.88870966837722" lon="8.668908993772234"><ele>247.66666666666669</ele><time>2026-04-04T13:35:11Z</time></trkpt><trkpt lat="45.88886765214427" lon="8.668864245050319"><ele>247.33333333333331</ele><time>2026-04-04T13:35:12Z</time></trkpt><trkpt lat="45.88902698981024" lon="8.668811943225458"><ele>247.0</ele><time>2026-04-04T13:35:13Z</time></trkpt><trkpt lat="45.889190884296085" lon="8.668757971829505"><ele>247.0</ele><time>2026-04-04T13:35:14Z</time></trkpt><trkpt lat="45.8893472729117" lon="8.668704103818213"><ele>247.0</ele><time>2026-04-04T13:35:15Z</time></trkpt><trkpt lat="45.88945616814365" lon="8.66867018274587"><ele>247.0</ele><time>2026-04-04T13:35:16Z</time></trkpt><trkpt lat="45.88954282827419" lon="8.668647623785539"><ele>247.0</ele><time>2026-04-04T13:35:17Z</time></trkpt><trkpt lat="45.88963082264257" lon="8.66861841188414"><ele>247.39999999999998</ele><time>2026-04-04T13:35:18Z</time></trkpt><trkpt lat="45.88972902146018" lon="8.6685898211569"><ele>247.79999999999998</ele><time>2026-04-04T13:35:19Z</time></trkpt><trkpt lat="45.8898347168474" lon="8.668562245201269"><ele>248.2</ele><time>2026-04-04T13:35:20Z</time></trkpt><trkpt lat="45.889946557913035" lon="8.668532080026473"><ele>248.6</ele><time>2026-04-04T13:35:21Z</time></trkpt><trkpt lat="45.89006295347018" lon="8.66849896479925"><ele>249.0</ele><time>2026-04-04T13:35:22Z</time></trkpt><trkpt lat="45.89017166415832" lon="8.66846494712385"><ele>249.0</ele><time>2026-04-04T13:35:23Z</time></trkpt><trkpt lat="45.89026928050283" lon="8.668434018285007"><ele>248.99999999999997</ele><time>2026-04-04T13:35:24Z</time></trkpt><trkpt lat="45.89036005640058" lon="8.668403582686203"><ele>248.99999999999997</ele><time>2026-04-04T13:35:25Z</time></trkpt><trkpt lat="45.89044725351573" lon="8.66836508403175"><ele>249.0</ele><time>2026-04-04T13:35:26Z</time></trkpt><trkpt lat="45.89053473048022" lon="8.668325228423008"><ele>249.0</ele><time>2026-04-04T13:35:27Z</time></trkpt><trkpt lat="45.89061280734415" lon="8.668271266099865"><ele>249.0</ele><time>2026-04-04T13:35:28Z</time></trkpt><trkpt lat="45.89069091976823" lon="8.668236992866309"><ele>249.0</ele><time>2026-04-04T13:35:29Z</time></trkpt><trkpt lat="45.890756649503984" lon="8.66819939192552"><ele>249.0</ele><time>2026-04-04T13:35:30Z</time></trkpt><trkpt lat="45.89082003014733" lon="8.668168516685549"><ele>249.0</ele><time>2026-04-04T13:35:31Z</time></trkpt><trkpt lat="45.89089186207881" lon="8.668135237216333"><ele>249.0</ele><time>2026-04-04T13:35:32Z</time></trkpt><trkpt lat="45.890967238342675" lon="8.668090701891826"><ele>249.0</ele><time>2026-04-04T13:35:33Z</time></trkpt><trkpt lat="45.89104639216387" lon="8.668040505891788"><ele>249.0</ele><time>2026-04-04T13:35:34Z</time></trkpt><trkpt lat="45.89113099162144" lon="8.667980950904106"><ele>248.99999999999997</ele><time>2026-04-04T13:35:35Z</time></trkpt><trkpt lat="45.8912212793012" lon="8.667924392934935"><ele>248.99999999999997</ele><time>2026-04-04T13:35:36Z</time></trkpt><trkpt lat="45.891322924391424" lon="8.66787522153915"><ele>249.0</ele><time>2026-04-04T13:35:37Z</time></trkpt><trkpt lat="45.891418640782156" lon="8.667784290584413"><ele>249.0</ele><time>2026-04-04T13:35:38Z</time></trkpt><trkpt lat="45.891510058900025" lon="8.6677005276606"><ele>249.0</ele><time>2026-04-04T13:35:39Z</time></trkpt><trkpt lat="45.89160884128407" lon="8.667623778411405"><ele>249.0</ele><time>2026-04-04T13:35:40Z</time></trkpt><trkpt lat="45.8917092766093" lon="8.667540961253005"><ele>249.0</ele><time>2026-04-04T13:35:41Z</time></trkpt><trkpt lat="45.89181442009906" lon="8.667475701799436"><ele>249.0</ele><time>2026-04-04T13:35:42Z</time></trkpt><trkpt lat="45.89192018684035" lon="8.667396045204335"><ele>247.75</ele><time>2026-04-04T13:35:43Z</time></trkpt><trkpt lat="45.89202122351614" lon="8.667309914142567"><ele>246.5</ele><time>2026-04-04T13:35:44Z</time></trkpt><trkpt lat="45.892128287959444" lon="8.667251470133953"><ele>245.25</ele><time>2026-04-04T13:35:45Z</time></trkpt><trkpt lat="45.892243565311304" lon="8.667197899776061"><ele>244.0</ele><time>2026-04-04T13:35:46Z</time></trkpt><trkpt lat="45.89236045016425" lon="8.667138901104597"><ele>244.0</ele><time>2026-04-04T13:35:47Z</time></trkpt><trkpt lat="45.89247836856647" lon="8.66708983809401"><ele>244.0</ele><time>2026-04-04T13:35:48Z</time></trkpt><trkpt lat="45.892594977078964" lon="8.667046253230474"><ele>244.0</ele><time>2026-04-04T13:35:49Z</time></trkpt><trkpt lat="45.892715769442844" lon="8.667000435705042"><ele>244.0</ele><time>2026-04-04T13:35:50.001Z</time></trkpt><trkpt lat="45.8928326057019" lon="8.666948392195932"><ele>244.2</ele><time>2026-04-04T13:35:51.001Z</time></trkpt><trkpt lat="45.89293834737034" lon="8.66689602971007"><ele>244.39999999999998</ele><time>2026-04-04T13:35:52.001Z</time></trkpt><trkpt lat="45.89303835053487" lon="8.666856921994414"><ele>244.6</ele><time>2026-04-04T13:35:53.001Z</time></trkpt><trkpt lat="45.893130794083596" lon="8.666790390920529"><ele>244.8</ele><time>2026-04-04T13:35:54.001Z</time></trkpt><trkpt lat="45.893200239025774" lon="8.66673104611694"><ele>245.0</ele><time>2026-04-04T13:35:55.001Z</time></trkpt><trkpt lat="45.893282215328234" lon="8.666687792597966"><ele>245.0</ele><time>2026-04-04T13:35:57.001Z</time></trkpt><trkpt lat="45.89333635598476" lon="8.66675819464351"><ele>245.0</ele><time>2026-04-04T13:36:00.001Z</time></trkpt><trkpt lat="45.89333181505832" lon="8.666851123358953"><ele>245.0</ele><time>2026-04-04T13:36:03.001Z</time></trkpt><trkpt lat="45.89320078196509" lon="8.666888788091535"><ele>245.0</ele><time>2026-04-04T13:36:04.001Z</time></trkpt><trkpt lat="45.89308954821583" lon="8.666971970951627"><ele>245.0</ele><time>2026-04-04T13:36:05.001Z</time></trkpt><trkpt lat="45.89297627050456" lon="8.667038750114124"><ele>245.0</ele><time>2026-04-04T13:36:06.001Z</time></trkpt><trkpt lat="45.892864371257986" lon="8.667121349902436"><ele>245.0</ele><time>2026-04-04T13:36:07.001Z</time></trkpt><trkpt lat="45.89276910801158" lon="8.667187470372212"><ele>245.0</ele><time>2026-04-04T13:36:08.001Z</time></trkpt><trkpt lat="45.89269594897814" lon="8.667243211307985"><ele>245.0</ele><time>2026-04-04T13:36:09.001Z</time></trkpt><trkpt lat="45.892642651899486" lon="8.66731518164525"><ele>245.0</ele><time>2026-04-04T13:36:10.001Z</time></trkpt><trkpt lat="45.892608337707166" lon="8.667409178650745"><ele>245.0</ele><time>2026-04-04T13:36:11.001Z</time></trkpt><trkpt lat="45.89259904782005" lon="8.667507469183086"><ele>245.0</ele><time>2026-04-04T13:36:12.001Z</time></trkpt><trkpt lat="45.89258818090046" lon="8.667606254648943"><ele>245.0</ele><time>2026-04-04T13:36:13.001Z</time></trkpt><trkpt lat="45.89257901022535" lon="8.667701358558825"><ele>245.0</ele><time>2026-04-04T13:36:14.001Z</time></trkpt><trkpt lat="45.89258852433622" lon="8.667877409811538"><ele>245.0</ele><time>2026-04-04T13:36:16.001Z</time></trkpt><trkpt lat="45.89274857645657" lon="8.667900266529603"><ele>244.8</ele><time>2026-04-04T13:36:18.001Z</time></trkpt><trkpt lat="45.892830789674896" lon="8.667903783601119"><ele>244.6</ele><time>2026-04-04T13:36:19.001Z</time></trkpt><trkpt lat="45.892915458976375" lon="8.667943660046804"><ele>244.39999999999998</ele><time>2026-04-04T13:36:20.001Z</time></trkpt><trkpt lat="45.892968998939814" lon="8.668055598705093"><ele>244.2</ele><time>2026-04-04T13:36:21.001Z</time></trkpt><trkpt lat="45.89305095551877" lon="8.66818233171301"><ele>244.0</ele><time>2026-04-04T13:36:22.001Z</time></trkpt><trkpt lat="45.8931416573262" lon="8.668316452825614"><ele>244.0</ele><time>2026-04-04T13:36:23.001Z</time></trkpt><trkpt lat="45.89322918788712" lon="8.668447748663446"><ele>244.0</ele><time>2026-04-04T13:36:24.001Z</time></trkpt><trkpt lat="45.893320387791164" lon="8.66858454850407"><ele>244.0</ele><time>2026-04-04T13:36:25.001Z</time></trkpt><trkpt lat="45.89341618233466" lon="8.668726465023337"><ele>244.0</ele><time>2026-04-04T13:36:26.001Z</time></trkpt><trkpt lat="45.89351416858095" lon="8.668871571638165"><ele>244.39999999999998</ele><time>2026-04-04T13:36:27.001Z</time></trkpt><trkpt lat="45.89360078907488" lon="8.66899938898606"><ele>244.79999999999998</ele><time>2026-04-04T13:36:28.001Z</time></trkpt><trkpt lat="45.89367692012162" lon="8.66911072224915"><ele>245.20000000000002</ele><time>2026-04-04T13:36:29.001Z</time></trkpt><trkpt lat="45.89375324236217" lon="8.669200767700856"><ele>245.60000000000002</ele><time>2026-04-04T13:36:30.001Z</time></trkpt><trkpt lat="45.893794310031474" lon="8.669292864863419"><ele>246.0</ele><time>2026-04-04T13:36:31.001Z</time></trkpt><trkpt lat="45.89376988425496" lon="8.669381443888788"><ele>246.60000000000002</ele><time>2026-04-04T13:36:32.001Z</time></trkpt><trkpt lat="45.89371275102811" lon="8.669490270154453"><ele>247.20000000000002</ele><time>2026-04-04T13:36:34.001Z</time></trkpt><trkpt lat="45.8936361137073" lon="8.66952619909214"><ele>247.79999999999998</ele><time>2026-04-04T13:36:36.001Z</time></trkpt><trkpt lat="45.893566451875216" lon="8.66956021461533"><ele>248.39999999999998</ele><time>2026-04-04T13:36:38.001Z</time></trkpt><trkpt lat="45.893538233929306" lon="8.669686795669332"><ele>249.0</ele><time>2026-04-04T13:36:40.001Z</time></trkpt><trkpt lat="45.89345686304918" lon="8.66958190711987"><ele>249.0</ele><time>2026-04-04T13:36:42.001Z</time></trkpt><trkpt lat="45.89338827173629" lon="8.669596271606817"><ele>249.0</ele><time>2026-04-04T13:36:46.002Z</time></trkpt><trkpt lat="45.89337744202183" lon="8.669744966927722"><ele>249.0</ele><time>2026-04-04T13:40:31.002Z</time></trkpt><trkpt lat="45.89331667142095" lon="8.669789200467438"><ele>249.0</ele><time>2026-04-04T13:42:46.002Z</time></trkpt><trkpt lat="45.89333125846503" lon="8.669649865279384"><ele>249.0</ele><time>2026-04-04T13:42:58.002Z</time></trkpt><trkpt lat="45.893408555148724" lon="8.66964752282495"><ele>249.0</ele><time>2026-04-04T13:42:59.002Z</time></trkpt><trkpt lat="45.89353872772378" lon="8.669623505452565"><ele>249.0</ele><time>2026-04-04T13:43:01.002Z</time></trkpt><trkpt lat="45.89361985321733" lon="8.66960931115376"><ele>249.0</ele><time>2026-04-04T13:43:02.002Z</time></trkpt><trkpt lat="45.89370644519044" lon="8.669594510877143"><ele>249.0</ele><time>2026-04-04T13:43:03.002Z</time></trkpt><trkpt lat="45.89379291967447" lon="8.669584026258798"><ele>249.0</ele><time>2026-04-04T13:43:04.002Z</time></trkpt><trkpt lat="45.89388301931978" lon="8.669571179698428"><ele>249.0</ele><time>2026-04-04T13:43:05.002Z</time></trkpt><trkpt lat="45.8939672022879" lon="8.669569631247096"><ele>249.0</ele><time>2026-04-04T13:43:06.002Z</time></trkpt><trkpt lat="45.89405128913045" lon="8.669600745921876"><ele>249.0</ele><time>2026-04-04T13:43:07.002Z</time></trkpt><trkpt lat="45.89412856508309" lon="8.669655482153052"><ele>248.99999999999997</ele><time>2026-04-04T13:43:08.002Z</time></trkpt><trkpt lat="45.89420101946991" lon="8.669653727592294"><ele>248.99999999999997</ele><time>2026-04-04T13:43:09.002Z</time></trkpt><trkpt lat="45.894269742120905" lon="8.669441235109732"><ele>249.0</ele><time>2026-04-04T13:43:11.002Z</time></trkpt><trkpt lat="45.8942513597214" lon="8.669299216514515"><ele>249.0</ele><time>2026-04-04T13:43:12.002Z</time></trkpt><trkpt lat="45.89430566597975" lon="8.669169078278445"><ele>248.6</ele><time>2026-04-04T13:43:13.002Z</time></trkpt><trkpt lat="45.89434679993146" lon="8.669028321886374"><ele>248.2</ele><time>2026-04-04T13:43:14.002Z</time></trkpt><trkpt lat="45.89438484809187" lon="8.6688942233128"><ele>247.79999999999998</ele><time>2026-04-04T13:43:15.002Z</time></trkpt><trkpt lat="45.89441620404285" lon="8.6687665162231"><ele>247.39999999999998</ele><time>2026-04-04T13:43:16.002Z</time></trkpt><trkpt lat="45.89444730644722" lon="8.66862543547706"><ele>247.0</ele><time>2026-04-04T13:43:17.002Z</time></trkpt><trkpt lat="45.89447999551011" lon="8.668488222276093"><ele>246.8</ele><time>2026-04-04T13:43:18.002Z</time></trkpt><trkpt lat="45.89450767441478" lon="8.668358516398694"><ele>246.6</ele><time>2026-04-04T13:43:19.002Z</time></trkpt><trkpt lat="45.894534845116674" lon="8.668213515214394"><ele>246.40000000000003</ele><time>2026-04-04T13:43:20.002Z</time></trkpt><trkpt lat="45.8945666611626" lon="8.668065912438346"><ele>246.20000000000002</ele><time>2026-04-04T13:43:21.002Z</time></trkpt><trkpt lat="45.89460277063526" lon="8.66792776515757"><ele>246.0</ele><time>2026-04-04T13:43:22.002Z</time></trkpt><trkpt lat="45.894631933745416" lon="8.667794342059555"><ele>245.5</ele><time>2026-04-04T13:43:23.002Z</time></trkpt><trkpt lat="45.89465805519555" lon="8.66766735399331"><ele>245.0</ele><time>2026-04-04T13:43:25.002Z</time></trkpt><trkpt lat="45.8946750903891" lon="8.667575321169402"><ele>244.5</ele><time>2026-04-04T13:43:29.002Z</time></trkpt><trkpt lat="45.89474017696594" lon="8.667412856937906"><ele>244.0</ele><time>2026-04-04T13:43:35.001Z</time></trkpt><trkpt lat="45.894769696242726" lon="8.66731929242923"><ele>243.5</ele><time>2026-04-04T13:43:36.001Z</time></trkpt><trkpt lat="45.894795289063985" lon="8.667218471454106"><ele>243.0</ele><time>2026-04-04T13:43:37.001Z</time></trkpt><trkpt lat="45.89483460524099" lon="8.66713473246324"><ele>243.0</ele><time>2026-04-04T13:43:38.001Z</time></trkpt><trkpt lat="45.894888508686506" lon="8.667062384452459"><ele>243.0</ele><time>2026-04-04T13:43:39.001Z</time></trkpt><trkpt lat="45.894951261841506" lon="8.666937012672427"><ele>243.0</ele><time>2026-04-04T13:43:40.001Z</time></trkpt><trkpt lat="45.895040597371725" lon="8.666763446673059"><ele>243.0</ele><time>2026-04-04T13:43:41.001Z</time></trkpt><trkpt lat="45.89512755180457" lon="8.666596661043728"><ele>243.8</ele><time>2026-04-04T13:43:42.001Z</time></trkpt><trkpt lat="45.89520232595517" lon="8.666453238246483"><ele>244.60000000000002</ele><time>2026-04-04T13:43:43.001Z</time></trkpt><trkpt lat="45.89526976390866" lon="8.666318265860141"><ele>245.39999999999998</ele><time>2026-04-04T13:43:44.001Z</time></trkpt><trkpt lat="45.895328827426276" lon="8.666192392776367"><ele>246.2</ele><time>2026-04-04T13:43:45.001Z</time></trkpt><trkpt lat="45.89536706800466" lon="8.666071087656327"><ele>247.0</ele><time>2026-04-04T13:43:46.001Z</time></trkpt><trkpt lat="45.895411386410196" lon="8.665979163641945"><ele>246.99999999999997</ele><time>2026-04-04T13:43:47.001Z</time></trkpt><trkpt lat="45.895454537391124" lon="8.665837462808067"><ele>247.0</ele><time>2026-04-04T13:43:49.001Z</time></trkpt><trkpt lat="45.895483023837805" lon="8.665725719476898"><ele>247.0</ele><time>2026-04-04T13:43:52.001Z</time></trkpt><trkpt lat="45.89549203492766" lon="8.66563469021555"><ele>247.0</ele><time>2026-04-04T13:43:57.001Z</time></trkpt><trkpt lat="45.89548968033685" lon="8.66550090670754"><ele>246.99999999999997</ele><time>2026-04-04T13:44:29.001Z</time></trkpt><trkpt lat="45.895474219512515" lon="8.665378692586735"><ele>247.0</ele><time>2026-04-04T13:44:30.001Z</time></trkpt><trkpt lat="45.895451728844066" lon="8.665238120561675"><ele>247.0</ele><time>2026-04-04T13:44:31.001Z</time></trkpt><trkpt lat="45.895420835644956" lon="8.665069698408658"><ele>247.0</ele><time>2026-04-04T13:44:32.001Z</time></trkpt><trkpt lat="45.8953933154128" lon="8.66490195390318"><ele>247.0</ele><time>2026-04-04T13:44:33.001Z</time></trkpt><trkpt lat="45.895364723282306" lon="8.664732325828648"><ele>247.0</ele><time>2026-04-04T13:44:34.001Z</time></trkpt><trkpt lat="45.895334265925236" lon="8.66455326882333"><ele>247.25</ele><time>2026-04-04T13:44:35.001Z</time></trkpt><trkpt lat="45.895296430801714" lon="8.664370759333705"><ele>247.5</ele><time>2026-04-04T13:44:36.001Z</time></trkpt><trkpt lat="45.89526060313588" lon="8.664179926465577"><ele>247.75</ele><time>2026-04-04T13:44:37.001Z</time></trkpt><trkpt lat="45.89522396146389" lon="8.663993045596502"><ele>248.0</ele><time>2026-04-04T13:44:38.001Z</time></trkpt><trkpt lat="45.89518389742792" lon="8.663798593483921"><ele>247.5</ele><time>2026-04-04T13:44:39.001Z</time></trkpt><trkpt lat="45.8951484867622" lon="8.663600893823494"><ele>247.0</ele><time>2026-04-04T13:44:40.001Z</time></trkpt><trkpt lat="45.89510790264512" lon="8.663401624387982"><ele>246.5</ele><time>2026-04-04T13:44:41.001Z</time></trkpt><trkpt lat="45.89507247344608" lon="8.66321332344468"><ele>246.0</ele><time>2026-04-04T13:44:42.001Z</time></trkpt><trkpt lat="45.89503634433535" lon="8.663022880057511"><ele>244.75</ele><time>2026-04-04T13:44:43.001Z</time></trkpt><trkpt lat="45.89500268210574" lon="8.662836084033483"><ele>243.5</ele><time>2026-04-04T13:44:44.001Z</time></trkpt><trkpt lat="45.89496604656188" lon="8.662647769619545"><ele>242.25</ele><time>2026-04-04T13:44:45.001Z</time></trkpt><trkpt lat="45.894925906844676" lon="8.662456708872423"><ele>241.0</ele><time>2026-04-04T13:44:46.001Z</time></trkpt><trkpt lat="45.89488659965338" lon="8.662263464173211"><ele>241.0</ele><time>2026-04-04T13:44:47.001Z</time></trkpt><trkpt lat="45.89484832263091" lon="8.662073491348165"><ele>241.0</ele><time>2026-04-04T13:44:48.001Z</time></trkpt><trkpt lat="45.894814833402975" lon="8.661881260841815"><ele>241.0</ele><time>2026-04-04T13:44:49.001Z</time></trkpt><trkpt lat="45.89478234883878" lon="8.661687677889434"><ele>241.0</ele><time>2026-04-04T13:44:50.001Z</time></trkpt><trkpt lat="45.89475041505059" lon="8.661490772962804"><ele>241.25</ele><time>2026-04-04T13:44:51.001Z</time></trkpt><trkpt lat="45.89473204524826" lon="8.661298107250879"><ele>241.5</ele><time>2026-04-04T13:44:52.001Z</time></trkpt><trkpt lat="45.894720544691594" lon="8.66109670447446"><ele>241.75</ele><time>2026-04-04T13:44:53.001Z</time></trkpt><trkpt lat="45.89472140740205" lon="8.660902032995565"><ele>242.0</ele><time>2026-04-04T13:44:54.001Z</time></trkpt><trkpt lat="45.89472814161462" lon="8.660696906337526"><ele>242.25</ele><time>2026-04-04T13:44:55.001Z</time></trkpt><trkpt lat="45.89473803815186" lon="8.660501617189425"><ele>242.5</ele><time>2026-04-04T13:44:56.001Z</time></trkpt><trkpt lat="45.89474703339953" lon="8.660305831382745"><ele>242.75</ele><time>2026-04-04T13:44:57.001Z</time></trkpt><trkpt lat="45.8947560233891" lon="8.66011175064903"><ele>243.0</ele><time>2026-04-04T13:44:58.001Z</time></trkpt><trkpt lat="45.89476742346741" lon="8.659913109691484"><ele>242.75</ele><time>2026-04-04T13:44:59.001Z</time></trkpt><trkpt lat="45.894781343360364" lon="8.659712697075014"><ele>242.5</ele><time>2026-04-04T13:45:00.001Z</time></trkpt><trkpt lat="45.894789809939006" lon="8.659517725581184"><ele>242.25</ele><time>2026-04-04T13:45:01.001Z</time></trkpt><trkpt lat="45.894801087426444" lon="8.659315699703996"><ele>242.0</ele><time>2026-04-04T13:45:02.001Z</time></trkpt><trkpt lat="45.89481563415079" lon="8.65911625239886"><ele>242.0</ele><time>2026-04-04T13:45:03.001Z</time></trkpt><trkpt lat="45.89482957407693" lon="8.658912623742616"><ele>242.0</ele><time>2026-04-04T13:45:04.001Z</time></trkpt><trkpt lat="45.89483875560495" lon="8.658711983152642"><ele>242.0</ele><time>2026-04-04T13:45:05.001Z</time></trkpt><trkpt lat="45.89484903726772" lon="8.658518640988136"><ele>242.0</ele><time>2026-04-04T13:45:06.001Z</time></trkpt><trkpt lat="45.894856949579996" lon="8.658326323594215"><ele>242.0</ele><time>2026-04-04T13:45:07.001Z</time></trkpt><trkpt lat="45.89486600516113" lon="8.658130799107601"><ele>242.0</ele><time>2026-04-04T13:45:08.001Z</time></trkpt><trkpt lat="45.8948802600961" lon="8.657936666481557"><ele>242.0</ele><time>2026-04-04T13:45:09.001Z</time></trkpt><trkpt lat="45.89488916811391" lon="8.657739570114275"><ele>242.0</ele><time>2026-04-04T13:45:10.001Z</time></trkpt><trkpt lat="45.894892717354054" lon="8.65753956566804"><ele>242.0</ele><time>2026-04-04T13:45:11.001Z</time></trkpt><trkpt lat="45.894899041648564" lon="8.65733007362577"><ele>242.0</ele><time>2026-04-04T13:45:12.001Z</time></trkpt><trkpt lat="45.89489814109629" lon="8.657111806356376"><ele>242.0</ele><time>2026-04-04T13:45:13.001Z</time></trkpt><trkpt lat="45.89489069492778" lon="8.656878008897863"><ele>241.33333333333334</ele><time>2026-04-04T13:45:14.001Z</time></trkpt><trkpt lat="45.89488302333757" lon="8.656641759744343"><ele>240.66666666666669</ele><time>2026-04-04T13:45:15.001Z</time></trkpt><trkpt lat="45.89487790261538" lon="8.656408005158042"><ele>240.0</ele><time>2026-04-04T13:45:16.001Z</time></trkpt><trkpt lat="45.894872581416145" lon="8.65616354015394"><ele>239.66666666666669</ele><time>2026-04-04T13:45:17.001Z</time></trkpt><trkpt lat="45.894869300140115" lon="8.655923229827437"><ele>239.33333333333334</ele><time>2026-04-04T13:45:18.001Z</time></trkpt><trkpt lat="45.894864996851325" lon="8.655683993711735"><ele>239.0</ele><time>2026-04-04T13:45:19.001Z</time></trkpt><trkpt lat="45.89485786041431" lon="8.655435572402132"><ele>239.0</ele><time>2026-04-04T13:45:20.001Z</time></trkpt><trkpt lat="45.89485497179894" lon="8.655190844332921"><ele>239.0</ele><time>2026-04-04T13:45:21.001Z</time></trkpt><trkpt lat="45.894858351562384" lon="8.654946918288681"><ele>239.0</ele><time>2026-04-04T13:45:22.001Z</time></trkpt><trkpt lat="45.89487186336063" lon="8.654710999122697"><ele>239.0</ele><time>2026-04-04T13:45:23.001Z</time></trkpt><trkpt lat="45.8949043938687" lon="8.654472083487578"><ele>239.0</ele><time>2026-04-04T13:45:24.001Z</time></trkpt><trkpt lat="45.89494706118951" lon="8.654244781482902"><ele>239.0</ele><time>2026-04-04T13:45:25.001Z</time></trkpt><trkpt lat="45.8950079631473" lon="8.654026911833865"><ele>239.25</ele><time>2026-04-04T13:45:26.001Z</time></trkpt><trkpt lat="45.89508307266634" lon="8.653838183515365"><ele>239.5</ele><time>2026-04-04T13:45:27.001Z</time></trkpt><trkpt lat="45.895166300981394" lon="8.653662712951693"><ele>239.75</ele><time>2026-04-04T13:45:28.001Z</time></trkpt><trkpt lat="45.89523849820935" lon="8.653488984870988"><ele>240.0</ele><time>2026-04-04T13:45:29.001Z</time></trkpt><trkpt lat="45.89533364161303" lon="8.653286240371388"><ele>239.5</ele><time>2026-04-04T13:45:30.001Z</time></trkpt><trkpt lat="45.89541335221973" lon="8.6531403947135"><ele>239.0</ele><time>2026-04-04T13:45:31.001Z</time></trkpt><trkpt lat="45.89550605461267" lon="8.652877837627244"><ele>238.5</ele><time>2026-04-04T13:45:32.001Z</time></trkpt><trkpt lat="45.89557530276407" lon="8.652755056072708"><ele>238.0</ele><time>2026-04-04T13:45:33.001Z</time></trkpt><trkpt lat="45.895644183104906" lon="8.652669043822513"><ele>237.33333333333331</ele><time>2026-04-04T13:45:34.001Z</time></trkpt><trkpt lat="45.89565444340485" lon="8.6525359877219"><ele>236.66666666666666</ele><time>2026-04-04T13:45:35.001Z</time></trkpt><trkpt lat="45.895669138434165" lon="8.652425792840896"><ele>236.0</ele><time>2026-04-04T13:45:36.001Z</time></trkpt><trkpt lat="45.8957387462004" lon="8.652363827100674"><ele>235.33333333333331</ele><time>2026-04-04T13:45:37.001Z</time></trkpt><trkpt lat="45.895770545978884" lon="8.652265775803857"><ele>234.66666666666666</ele><time>2026-04-04T13:45:38.001Z</time></trkpt><trkpt lat="45.895818329835954" lon="8.652189864705322"><ele>234.0</ele><time>2026-04-04T13:45:39.001Z</time></trkpt><trkpt lat="45.89582905067939" lon="8.652090640837775"><ele>234.0</ele><time>2026-04-04T13:45:40.001Z</time></trkpt><trkpt lat="45.8958070386963" lon="8.652005698405443"><ele>233.99999999999997</ele><time>2026-04-04T13:45:40.999Z</time></trkpt><trkpt lat="45.89576137707552" lon="8.651936891775756"><ele>233.99999999999997</ele><time>2026-04-04T13:45:41.999Z</time></trkpt><trkpt lat="45.89566330808258" lon="8.651885813718106"><ele>234.0</ele><time>2026-04-04T13:45:42.999Z</time></trkpt><trkpt lat="45.8955310940773" lon="8.651829820513168"><ele>234.0</ele><time>2026-04-04T13:45:43.999Z</time></trkpt><trkpt lat="45.89542454055793" lon="8.65178892653911"><ele>233.6</ele><time>2026-04-04T13:45:44.999Z</time></trkpt><trkpt lat="45.89535873965262" lon="8.651761146566939"><ele>233.2</ele><time>2026-04-04T13:45:45.999Z</time></trkpt><trkpt lat="45.895286480585995" lon="8.6517454457772"><ele>232.79999999999998</ele><time>2026-04-04T13:45:46.999Z</time></trkpt><trkpt lat="45.89519347847327" lon="8.651723234087259"><ele>232.39999999999998</ele><time>2026-04-04T13:45:47.999Z</time></trkpt><trkpt lat="45.895058225196905" lon="8.651672500738083"><ele>232.0</ele><time>2026-04-04T13:45:48.999Z</time></trkpt><trkpt lat="45.89490781841488" lon="8.651569361622661"><ele>230.66666666666666</ele><time>2026-04-04T13:45:49.999Z</time></trkpt><trkpt lat="45.894745761704705" lon="8.65147121700153"><ele>229.33333333333331</ele><time>2026-04-04T13:45:50.999Z</time></trkpt><trkpt lat="45.89458873511711" lon="8.65137349893324"><ele>228.0</ele><time>2026-04-04T13:45:51.999Z</time></trkpt><trkpt lat="45.89446015713038" lon="8.651267730397944"><ele>228.0</ele><time>2026-04-04T13:45:52.999Z</time></trkpt><trkpt lat="45.894346303079836" lon="8.651174225231292"><ele>228.0</ele><time>2026-04-04T13:45:53.999Z</time></trkpt><trkpt lat="45.894262621924355" lon="8.651044618339917"><ele>228.0</ele><time>2026-04-04T13:45:54.999Z</time></trkpt><trkpt lat="45.89420040810969" lon="8.650901605379493"><ele>228.0</ele><time>2026-04-04T13:45:56Z</time></trkpt><trkpt lat="45.89416911526" lon="8.650761462831356"><ele>227.5</ele><time>2026-04-04T13:45:57Z</time></trkpt><trkpt lat="45.89419452027795" lon="8.650615494241832"><ele>227.0</ele><time>2026-04-04T13:45:58Z</time></trkpt><trkpt lat="45.894249819383134" lon="8.65047404623291"><ele>226.5</ele><time>2026-04-04T13:45:59Z</time></trkpt><trkpt lat="45.89425080756595" lon="8.650309628289774"><ele>226.0</ele><time>2026-04-04T13:46:00Z</time></trkpt><trkpt lat="45.89418104273442" lon="8.650145322039375"><ele>225.66666666666666</ele><time>2026-04-04T13:46:01Z</time></trkpt><trkpt lat="45.89411140159059" lon="8.649958282481329"><ele>225.33333333333331</ele><time>2026-04-04T13:46:02Z</time></trkpt><trkpt lat="45.8941344104311" lon="8.649741048181577"><ele>225.0</ele><time>2026-04-04T13:46:03Z</time></trkpt><trkpt lat="45.89413299117099" lon="8.649505924142012"><ele>224.33333333333331</ele><time>2026-04-04T13:46:04Z</time></trkpt><trkpt lat="45.89414848797346" lon="8.649257932207856"><ele>223.66666666666666</ele><time>2026-04-04T13:46:05Z</time></trkpt><trkpt lat="45.89416791545949" lon="8.649003127647866"><ele>223.0</ele><time>2026-04-04T13:46:06Z</time></trkpt><trkpt lat="45.89419296712857" lon="8.648744457174242"><ele>223.0</ele><time>2026-04-04T13:46:07Z</time></trkpt><trkpt lat="45.89420783438681" lon="8.648466614788024"><ele>223.0</ele><time>2026-04-04T13:46:08Z</time></trkpt><trkpt lat="45.894222716724535" lon="8.648181202119584"><ele>223.0</ele><time>2026-04-04T13:46:09Z</time></trkpt><trkpt lat="45.894241633282455" lon="8.647890630612142"><ele>222.66666666666666</ele><time>2026-04-04T13:46:10Z</time></trkpt><trkpt lat="45.89425911394005" lon="8.647597131165668"><ele>222.33333333333331</ele><time>2026-04-04T13:46:11Z</time></trkpt><trkpt lat="45.89427873775018" lon="8.64730260251481"><ele>222.0</ele><time>2026-04-04T13:46:12Z</time></trkpt><trkpt lat="45.894297351344214" lon="8.647003443071855"><ele>222.33333333333331</ele><time>2026-04-04T13:46:13Z</time></trkpt><trkpt lat="45.89431493976815" lon="8.646702640690725"><ele>222.66666666666666</ele><time>2026-04-04T13:46:14Z</time></trkpt><trkpt lat="45.89433348265177" lon="8.646418870393308"><ele>223.0</ele><time>2026-04-04T13:46:15Z</time></trkpt><trkpt lat="45.89434757602543" lon="8.646156801538295"><ele>222.0</ele><time>2026-04-04T13:46:16Z</time></trkpt><trkpt lat="45.89435860910708" lon="8.645910265053177"><ele>221.0</ele><time>2026-04-04T13:46:17Z</time></trkpt><trkpt lat="45.89439106022526" lon="8.645660158562913"><ele>220.0</ele><time>2026-04-04T13:46:18Z</time></trkpt><trkpt lat="45.894407165185434" lon="8.645410022853882"><ele>218.66666666666666</ele><time>2026-04-04T13:46:19Z</time></trkpt><trkpt lat="45.89442297723375" lon="8.645164436577268"><ele>217.33333333333331</ele><time>2026-04-04T13:46:20Z</time></trkpt><trkpt lat="45.8944215654752" lon="8.644924506307168"><ele>216.0</ele><time>2026-04-04T13:46:21Z</time></trkpt><trkpt lat="45.894438293765695" lon="8.644688883763843"><ele>216.33333333333331</ele><time>2026-04-04T13:46:22Z</time></trkpt><trkpt lat="45.894453290793074" lon="8.644457502167658"><ele>216.66666666666666</ele><time>2026-04-04T13:46:23Z</time></trkpt><trkpt lat="45.894464628696475" lon="8.644229708243495"><ele>217.0</ele><time>2026-04-04T13:46:24Z</time></trkpt><trkpt lat="45.8944725993599" lon="8.643998986315271"><ele>217.0</ele><time>2026-04-04T13:46:25Z</time></trkpt><trkpt lat="45.89447251107978" lon="8.643765572776465"><ele>217.0</ele><time>2026-04-04T13:46:26Z</time></trkpt><trkpt lat="45.894460018845535" lon="8.6435325866154"><ele>217.0</ele><time>2026-04-04T13:46:27Z</time></trkpt><trkpt lat="45.8944437178001" lon="8.643294905846858"><ele>216.66666666666666</ele><time>2026-04-04T13:46:28Z</time></trkpt><trkpt lat="45.89442584082874" lon="8.643056562768791"><ele>216.33333333333331</ele><time>2026-04-04T13:46:29Z</time></trkpt><trkpt lat="45.89440359680281" lon="8.642815308198587"><ele>216.0</ele><time>2026-04-04T13:46:30Z</time></trkpt><trkpt lat="45.89438288931327" lon="8.642584926322215"><ele>216.0</ele><time>2026-04-04T13:46:31Z</time></trkpt><trkpt lat="45.89437014648664" lon="8.642375899120202"><ele>216.0</ele><time>2026-04-04T13:46:32Z</time></trkpt><trkpt lat="45.89439508411447" lon="8.642183255887465"><ele>216.0</ele><time>2026-04-04T13:46:33Z</time></trkpt><trkpt lat="45.894401502158566" lon="8.64199436853679"><ele>216.0</ele><time>2026-04-04T13:46:34Z</time></trkpt><trkpt lat="45.89448963479749" lon="8.641828990292298"><ele>216.25</ele><time>2026-04-04T13:46:35Z</time></trkpt><trkpt lat="45.89455268575514" lon="8.641638375876523"><ele>216.5</ele><time>2026-04-04T13:46:36Z</time></trkpt><trkpt lat="45.89459908961174" lon="8.64143554627934"><ele>216.75</ele><time>2026-04-04T13:46:37Z</time></trkpt><trkpt lat="45.894658311133455" lon="8.641266195282395"><ele>217.0</ele><time>2026-04-04T13:46:38Z</time></trkpt><trkpt lat="45.894708565718645" lon="8.64110005103511"><ele>217.0</ele><time>2026-04-04T13:46:39Z</time></trkpt><trkpt lat="45.89476161225516" lon="8.640942774181353"><ele>217.0</ele><time>2026-04-04T13:46:40Z</time></trkpt><trkpt lat="45.89481296828118" lon="8.640788384224166"><ele>217.0</ele><time>2026-04-04T13:46:41Z</time></trkpt><trkpt lat="45.89486738709582" lon="8.640628841488677"><ele>217.0</ele><time>2026-04-04T13:46:42Z</time></trkpt><trkpt lat="45.894931771964146" lon="8.64048208392436"><ele>217.0</ele><time>2026-04-04T13:46:43Z</time></trkpt><trkpt lat="45.894968459372585" lon="8.640323158125593"><ele>217.0</ele><time>2026-04-04T13:46:44Z</time></trkpt><trkpt lat="45.89501120575025" lon="8.640191108958277"><ele>217.0</ele><time>2026-04-04T13:46:45Z</time></trkpt><trkpt lat="45.895046902198395" lon="8.640080213797345"><ele>217.0</ele><time>2026-04-04T13:46:46Z</time></trkpt><trkpt lat="45.89507638291468" lon="8.639981172503067"><ele>217.0</ele><time>2026-04-04T13:46:47Z</time></trkpt><trkpt lat="45.895122719313896" lon="8.639895187184894"><ele>216.75</ele><time>2026-04-04T13:46:48Z</time></trkpt><trkpt lat="45.89513851036481" lon="8.639758029893143"><ele>216.5</ele><time>2026-04-04T13:46:50Z</time></trkpt><trkpt lat="45.89519648143551" lon="8.639579906561211"><ele>216.25</ele><time>2026-04-04T13:46:52Z</time></trkpt><trkpt lat="45.89525151755963" lon="8.639433437696328"><ele>216.0</ele><time>2026-04-04T13:46:53Z</time></trkpt><trkpt lat="45.89529327804329" lon="8.639271624818807"><ele>215.75</ele><time>2026-04-04T13:46:54Z</time></trkpt><trkpt lat="45.89533280569189" lon="8.639083079148723"><ele>215.5</ele><time>2026-04-04T13:46:55Z</time></trkpt><trkpt lat="45.89536606817526" lon="8.638880125589036"><ele>215.25</ele><time>2026-04-04T13:46:56Z</time></trkpt><trkpt lat="45.89539985986769" lon="8.638663188479239"><ele>215.0</ele><time>2026-04-04T13:46:57Z</time></trkpt><trkpt lat="45.89543473495173" lon="8.638449529137153"><ele>215.0</ele><time>2026-04-04T13:46:58Z</time></trkpt><trkpt lat="45.89546732708062" lon="8.638249858227363"><ele>215.0</ele><time>2026-04-04T13:46:59Z</time></trkpt><trkpt lat="45.89549820692178" lon="8.638056067704799"><ele>215.0</ele><time>2026-04-04T13:47:00Z</time></trkpt><trkpt lat="45.8955232187463" lon="8.637886070379784"><ele>215.0</ele><time>2026-04-04T13:47:01Z</time></trkpt><trkpt lat="45.89556679926503" lon="8.637761924738664"><ele>215.0</ele><time>2026-04-04T13:47:02Z</time></trkpt><trkpt lat="45.8955698208546" lon="8.637612479349025"><ele>215.0</ele><time>2026-04-04T13:47:03Z</time></trkpt><trkpt lat="45.895599261990725" lon="8.637510791013709"><ele>215.0</ele><time>2026-04-04T13:47:06Z</time></trkpt><trkpt lat="45.89555660838383" lon="8.637371370996386"><ele>215.0</ele><time>2026-04-04T13:47:10Z</time></trkpt><trkpt lat="45.895541006547916" lon="8.637263827654632"><ele>215.0</ele><time>2026-04-04T13:47:11Z</time></trkpt><trkpt lat="45.895519230147194" lon="8.637143253663726"><ele>215.0</ele><time>2026-04-04T13:47:12Z</time></trkpt><trkpt lat="45.895494190933725" lon="8.63700461500143"><ele>215.0</ele><time>2026-04-04T13:47:14Z</time></trkpt><trkpt lat="45.895697241804335" lon="8.636852495166082"><ele>215.0</ele><time>2026-04-04T13:47:15Z</time></trkpt><trkpt lat="45.89579966195372" lon="8.636734166033953"><ele>214.0</ele><time>2026-04-04T13:47:16Z</time></trkpt><trkpt lat="45.89587890016001" lon="8.63655656924584"><ele>213.0</ele><time>2026-04-04T13:47:17Z</time></trkpt><trkpt lat="45.895959052576615" lon="8.636373541742786"><ele>212.0</ele><time>2026-04-04T13:47:18Z</time></trkpt><trkpt lat="45.896038424447376" lon="8.636179918702991"><ele>213.33333333333334</ele><time>2026-04-04T13:47:19Z</time></trkpt><trkpt lat="45.89612363678414" lon="8.635987312999198"><ele>214.66666666666669</ele><time>2026-04-04T13:47:20Z</time></trkpt><trkpt lat="45.8962086693954" lon="8.635797156468882"><ele>216.0</ele><time>2026-04-04T13:47:21Z</time></trkpt><trkpt lat="45.89629220330643" lon="8.63560924096414"><ele>216.0</ele><time>2026-04-04T13:47:22Z</time></trkpt><trkpt lat="45.89636993261464" lon="8.635436481478916"><ele>216.0</ele><time>2026-04-04T13:47:23Z</time></trkpt><trkpt lat="45.896432229043526" lon="8.635263253059678"><ele>216.0</ele><time>2026-04-04T13:47:24Z</time></trkpt><trkpt lat="45.89647323744535" lon="8.635087469883635"><ele>216.0</ele><time>2026-04-04T13:47:25Z</time></trkpt><trkpt lat="45.896518462672276" lon="8.63488897061981"><ele>216.33333333333331</ele><time>2026-04-04T13:47:26Z</time></trkpt><trkpt lat="45.89654265685916" lon="8.634672576814244"><ele>216.66666666666666</ele><time>2026-04-04T13:47:27Z</time></trkpt><trkpt lat="45.89657364088713" lon="8.634457936179174"><ele>217.0</ele><time>2026-04-04T13:47:28Z</time></trkpt><trkpt lat="45.89661448817271" lon="8.634236548745015"><ele>217.33333333333331</ele><time>2026-04-04T13:47:29Z</time></trkpt><trkpt lat="45.89665086338996" lon="8.634006527125372"><ele>217.66666666666669</ele><time>2026-04-04T13:47:30Z</time></trkpt><trkpt lat="45.896689779878244" lon="8.63377391466087"><ele>218.0</ele><time>2026-04-04T13:47:31Z</time></trkpt><trkpt lat="45.89673003737403" lon="8.633543718885912"><ele>215.33333333333334</ele><time>2026-04-04T13:47:32Z</time></trkpt><trkpt lat="45.89677079431651" lon="8.63330332431211"><ele>212.66666666666669</ele><time>2026-04-04T13:47:33Z</time></trkpt><trkpt lat="45.89681168909219" lon="8.633060875834001"><ele>210.0</ele><time>2026-04-04T13:47:34Z</time></trkpt><trkpt lat="45.896851599643625" lon="8.632813126151314"><ele>210.0</ele><time>2026-04-04T13:47:35Z</time></trkpt><trkpt lat="45.896892725511506" lon="8.632568189298212"><ele>210.0</ele><time>2026-04-04T13:47:36Z</time></trkpt><trkpt lat="45.89693218179491" lon="8.63232449624022"><ele>210.0</ele><time>2026-04-04T13:47:37Z</time></trkpt><trkpt lat="45.89697763735075" lon="8.632087103198186"><ele>210.33333333333331</ele><time>2026-04-04T13:47:38Z</time></trkpt><trkpt lat="45.89701930192747" lon="8.63184380231359"><ele>210.66666666666666</ele><time>2026-04-04T13:47:39Z</time></trkpt><trkpt lat="45.897062535501384" lon="8.631608530280703"><ele>211.0</ele><time>2026-04-04T13:47:40Z</time></trkpt><trkpt lat="45.897103076973586" lon="8.631368592621392"><ele>211.33333333333331</ele><time>2026-04-04T13:47:41Z</time></trkpt><trkpt lat="45.89714225520913" lon="8.631127867095081"><ele>211.66666666666669</ele><time>2026-04-04T13:47:42Z</time></trkpt><trkpt lat="45.89718251958192" lon="8.630876561605412"><ele>212.0</ele><time>2026-04-04T13:47:43Z</time></trkpt><trkpt lat="45.89722264185058" lon="8.630639803654832"><ele>212.0</ele><time>2026-04-04T13:47:44Z</time></trkpt><trkpt lat="45.89726222175762" lon="8.630400470989038"><ele>212.0</ele><time>2026-04-04T13:47:45Z</time></trkpt><trkpt lat="45.8973028706101" lon="8.630155510219277"><ele>212.0</ele><time>2026-04-04T13:47:46Z</time></trkpt><trkpt lat="45.89734387043678" lon="8.629915671316471"><ele>212.66666666666669</ele><time>2026-04-04T13:47:46.998Z</time></trkpt><trkpt lat="45.89738123616601" lon="8.629673512510132"><ele>213.33333333333331</ele><time>2026-04-04T13:47:47.998Z</time></trkpt><trkpt lat="45.89741914531435" lon="8.629433935249248"><ele>214.0</ele><time>2026-04-04T13:47:48.998Z</time></trkpt><trkpt lat="45.89745635757655" lon="8.629194638148105"><ele>215.0</ele><time>2026-04-04T13:47:49.998Z</time></trkpt><trkpt lat="45.897507868520286" lon="8.628953962333075"><ele>216.0</ele><time>2026-04-04T13:47:50.998Z</time></trkpt><trkpt lat="45.89758712676221" lon="8.628743036701248"><ele>217.0</ele><time>2026-04-04T13:47:51.998Z</time></trkpt><trkpt lat="45.89770355797014" lon="8.62855658129211"><ele>213.66666666666666</ele><time>2026-04-04T13:47:52.998Z</time></trkpt><trkpt lat="45.89783162178575" lon="8.628387515424"><ele>210.33333333333331</ele><time>2026-04-04T13:47:53.998Z</time></trkpt><trkpt lat="45.89797126346272" lon="8.628235482213421"><ele>207.0</ele><time>2026-04-04T13:47:54.998Z</time></trkpt><trkpt lat="45.89811786075731" lon="8.628103024345082"><ele>207.0</ele><time>2026-04-04T13:47:55.999Z</time></trkpt><trkpt lat="45.89826784733171" lon="8.627977266085537"><ele>207.0</ele><time>2026-04-04T13:47:56.999Z</time></trkpt><trkpt lat="45.89842218403258" lon="8.627863375666411"><ele>207.0</ele><time>2026-04-04T13:47:57.999Z</time></trkpt><trkpt lat="45.89858344033096" lon="8.627752806337872"><ele>206.66666666666669</ele><time>2026-04-04T13:47:58.999Z</time></trkpt><trkpt lat="45.89873652264556" lon="8.62763778056798"><ele>206.33333333333334</ele><time>2026-04-04T13:47:59.999Z</time></trkpt><trkpt lat="45.89888981428333" lon="8.627522911040364"><ele>206.0</ele><time>2026-04-04T13:48:00.999Z</time></trkpt><trkpt lat="45.899044323710356" lon="8.627407410675804"><ele>206.0</ele><time>2026-04-04T13:48:01.999Z</time></trkpt><trkpt lat="45.89918477162609" lon="8.627298119553823"><ele>206.0</ele><time>2026-04-04T13:48:02.999Z</time></trkpt><trkpt lat="45.89931935703053" lon="8.62719656544455"><ele>206.0</ele><time>2026-04-04T13:48:03.999Z</time></trkpt><trkpt lat="45.89945689684159" lon="8.62710278993116"><ele>206.0</ele><time>2026-04-04T13:48:04.999Z</time></trkpt><trkpt lat="45.899592506216486" lon="8.62699608076581"><ele>206.0</ele><time>2026-04-04T13:48:05.999Z</time></trkpt><trkpt lat="45.89971768307781" lon="8.626899372914295"><ele>206.0</ele><time>2026-04-04T13:48:06.999Z</time></trkpt><trkpt lat="45.899845301094885" lon="8.626802064862234"><ele>206.0</ele><time>2026-04-04T13:48:07.999Z</time></trkpt><trkpt lat="45.899980705831695" lon="8.626711069225317"><ele>206.0</ele><time>2026-04-04T13:48:08.999Z</time></trkpt><trkpt lat="45.90011881742578" lon="8.626615229587523"><ele>206.0</ele><time>2026-04-04T13:48:09.999Z</time></trkpt><trkpt lat="45.9002582593751" lon="8.626515669272415"><ele>206.0</ele><time>2026-04-04T13:48:10.999Z</time></trkpt><trkpt lat="45.90040556955944" lon="8.626410641476868"><ele>206.0</ele><time>2026-04-04T13:48:11.999Z</time></trkpt><trkpt lat="45.9005575211753" lon="8.626305962086102"><ele>206.0</ele><time>2026-04-04T13:48:12.999Z</time></trkpt><trkpt lat="45.90071308508374" lon="8.626198251901402"><ele>206.0</ele><time>2026-04-04T13:48:13.999Z</time></trkpt><trkpt lat="45.90087064978905" lon="8.626089324602587"><ele>205.66666666666669</ele><time>2026-04-04T13:48:14.999Z</time></trkpt><trkpt lat="45.901024698412705" lon="8.625982574512623"><ele>205.33333333333331</ele><time>2026-04-04T13:48:15.999Z</time></trkpt><trkpt lat="45.90118022249179" lon="8.625861614089049"><ele>205.0</ele><time>2026-04-04T13:48:16.999Z</time></trkpt><trkpt lat="45.901337182650025" lon="8.625760766995413"><ele>205.0</ele><time>2026-04-04T13:48:17.999Z</time></trkpt><trkpt lat="45.90150350452521" lon="8.625678435217761"><ele>205.0</ele><time>2026-04-04T13:48:18.999Z</time></trkpt><trkpt lat="45.90167441495418" lon="8.625613750142739"><ele>205.0</ele><time>2026-04-04T13:48:19.999Z</time></trkpt><trkpt lat="45.90182390611559" lon="8.62557142986195"><ele>204.25</ele><time>2026-04-04T13:48:20.999Z</time></trkpt><trkpt lat="45.90194496140933" lon="8.625555021317826"><ele>203.5</ele><time>2026-04-04T13:48:21.999Z</time></trkpt><trkpt lat="45.90206011985979" lon="8.62556343387761"><ele>202.75</ele><time>2026-04-04T13:48:22.999Z</time></trkpt><trkpt lat="45.90217032149946" lon="8.625560885913105"><ele>202.0</ele><time>2026-04-04T13:48:23.999Z</time></trkpt><trkpt lat="45.902290853468706" lon="8.62553970797498"><ele>202.0</ele><time>2026-04-04T13:48:24.999Z</time></trkpt><trkpt lat="45.90240807542761" lon="8.625526537220015"><ele>202.0</ele><time>2026-04-04T13:48:25.999Z</time></trkpt><trkpt lat="45.90251553153562" lon="8.625511674935629"><ele>202.0</ele><time>2026-04-04T13:48:26.999Z</time></trkpt><trkpt lat="45.90262287156162" lon="8.625494828499647"><ele>202.0</ele><time>2026-04-04T13:48:27.999Z</time></trkpt><trkpt lat="45.90271709941978" lon="8.625479378325231"><ele>202.0</ele><time>2026-04-04T13:48:28.999Z</time></trkpt><trkpt lat="45.902807714077426" lon="8.625467981684686"><ele>201.99999999999997</ele><time>2026-04-04T13:48:29.999Z</time></trkpt><trkpt lat="45.90288678707428" lon="8.625458815872406"><ele>202.0</ele><time>2026-04-04T13:48:30.999Z</time></trkpt><trkpt lat="45.902960026984324" lon="8.625450914188905"><ele>202.0</ele><time>2026-04-04T13:48:31.999Z</time></trkpt><trkpt lat="45.9030383464357" lon="8.625443241925154"><ele>202.0</ele><time>2026-04-04T13:48:32.999Z</time></trkpt><trkpt lat="45.90311650576667" lon="8.625434164926908"><ele>201.99999999999997</ele><time>2026-04-04T13:48:33.999Z</time></trkpt><trkpt lat="45.90323111554901" lon="8.625438483035788"><ele>202.0</ele><time>2026-04-04T13:48:36Z</time></trkpt><trkpt lat="45.90334377848911" lon="8.62542094776769"><ele>202.2</ele><time>2026-04-04T13:48:38Z</time></trkpt><trkpt lat="45.903434103860384" lon="8.625396368818917"><ele>202.39999999999998</ele><time>2026-04-04T13:48:40Z</time></trkpt><trkpt lat="45.903528898842794" lon="8.625366969853468"><ele>202.60000000000002</ele><time>2026-04-04T13:48:42Z</time></trkpt><trkpt lat="45.903648901705004" lon="8.625327593262986"><ele>202.8</ele><time>2026-04-04T13:48:44Z</time></trkpt><trkpt lat="45.90375643921439" lon="8.625292306930117"><ele>203.0</ele><time>2026-04-04T13:48:46Z</time></trkpt><trkpt lat="45.903843323877126" lon="8.625263057416795"><ele>203.00000000000003</ele><time>2026-04-04T13:48:48Z</time></trkpt><trkpt lat="45.90391576913968" lon="8.625238580177106"><ele>203.0</ele><time>2026-04-04T13:48:50Z</time></trkpt><trkpt lat="45.904008127234064" lon="8.62520737491914"><ele>203.0</ele><time>2026-04-04T13:48:53Z</time></trkpt><trkpt lat="45.9040903058369" lon="8.625175810672557"><ele>203.0</ele><time>2026-04-04T13:48:56Z</time></trkpt><trkpt lat="45.90419021363171" lon="8.625145853261978"><ele>203.00000000000003</ele><time>2026-04-04T13:49:08Z</time></trkpt><trkpt lat="45.904257087321405" lon="8.62512281118205"><ele>203.0</ele><time>2026-04-04T13:49:09Z</time></trkpt><trkpt lat="45.90433517782339" lon="8.625096078973131"><ele>203.0</ele><time>2026-04-04T13:49:10Z</time></trkpt><trkpt lat="45.90442794522796" lon="8.625064582111893"><ele>203.0</ele><time>2026-04-04T13:49:11Z</time></trkpt><trkpt lat="45.904529067596954" lon="8.625025468414524"><ele>203.0</ele><time>2026-04-04T13:49:12Z</time></trkpt><trkpt lat="45.904631246515315" lon="8.624977036653396"><ele>203.0</ele><time>2026-04-04T13:49:13Z</time></trkpt><trkpt lat="45.904728240102585" lon="8.62489604324353"><ele>203.0</ele><time>2026-04-04T13:49:14Z</time></trkpt><trkpt lat="45.904819987581796" lon="8.624813639902827"><ele>203.0</ele><time>2026-04-04T13:49:15Z</time></trkpt><trkpt lat="45.90487207957877" lon="8.624688454670999"><ele>203.0</ele><time>2026-04-04T13:49:16Z</time></trkpt><trkpt lat="45.904888941483" lon="8.624548810966875"><ele>203.0</ele><time>2026-04-04T13:49:17Z</time></trkpt><trkpt lat="45.90487409859458" lon="8.624388258925553"><ele>203.0</ele><time>2026-04-04T13:49:18Z</time></trkpt><trkpt lat="45.9048556704565" lon="8.624236439481864"><ele>203.0</ele><time>2026-04-04T13:49:19Z</time></trkpt><trkpt lat="45.90484023813321" lon="8.62410662921418"><ele>202.8</ele><time>2026-04-04T13:49:20Z</time></trkpt><trkpt lat="45.90483406940836" lon="8.623997881975175"><ele>202.60000000000002</ele><time>2026-04-04T13:49:21Z</time></trkpt><trkpt lat="45.90498208971917" lon="8.623886925628657"><ele>202.39999999999998</ele><time>2026-04-04T13:49:24Z</time></trkpt><trkpt lat="45.90507542881217" lon="8.62388578870981"><ele>202.2</ele><time>2026-04-04T13:49:25Z</time></trkpt><trkpt lat="45.905179163846434" lon="8.623869661236759"><ele>202.0</ele><time>2026-04-04T13:49:26Z</time></trkpt><trkpt lat="45.90529760451352" lon="8.623831406517297"><ele>202.0</ele><time>2026-04-04T13:49:27Z</time></trkpt><trkpt lat="45.90541509197438" lon="8.623766847656823"><ele>202.0</ele><time>2026-04-04T13:49:28Z</time></trkpt><trkpt lat="45.905538159283914" lon="8.623692826577624"><ele>202.0</ele><time>2026-04-04T13:49:29Z</time></trkpt><trkpt lat="45.90565734012596" lon="8.623624141735538"><ele>202.0</ele><time>2026-04-04T13:49:30Z</time></trkpt><trkpt lat="45.90575647356826" lon="8.62356278284905"><ele>201.99999999999997</ele><time>2026-04-04T13:49:31Z</time></trkpt><trkpt lat="45.905822147959626" lon="8.62349128149154"><ele>202.0</ele><time>2026-04-04T13:49:32Z</time></trkpt><trkpt lat="45.90589200522686" lon="8.62341904369955"><ele>202.0</ele><time>2026-04-04T13:49:33Z</time></trkpt><trkpt lat="45.90596348154859" lon="8.62334850915435"><ele>202.0</ele><time>2026-04-04T13:49:34Z</time></trkpt><trkpt lat="45.9060316921598" lon="8.6232710967638"><ele>201.99999999999997</ele><time>2026-04-04T13:49:35Z</time></trkpt><trkpt lat="45.90609673544072" lon="8.623196147667397"><ele>202.0</ele><time>2026-04-04T13:49:36Z</time></trkpt><trkpt lat="45.90616148396235" lon="8.62311945506618"><ele>201.99999999999997</ele><time>2026-04-04T13:49:37Z</time></trkpt><trkpt lat="45.90622474775636" lon="8.62303467748238"><ele>202.0</ele><time>2026-04-04T13:49:38Z</time></trkpt><trkpt lat="45.90628381094342" lon="8.622949552989393"><ele>202.0</ele><time>2026-04-04T13:49:39Z</time></trkpt><trkpt lat="45.906335970161074" lon="8.622882971030654"><ele>202.0</ele><time>2026-04-04T13:49:40Z</time></trkpt><trkpt lat="45.90642542776081" lon="8.622756666210215"><ele>201.99999999999997</ele><time>2026-04-04T13:49:42Z</time></trkpt><trkpt lat="45.90647824470294" lon="8.622675591254284"><ele>202.0</ele><time>2026-04-04T13:49:46Z</time></trkpt><trkpt lat="45.9065208870293" lon="8.622590609908269"><ele>202.0</ele><time>2026-04-04T13:49:49Z</time></trkpt><trkpt lat="45.9065780346181" lon="8.622466849348807"><ele>202.0</ele><time>2026-04-04T13:49:52Z</time></trkpt><trkpt lat="45.906631761032756" lon="8.622353811611102"><ele>202.0</ele><time>2026-04-04T13:49:53.998Z</time></trkpt><trkpt lat="45.9066826954827" lon="8.622212946329494"><ele>202.0</ele><time>2026-04-04T13:49:55.998Z</time></trkpt><trkpt lat="45.90672836815657" lon="8.62209134168262"><ele>202.0</ele><time>2026-04-04T13:49:57.998Z</time></trkpt><trkpt lat="45.90677838465515" lon="8.621968891677936"><ele>202.2</ele><time>2026-04-04T13:49:59.999Z</time></trkpt><trkpt lat="45.90682822288541" lon="8.621853293131169"><ele>202.39999999999998</ele><time>2026-04-04T13:50:01.999Z</time></trkpt><trkpt lat="45.90685941351115" lon="8.62174902740715"><ele>202.60000000000002</ele><time>2026-04-04T13:50:03.999Z</time></trkpt><trkpt lat="45.906895721382234" lon="8.621624285891864"><ele>202.8</ele><time>2026-04-04T13:50:05.999Z</time></trkpt><trkpt lat="45.90694831808488" lon="8.621454981361396"><ele>203.0</ele><time>2026-04-04T13:50:07.999Z</time></trkpt><trkpt lat="45.90698601724029" lon="8.621292118458253"><ele>202.4</ele><time>2026-04-04T13:50:09.999Z</time></trkpt><trkpt lat="45.90701777705031" lon="8.621147583576095"><ele>201.8</ele><time>2026-04-04T13:50:11.999Z</time></trkpt><trkpt lat="45.90706118314306" lon="8.620964978392495"><ele>201.2</ele><time>2026-04-04T13:50:13.999Z</time></trkpt><trkpt lat="45.907089039230414" lon="8.620856556928564"><ele>200.6</ele><time>2026-04-04T13:50:14.999Z</time></trkpt><trkpt lat="45.9071077660886" lon="8.620736250788807"><ele>200.0</ele><time>2026-04-04T13:50:15.999Z</time></trkpt><trkpt lat="45.907124498421055" lon="8.620600909978275"><ele>200.0</ele><time>2026-04-04T13:50:16.999Z</time></trkpt><trkpt lat="45.90715907274169" lon="8.62046852488678"><ele>200.0</ele><time>2026-04-04T13:50:17.999Z</time></trkpt><trkpt lat="45.90719669825169" lon="8.62032385933915"><ele>200.0</ele><time>2026-04-04T13:50:18.999Z</time></trkpt><trkpt lat="45.90723515468171" lon="8.62017594428677"><ele>200.0</ele><time>2026-04-04T13:50:19.999Z</time></trkpt><trkpt lat="45.907275497358576" lon="8.620023916892077"><ele>200.0</ele><time>2026-04-04T13:50:20.999Z</time></trkpt><trkpt lat="45.90731224498266" lon="8.619872185432229"><ele>199.5</ele><time>2026-04-04T13:50:21.999Z</time></trkpt><trkpt lat="45.907369686304314" lon="8.61973321795751"><ele>199.0</ele><time>2026-04-04T13:50:22.999Z</time></trkpt><trkpt lat="45.9074149883481" lon="8.619576050280456"><ele>198.5</ele><time>2026-04-04T13:50:23.999Z</time></trkpt><trkpt lat="45.9074762650954" lon="8.619438267441211"><ele>198.0</ele><time>2026-04-04T13:50:24.999Z</time></trkpt><trkpt lat="45.90753972282329" lon="8.61931229589235"><ele>198.60000000000002</ele><time>2026-04-04T13:50:25.999Z</time></trkpt><trkpt lat="45.90759296363183" lon="8.619186474285216"><ele>199.20000000000002</ele><time>2026-04-04T13:50:26.999Z</time></trkpt><trkpt lat="45.907649340470826" lon="8.619062610953849"><ele>199.8</ele><time>2026-04-04T13:50:27.999Z</time></trkpt><trkpt lat="45.90769687249829" lon="8.61894518825268"><ele>200.4</ele><time>2026-04-04T13:50:29Z</time></trkpt><trkpt lat="45.907739175827366" lon="8.6188378205275"><ele>201.0</ele><time>2026-04-04T13:50:30Z</time></trkpt><trkpt lat="45.90778370255205" lon="8.618727809044312"><ele>200.57142857142856</ele><time>2026-04-04T13:50:31Z</time></trkpt><trkpt lat="45.90782069342774" lon="8.61863510316311"><ele>200.14285714285717</ele><time>2026-04-04T13:50:32Z</time></trkpt><trkpt lat="45.90786053220565" lon="8.618531813215654"><ele>199.71428571428572</ele><time>2026-04-04T13:50:33Z</time></trkpt><trkpt lat="45.907899591375916" lon="8.618442997875052"><ele>199.28571428571428</ele><time>2026-04-04T13:50:34Z</time></trkpt><trkpt lat="45.90793720165969" lon="8.618356889255203"><ele>198.85714285714283</ele><time>2026-04-04T13:50:35Z</time></trkpt><trkpt lat="45.907975050980376" lon="8.61827216213596"><ele>198.42857142857144</ele><time>2026-04-04T13:50:36Z</time></trkpt><trkpt lat="45.90801093693499" lon="8.618189244274166"><ele>198.0</ele><time>2026-04-04T13:50:37Z</time></trkpt><trkpt lat="45.908042511141666" lon="8.61811071514157"><ele>198.0</ele><time>2026-04-04T13:50:38Z</time></trkpt><trkpt lat="45.90807781719415" lon="8.618024450237156"><ele>198.0</ele><time>2026-04-04T13:50:39Z</time></trkpt><trkpt lat="45.908114740571335" lon="8.617943692444221"><ele>198.0</ele><time>2026-04-04T13:50:40Z</time></trkpt><trkpt lat="45.90815605202206" lon="8.617873475393358"><ele>198.0</ele><time>2026-04-04T13:50:41Z</time></trkpt><trkpt lat="45.90821990088114" lon="8.61782579394397"><ele>198.0</ele><time>2026-04-04T13:50:42Z</time></trkpt><trkpt lat="45.90829880976427" lon="8.61780784786579"><ele>198.0</ele><time>2026-04-04T13:50:43Z</time></trkpt><trkpt lat="45.90837313304063" lon="8.617835295558555"><ele>198.0</ele><time>2026-04-04T13:50:44Z</time></trkpt><trkpt lat="45.90843375535561" lon="8.617912824813276"><ele>197.71428571428572</ele><time>2026-04-04T13:50:45Z</time></trkpt><trkpt lat="45.908503983921705" lon="8.617974264398748"><ele>197.42857142857142</ele><time>2026-04-04T13:50:46Z</time></trkpt><trkpt lat="45.908574117341985" lon="8.618018478813541"><ele>197.14285714285714</ele><time>2026-04-04T13:50:47Z</time></trkpt><trkpt lat="45.908630235904916" lon="8.618080746650776"><ele>196.85714285714286</ele><time>2026-04-04T13:50:48Z</time></trkpt><trkpt lat="45.90867180055563" lon="8.618156386129874"><ele>196.57142857142856</ele><time>2026-04-04T13:50:49Z</time></trkpt><trkpt lat="45.9086980482705" lon="8.618252187220882"><ele>196.28571428571428</ele><time>2026-04-04T13:50:50Z</time></trkpt><trkpt lat="45.908704180399084" lon="8.618347343185059"><ele>196.0</ele><time>2026-04-04T13:50:51Z</time></trkpt><trkpt lat="45.9087072845165" lon="8.618438780548306"><ele>195.99999999999997</ele><time>2026-04-04T13:50:52Z</time></trkpt><trkpt lat="45.908709368965226" lon="8.618538491845154"><ele>196.0</ele><time>2026-04-04T13:50:53Z</time></trkpt><trkpt lat="45.90869328456682" lon="8.61867283684574"><ele>196.0</ele><time>2026-04-04T13:50:55Z</time></trkpt><trkpt lat="45.90868452231547" lon="8.618826353389649"><ele>196.0</ele><time>2026-04-04T13:51:01Z</time></trkpt><trkpt lat="45.90872191454463" lon="8.618941745915768"><ele>195.99999999999997</ele><time>2026-04-04T13:51:03Z</time></trkpt><trkpt lat="45.9087541814207" lon="8.619037051441854"><ele>196.0</ele><time>2026-04-04T13:51:05Z</time></trkpt><trkpt lat="45.908834792445155" lon="8.618974469785847"><ele>196.16666666666666</ele><time>2026-04-04T13:51:06Z</time></trkpt><trkpt lat="45.90889811274744" lon="8.618993289893686"><ele>196.33333333333331</ele><time>2026-04-04T13:51:08Z</time></trkpt><trkpt lat="45.90896303284598" lon="8.619072139534177"><ele>196.5</ele><time>2026-04-04T13:51:11Z</time></trkpt><trkpt lat="45.90903538675234" lon="8.619107125515775"><ele>196.66666666666669</ele><time>2026-04-04T13:51:20Z</time></trkpt><trkpt lat="45.9091042934356" lon="8.619161585630316"><ele>196.83333333333334</ele><time>2026-04-04T13:51:22Z</time></trkpt><trkpt lat="45.90918802609132" lon="8.619224290139774"><ele>197.0</ele><time>2026-04-04T13:51:24Z</time></trkpt><trkpt lat="45.90924798960284" lon="8.61929382315676"><ele>197.0</ele><time>2026-04-04T13:51:26Z</time></trkpt><trkpt lat="45.90930741131841" lon="8.619326401105527"><ele>197.0</ele><time>2026-04-04T13:51:30Z</time></trkpt><trkpt lat="45.90932956476103" lon="8.619159081286725"><ele>197.0</ele><time>2026-04-04T13:51:31Z</time></trkpt><trkpt lat="45.90933743984367" lon="8.61904569854675"><ele>197.0</ele><time>2026-04-04T13:51:34Z</time></trkpt><trkpt lat="45.90934706643202" lon="8.618946641807332"><ele>197.0</ele><time>2026-04-04T13:51:39.001Z</time></trkpt></trkseg></trk></gpx>